
Distance (Route):
Temperature : 0°C
Humidity : 0%
Pressure : 0hPa| Receiver | Frames | First received | Last received |
|---|---|---|---|
| ATIDSZ-14 | 257 | 2026-08-31 05:12:46 | 2026-08-31 07:03:49 |
| OE3JTB-15 | 241 | 2026-08-31 05:10:37 | 2026-08-31 07:06:15 |
| OE5DRO-10 | 234 | 2026-08-31 05:31:39 | 2026-08-31 06:58:29 |
| OM5KV | 203 | 2026-08-31 05:21:34 | 2026-08-31 05:36:23 |
| PG1ADW-2 | 192 | 2026-08-31 05:34:36 | 2026-08-31 06:58:15 |
| OE5MMP-10 | 192 | 2026-08-31 06:17:14 | 2026-08-31 06:52:23 |
| DO3MHA-11 | 161 | 2026-08-31 06:13:03 | 2026-08-31 06:52:55 |
| POL1PZ | 69 | 2026-08-31 06:06:45 | 2026-08-31 06:56:10 |
| OE5DXL-15 | 64 | 2026-08-31 05:53:01 | 2026-08-31 06:52:59 |
| PETON7-10 | 42 | 2026-08-31 06:54:18 | 2026-08-31 07:04:48 |
| OE5WHR-10 | 40 | 2026-08-31 06:17:37 | 2026-08-31 06:49:00 |
| NBG1-10 | 23 | 2026-08-31 06:32:33 | 2026-08-31 06:47:42 |
| SQ9EZE-15 | 14 | 2026-08-31 06:19:01 | 2026-08-31 06:48:12 |
| GYPAP8-17 | 13 | 2026-08-31 05:58:59 | 2026-08-31 06:48:19 |
| SQ9EZE-14 | 13 | 2026-08-31 06:14:59 | 2026-08-31 06:47:54 |
| OE3OSB-13 | 7 | 2026-08-31 05:14:06 | 2026-08-31 06:54:07 |
| S52SK | 4 | 2026-08-31 05:24:51 | 2026-08-31 05:32:47 |
| SQ9EZE-16 | 1 | 2026-08-31 06:17:16 | 2026-08-31 06:17:16 |
| Receiver | Date | Latitude | Longitude | Direction | Speed | Altitude | Climb | Temperature | Humidity | Pressure | Voltage | Killtimer | Uptime | BKT | XDATA |
|---|---|---|---|---|---|---|---|---|---|---|---|---|---|---|---|
| OE3JTB-15 | 2026-08-31 07:06:15 | 48.81887 | 18.40089 | 11° | 31km/h | 1535m | -13.6m/s | 0°C | 0% | 0hPa | 0V | 00:00:00 | 00:00:00 | 00:00:00 | |
| OE3JTB-15 | 2026-08-31 07:06:13 | 48.81871 | 18.40084 | 14° | 33km/h | 1562m | -13.5m/s | 0°C | 0% | 0hPa | 0V | 00:00:00 | 00:00:00 | 00:00:00 | |
| OE3JTB-15 | 2026-08-31 07:06:11 | 48.81855 | 18.40077 | 20° | 35km/h | 1590m | -13.8m/s | 0°C | 0% | 0hPa | 0V | 00:00:00 | 00:00:00 | 00:00:00 | |
| OE3JTB-15 | 2026-08-31 07:06:09 | 48.81839 | 18.40069 | 20° | 33km/h | 1617m | -13.8m/s | 0°C | 0% | 0hPa | 0V | 00:00:00 | 00:00:00 | 00:00:00 | |
| OE3JTB-15 | 2026-08-31 07:06:07 | 48.81823 | 18.40063 | 10° | 37km/h | 1645m | -13.9m/s | 0°C | 0% | 0hPa | 0V | 00:00:00 | 00:00:00 | 00:00:00 | |
| OE3JTB-15 | 2026-08-31 07:06:05 | 48.81804 | 18.40058 | 15° | 38km/h | 1673m | -13.8m/s | 0°C | 0% | 0hPa | 0V | 00:00:00 | 00:00:00 | 00:00:00 | |
| OE3JTB-15 | 2026-08-31 07:06:03 | 48.81785 | 18.40049 | 17° | 38km/h | 1701m | -13.7m/s | 0°C | 0% | 0hPa | 0V | 00:00:00 | 00:00:00 | 00:00:00 | |
| OE3JTB-15 | 2026-08-31 07:06:01 | 48.81768 | 18.40042 | 13° | 33km/h | 1729m | -13.9m/s | 0°C | 0% | 0hPa | 0V | 00:00:00 | 00:00:00 | 00:00:00 | |
| OE3JTB-15 | 2026-08-31 07:05:59 | 48.81751 | 18.40036 | 12° | 37km/h | 1756m | -14.0m/s | 0°C | 0% | 0hPa | 0V | 00:00:00 | 00:00:00 | 00:00:00 | |
| OE3JTB-15 | 2026-08-31 07:05:57 | 48.81732 | 18.40030 | 19° | 40km/h | 1785m | -13.7m/s | 0°C | 0% | 0hPa | 0V | 00:00:00 | 00:00:00 | 00:00:00 | |
| OE3JTB-15 | 2026-08-31 07:05:55 | 48.81712 | 18.40020 | 21° | 40km/h | 1812m | -13.9m/s | 0°C | 0% | 0hPa | 0V | 00:00:00 | 00:00:00 | 00:00:00 | |
| OE3JTB-15 | 2026-08-31 07:05:53 | 48.81694 | 18.40009 | 21° | 38km/h | 1840m | -13.9m/s | 0°C | 0% | 0hPa | 0V | 00:00:00 | 00:00:00 | 00:00:00 | |
| OE3JTB-15 | 2026-08-31 07:05:51 | 48.81675 | 18.40001 | 13° | 42km/h | 1868m | -13.9m/s | 0°C | 0% | 0hPa | 0V | 00:00:00 | 00:00:00 | 00:00:00 | |
| OE3JTB-15 | 2026-08-31 07:05:49 | 48.81653 | 18.39992 | 17° | 44km/h | 1896m | -13.9m/s | 0°C | 0% | 0hPa | 0V | 00:00:00 | 00:00:00 | 00:00:00 | |
| OE3JTB-15 | 2026-08-31 07:05:47 | 48.81633 | 18.39982 | 21° | 42km/h | 1924m | -14.1m/s | 0°C | 0% | 0hPa | 0V | 00:00:00 | 00:00:00 | 00:00:00 | |
| OE3JTB-15 | 2026-08-31 07:05:43 | 48.81596 | 18.39962 | 17° | 40km/h | 1980m | -14.0m/s | 0°C | 0% | 0hPa | 0V | 00:00:00 | 00:00:00 | 00:00:00 | |
| OE3JTB-15 | 2026-08-31 07:05:41 | 48.81576 | 18.39953 | 18° | 42km/h | 2009m | -14.1m/s | 0°C | 0% | 0hPa | 0V | 00:00:00 | 00:00:00 | 00:00:00 | |
| OE3JTB-15 | 2026-08-31 07:05:39 | 48.81557 | 18.39943 | 22° | 38km/h | 2037m | -14.1m/s | 0°C | 0% | 0hPa | 0V | 00:00:00 | 00:00:00 | 00:00:00 | |
| OE3JTB-15 | 2026-08-31 07:05:37 | 48.81539 | 18.39934 | 8° | 38km/h | 2065m | -14.1m/s | 0°C | 0% | 0hPa | 0V | 00:00:00 | 00:00:00 | 00:00:00 | |
| OE3JTB-15 | 2026-08-31 07:05:35 | 48.81519 | 18.39930 | 8° | 42km/h | 2093m | -14.2m/s | 0°C | 0% | 0hPa | 0V | 00:00:00 | 00:00:00 | 00:00:00 | |
| OE3JTB-15 | 2026-08-31 07:05:33 | 48.81498 | 18.39927 | 7° | 44km/h | 2122m | -13.9m/s | 0°C | 0% | 0hPa | 0V | 00:00:00 | 00:00:00 | 00:00:00 | |
| OE3JTB-15 | 2026-08-31 07:05:31 | 48.81476 | 18.39923 | 6° | 44km/h | 2150m | -14.0m/s | 0°C | 0% | 0hPa | 0V | 00:00:00 | 00:00:00 | 00:00:00 | |
| OE3JTB-15 | 2026-08-31 07:05:29 | 48.81454 | 18.39920 | 4° | 42km/h | 2178m | -14.0m/s | 0°C | 0% | 0hPa | 0V | 00:00:00 | 00:00:00 | 00:00:00 | |
| OE3JTB-15 | 2026-08-31 07:05:27 | 48.81433 | 18.39918 | 4° | 38km/h | 2207m | -14.2m/s | 0°C | 0% | 0hPa | 0V | 00:00:00 | 00:00:00 | 00:00:00 | |
| OE3JTB-15 | 2026-08-31 07:05:18 | 48.81345 | 18.39916 | 1° | 35km/h | 2333m | -14.2m/s | 0°C | 0% | 0hPa | 0V | 00:00:00 | 00:00:00 | 00:00:00 | |
| OE3JTB-15 | 2026-08-31 07:05:09 | 48.81265 | 18.39917 | 360° | 27km/h | 2462m | -14.1m/s | 0°C | 0% | 0hPa | 0V | 00:00:00 | 00:00:00 | 00:00:00 | |
| OE3JTB-15 | 2026-08-31 07:05:00 | 48.81203 | 18.39910 | 5° | 24km/h | 2590m | -14.0m/s | 0°C | 0% | 0hPa | 0V | 00:00:00 | 00:00:00 | 00:00:00 | |
| OE3JTB-15 | 2026-08-31 07:04:51 | 48.81149 | 18.39895 | 5° | 22km/h | 2718m | -14.4m/s | 0°C | 0% | 0hPa | 0V | 00:00:00 | 00:00:00 | 00:00:00 | |
| PETON7-10 | 2026-08-31 07:04:48 | 48.81131 | 18.39888 | 26° | 20km/h | 2761m | -14.4m/s | 0°C | 0% | 0hPa | 0V | 00:00:00 | 00:00:00 | 00:00:00 | |
| OE3JTB-15 | 2026-08-31 07:04:41 | 48.81097 | 18.39868 | 22° | 20km/h | 2848m | -14.4m/s | 0°C | 0% | 0hPa | 0V | 00:00:00 | 00:00:00 | 00:00:00 | |
| PETON7-10 | 2026-08-31 07:04:33 | 48.81062 | 18.39835 | 36° | 22km/h | 2979m | -14.5m/s | 0°C | 0% | 0hPa | 0V | 00:00:00 | 00:00:00 | 00:00:00 | |
| OE3JTB-15 | 2026-08-31 07:04:21 | 48.81017 | 18.39764 | 54° | 29km/h | 3154m | -14.4m/s | 0°C | 0% | 0hPa | 0V | 00:00:00 | 00:00:00 | 00:00:00 | |
| PETON7-10 | 2026-08-31 07:04:18 | 48.81007 | 18.39742 | 46° | 29km/h | 3198m | -14.9m/s | 0°C | 0% | 0hPa | 0V | 00:00:00 | 00:00:00 | 00:00:00 | |
| PETON7-10 | 2026-08-31 07:04:03 | 48.80929 | 18.39621 | 49° | 31km/h | 3420m | -14.8m/s | 0°C | 0% | 0hPa | 0V | 00:00:00 | 00:00:00 | 00:00:00 | |
| OE3JTB-15 | 2026-08-31 07:04:02 | 48.80924 | 18.39612 | 49° | 29km/h | 3434m | -14.8m/s | 0°C | 0% | 0hPa | 0V | 00:00:00 | 00:00:00 | 00:00:00 | |
| ATIDSZ-14 | 2026-08-31 07:03:49 | 48.80857 | 18.39495 | 53° | 33km/h | 3616m | -15.4m/s | 0.3°C | 0% | 0hPa | 0V | 00:00:00 | 00:00:00 | 00:00:00 | |
| PETON7-10 | 2026-08-31 07:03:48 | 48.80853 | 18.39485 | 57° | 27km/h | 3647m | -15.2m/s | 0°C | 0% | 0hPa | 0V | 00:00:00 | 00:00:00 | 00:00:00 | |
| OE3JTB-15 | 2026-08-31 07:03:43 | 48.80834 | 18.39442 | 51° | 26km/h | 3723m | -15.0m/s | 0°C | 0% | 0hPa | 0V | 00:00:00 | 00:00:00 | 00:00:00 | |
| PETON7-10 | 2026-08-31 07:03:33 | 48.80801 | 18.39353 | 53° | 26km/h | 3876m | -15.0m/s | 0°C | 0% | 0hPa | 0V | 00:00:00 | 00:00:00 | 00:00:00 | |
| ATIDSZ-14 | 2026-08-31 07:03:26 | 48.80770 | 18.39301 | 37° | 22km/h | 3966m | -14.7m/s | -2.8°C | 0% | 0hPa | 0V | 00:00:00 | 00:00:00 | 00:00:00 | |
| OE3JTB-15 | 2026-08-31 07:03:24 | 48.80761 | 18.39289 | 39° | 29km/h | 4011m | -15.0m/s | 0°C | 0% | 0hPa | 0V | 00:00:00 | 00:00:00 | 00:00:00 | |
| PETON7-10 | 2026-08-31 07:03:18 | 48.80730 | 18.39254 | 36° | 29km/h | 4102m | -15.5m/s | 0°C | 0% | 0hPa | 0V | 00:00:00 | 00:00:00 | 00:00:00 | |
| ATIDSZ-14 | 2026-08-31 07:03:05 | 48.80653 | 18.39174 | 44° | 29km/h | 4289m | -15.3m/s | -5.3°C | 0% | 0hPa | 0V | 00:00:00 | 00:00:00 | 00:00:00 | |
| PETON7-10 | 2026-08-31 07:03:03 | 48.80642 | 18.39157 | 47° | 35km/h | 4336m | -15.3m/s | 0°C | 0% | 0hPa | 0V | 00:00:00 | 00:00:00 | 00:00:00 | |
| OE3JTB-15 | 2026-08-31 07:02:55 | 48.80604 | 18.39073 | 66° | 35km/h | 4462m | -15.5m/s | 0°C | 0% | 0hPa | 0V | 00:00:00 | 00:00:00 | 00:00:00 | |
| PETON7-10 | 2026-08-31 07:02:48 | 48.80582 | 18.38986 | 77° | 33km/h | 4572m | -15.6m/s | 0°C | 0% | 0hPa | 0V | 00:00:00 | 00:00:00 | 00:00:00 | |
| ATIDSZ-14 | 2026-08-31 07:02:45 | 48.80578 | 18.38951 | 79° | 29km/h | 4603m | -15.4m/s | -5.8°C | 0% | 0hPa | 0V | 00:00:00 | 00:00:00 | 00:00:00 | |
| PETON7-10 | 2026-08-31 07:02:33 | 48.80535 | 18.38811 | 58° | 37km/h | 4809m | -15.9m/s | 0°C | 0% | 0hPa | 0V | 00:00:00 | 00:00:00 | 00:00:00 | |
| OE3JTB-15 | 2026-08-31 07:02:26 | 48.80505 | 18.38724 | 64° | 38km/h | 4920m | -15.9m/s | 0°C | 0% | 0hPa | 0V | 00:00:00 | 00:00:00 | 00:00:00 | |
| ATIDSZ-14 | 2026-08-31 07:02:24 | 48.80498 | 18.38701 | 62° | 35km/h | 4936m | -16.1m/s | -6.1°C | 0% | 0hPa | 0V | 00:00:00 | 00:00:00 | 00:00:00 | |
| PETON7-10 | 2026-08-31 07:02:18 | 48.80462 | 18.38630 | 51° | 38km/h | 5045m | -15.9m/s | 0°C | 0% | 0hPa | 0V | 00:00:00 | 00:00:00 | 00:00:00 | |
| ATIDSZ-14 | 2026-08-31 07:02:04 | 48.80372 | 18.38472 | 49° | 42km/h | 5254m | -16.1m/s | -7.0°C | 0% | 0hPa | 0V | 00:00:00 | 00:00:00 | 00:00:00 | |
| PETON7-10 | 2026-08-31 07:02:03 | 48.80365 | 18.38460 | 51° | 40km/h | 5287m | -16.3m/s | 0°C | 0% | 0hPa | 0V | 00:00:00 | 00:00:00 | 00:00:00 | |
| OE3JTB-15 | 2026-08-31 07:01:57 | 48.80328 | 18.38387 | 54° | 42km/h | 5384m | -16.2m/s | 0°C | 0% | 0hPa | 0V | 00:00:00 | 00:00:00 | 00:00:00 | |
| PETON7-10 | 2026-08-31 07:01:48 | 48.80288 | 18.38267 | 65° | 44km/h | 5532m | -16.3m/s | 0°C | 0% | 0hPa | 0V | 00:00:00 | 00:00:00 | 00:00:00 | |
| ATIDSZ-14 | 2026-08-31 07:01:43 | 48.80268 | 18.38192 | 73° | 44km/h | 5597m | -16.2m/s | -8.8°C | 0% | 0hPa | 0V | 00:00:00 | 00:00:00 | 00:00:00 | |
| PETON7-10 | 2026-08-31 07:01:33 | 48.80223 | 18.38036 | 69° | 44km/h | 5778m | -16.3m/s | 0°C | 0% | 0hPa | 0V | 00:00:00 | 00:00:00 | 00:00:00 | |
| OE3JTB-15 | 2026-08-31 07:01:28 | 48.80206 | 18.37954 | 72° | 44km/h | 5860m | -16.3m/s | 0°C | 0% | 0hPa | 0V | 00:00:00 | 00:00:00 | 00:00:00 | |
| ATIDSZ-14 | 2026-08-31 07:01:23 | 48.80178 | 18.37860 | 67° | 42km/h | 5942m | -16.4m/s | -11.7°C | 0% | 0hPa | 0V | 00:00:00 | 00:00:00 | 00:00:00 | |
| PETON7-10 | 2026-08-31 07:01:18 | 48.80164 | 18.37798 | 73° | 44km/h | 6024m | -16.3m/s | 0°C | 0% | 0hPa | 0V | 00:00:00 | 00:00:00 | 00:00:00 | |
| PETON7-10 | 2026-08-31 07:01:03 | 48.80098 | 18.37562 | 65° | 47km/h | 6273m | -16.5m/s | 0°C | 0% | 0hPa | 0V | 00:00:00 | 00:00:00 | 00:00:00 | |
| ATIDSZ-14 | 2026-08-31 07:01:02 | 48.80093 | 18.37547 | 66° | 47km/h | 6273m | -16.5m/s | -13.9°C | 0% | 0hPa | 0V | 00:00:00 | 00:00:00 | 00:00:00 | |
| OE3JTB-15 | 2026-08-31 07:00:59 | 48.80080 | 18.37499 | 70° | 55km/h | 6342m | -17.5m/s | 0°C | 0% | 0hPa | 0V | 00:00:00 | 00:00:00 | 00:00:00 | |
| PETON7-10 | 2026-08-31 07:00:48 | 48.80041 | 18.37300 | 74° | 57km/h | 6538m | -17.7m/s | 0°C | 0% | 0hPa | 0V | 00:00:00 | 00:00:00 | 00:00:00 | |
| ATIDSZ-14 | 2026-08-31 07:00:41 | 48.80012 | 18.37164 | 75° | 55km/h | 6646m | -18.5m/s | -16.3°C | 0% | 0hPa | 0V | 00:00:00 | 00:00:00 | 00:00:00 | |
| PETON7-10 | 2026-08-31 07:00:33 | 48.79977 | 18.36990 | 74° | 64km/h | 6806m | -17.6m/s | 0°C | 0% | 0hPa | 0V | 00:00:00 | 00:00:00 | 00:00:00 | |
| OE3JTB-15 | 2026-08-31 07:00:30 | 48.79964 | 18.36920 | 78° | 62km/h | 6861m | -19.0m/s | 0°C | 0% | 0hPa | 0V | 00:00:00 | 00:00:00 | 00:00:00 | |
| ATIDSZ-14 | 2026-08-31 07:00:21 | 48.79934 | 18.36706 | 75° | 62km/h | 7008m | -18.0m/s | -18.5°C | 0% | 0hPa | 0V | 00:00:00 | 00:00:00 | 00:00:00 | |
| PETON7-10 | 2026-08-31 07:00:18 | 48.79920 | 18.36638 | 74° | 60km/h | 7080m | -17.8m/s | 0°C | 0% | 0hPa | 0V | 00:00:00 | 00:00:00 | 00:00:00 | |
| OE3JTB-15 | 2026-08-31 07:00:01 | 48.79844 | 18.36251 | 72° | 66km/h | 7392m | -18.7m/s | 0°C | 0% | 0hPa | 0V | 00:00:00 | 00:00:00 | 00:00:00 | |
| ATIDSZ-14 | 2026-08-31 07:00:00 | 48.79838 | 18.36226 | 73° | 68km/h | 7392m | -18.7m/s | -21.9°C | 0% | 0hPa | 0V | 00:00:00 | 00:00:00 | 00:00:00 | |
| PETON7-10 | 2026-08-31 06:59:48 | 48.79766 | 18.35939 | 72° | 64km/h | 7635m | -18.4m/s | 0°C | 0% | 0hPa | 0V | 00:00:00 | 00:00:00 | 00:00:00 | |
| ATIDSZ-14 | 2026-08-31 06:59:40 | 48.79729 | 18.35761 | 75° | 66km/h | 7764m | -18.4m/s | -24.6°C | 0% | 0hPa | 0V | 00:00:00 | 00:00:00 | 00:00:00 | |
| PETON7-10 | 2026-08-31 06:59:33 | 48.79695 | 18.35590 | 70° | 66km/h | 7916m | -19.0m/s | 0°C | 0% | 0hPa | 0V | 00:00:00 | 00:00:00 | 00:00:00 | |
| OE3JTB-15 | 2026-08-31 06:59:32 | 48.79690 | 18.35567 | 70° | 66km/h | 7935m | -18.7m/s | 0°C | 0% | 0hPa | 0V | 00:00:00 | 00:00:00 | 00:00:00 | |
| ATIDSZ-14 | 2026-08-31 06:59:19 | 48.79626 | 18.35250 | 76° | 64km/h | 8164m | -19.2m/s | -27.8°C | 0% | 0hPa | 0V | 00:00:00 | 00:00:00 | 00:00:00 | |
| PETON7-10 | 2026-08-31 06:59:18 | 48.79621 | 18.35227 | 72° | 66km/h | 8203m | -19.4m/s | 0°C | 0% | 0hPa | 0V | 00:00:00 | 00:00:00 | 00:00:00 | |
| PETON7-10 | 2026-08-31 06:59:03 | 48.79561 | 18.34857 | 78° | 71km/h | 8493m | -19.3m/s | 0°C | 0% | 0hPa | 0V | 00:00:00 | 00:00:00 | 00:00:00 | |
| ATIDSZ-14 | 2026-08-31 06:59:00 | 48.79547 | 18.34752 | 79° | 68km/h | 8552m | -19.8m/s | -31.1°C | 0% | 0hPa | 0V | 00:00:00 | 00:00:00 | 00:00:00 | |
| PETON7-10 | 2026-08-31 06:58:48 | 48.79512 | 18.34452 | 84° | 84km/h | 8794m | -19.6m/s | 0°C | 0% | 0hPa | 0V | 00:00:00 | 00:00:00 | 00:00:00 | |
| ATIDSZ-14 | 2026-08-31 06:58:38 | 48.79501 | 18.34136 | 88° | 89km/h | 8979m | -20.7m/s | -33.3°C | 0% | 0hPa | 0V | 00:00:00 | 00:00:00 | 00:00:00 | |
| OE3JTB-15 | 2026-08-31 06:58:34 | 48.79497 | 18.33998 | 88° | 88km/h | 9083m | -20.3m/s | 0°C | 0% | 0hPa | 0V | 00:00:00 | 00:00:00 | 00:00:00 | |
| PETON7-10 | 2026-08-31 06:58:33 | 48.79496 | 18.33963 | 87° | 89km/h | 9103m | -20.3m/s | 0°C | 0% | 0hPa | 0V | 00:00:00 | 00:00:00 | 00:00:00 | |
| OE5DRO-10 | 2026-08-31 06:58:29 | 48.79491 | 18.33826 | 87° | 88km/h | 9184m | -20.3m/s | 0°C | 0% | 0hPa | 0V | 00:00:00 | 00:00:00 | 00:00:00 | |
| PETON7-10 | 2026-08-31 06:58:18 | 48.79477 | 18.33446 | 85° | 86km/h | 9408m | -20.7m/s | 0°C | 0% | 0hPa | 0V | 00:00:00 | 00:00:00 | 00:00:00 | |
| PG1ADW-2 | 2026-08-31 06:58:15 | 48.79470 | 18.33345 | 83° | 86km/h | 9471m | -21.2m/s | 0°C | 0% | 0hPa | 0V | 00:00:00 | 00:00:00 | 00:00:00 | |
| OE5DRO-10 | 2026-08-31 06:58:09 | 48.79452 | 18.33151 | 86° | 88km/h | 9600m | -21.6m/s | 0°C | 0% | 0hPa | 0V | 00:00:00 | 00:00:00 | 00:00:00 | |
| OE3JTB-15 | 2026-08-31 06:58:05 | 48.79445 | 18.33022 | 82° | 93km/h | 9687m | -21.9m/s | 0°C | 0% | 0hPa | 0V | 00:00:00 | 00:00:00 | 00:00:00 | |
| PETON7-10 | 2026-08-31 06:58:03 | 48.79440 | 18.32956 | 83° | 89km/h | 9731m | -22.0m/s | 0°C | 0% | 0hPa | 0V | 00:00:00 | 00:00:00 | 00:00:00 | |
| ATIDSZ-14 | 2026-08-31 06:57:57 | 48.79427 | 18.32757 | 85° | 84km/h | 9842m | -22.1m/s | -40.0°C | 0% | 0hPa | 0V | 00:00:00 | 00:00:00 | 00:00:00 | |
| PG1ADW-2 | 2026-08-31 06:57:55 | 48.79422 | 18.32692 | 84° | 97km/h | 9908m | -21.8m/s | 0°C | 0% | 0hPa | 0V | 00:00:00 | 00:00:00 | 00:00:00 | |
| OE5DRO-10 | 2026-08-31 06:57:50 | 48.79407 | 18.32512 | 82° | 97km/h | 9996m | -22.4m/s | 0°C | 0% | 0hPa | 0V | 00:00:00 | 00:00:00 | 00:00:00 | |
| PETON7-10 | 2026-08-31 06:57:48 | 48.79402 | 18.32439 | 84° | 97km/h | 10063m | -21.9m/s | 0°C | 0% | 0hPa | 0V | 00:00:00 | 00:00:00 | 00:00:00 | |
| ATIDSZ-14 | 2026-08-31 06:57:37 | 48.79369 | 18.32038 | 84° | 97km/h | 10284m | -22.1m/s | -43.1°C | 0% | 0hPa | 0V | 00:00:00 | 00:00:00 | 00:00:00 | |
| OE3JTB-15 | 2026-08-31 06:57:35 | 48.79363 | 18.31965 | 83° | 93km/h | 10350m | -22.1m/s | 0°C | 0% | 0hPa | 0V | 00:00:00 | 00:00:00 | 00:00:00 | |
| PETON7-10 | 2026-08-31 06:57:33 | 48.79357 | 18.31889 | 84° | 93km/h | 10395m | -22.1m/s | 0°C | 0% | 0hPa | 0V | 00:00:00 | 00:00:00 | 00:00:00 | |
| OE5DRO-10 | 2026-08-31 06:57:30 | 48.79348 | 18.31778 | 83° | 91km/h | 10462m | -22.4m/s | 0°C | 0% | 0hPa | 0V | 00:00:00 | 00:00:00 | 00:00:00 | |
| PETON7-10 | 2026-08-31 06:57:18 | 48.79317 | 18.31362 | 83° | 93km/h | 10730m | -22.1m/s | 0°C | 0% | 0hPa | 0V | 00:00:00 | 00:00:00 | 00:00:00 | |
| ATIDSZ-14 | 2026-08-31 06:57:16 | 48.79311 | 18.31293 | 84° | 89km/h | 10752m | -22.2m/s | -47.0°C | 0% | 0hPa | 0V | 00:00:00 | 00:00:00 | 00:00:00 | |
| OE5DRO-10 | 2026-08-31 06:57:11 | 48.79301 | 18.31132 | 84° | 102km/h | 10980m | -22.7m/s | 0°C | 0% | 0hPa | 0V | 00:00:00 | 00:00:00 | 00:00:00 | |
| OE3JTB-15 | 2026-08-31 06:57:06 | 48.79290 | 18.30945 | 86° | 102km/h | 11003m | -22.8m/s | 0°C | 0% | 0hPa | 0V | 00:00:00 | 00:00:00 | 00:00:00 | |
| PETON7-10 | 2026-08-31 06:57:03 | 48.79287 | 18.30834 | 90° | 104km/h | 11072m | -23.0m/s | 0°C | 0% | 0hPa | 0V | 00:00:00 | 00:00:00 | 00:00:00 | |
| ATIDSZ-14 | 2026-08-31 06:56:56 | 48.79288 | 18.30556 | 91° | 110km/h | 11210m | -23.2m/s | -50.2°C | 0% | 0hPa | 0V | 00:00:00 | 00:00:00 | 00:00:00 | |
| OE5DRO-10 | 2026-08-31 06:56:50 | 48.79292 | 18.30311 | 92° | 104km/h | 11374m | -23.7m/s | 0°C | 0% | 0hPa | 0V | 00:00:00 | 00:00:00 | 00:00:00 | |
| PETON7-10 | 2026-08-31 06:56:48 | 48.79293 | 18.30235 | 91° | 104km/h | 11421m | -23.7m/s | 0°C | 0% | 0hPa | 0V | 00:00:00 | 00:00:00 | 00:00:00 | |
| OE3JTB-15 | 2026-08-31 06:56:36 | 48.79305 | 18.29757 | 90° | 100km/h | 11710m | -24.2m/s | 0°C | 0% | 0hPa | 0V | 00:00:00 | 00:00:00 | 00:00:00 | |
| ATIDSZ-14 | 2026-08-31 06:56:35 | 48.79305 | 18.29717 | 90° | 104km/h | 11710m | -24.3m/s | -53.2°C | 0% | 0hPa | 0V | 00:00:00 | 00:00:00 | 00:00:00 | |
| PETON7-10 | 2026-08-31 06:56:33 | 48.79305 | 18.29638 | 92° | 99km/h | 11783m | -24.3m/s | 0°C | 0% | 0hPa | 0V | 00:00:00 | 00:00:00 | 00:00:00 | |
| OE5DRO-10 | 2026-08-31 06:56:31 | 48.79308 | 18.29559 | 94° | 99km/h | 11832m | -24.3m/s | 0°C | 0% | 0hPa | 0V | 00:00:00 | 00:00:00 | 00:00:00 | |
| PETON7-10 | 2026-08-31 06:56:18 | 48.79299 | 18.29077 | 86° | 102km/h | 12152m | -24.7m/s | 0°C | 0% | 0hPa | 0V | 00:00:00 | 00:00:00 | 00:00:00 | |
| ATIDSZ-14 | 2026-08-31 06:56:14 | 48.79297 | 18.28927 | 92° | 99km/h | 12226m | -24.9m/s | -55.2°C | 0% | 0hPa | 0V | 00:00:00 | 00:00:00 | 00:00:00 | |
| PG1ADW-2 | 2026-08-31 06:56:13 | 48.79297 | 18.28890 | 90° | 104km/h | 12276m | -24.9m/s | 0°C | 0% | 0hPa | 0V | 00:00:00 | 00:00:00 | 00:00:00 | |
| OE5DRO-10 | 2026-08-31 06:56:12 | 48.79297 | 18.28851 | 90° | 104km/h | 12301m | -24.9m/s | 0°C | 0% | 0hPa | 0V | 00:00:00 | 00:00:00 | 00:00:00 | |
| POL1PZ | 2026-08-31 06:56:10 | 48.79297 | 18.28770 | 89° | 108km/h | 12326m | -25.1m/s | -55.6°C | 0% | 0hPa | 0V | 00:00:00 | 00:00:00 | 00:00:00 | |
| OE3JTB-15 | 2026-08-31 06:56:07 | 48.79293 | 18.28646 | 87° | 102km/h | 12427m | -25.0m/s | 0°C | 0% | 0hPa | 0V | 00:00:00 | 00:00:00 | 00:00:00 | |
| PETON7-10 | 2026-08-31 06:56:03 | 48.79288 | 18.28484 | 88° | 102km/h | 12528m | -25.2m/s | 0°C | 0% | 0hPa | 0V | 00:00:00 | 00:00:00 | 00:00:00 | |
| ATIDSZ-14 | 2026-08-31 06:55:54 | 48.79278 | 18.28128 | 87° | 97km/h | 12733m | -25.6m/s | -57.0°C | 0% | 0hPa | 0V | 00:00:00 | 00:00:00 | 00:00:00 | |
| PG1ADW-2 | 2026-08-31 06:55:53 | 48.79276 | 18.28091 | 87° | 100km/h | 12785m | -25.8m/s | 0°C | 0% | 0hPa | 0V | 00:00:00 | 00:00:00 | 00:00:00 | |
| PETON7-10 | 2026-08-31 06:55:48 | 48.79268 | 18.27904 | 83° | 102km/h | 12915m | -25.9m/s | 0°C | 0% | 0hPa | 0V | 00:00:00 | 00:00:00 | 00:00:00 | |
| OE3JTB-15 | 2026-08-31 06:55:38 | 48.79244 | 18.27513 | 86° | 97km/h | 13176m | -26.4m/s | 0°C | 0% | 0hPa | 0V | 00:00:00 | 00:00:00 | 00:00:00 | |
| OE5DRO-10 | 2026-08-31 06:55:34 | 48.79238 | 18.27360 | 90° | 100km/h | 13282m | -26.5m/s | 0°C | 0% | 0hPa | 0V | 00:00:00 | 00:00:00 | 00:00:00 | |
| PETON7-10 | 2026-08-31 06:55:33 | 48.79237 | 18.27319 | 89° | 104km/h | 13309m | -26.6m/s | 0°C | 0% | 0hPa | 0V | 00:00:00 | 00:00:00 | 00:00:00 | |
| PETON7-10 | 2026-08-31 06:55:18 | 48.79247 | 18.26727 | 92° | 78km/h | 13712m | -27.4m/s | 0°C | 0% | 0hPa | 0V | 00:00:00 | 00:00:00 | 00:00:00 | |
| OE5DRO-10 | 2026-08-31 06:55:14 | 48.79252 | 18.26590 | 95° | 73km/h | 13823m | -27.7m/s | 0°C | 0% | 0hPa | 0V | 00:00:00 | 00:00:00 | 00:00:00 | |
| PG1ADW-2 | 2026-08-31 06:55:13 | 48.79254 | 18.26558 | 92° | 73km/h | 13851m | -27.7m/s | 0°C | 0% | 0hPa | 0V | 00:00:00 | 00:00:00 | 00:00:00 | |
| OE3JTB-15 | 2026-08-31 06:55:09 | 48.79254 | 18.26445 | 87° | 77km/h | 13963m | -28.0m/s | 0°C | 0% | 0hPa | 0V | 00:00:00 | 00:00:00 | 00:00:00 | |
| PETON7-10 | 2026-08-31 06:55:03 | 48.79232 | 18.26287 | 74° | 77km/h | 14134m | -28.3m/s | 0°C | 0% | 0hPa | 0V | 00:00:00 | 00:00:00 | 00:00:00 | |
| OE5DRO-10 | 2026-08-31 06:54:55 | 48.79192 | 18.26070 | 75° | 80km/h | 14365m | -29.0m/s | 0°C | 0% | 0hPa | 0V | 00:00:00 | 00:00:00 | 00:00:00 | |
| PG1ADW-2 | 2026-08-31 06:54:53 | 48.79184 | 18.26013 | 83° | 77km/h | 14423m | -29.1m/s | 0°C | 0% | 0hPa | 0V | 00:00:00 | 00:00:00 | 00:00:00 | |
| ATIDSZ-14 | 2026-08-31 06:54:52 | 48.79182 | 18.25981 | 84° | 82km/h | 14423m | -29.1m/s | -56.7°C | 0% | 0hPa | 0V | 00:00:00 | 00:00:00 | 00:00:00 | |
| PETON7-10 | 2026-08-31 06:54:48 | 48.79174 | 18.25849 | 88° | 75km/h | 14571m | -29.7m/s | 0°C | 0% | 0hPa | 0V | 00:00:00 | 00:00:00 | 00:00:00 | |
| OE3JTB-15 | 2026-08-31 06:54:40 | 48.79186 | 18.25602 | 97° | 53km/h | 14811m | -30.0m/s | 0°C | 0% | 0hPa | 0V | 00:00:00 | 00:00:00 | 00:00:00 | |
| POL1PZ | 2026-08-31 06:54:38 | 48.79190 | 18.25551 | 97° | 68km/h | 14840m | -30.2m/s | 0°C | 0% | 0hPa | 0V | 00:00:00 | 00:00:00 | 00:00:00 | |
| OE5DRO-10 | 2026-08-31 06:54:36 | 48.79193 | 18.25502 | 95° | 51km/h | 14929m | -29.6m/s | 0°C | 0% | 0hPa | 0V | 00:00:00 | 00:00:00 | 00:00:00 | |
| PETON7-10 | 2026-08-31 06:54:33 | 48.79196 | 18.25434 | 93° | 49km/h | 15019m | -29.8m/s | 0°C | 0% | 0hPa | 0V | 00:00:00 | 00:00:00 | 00:00:00 | |
| ATIDSZ-14 | 2026-08-31 06:54:32 | 48.79196 | 18.25414 | 92° | 53km/h | 15019m | -29.8m/s | -56.1°C | 0% | 0hPa | 0V | 00:00:00 | 00:00:00 | 00:00:00 | |
| PETON7-10 | 2026-08-31 06:54:18 | 48.79194 | 18.25151 | 100° | 46km/h | 15473m | -30.6m/s | 0°C | 0% | 0hPa | 0V | 00:00:00 | 00:00:00 | 00:00:00 | |
| OE5DRO-10 | 2026-08-31 06:54:17 | 48.79196 | 18.25133 | 102° | 37km/h | 15504m | -30.7m/s | 0°C | 0% | 0hPa | 0V | 00:00:00 | 00:00:00 | 00:00:00 | |
| PG1ADW-2 | 2026-08-31 06:54:13 | 48.79205 | 18.25068 | 106° | 38km/h | 15628m | -31.3m/s | 0°C | 0% | 0hPa | 0V | 00:00:00 | 00:00:00 | 00:00:00 | |
| OE3JTB-15 | 2026-08-31 06:54:11 | 48.79212 | 18.25040 | 109° | 38km/h | 15690m | -31.2m/s | 0°C | 0% | 0hPa | 0V | 00:00:00 | 00:00:00 | 00:00:00 | |
| OE3OSB-13 | 2026-08-31 06:54:07 | 48.79222 | 18.24982 | 97° | 27km/h | 15818m | -31.6m/s | -56.8°C | -1.0% | -1.0hPa | 0V | 00:00:00 | 00:00:00 | 00:00:00 | |
| OE5DRO-10 | 2026-08-31 06:53:58 | 48.79207 | 18.24875 | 70° | 35km/h | 16264m | -32.6m/s | 0°C | 0% | 0hPa | 0V | 00:00:00 | 00:00:00 | 00:00:00 | |
| PG1ADW-2 | 2026-08-31 06:53:53 | 48.79187 | 18.24792 | 76° | 33km/h | 16264m | -32.6m/s | 0°C | 0% | 0hPa | 0V | 00:00:00 | 00:00:00 | 00:00:00 | |
| ATIDSZ-14 | 2026-08-31 06:53:51 | 48.79181 | 18.24758 | 77° | 44km/h | 16297m | -32.7m/s | -56.0°C | 0% | 0hPa | 0V | 00:00:00 | 00:00:00 | 00:00:00 | |
| OE3JTB-15 | 2026-08-31 06:53:42 | 48.79162 | 18.24622 | 83° | 22km/h | 16598m | -33.5m/s | 0°C | 0% | 0hPa | 0V | 00:00:00 | 00:00:00 | 00:00:00 | |
| OE5DRO-10 | 2026-08-31 06:53:35 | 48.79152 | 18.24561 | 67° | 22km/h | 16872m | -34.7m/s | 0°C | 0% | 0hPa | 0V | 00:00:00 | 00:00:00 | 00:00:00 | |
| PG1ADW-2 | 2026-08-31 06:53:34 | 48.79150 | 18.24549 | 57° | 22km/h | 16907m | -34.6m/s | 0°C | 0% | 0hPa | 0V | 00:00:00 | 00:00:00 | 00:00:00 | |
| ATIDSZ-14 | 2026-08-31 06:53:30 | 48.79140 | 18.24529 | 60° | 20km/h | 17011m | -34.5m/s | -54.4°C | 0% | 0hPa | 0V | 00:00:00 | 00:00:00 | 00:00:00 | |
| OE5DRO-10 | 2026-08-31 06:53:16 | 48.79114 | 18.24414 | 78° | 20km/h | 17539m | -35.8m/s | 0°C | 0% | 0hPa | 0V | 00:00:00 | 00:00:00 | 00:00:00 | |
| ATIDSZ-14 | 2026-08-31 06:53:10 | 48.79106 | 18.24363 | 74° | 22km/h | 17720m | -36.4m/s | -54.2°C | 0% | 0hPa | 0V | 00:00:00 | 00:00:00 | 00:00:00 | |
| OE3JTB-15 | 2026-08-31 06:53:05 | 48.79101 | 18.24323 | 83° | 16km/h | 17939m | -36.5m/s | 0°C | 0% | 0hPa | 0V | 00:00:00 | 00:00:00 | 00:00:00 | |
| OE5DXL-15 | 2026-08-31 06:52:59 | 48.79099 | 18.24283 | 66° | 13km/h | 18160m | -37.1m/s | 0°C | 0% | 0hPa | 0V | 00:00:00 | 00:00:00 | 00:00:00 | |
| OE5DRO-10 | 2026-08-31 06:52:57 | 48.79097 | 18.24270 | 67° | 16km/h | 18234m | -37.1m/s | 0°C | 0% | 0hPa | 0V | 00:00:00 | 00:00:00 | 00:00:00 | |
| DO3MHA-11 | 2026-08-31 06:52:55 | 48.79094 | 18.24259 | 62° | 15km/h | 18309m | -37.6m/s | 0°C | 0% | 0hPa | 0V | 00:00:00 | 00:00:00 | 00:00:00 | |
| ATIDSZ-14 | 2026-08-31 06:52:49 | 48.79082 | 18.24225 | 56° | 15km/h | 18499m | -38.3m/s | -55.0°C | 0% | 0hPa | 0V | 00:00:00 | 00:00:00 | 00:00:00 | |
| PG1ADW-2 | 2026-08-31 06:52:45 | 48.79074 | 18.24209 | 49° | 11km/h | 18693m | -38.8m/s | 0°C | 0% | 0hPa | 0V | 00:00:00 | 00:00:00 | 00:00:00 | |
| OE5DRO-10 | 2026-08-31 06:52:38 | 48.79057 | 18.24172 | 73° | 9km/h | 18966m | -39.9m/s | 0°C | 0% | 0hPa | 0V | 00:00:00 | 00:00:00 | 00:00:00 | |
| OE3JTB-15 | 2026-08-31 06:52:36 | 48.79055 | 18.24163 | 80° | 9km/h | 19046m | -39.9m/s | 0°C | 0% | 0hPa | 0V | 00:00:00 | 00:00:00 | 00:00:00 | |
| ATIDSZ-14 | 2026-08-31 06:52:29 | 48.79055 | 18.24144 | 64° | 7km/h | 19287m | -40.4m/s | -53.4°C | 0% | 0hPa | 0V | 00:00:00 | 00:00:00 | 00:00:00 | |
| OE5DXL-15 | 2026-08-31 06:52:27 | 48.79053 | 18.24139 | 42° | 11km/h | 19408m | -40.1m/s | 0°C | 0% | 0hPa | 0V | 00:00:00 | 00:00:00 | 00:00:00 | |
| PG1ADW-2 | 2026-08-31 06:52:25 | 48.79050 | 18.24135 | 42° | 9km/h | 19490m | -40.7m/s | 0°C | 0% | 0hPa | 0V | 00:00:00 | 00:00:00 | 00:00:00 | |
| OE5MMP-10 | 2026-08-31 06:52:23 | 48.79047 | 18.24130 | 38° | 9km/h | 19571m | -41.2m/s | 0°C | 0% | 0hPa | 0V | 00:00:00 | 00:00:00 | 00:00:00 | |
| OE5DRO-10 | 2026-08-31 06:52:19 | 48.79038 | 18.24127 | 5° | 11km/h | 19736m | -41.5m/s | 0°C | 0% | 0hPa | 0V | 00:00:00 | 00:00:00 | 00:00:00 | |
| OE5MMP-10 | 2026-08-31 06:52:12 | 48.79021 | 18.24125 | 14° | 13km/h | 20160m | -42.2m/s | 0°C | 0% | 0hPa | 0V | 00:00:00 | 00:00:00 | 00:00:00 | |
| ATIDSZ-14 | 2026-08-31 06:52:08 | 48.79013 | 18.24121 | 30° | 9km/h | 20160m | -42.2m/s | -54.4°C | 0% | 0hPa | 0V | 00:00:00 | 00:00:00 | 00:00:00 | |
| OE3JTB-15 | 2026-08-31 06:52:07 | 48.79010 | 18.24118 | 41° | 11km/h | 20245m | -42.7m/s | 0°C | 0% | 0hPa | 0V | 00:00:00 | 00:00:00 | 00:00:00 | |
| PG1ADW-2 | 2026-08-31 06:52:05 | 48.79006 | 18.24110 | 54° | 9km/h | 20288m | -42.9m/s | 0°C | 0% | 0hPa | 0V | 00:00:00 | 00:00:00 | 00:00:00 | |
| OE5MMP-10 | 2026-08-31 06:52:02 | 48.79000 | 18.24094 | 66° | 7km/h | 20506m | -43.7m/s | 0°C | 0% | 0hPa | 0V | 00:00:00 | 00:00:00 | 00:00:00 | |
| OE5DRO-10 | 2026-08-31 06:52:00 | 48.78998 | 18.24085 | 78° | 9km/h | 20594m | -43.6m/s | 0°C | 0% | 0hPa | 0V | 00:00:00 | 00:00:00 | 00:00:00 | |
| OE5DXL-15 | 2026-08-31 06:51:57 | 48.78998 | 18.24074 | 161° | 7km/h | 20681m | -43.6m/s | 0°C | 0% | 0hPa | 0V | 00:00:00 | 00:00:00 | 00:00:00 | |
| OE5MMP-10 | 2026-08-31 06:51:52 | 48.79002 | 18.24076 | 320° | 9km/h | 20904m | -44.8m/s | 0°C | 0% | 0hPa | 0V | 00:00:00 | 00:00:00 | 00:00:00 | |
| PG1ADW-2 | 2026-08-31 06:51:45 | 48.78990 | 18.24091 | 308° | 13km/h | 21222m | -46.3m/s | 0°C | 0% | 0hPa | 0V | 00:00:00 | 00:00:00 | 00:00:00 | |
| OE5MMP-10 | 2026-08-31 06:51:42 | 48.78983 | 18.24103 | 317° | 15km/h | 21362m | -46.9m/s | 0°C | 0% | 0hPa | 0V | 00:00:00 | 00:00:00 | 00:00:00 | |
| OE5DRO-10 | 2026-08-31 06:51:41 | 48.78980 | 18.24107 | 324° | 11km/h | 21409m | -46.9m/s | 0°C | 0% | 0hPa | 0V | 00:00:00 | 00:00:00 | 00:00:00 | |
| OE3JTB-15 | 2026-08-31 06:51:38 | 48.78969 | 18.24117 | 338° | 9km/h | 21551m | -47.4m/s | 0°C | 0% | 0hPa | 0V | 00:00:00 | 00:00:00 | 00:00:00 | |
| OE5MMP-10 | 2026-08-31 06:51:32 | 48.78949 | 18.24121 | 358° | 7km/h | 21840m | -48.5m/s | 0°C | 0% | 0hPa | 0V | 00:00:00 | 00:00:00 | 00:00:00 | |
| OE5DXL-15 | 2026-08-31 06:51:27 | 48.78938 | 18.24118 | 2° | 7km/h | 22085m | -49.4m/s | 0°C | 0% | 0hPa | 0V | 00:00:00 | 00:00:00 | 00:00:00 | |
| PG1ADW-2 | 2026-08-31 06:51:25 | 48.78937 | 18.24119 | 318° | 9km/h | 22185m | -49.9m/s | 0°C | 0% | 0hPa | 0V | 00:00:00 | 00:00:00 | 00:00:00 | |
| OE5MMP-10 | 2026-08-31 06:51:22 | 48.78935 | 18.24125 | 312° | 11km/h | 22336m | -50.0m/s | 0°C | 0% | 0hPa | 0V | 00:00:00 | 00:00:00 | 00:00:00 | |
| OE5MMP-10 | 2026-08-31 06:51:12 | 48.78910 | 18.24145 | 348° | 7km/h | 22846m | -52.0m/s | 0°C | 0% | 0hPa | 0V | 00:00:00 | 00:00:00 | 00:00:00 | |
| OE3JTB-15 | 2026-08-31 06:51:09 | 48.78906 | 18.24148 | 324° | 7km/h | 23002m | -52.3m/s | 0°C | 0% | 0hPa | 0V | 00:00:00 | 00:00:00 | 00:00:00 | |
| PG1ADW-2 | 2026-08-31 06:51:05 | 48.78899 | 18.24153 | 359° | 11km/h | 23212m | -52.6m/s | 0°C | 0% | 0hPa | 0V | 00:00:00 | 00:00:00 | 00:00:00 | |
| OE5MMP-10 | 2026-08-31 06:51:02 | 48.78893 | 18.24152 | 24° | 5km/h | 23372m | -53.2m/s | 0°C | 0% | 0hPa | 0V | 00:00:00 | 00:00:00 | 00:00:00 | |
| OE5DRO-10 | 2026-08-31 06:51:00 | 48.78890 | 18.24151 | 27° | 7km/h | 23479m | -53.6m/s | 0°C | 0% | 0hPa | 0V | 00:00:00 | 00:00:00 | 00:00:00 | |
| OE5DXL-15 | 2026-08-31 06:50:57 | 48.78889 | 18.24151 | 232° | 9km/h | 23752m | -55.3m/s | 0°C | 0% | 0hPa | 0V | 00:00:00 | 00:00:00 | 00:00:00 | |
| OE5MMP-10 | 2026-08-31 06:50:52 | 48.78894 | 18.24162 | 243° | 9km/h | 23919m | -56.0m/s | 0°C | 0% | 0hPa | 0V | 00:00:00 | 00:00:00 | 00:00:00 | |
| ATIDSZ-14 | 2026-08-31 06:50:44 | 48.78904 | 18.24185 | 252° | 13km/h | 24314m | -57.1m/s | -50.6°C | 0% | 0hPa | 0V | 00:00:00 | 00:00:00 | 00:00:00 | |
| OE5MMP-10 | 2026-08-31 06:50:42 | 48.78906 | 18.24194 | 264° | 11km/h | 24486m | -57.5m/s | 0°C | 0% | 0hPa | 0V | 00:00:00 | 00:00:00 | 00:00:00 | |
| OE5DRO-10 | 2026-08-31 06:50:41 | 48.78906 | 18.24199 | 286° | 13km/h | 24602m | -57.9m/s | 0°C | 0% | 0hPa | 0V | 00:00:00 | 00:00:00 | 00:00:00 | |
| OE3JTB-15 | 2026-08-31 06:50:40 | 48.78905 | 18.24203 | 286° | 9km/h | 24602m | -57.9m/s | 0°C | 0% | 0hPa | 0V | 00:00:00 | 00:00:00 | 00:00:00 | |
| DO3MHA-11 | 2026-08-31 06:50:39 | 48.78904 | 18.24208 | 295° | 9km/h | 24660m | -58.0m/s | 0°C | 0% | 0hPa | 0V | 00:00:00 | 00:00:00 | 00:00:00 | |
| OE5MMP-10 | 2026-08-31 06:50:32 | 48.78896 | 18.24229 | 296° | 11km/h | 25075m | -60.1m/s | 0°C | 0% | 0hPa | 0V | 00:00:00 | 00:00:00 | 00:00:00 | |
| DO3MHA-11 | 2026-08-31 06:50:29 | 48.78893 | 18.24240 | 291° | 11km/h | 25377m | -60.6m/s | 0°C | 0% | 0hPa | 0V | 00:00:00 | 00:00:00 | 00:00:00 | |
| OE5DXL-15 | 2026-08-31 06:50:25 | 48.78889 | 18.24254 | 297° | 5km/h | 25623m | -62.4m/s | 0°C | 0% | 0hPa | 0V | 00:00:00 | 00:00:00 | 00:00:00 | |
| ATIDSZ-14 | 2026-08-31 06:50:24 | 48.78888 | 18.24257 | 304° | 11km/h | 25499m | -61.5m/s | -48.2°C | 0% | 0hPa | 0V | 00:00:00 | 00:00:00 | 00:00:00 | |
| OE5MMP-10 | 2026-08-31 06:50:22 | 48.78884 | 18.24265 | 321° | 11km/h | 25685m | -62.7m/s | 0°C | 0% | 0hPa | 0V | 00:00:00 | 00:00:00 | 00:00:00 | |
| OE5MMP-10 | 2026-08-31 06:50:12 | 48.78862 | 18.24279 | 338° | 4km/h | 26323m | -64.3m/s | 0°C | 0% | 0hPa | 0V | 00:00:00 | 00:00:00 | 00:00:00 | |
| OE3JTB-15 | 2026-08-31 06:50:11 | 48.78862 | 18.24279 | 288° | 5km/h | 26387m | -64.1m/s | 0°C | 0% | 0hPa | 0V | 00:00:00 | 00:00:00 | 00:00:00 | |
| DO3MHA-11 | 2026-08-31 06:50:08 | 48.78862 | 18.24284 | 286° | 4km/h | 26576m | -62.8m/s | 0°C | 0% | 0hPa | 0V | 00:00:00 | 00:00:00 | 00:00:00 | |
| OE5DRO-10 | 2026-08-31 06:50:07 | 48.78861 | 18.24288 | 286° | 7km/h | 26819m | -59.4m/s | 0°C | 0% | 0hPa | 0V | 00:00:00 | 00:00:00 | 00:00:00 | |
| ATIDSZ-14 | 2026-08-31 06:50:03 | 48.78858 | 18.24292 | 358° | 4km/h | 26819m | -59.5m/s | -48.2°C | 0% | 0hPa | 0V | 00:00:00 | 00:00:00 | 00:00:00 | |
| OE5MMP-10 | 2026-08-31 06:50:02 | 48.78858 | 18.24292 | 352° | 5km/h | 26934m | -58.5m/s | 0°C | 0% | 0hPa | 0V | 00:00:00 | 00:00:00 | 00:00:00 | |
| POL1PZ | 2026-08-31 06:49:59 | 48.78856 | 18.24291 | 52° | 4km/h | 27040m | -47.5m/s | -48.2°C | 0% | 0hPa | 0V | 00:00:00 | 00:00:00 | 00:00:00 | |
| DO3MHA-11 | 2026-08-31 06:49:58 | 48.78855 | 18.24289 | 341° | 5km/h | 27125m | -36.9m/s | 0°C | 0% | 0hPa | 0V | 00:00:00 | 00:00:00 | 00:00:00 | |
| OE5DXL-15 | 2026-08-31 06:49:54 | 48.78853 | 18.24296 | 282° | 11km/h | 27206m | -16.3m/s | 0°C | 0% | 0hPa | 0V | 00:00:00 | 00:00:00 | 00:00:00 | |
| OE5MMP-10 | 2026-08-31 06:49:52 | 48.78852 | 18.24303 | 304° | 7km/h | 27218m | 4.1m/s | 0°C | 0% | 0hPa | 0V | 00:00:00 | 00:00:00 | 00:00:00 | |
| DO3MHA-11 | 2026-08-31 06:49:48 | 48.78847 | 18.24309 | 8° | 11km/h | 27198m | 4.1m/s | 0°C | 0% | 0hPa | 0V | 00:00:00 | 00:00:00 | 00:00:00 | |
| ATIDSZ-14 | 2026-08-31 06:49:43 | 48.78842 | 18.24313 | 265° | 9km/h | 27175m | 5.8m/s | -48.3°C | 0% | 0hPa | 0V | 00:00:00 | 00:00:00 | 00:00:00 | |
| OE5MMP-10 | 2026-08-31 06:49:42 | 48.78842 | 18.24317 | 271° | 13km/h | 27164m | 5.4m/s | 0°C | 0% | 0hPa | 0V | 00:00:00 | 00:00:00 | 00:00:00 | |
| OE5DRO-10 | 2026-08-31 06:49:40 | 48.78842 | 18.24327 | 280° | 13km/h | 27154m | 4.7m/s | 0°C | 0% | 0hPa | 0V | 00:00:00 | 00:00:00 | 00:00:00 | |
| POL1PZ | 2026-08-31 06:49:39 | 48.78842 | 18.24332 | 303° | 15km/h | 27154m | 4.8m/s | -48.4°C | 0% | 0hPa | 0V | 00:00:00 | 00:00:00 | 00:00:00 | |
| DO3MHA-11 | 2026-08-31 06:49:38 | 48.78840 | 18.24336 | 326° | 13km/h | 27142m | 5.2m/s | 0°C | 0% | 0hPa | 0V | 00:00:00 | 00:00:00 | 00:00:00 | |
| OE5MMP-10 | 2026-08-31 06:49:32 | 48.78830 | 18.24353 | 253° | 13km/h | 27111m | 5.5m/s | 0°C | 0% | 0hPa | 0V | 00:00:00 | 00:00:00 | 00:00:00 | |
| DO3MHA-11 | 2026-08-31 06:49:28 | 48.78834 | 18.24372 | 278° | 15km/h | 27090m | 4.7m/s | 0°C | 0% | 0hPa | 0V | 00:00:00 | 00:00:00 | 00:00:00 | |
| ATIDSZ-14 | 2026-08-31 06:49:23 | 48.78823 | 18.24391 | 307° | 15km/h | 27065m | 5.9m/s | -48.6°C | 0% | 0hPa | 0V | 00:00:00 | 00:00:00 | 00:00:00 | |
| OE5MMP-10 | 2026-08-31 06:49:22 | 48.78823 | 18.24391 | 306° | 13km/h | 27059m | 5.7m/s | 0°C | 0% | 0hPa | 0V | 00:00:00 | 00:00:00 | 00:00:00 | |
| OE5DRO-10 | 2026-08-31 06:49:21 | 48.78821 | 18.24396 | 281° | 11km/h | 27053m | 5.2m/s | 0°C | 0% | 0hPa | 0V | 00:00:00 | 00:00:00 | 00:00:00 | |
| DO3MHA-11 | 2026-08-31 06:49:18 | 48.78821 | 18.24416 | 278° | 9km/h | 27038m | 4.1m/s | 0°C | 0% | 0hPa | 0V | 00:00:00 | 00:00:00 | 00:00:00 | |
| OE3JTB-15 | 2026-08-31 06:49:13 | 48.78816 | 18.24434 | 346° | 7km/h | 27012m | 5.5m/s | 0°C | 0% | 0hPa | 0V | 00:00:00 | 00:00:00 | 00:00:00 | |
| OE5MMP-10 | 2026-08-31 06:49:12 | 48.78814 | 18.24435 | 346° | 9km/h | 27006m | 5.9m/s | 0°C | 0% | 0hPa | 0V | 00:00:00 | 00:00:00 | 00:00:00 | |
| DO3MHA-11 | 2026-08-31 06:49:08 | 48.78807 | 18.24437 | 280° | 7km/h | 26984m | 4.5m/s | 0°C | 0% | 0hPa | 0V | 00:00:00 | 00:00:00 | 00:00:00 | |
| OE5MMP-10 | 2026-08-31 06:49:02 | 48.78805 | 18.24457 | 316° | 7km/h | 26952m | 4.5m/s | 0°C | 0% | 0hPa | 0V | 00:00:00 | 00:00:00 | 00:00:00 | |
| ATIDSZ-14 | 2026-08-31 06:49:01 | 48.78804 | 18.24459 | 316° | 5km/h | 26952m | 4.6m/s | -48.6°C | 0% | 0hPa | 0V | 00:00:00 | 00:00:00 | 00:00:00 | |
| OE5WHR-10 | 2026-08-31 06:49:00 | 48.78804 | 18.24460 | 348° | 7km/h | 26946m | 5.9m/s | 0°C | 0% | 0hPa | 0V | 00:00:00 | 00:00:00 | 00:00:00 | |
| DO3MHA-11 | 2026-08-31 06:48:58 | 48.78799 | 18.24459 | 334° | 7km/h | 26929m | 6.1m/s | 0°C | 0% | 0hPa | 0V | 00:00:00 | 00:00:00 | 00:00:00 | |
| OE5DXL-15 | 2026-08-31 06:48:53 | 48.78793 | 18.24467 | 194° | 7km/h | 26903m | 4.9m/s | 0°C | 0% | 0hPa | 0V | 00:00:00 | 00:00:00 | 00:00:00 | |
| OE5MMP-10 | 2026-08-31 06:48:52 | 48.78794 | 18.24467 | 186° | 7km/h | 26897m | 6.4m/s | 0°C | 0% | 0hPa | 0V | 00:00:00 | 00:00:00 | 00:00:00 | |
| DO3MHA-11 | 2026-08-31 06:48:48 | 48.78801 | 18.24468 | 15° | 7km/h | 26875m | 5.0m/s | 0°C | 0% | 0hPa | 0V | 00:00:00 | 00:00:00 | 00:00:00 | |
| OE3JTB-15 | 2026-08-31 06:48:44 | 48.78793 | 18.24467 | 1° | 7km/h | 26854m | 4.7m/s | 0°C | 0% | 0hPa | 0V | 00:00:00 | 00:00:00 | 00:00:00 | |
| OE5DRO-10 | 2026-08-31 06:48:43 | 48.78791 | 18.24469 | 54° | 5km/h | 26849m | 6.0m/s | 0°C | 0% | 0hPa | 0V | 00:00:00 | 00:00:00 | 00:00:00 | |
| OE5MMP-10 | 2026-08-31 06:48:42 | 48.78790 | 18.24467 | 54° | 7km/h | 26843m | 4.6m/s | 0°C | 0% | 0hPa | 0V | 00:00:00 | 00:00:00 | 00:00:00 | |
| ATIDSZ-14 | 2026-08-31 06:48:41 | 48.78788 | 18.24465 | 78° | 7km/h | 26843m | 4.6m/s | -48.6°C | 0% | 0hPa | 0V | 00:00:00 | 00:00:00 | 00:00:00 | |
| OE5WHR-10 | 2026-08-31 06:48:39 | 48.78788 | 18.24461 | 185° | 9km/h | 26800m | 6.1m/s | 0°C | 0% | 0hPa | 0V | 00:00:00 | 00:00:00 | 00:00:00 | |
| DO3MHA-11 | 2026-08-31 06:48:38 | 48.78790 | 18.24461 | 233° | 5km/h | 26822m | 4.5m/s | 0°C | 0% | 0hPa | 0V | 00:00:00 | 00:00:00 | 00:00:00 | |
| POL1PZ | 2026-08-31 06:48:37 | 48.78790 | 18.24462 | 288° | 4km/h | 26822m | 4.5m/s | -48.5°C | 0% | 0hPa | 0V | 00:00:00 | 00:00:00 | 00:00:00 | |
| OE5MMP-10 | 2026-08-31 06:48:32 | 48.78783 | 18.24468 | 226° | 7km/h | 26790m | 4.7m/s | 0°C | 0% | 0hPa | 0V | 00:00:00 | 00:00:00 | 00:00:00 | |
| DO3MHA-11 | 2026-08-31 06:48:28 | 48.78784 | 18.24462 | 229° | 11km/h | 26768m | 6.0m/s | 0°C | 0% | 0hPa | 0V | 00:00:00 | 00:00:00 | 00:00:00 | |
| OE5DRO-10 | 2026-08-31 06:48:24 | 48.78787 | 18.24473 | 300° | 13km/h | 26746m | 4.9m/s | 0°C | 0% | 0hPa | 0V | 00:00:00 | 00:00:00 | 00:00:00 | |
| OE5DXL-15 | 2026-08-31 06:48:23 | 48.78785 | 18.24478 | 308° | 15km/h | 26742m | 4.4m/s | 0°C | 0% | 0hPa | 0V | 00:00:00 | 00:00:00 | 00:00:00 | |
| OE5MMP-10 | 2026-08-31 06:48:22 | 48.78783 | 18.24482 | 299° | 11km/h | 26736m | 5.8m/s | 0°C | 0% | 0hPa | 0V | 00:00:00 | 00:00:00 | 00:00:00 | |
| ATIDSZ-14 | 2026-08-31 06:48:20 | 48.78780 | 18.24492 | 262° | 13km/h | 26731m | 5.0m/s | -48.6°C | 0% | 0hPa | 0V | 00:00:00 | 00:00:00 | 00:00:00 | |
| GYPAP8-17 | 2026-08-31 06:48:19 | 48.78780 | 18.24496 | 239° | 9km/h | 26725m | 5.7m/s | -48.7°C | 0% | 0hPa | 0V | 00:00:00 | 00:00:00 | 00:00:00 | |
| DO3MHA-11 | 2026-08-31 06:48:18 | 48.78781 | 18.24498 | 205° | 13km/h | 26714m | 5.0m/s | 0°C | 0% | 0hPa | 0V | 00:00:00 | 00:00:00 | 00:00:00 | |
| OE3JTB-15 | 2026-08-31 06:48:15 | 48.78788 | 18.24501 | 246° | 16km/h | 26698m | 4.2m/s | 0°C | 0% | 0hPa | 0V | 00:00:00 | 00:00:00 | 00:00:00 | |
| POL1PZ | 2026-08-31 06:48:14 | 48.78790 | 18.24505 | 246° | 13km/h | 26698m | 4.3m/s | -48.8°C | 0% | 0hPa | 0V | 00:00:00 | 00:00:00 | 00:00:00 | |
| SQ9EZE-15 | 2026-08-31 06:48:12 | 48.78790 | 18.24518 | 304° | 16km/h | 26681m | 5.4m/s | -48.7°C | 0% | 0hPa | 0V | 00:00:00 | 00:00:00 | 00:00:00 | |
| DO3MHA-11 | 2026-08-31 06:48:08 | 48.78784 | 18.24538 | 257° | 18km/h | 26659m | 5.7m/s | 0°C | 0% | 0hPa | 0V | 00:00:00 | 00:00:00 | 00:00:00 | |
| OE5DRO-10 | 2026-08-31 06:48:05 | 48.78787 | 18.24551 | 231° | 16km/h | 26643m | 5.5m/s | 0°C | 0% | 0hPa | 0V | 00:00:00 | 00:00:00 | 00:00:00 | |
| ATIDSZ-14 | 2026-08-31 06:48:00 | 48.78794 | 18.24584 | 306° | 18km/h | 26622m | 5.4m/s | -49.0°C | 0% | 0hPa | 0V | 00:00:00 | 00:00:00 | 00:00:00 | |
| DO3MHA-11 | 2026-08-31 06:47:58 | 48.78788 | 18.24597 | 295° | 15km/h | 26607m | 4.2m/s | 0°C | 0% | 0hPa | 0V | 00:00:00 | 00:00:00 | 00:00:00 | |
| OE5WHR-10 | 2026-08-31 06:47:57 | 48.78786 | 18.24602 | 278° | 11km/h | 26602m | 5.5m/s | 0°C | 0% | 0hPa | 0V | 00:00:00 | 00:00:00 | 00:00:00 | |
| SQ9EZE-14 | 2026-08-31 06:47:54 | 48.78788 | 18.24611 | 217° | 9km/h | 26590m | 5.4m/s | 0°C | 0% | 0hPa | 0V | 00:00:00 | 00:00:00 | 00:00:00 | |
| OE5DXL-15 | 2026-08-31 06:47:53 | 48.78791 | 18.24612 | 239° | 7km/h | 26579m | 5.5m/s | 0°C | 0% | 0hPa | 0V | 00:00:00 | 00:00:00 | 00:00:00 | |
| OE5MMP-10 | 2026-08-31 06:47:52 | 48.78794 | 18.24618 | 239° | 13km/h | 26574m | 4.2m/s | 0°C | 0% | 0hPa | 0V | 00:00:00 | 00:00:00 | 00:00:00 | |
| DO3MHA-11 | 2026-08-31 06:47:48 | 48.78796 | 18.24641 | 321° | 9km/h | 26553m | 5.4m/s | 0°C | 0% | 0hPa | 0V | 00:00:00 | 00:00:00 | 00:00:00 | |
| OE3JTB-15 | 2026-08-31 06:47:46 | 48.78790 | 18.24647 | 312° | 5km/h | 26543m | 4.9m/s | 0°C | 0% | 0hPa | 0V | 00:00:00 | 00:00:00 | 00:00:00 | |
| NBG1-10 | 2026-08-31 06:47:42 | 48.78791 | 18.24652 | 190° | 5km/h | 26520m | 6.0m/s | 0°C | 0% | 0hPa | 0V | 00:00:00 | 00:00:00 | 00:00:00 | |
| ATIDSZ-14 | 2026-08-31 06:47:40 | 48.78798 | 18.24656 | 244° | 9km/h | 26510m | 4.3m/s | -48.9°C | 0% | 0hPa | 0V | 00:00:00 | 00:00:00 | 00:00:00 | |
| DO3MHA-11 | 2026-08-31 06:47:38 | 48.78799 | 18.24660 | 316° | 4km/h | 26499m | 4.9m/s | 0°C | 0% | 0hPa | 0V | 00:00:00 | 00:00:00 | 00:00:00 | |
| OE5WHR-10 | 2026-08-31 06:47:36 | 48.78798 | 18.24661 | 317° | 4km/h | 26494m | 4.9m/s | 0°C | 0% | 0hPa | 0V | 00:00:00 | 00:00:00 | 00:00:00 | |
| POL1PZ | 2026-08-31 06:47:33 | 48.78799 | 18.24665 | 160° | 2km/h | 26472m | 6.3m/s | -48.9°C | 0% | 0hPa | 0V | 00:00:00 | 00:00:00 | 00:00:00 | |
| OE5MMP-10 | 2026-08-31 06:47:32 | 48.78799 | 18.24666 | 147° | 4km/h | 26467m | 4.8m/s | 0°C | 0% | 0hPa | 0V | 00:00:00 | 00:00:00 | 00:00:00 | |
| DO3MHA-11 | 2026-08-31 06:47:28 | 48.78801 | 18.24666 | 235° | 4km/h | 26445m | 5.4m/s | 0°C | 0% | 0hPa | 0V | 00:00:00 | 00:00:00 | 00:00:00 | |
| OE5DRO-10 | 2026-08-31 06:47:27 | 48.78803 | 18.24668 | 241° | 4km/h | 26439m | 6.1m/s | 0°C | 0% | 0hPa | 0V | 00:00:00 | 00:00:00 | 00:00:00 | |
| OE5MMP-10 | 2026-08-31 06:47:22 | 48.78803 | 18.24672 | 193° | 4km/h | 26413m | 5.3m/s | 0°C | 0% | 0hPa | 0V | 00:00:00 | 00:00:00 | 00:00:00 | |
| ATIDSZ-14 | 2026-08-31 06:47:19 | 48.78806 | 18.24670 | 128° | 5km/h | 26402m | 4.8m/s | -49.2°C | 0% | 0hPa | 0V | 00:00:00 | 00:00:00 | 00:00:00 | |
| DO3MHA-11 | 2026-08-31 06:47:18 | 48.78806 | 18.24669 | 160° | 4km/h | 26392m | 5.4m/s | 0°C | 0% | 0hPa | 0V | 00:00:00 | 00:00:00 | 00:00:00 | |
| OE3JTB-15 | 2026-08-31 06:47:17 | 48.78807 | 18.24668 | 198° | 7km/h | 26387m | 4.6m/s | 0°C | 0% | 0hPa | 0V | 00:00:00 | 00:00:00 | 00:00:00 | |
| OE5WHR-10 | 2026-08-31 06:47:15 | 48.78808 | 18.24669 | 145° | 7km/h | 26376m | 5.1m/s | 0°C | 0% | 0hPa | 0V | 00:00:00 | 00:00:00 | 00:00:00 | |
| OE5MMP-10 | 2026-08-31 06:47:12 | 48.78808 | 18.24666 | 162° | 7km/h | 26361m | 5.5m/s | 0°C | 0% | 0hPa | 0V | 00:00:00 | 00:00:00 | 00:00:00 | |
| POL1PZ | 2026-08-31 06:47:11 | 48.78808 | 18.24667 | 162° | 4km/h | 26361m | 5.6m/s | -49.0°C | 0% | 0hPa | 0V | 00:00:00 | 00:00:00 | 00:00:00 | |
| DO3MHA-11 | 2026-08-31 06:47:08 | 48.78812 | 18.24665 | 103° | 9km/h | 26340m | 4.6m/s | 0°C | 0% | 0hPa | 0V | 00:00:00 | 00:00:00 | 00:00:00 | |
| OE5MMP-10 | 2026-08-31 06:47:02 | 48.78813 | 18.24646 | 72° | 9km/h | 26308m | 3.8m/s | 0°C | 0% | 0hPa | 0V | 00:00:00 | 00:00:00 | 00:00:00 | |
| DO3MHA-11 | 2026-08-31 06:46:58 | 48.78813 | 18.24635 | 124° | 9km/h | 26287m | 5.6m/s | 0°C | 0% | 0hPa | 0V | 00:00:00 | 00:00:00 | 00:00:00 | |
| OE5WHR-10 | 2026-08-31 06:46:54 | 48.78814 | 18.24623 | 59° | 13km/h | 26266m | 5.3m/s | 0°C | 0% | 0hPa | 0V | 00:00:00 | 00:00:00 | 00:00:00 | |
| OE5DXL-15 | 2026-08-31 06:46:53 | 48.78813 | 18.24620 | 28° | 15km/h | 26261m | 4.5m/s | 0°C | 0% | 0hPa | 0V | 00:00:00 | 00:00:00 | 00:00:00 | |
| OE5MMP-10 | 2026-08-31 06:46:52 | 48.78811 | 18.24618 | 28° | 11km/h | 26256m | 5.2m/s | 0°C | 0% | 0hPa | 0V | 00:00:00 | 00:00:00 | 00:00:00 | |
| POL1PZ | 2026-08-31 06:46:51 | 48.78809 | 18.24616 | 25° | 13km/h | 26256m | 5.3m/s | -49.2°C | 0% | 0hPa | 0V | 00:00:00 | 00:00:00 | 00:00:00 | |
| SQ9EZE-15 | 2026-08-31 06:46:50 | 48.78806 | 18.24614 | 24° | 16km/h | 26251m | 5.8m/s | -49.2°C | 0% | 0hPa | 0V | 00:00:00 | 00:00:00 | 00:00:00 | |
| OE5DRO-10 | 2026-08-31 06:46:49 | 48.78797 | 18.24612 | 20° | 13km/h | 26245m | 4.4m/s | 0°C | 0% | 0hPa | 0V | 00:00:00 | 00:00:00 | 00:00:00 | |
| DO3MHA-11 | 2026-08-31 06:46:48 | 48.78797 | 18.24610 | 16° | 11km/h | 26234m | 5.2m/s | 0°C | 0% | 0hPa | 0V | 00:00:00 | 00:00:00 | 00:00:00 | |
| OE5MMP-10 | 2026-08-31 06:46:42 | 48.78787 | 18.24595 | 32° | 13km/h | 26204m | 5.8m/s | 0°C | 0% | 0hPa | 0V | 00:00:00 | 00:00:00 | 00:00:00 | |
| DO3MHA-11 | 2026-08-31 06:46:38 | 48.78777 | 18.24590 | 8° | 13km/h | 26182m | 4.9m/s | 0°C | 0% | 0hPa | 0V | 00:00:00 | 00:00:00 | 00:00:00 | |
| OE5WHR-10 | 2026-08-31 06:46:33 | 48.78759 | 18.24585 | 41° | 18km/h | 26150m | 5.6m/s | 0°C | 0% | 0hPa | 0V | 00:00:00 | 00:00:00 | 00:00:00 | |
| OE5MMP-10 | 2026-08-31 06:46:32 | 48.78757 | 18.24582 | 48° | 18km/h | 26150m | 5.6m/s | 0°C | 0% | 0hPa | 0V | 00:00:00 | 00:00:00 | 00:00:00 | |
| POL1PZ | 2026-08-31 06:46:30 | 48.78752 | 18.24574 | 31° | 11km/h | 26145m | 5.2m/s | -48.8°C | 0% | 0hPa | 0V | 00:00:00 | 00:00:00 | 00:00:00 | |
| OE5DRO-10 | 2026-08-31 06:46:29 | 48.78750 | 18.24572 | 14° | 20km/h | 26135m | 5.6m/s | 0°C | 0% | 0hPa | 0V | 00:00:00 | 00:00:00 | 00:00:00 | |
| NBG1-10 | 2026-08-31 06:46:28 | 48.78747 | 18.24570 | 14° | 20km/h | 26124m | 4.8m/s | 0°C | 0% | 0hPa | 0V | 00:00:00 | 00:00:00 | 00:00:00 | |
| OE5DXL-15 | 2026-08-31 06:46:23 | 48.78720 | 18.24571 | 7° | 18km/h | 26104m | 6.0m/s | 0°C | 0% | 0hPa | 0V | 00:00:00 | 00:00:00 | 00:00:00 | |
| OE5MMP-10 | 2026-08-31 06:46:22 | 48.78716 | 18.24569 | 7° | 18km/h | 26098m | 5.4m/s | 0°C | 0% | 0hPa | 0V | 00:00:00 | 00:00:00 | 00:00:00 | |
| OE3JTB-15 | 2026-08-31 06:46:19 | 48.78704 | 18.24564 | 25° | 18km/h | 26082m | 5.4m/s | 0°C | 0% | 0hPa | 0V | 00:00:00 | 00:00:00 | 00:00:00 | |
| DO3MHA-11 | 2026-08-31 06:46:18 | 48.78701 | 18.24561 | 11° | 20km/h | 26077m | 3.9m/s | 0°C | 0% | 0hPa | 0V | 00:00:00 | 00:00:00 | 00:00:00 | |
| ATIDSZ-14 | 2026-08-31 06:46:17 | 48.78698 | 18.24560 | 357° | 11km/h | 26077m | 4.0m/s | -49.0°C | 0% | 0hPa | 0V | 00:00:00 | 00:00:00 | 00:00:00 | |
| OE5MMP-10 | 2026-08-31 06:46:12 | 48.78669 | 18.24570 | 332° | 16km/h | 26047m | 4.8m/s | 0°C | 0% | 0hPa | 0V | 00:00:00 | 00:00:00 | 00:00:00 | |
| OE5DRO-10 | 2026-08-31 06:46:10 | 48.78659 | 18.24577 | 336° | 18km/h | 26042m | 4.6m/s | 0°C | 0% | 0hPa | 0V | 00:00:00 | 00:00:00 | 00:00:00 | |
| DO3MHA-11 | 2026-08-31 06:46:08 | 48.78650 | 18.24582 | 354° | 18km/h | 26027m | 4.7m/s | 0°C | 0% | 0hPa | 0V | 00:00:00 | 00:00:00 | 00:00:00 | |
| POL1PZ | 2026-08-31 06:46:05 | 48.78640 | 18.24584 | 343° | 9km/h | 26016m | 4.7m/s | -49.0°C | 0% | 0hPa | 0V | 00:00:00 | 00:00:00 | 00:00:00 | |
| OE5MMP-10 | 2026-08-31 06:46:02 | 48.78629 | 18.24589 | 337° | 20km/h | 25995m | 6.2m/s | 0°C | 0% | 0hPa | 0V | 00:00:00 | 00:00:00 | 00:00:00 | |
| DO3MHA-11 | 2026-08-31 06:45:58 | 48.78609 | 18.24609 | 329° | 20km/h | 25975m | 4.3m/s | 0°C | 0% | 0hPa | 0V | 00:00:00 | 00:00:00 | 00:00:00 | |
| ATIDSZ-14 | 2026-08-31 06:45:57 | 48.78604 | 18.24614 | 337° | 22km/h | 25975m | 4.4m/s | -48.9°C | 0% | 0hPa | 0V | 00:00:00 | 00:00:00 | 00:00:00 | |
| NBG1-10 | 2026-08-31 06:45:55 | 48.78596 | 18.24619 | 324° | 24km/h | 25965m | 5.9m/s | 0°C | 0% | 0hPa | 0V | 00:00:00 | 00:00:00 | 00:00:00 | |
| OE5DXL-15 | 2026-08-31 06:45:53 | 48.78592 | 18.24625 | 330° | 22km/h | 25950m | 5.9m/s | 0°C | 0% | 0hPa | 0V | 00:00:00 | 00:00:00 | 00:00:00 | |
| OE5MMP-10 | 2026-08-31 06:45:52 | 48.78589 | 18.24628 | 330° | 22km/h | 25945m | 4.4m/s | 0°C | 0% | 0hPa | 0V | 00:00:00 | 00:00:00 | 00:00:00 | |
| OE5DRO-10 | 2026-08-31 06:45:51 | 48.78585 | 18.24631 | 332° | 24km/h | 25940m | 4.8m/s | 0°C | 0% | 0hPa | 0V | 00:00:00 | 00:00:00 | 00:00:00 | |
| OE3JTB-15 | 2026-08-31 06:45:50 | 48.78580 | 18.24636 | 330° | 24km/h | 25935m | 5.5m/s | 0°C | 0% | 0hPa | 0V | 00:00:00 | 00:00:00 | 00:00:00 | |
| DO3MHA-11 | 2026-08-31 06:45:48 | 48.78570 | 18.24647 | 317° | 22km/h | 25924m | 4.9m/s | 0°C | 0% | 0hPa | 0V | 00:00:00 | 00:00:00 | 00:00:00 | |
| POL1PZ | 2026-08-31 06:45:43 | 48.78549 | 18.24675 | 302° | 18km/h | 25903m | 5.3m/s | -49.1°C | 0% | 0hPa | 0V | 00:00:00 | 00:00:00 | 00:00:00 | |
| OE5MMP-10 | 2026-08-31 06:45:42 | 48.78547 | 18.24682 | 307° | 24km/h | 25893m | 6.0m/s | 0°C | 0% | 0hPa | 0V | 00:00:00 | 00:00:00 | 00:00:00 | |
| DO3MHA-11 | 2026-08-31 06:45:38 | 48.78533 | 18.24706 | 314° | 24km/h | 25872m | 4.7m/s | 0°C | 0% | 0hPa | 0V | 00:00:00 | 00:00:00 | 00:00:00 | |
| SQ9EZE-14 | 2026-08-31 06:45:37 | 48.78529 | 18.24714 | 311° | 26km/h | 25872m | 4.7m/s | -49.2°C | 0% | 0hPa | 0V | 00:00:00 | 00:00:00 | 00:00:00 | |
| ATIDSZ-14 | 2026-08-31 06:45:36 | 48.78524 | 18.24721 | 316° | 26km/h | 25867m | 5.1m/s | -49.2°C | 0% | 0hPa | 0V | 00:00:00 | 00:00:00 | 00:00:00 | |
| OE5MMP-10 | 2026-08-31 06:45:32 | 48.78505 | 18.24742 | 314° | 26km/h | 25841m | 4.0m/s | 0°C | 0% | 0hPa | 0V | 00:00:00 | 00:00:00 | 00:00:00 | |
| OE5DRO-10 | 2026-08-31 06:45:29 | 48.78493 | 18.24763 | 324° | 24km/h | 25826m | 4.7m/s | 0°C | 0% | 0hPa | 0V | 00:00:00 | 00:00:00 | 00:00:00 | |
| DO3MHA-11 | 2026-08-31 06:45:28 | 48.78488 | 18.24769 | 324° | 24km/h | 25821m | 4.7m/s | 0°C | 0% | 0hPa | 0V | 00:00:00 | 00:00:00 | 00:00:00 | |
| OE5DXL-15 | 2026-08-31 06:45:23 | 48.78466 | 18.24804 | 317° | 18km/h | 25793m | 5.1m/s | 0°C | 0% | 0hPa | 0V | 00:00:00 | 00:00:00 | 00:00:00 | |
| OE5MMP-10 | 2026-08-31 06:45:22 | 48.78461 | 18.24810 | 315° | 24km/h | 25788m | 5.3m/s | 0°C | 0% | 0hPa | 0V | 00:00:00 | 00:00:00 | 00:00:00 | |
| OE3JTB-15 | 2026-08-31 06:45:21 | 48.78457 | 18.24817 | 310° | 18km/h | 25783m | 4.0m/s | 0°C | 0% | 0hPa | 0V | 00:00:00 | 00:00:00 | 00:00:00 | |
| NBG1-10 | 2026-08-31 06:45:20 | 48.78453 | 18.24827 | 325° | 16km/h | 25773m | 5.5m/s | 0°C | 0% | 0hPa | 0V | 00:00:00 | 00:00:00 | 00:00:00 | |
| DO3MHA-11 | 2026-08-31 06:45:18 | 48.78445 | 18.24836 | 325° | 22km/h | 25768m | 3.8m/s | 0°C | 0% | 0hPa | 0V | 00:00:00 | 00:00:00 | 00:00:00 | |
| ATIDSZ-14 | 2026-08-31 06:45:16 | 48.78436 | 18.24845 | 314° | 20km/h | 25764m | 4.1m/s | -49.0°C | 0% | 0hPa | 0V | 00:00:00 | 00:00:00 | 00:00:00 | |
| OE5MMP-10 | 2026-08-31 06:45:12 | 48.78426 | 18.24879 | 298° | 16km/h | 25738m | 4.8m/s | 0°C | 0% | 0hPa | 0V | 00:00:00 | 00:00:00 | 00:00:00 | |
| OE5DRO-10 | 2026-08-31 06:45:10 | 48.78422 | 18.24892 | 296° | 15km/h | 25727m | 5.7m/s | 0°C | 0% | 0hPa | 0V | 00:00:00 | 00:00:00 | 00:00:00 | |
| DO3MHA-11 | 2026-08-31 06:45:08 | 48.78419 | 18.24903 | 298° | 15km/h | 25716m | 6.0m/s | 0°C | 0% | 0hPa | 0V | 00:00:00 | 00:00:00 | 00:00:00 | |
| OE5WHR-10 | 2026-08-31 06:45:05 | 48.78414 | 18.24913 | 300° | 13km/h | 25706m | 4.6m/s | 0°C | 0% | 0hPa | 0V | 00:00:00 | 00:00:00 | 00:00:00 | |
| OE5MMP-10 | 2026-08-31 06:45:02 | 48.78411 | 18.24929 | 274° | 15km/h | 25683m | 4.9m/s | 0°C | 0% | 0hPa | 0V | 00:00:00 | 00:00:00 | 00:00:00 | |
| POL1PZ | 2026-08-31 06:45:01 | 48.78411 | 18.24936 | 271° | 18km/h | 25683m | 4.9m/s | -49.2°C | 0% | 0hPa | 0V | 00:00:00 | 00:00:00 | 00:00:00 | |
| DO3MHA-11 | 2026-08-31 06:44:58 | 48.78413 | 18.24958 | 250° | 13km/h | 25662m | 5.5m/s | 0°C | 0% | 0hPa | 0V | 00:00:00 | 00:00:00 | 00:00:00 | |
| ATIDSZ-14 | 2026-08-31 06:44:55 | 48.78415 | 18.24971 | 273° | 7km/h | 25651m | 4.2m/s | -49.0°C | 0% | 0hPa | 0V | 00:00:00 | 00:00:00 | 00:00:00 | |
| OE5DXL-15 | 2026-08-31 06:44:53 | 48.78415 | 18.24978 | 255° | 11km/h | 25635m | 5.0m/s | 0°C | 0% | 0hPa | 0V | 00:00:00 | 00:00:00 | 00:00:00 | |
| OE5MMP-10 | 2026-08-31 06:44:52 | 48.78416 | 18.24983 | 251° | 11km/h | 25630m | 5.5m/s | 0°C | 0% | 0hPa | 0V | 00:00:00 | 00:00:00 | 00:00:00 | |
| OE5DRO-10 | 2026-08-31 06:44:49 | 48.78420 | 18.24999 | 248° | 11km/h | 25614m | 5.8m/s | 0°C | 0% | 0hPa | 0V | 00:00:00 | 00:00:00 | 00:00:00 | |
| DO3MHA-11 | 2026-08-31 06:44:48 | 48.78421 | 18.25004 | 237° | 11km/h | 25608m | 5.5m/s | 0°C | 0% | 0hPa | 0V | 00:00:00 | 00:00:00 | 00:00:00 | |
| NBG1-10 | 2026-08-31 06:44:47 | 48.78423 | 18.25008 | 237° | 9km/h | 25592m | 4.7m/s | 0°C | 0% | 0hPa | 0V | 00:00:00 | 00:00:00 | 00:00:00 | |
| OE5MMP-10 | 2026-08-31 06:44:42 | 48.78426 | 18.25021 | 279° | 13km/h | 25576m | 5.0m/s | 0°C | 0% | 0hPa | 0V | 00:00:00 | 00:00:00 | 00:00:00 | |
| POL1PZ | 2026-08-31 06:44:40 | 48.78425 | 18.25030 | 282° | 15km/h | 25571m | 5.7m/s | -48.9°C | 0% | 0hPa | 0V | 00:00:00 | 00:00:00 | 00:00:00 | |
| DO3MHA-11 | 2026-08-31 06:44:38 | 48.78423 | 18.25040 | 273° | 11km/h | 25554m | 6.0m/s | 0°C | 0% | 0hPa | 0V | 00:00:00 | 00:00:00 | 00:00:00 | |
| ATIDSZ-14 | 2026-08-31 06:44:35 | 48.78425 | 18.25056 | 235° | 15km/h | 25543m | 5.2m/s | -48.9°C | 0% | 0hPa | 0V | 00:00:00 | 00:00:00 | 00:00:00 | |
| OE5MMP-10 | 2026-08-31 06:44:32 | 48.78430 | 18.25062 | 245° | 9km/h | 25522m | 6.0m/s | 0°C | 0% | 0hPa | 0V | 00:00:00 | 00:00:00 | 00:00:00 | |
| OE5DRO-10 | 2026-08-31 06:44:30 | 48.78431 | 18.25067 | 267° | 11km/h | 25512m | 5.1m/s | 0°C | 0% | 0hPa | 0V | 00:00:00 | 00:00:00 | 00:00:00 | |
| DO3MHA-11 | 2026-08-31 06:44:28 | 48.78431 | 18.25075 | 289° | 9km/h | 25501m | 4.9m/s | 0°C | 0% | 0hPa | 0V | 00:00:00 | 00:00:00 | 00:00:00 | |
| OE3JTB-15 | 2026-08-31 06:44:23 | 48.78428 | 18.25092 | 252° | 11km/h | 25474m | 6.0m/s | 0°C | 0% | 0hPa | 0V | 00:00:00 | 00:00:00 | 00:00:00 | |
| OE5MMP-10 | 2026-08-31 06:44:22 | 48.78429 | 18.25098 | 239° | 9km/h | 25468m | 5.0m/s | 0°C | 0% | 0hPa | 0V | 00:00:00 | 00:00:00 | 00:00:00 | |
| POL1PZ | 2026-08-31 06:44:20 | 48.78430 | 18.25101 | 248° | 4km/h | 25464m | 4.6m/s | -49.0°C | 0% | 0hPa | 0V | 00:00:00 | 00:00:00 | 00:00:00 | |
| DO3MHA-11 | 2026-08-31 06:44:18 | 48.78432 | 18.25105 | 282° | 11km/h | 25447m | 5.3m/s | 0°C | 0% | 0hPa | 0V | 00:00:00 | 00:00:00 | 00:00:00 | |
| NBG1-10 | 2026-08-31 06:44:14 | 48.78429 | 18.25119 | 268° | 11km/h | 25420m | 4.9m/s | 0°C | 0% | 0hPa | 0V | 00:00:00 | 00:00:00 | 00:00:00 | |
| OE5MMP-10 | 2026-08-31 06:44:12 | 48.78430 | 18.25130 | 245° | 11km/h | 25415m | 5.8m/s | 0°C | 0% | 0hPa | 0V | 00:00:00 | 00:00:00 | 00:00:00 | |
| OE5DRO-10 | 2026-08-31 06:44:11 | 48.78432 | 18.25135 | 238° | 11km/h | 25409m | 5.6m/s | 0°C | 0% | 0hPa | 0V | 00:00:00 | 00:00:00 | 00:00:00 | |
| GYPAP8-17 | 2026-08-31 06:44:09 | 48.78435 | 18.25142 | 248° | 9km/h | 25403m | 5.0m/s | -48.9°C | 0% | 0hPa | 0V | 00:00:00 | 00:00:00 | 00:00:00 | |
| DO3MHA-11 | 2026-08-31 06:44:08 | 48.78436 | 18.25145 | 262° | 11km/h | 25393m | 4.7m/s | 0°C | 0% | 0hPa | 0V | 00:00:00 | 00:00:00 | 00:00:00 | |
| OE5MMP-10 | 2026-08-31 06:44:02 | 48.78427 | 18.25161 | 281° | 11km/h | 25360m | 4.4m/s | 0°C | 0% | 0hPa | 0V | 00:00:00 | 00:00:00 | 00:00:00 | |
| SQ9EZE-15 | 2026-08-31 06:44:01 | 48.78427 | 18.25167 | 271° | 16km/h | 25360m | 4.4m/s | -48.9°C | 0% | 0hPa | 0V | 00:00:00 | 00:00:00 | 00:00:00 | |
| OE5WHR-10 | 2026-08-31 06:44:00 | 48.78427 | 18.25173 | 271° | 9km/h | 25333m | 4.9m/s | 0°C | 0% | 0hPa | 0V | 00:00:00 | 00:00:00 | 00:00:00 | |
| POL1PZ | 2026-08-31 06:43:59 | 48.78427 | 18.25177 | 284° | 11km/h | 25350m | 5.5m/s | -49.0°C | 0% | 0hPa | 0V | 00:00:00 | 00:00:00 | 00:00:00 | |
| DO3MHA-11 | 2026-08-31 06:43:58 | 48.78427 | 18.25181 | 310° | 11km/h | 25338m | 6.1m/s | 0°C | 0% | 0hPa | 0V | 00:00:00 | 00:00:00 | 00:00:00 | |
| OE3JTB-15 | 2026-08-31 06:43:54 | 48.78419 | 18.25187 | 346° | 9km/h | 25317m | 4.1m/s | 0°C | 0% | 0hPa | 0V | 00:00:00 | 00:00:00 | 00:00:00 | |
| OE5DXL-15 | 2026-08-31 06:43:53 | 48.78416 | 18.25187 | 346° | 9km/h | 25312m | 5.1m/s | 0°C | 0% | 0hPa | 0V | 00:00:00 | 00:00:00 | 00:00:00 | |
| OE5MMP-10 | 2026-08-31 06:43:52 | 48.78414 | 18.25184 | 263° | 11km/h | 25307m | 5.6m/s | 0°C | 0% | 0hPa | 0V | 00:00:00 | 00:00:00 | 00:00:00 | |
| OE5MMP-10 | 2026-08-31 06:43:42 | 48.78402 | 18.25216 | 351° | 9km/h | 25254m | 4.9m/s | 0°C | 0% | 0hPa | 0V | 00:00:00 | 00:00:00 | 00:00:00 | |
| NBG1-10 | 2026-08-31 06:43:41 | 48.78400 | 18.25214 | 311° | 11km/h | 25249m | 4.9m/s | 0°C | 0% | 0hPa | 0V | 00:00:00 | 00:00:00 | 00:00:00 | |
| DO3MHA-11 | 2026-08-31 06:43:38 | 48.78398 | 18.25219 | 275° | 11km/h | 25233m | 5.1m/s | 0°C | 0% | 0hPa | 0V | 00:00:00 | 00:00:00 | 00:00:00 | |
| OE5WHR-10 | 2026-08-31 06:43:37 | 48.78398 | 18.25224 | 312° | 13km/h | 25228m | 5.4m/s | 0°C | 0% | 0hPa | 0V | 00:00:00 | 00:00:00 | 00:00:00 | |
| OE5DRO-10 | 2026-08-31 06:43:33 | 48.78392 | 18.25228 | 287° | 13km/h | 25201m | 6.2m/s | 0°C | 0% | 0hPa | 0V | 00:00:00 | 00:00:00 | 00:00:00 | |
| OE5MMP-10 | 2026-08-31 06:43:32 | 48.78389 | 18.25237 | 327° | 11km/h | 25201m | 6.2m/s | 0°C | 0% | 0hPa | 0V | 00:00:00 | 00:00:00 | 00:00:00 | |
| DO3MHA-11 | 2026-08-31 06:43:28 | 48.78380 | 18.25245 | 287° | 13km/h | 25180m | 4.5m/s | 0°C | 0% | 0hPa | 0V | 00:00:00 | 00:00:00 | 00:00:00 | |
| OE3JTB-15 | 2026-08-31 06:43:25 | 48.78377 | 18.25256 | 302° | 13km/h | 25163m | 4.4m/s | 0°C | 0% | 0hPa | 0V | 00:00:00 | 00:00:00 | 00:00:00 | |
| OE5DXL-15 | 2026-08-31 06:43:23 | 48.78374 | 18.25263 | 300° | 13km/h | 25153m | 6.4m/s | 0°C | 0% | 0hPa | 0V | 00:00:00 | 00:00:00 | 00:00:00 | |
| OE5MMP-10 | 2026-08-31 06:43:22 | 48.78372 | 18.25268 | 291° | 15km/h | 25148m | 5.0m/s | 0°C | 0% | 0hPa | 0V | 00:00:00 | 00:00:00 | 00:00:00 | |
| SQ9EZE-14 | 2026-08-31 06:43:20 | 48.78369 | 18.25282 | 293° | 18km/h | 25142m | 5.9m/s | -49.6°C | 0% | 0hPa | 0V | 00:00:00 | 00:00:00 | 00:00:00 | |
| DO3MHA-11 | 2026-08-31 06:43:18 | 48.78365 | 18.25293 | 300° | 11km/h | 25126m | 5.9m/s | 0°C | 0% | 0hPa | 0V | 00:00:00 | 00:00:00 | 00:00:00 | |
| OE5WHR-10 | 2026-08-31 06:43:16 | 48.78362 | 18.25301 | 294° | 7km/h | 25111m | 5.1m/s | 0°C | 0% | 0hPa | 0V | 00:00:00 | 00:00:00 | 00:00:00 | |
| OE5MMP-10 | 2026-08-31 06:43:12 | 48.78358 | 18.25313 | 319° | 13km/h | 25094m | 6.2m/s | 0°C | 0% | 0hPa | 0V | 00:00:00 | 00:00:00 | 00:00:00 | |
| OE5DRO-10 | 2026-08-31 06:43:09 | 48.78353 | 18.25322 | 316° | 11km/h | 25078m | 5.7m/s | 0°C | 0% | 0hPa | 0V | 00:00:00 | 00:00:00 | 00:00:00 | |
| NBG1-10 | 2026-08-31 06:43:08 | 48.78351 | 18.25326 | 316° | 9km/h | 25073m | 5.0m/s | 0°C | 0% | 0hPa | 0V | 00:00:00 | 00:00:00 | 00:00:00 | |
| OE5MMP-10 | 2026-08-31 06:43:02 | 48.78338 | 18.25349 | 350° | 9km/h | 25041m | 4.5m/s | 0°C | 0% | 0hPa | 0V | 00:00:00 | 00:00:00 | 00:00:00 | |
| DO3MHA-11 | 2026-08-31 06:42:58 | 48.78329 | 18.25351 | 356° | 7km/h | 25020m | 6.3m/s | 0°C | 0% | 0hPa | 0V | 00:00:00 | 00:00:00 | 00:00:00 | |
| OE3JTB-15 | 2026-08-31 06:42:56 | 48.78323 | 18.25350 | 341° | 5km/h | 25009m | 4.8m/s | 0°C | 0% | 0hPa | 0V | 00:00:00 | 00:00:00 | 00:00:00 | |
| OE5MMP-10 | 2026-08-31 06:42:52 | 48.78315 | 18.25358 | 1° | 5km/h | 24988m | 5.6m/s | 0°C | 0% | 0hPa | 0V | 00:00:00 | 00:00:00 | 00:00:00 | |
| OE5DRO-10 | 2026-08-31 06:42:50 | 48.78314 | 18.25358 | 13° | 5km/h | 24977m | 6.1m/s | 0°C | 0% | 0hPa | 0V | 00:00:00 | 00:00:00 | 00:00:00 | |
| DO3MHA-11 | 2026-08-31 06:42:48 | 48.78313 | 18.25359 | 358° | 5km/h | 24967m | 4.8m/s | 0°C | 0% | 0hPa | 0V | 00:00:00 | 00:00:00 | 00:00:00 | |
| OE5MMP-10 | 2026-08-31 06:42:42 | 48.78302 | 18.25356 | 282° | 5km/h | 24936m | 5.0m/s | 0°C | 0% | 0hPa | 0V | 00:00:00 | 00:00:00 | 00:00:00 | |
| OE5WHR-10 | 2026-08-31 06:42:39 | 48.78302 | 18.25358 | 347° | 4km/h | 24920m | 5.8m/s | 0°C | 0% | 0hPa | 0V | 00:00:00 | 00:00:00 | 00:00:00 | |
| DO3MHA-11 | 2026-08-31 06:42:38 | 48.78301 | 18.25360 | 350° | 5km/h | 24915m | 5.2m/s | 0°C | 0% | 0hPa | 0V | 00:00:00 | 00:00:00 | 00:00:00 | |
| POL1PZ | 2026-08-31 06:42:36 | 48.78295 | 18.25362 | 19° | 7km/h | 24905m | 5.8m/s | -49.8°C | 0% | 0hPa | 0V | 00:00:00 | 00:00:00 | 00:00:00 | |
| NBG1-10 | 2026-08-31 06:42:35 | 48.78295 | 18.25362 | 19° | 7km/h | 24899m | 5.0m/s | 0°C | 0% | 0hPa | 0V | 00:00:00 | 00:00:00 | 00:00:00 | |
| OE5MMP-10 | 2026-08-31 06:42:32 | 48.78292 | 18.25357 | 295° | 4km/h | 24884m | 5.2m/s | 0°C | 0% | 0hPa | 0V | 00:00:00 | 00:00:00 | 00:00:00 | |
| OE5DRO-10 | 2026-08-31 06:42:31 | 48.78292 | 18.25359 | 295° | 4km/h | 24879m | 4.5m/s | 0°C | 0% | 0hPa | 0V | 00:00:00 | 00:00:00 | 00:00:00 | |
| DO3MHA-11 | 2026-08-31 06:42:28 | 48.78291 | 18.25362 | 69° | 4km/h | 24864m | 3.7m/s | 0°C | 0% | 0hPa | 0V | 00:00:00 | 00:00:00 | 00:00:00 | |
| OE3JTB-15 | 2026-08-31 06:42:27 | 48.78291 | 18.25361 | 69° | 9km/h | 24859m | 5.6m/s | 0°C | 0% | 0hPa | 0V | 00:00:00 | 00:00:00 | 00:00:00 | |
| OE5DXL-15 | 2026-08-31 06:42:23 | 48.78289 | 18.25358 | 65° | 11km/h | 24838m | 3.9m/s | 0°C | 0% | 0hPa | 0V | 00:00:00 | 00:00:00 | 00:00:00 | |
| OE5MMP-10 | 2026-08-31 06:42:22 | 48.78289 | 18.25356 | 56° | 5km/h | 24834m | 5.5m/s | 0°C | 0% | 0hPa | 0V | 00:00:00 | 00:00:00 | 00:00:00 | |
| DO3MHA-11 | 2026-08-31 06:42:18 | 48.78286 | 18.25358 | 312° | 7km/h | 24812m | 4.7m/s | 0°C | 0% | 0hPa | 0V | 00:00:00 | 00:00:00 | 00:00:00 | |
| OE5MMP-10 | 2026-08-31 06:42:12 | 48.78281 | 18.25370 | 316° | 13km/h | 24781m | 4.8m/s | 0°C | 0% | 0hPa | 0V | 00:00:00 | 00:00:00 | 00:00:00 | |
| POL1PZ | 2026-08-31 06:42:11 | 48.78280 | 18.25372 | 322° | 5km/h | 24781m | 4.8m/s | -49.9°C | 0% | 0hPa | 0V | 00:00:00 | 00:00:00 | 00:00:00 | |
| DO3MHA-11 | 2026-08-31 06:42:08 | 48.78274 | 18.25379 | 338° | 16km/h | 24760m | 5.0m/s | 0°C | 0% | 0hPa | 0V | 00:00:00 | 00:00:00 | 00:00:00 | |
| NBG1-10 | 2026-08-31 06:42:02 | 48.78254 | 18.25394 | 309° | 18km/h | 24724m | 5.7m/s | 0°C | 0% | 0hPa | 0V | 00:00:00 | 00:00:00 | 00:00:00 | |
| GYPAP8-17 | 2026-08-31 06:42:01 | 48.78252 | 18.25401 | 313° | 13km/h | 24729m | 4.7m/s | -49.9°C | 0% | 0hPa | 0V | 00:00:00 | 00:00:00 | 00:00:00 | |
| DO3MHA-11 | 2026-08-31 06:41:58 | 48.78244 | 18.25418 | 312° | 16km/h | 24709m | 5.6m/s | 0°C | 0% | 0hPa | 0V | 00:00:00 | 00:00:00 | 00:00:00 | |
| PG1ADW-2 | 2026-08-31 06:41:57 | 48.78240 | 18.25423 | 312° | 18km/h | 24703m | 5.1m/s | 0°C | 0% | 0hPa | 0V | 00:00:00 | 00:00:00 | 00:00:00 | |
| OE5DRO-10 | 2026-08-31 06:41:53 | 48.78227 | 18.25440 | 318° | 18km/h | 24683m | 5.6m/s | 0°C | 0% | 0hPa | 0V | 00:00:00 | 00:00:00 | 00:00:00 | |
| OE5MMP-10 | 2026-08-31 06:41:52 | 48.78224 | 18.25443 | 310° | 20km/h | 24678m | 4.8m/s | 0°C | 0% | 0hPa | 0V | 00:00:00 | 00:00:00 | 00:00:00 | |
| ATIDSZ-14 | 2026-08-31 06:41:50 | 48.78221 | 18.25451 | 284° | 15km/h | 24673m | 4.3m/s | -50.3°C | 0% | 0hPa | 0V | 00:00:00 | 00:00:00 | 00:00:00 | |
| DO3MHA-11 | 2026-08-31 06:41:48 | 48.78219 | 18.25467 | 275° | 20km/h | 24656m | 5.8m/s | 0°C | 0% | 0hPa | 0V | 00:00:00 | 00:00:00 | 00:00:00 | |
| OE5MMP-10 | 2026-08-31 06:41:42 | 48.78207 | 18.25518 | 308° | 16km/h | 24626m | 6.1m/s | 0°C | 0% | 0hPa | 0V | 00:00:00 | 00:00:00 | 00:00:00 | |
| DO3MHA-11 | 2026-08-31 06:41:38 | 48.78199 | 18.25534 | 266° | 18km/h | 24606m | 4.5m/s | 0°C | 0% | 0hPa | 0V | 00:00:00 | 00:00:00 | 00:00:00 | |
| PG1ADW-2 | 2026-08-31 06:41:37 | 48.78199 | 18.25539 | 262° | 15km/h | 24602m | 4.8m/s | 0°C | 0% | 0hPa | 0V | 00:00:00 | 00:00:00 | 00:00:00 | |
| OE5WHR-10 | 2026-08-31 06:41:36 | 48.78200 | 18.25546 | 268° | 15km/h | 24596m | 5.7m/s | 0°C | 0% | 0hPa | 0V | 00:00:00 | 00:00:00 | 00:00:00 | |
| OE5MMP-10 | 2026-08-31 06:41:32 | 48.78200 | 18.25580 | 292° | 13km/h | 24577m | 3.6m/s | 0°C | 0% | 0hPa | 0V | 00:00:00 | 00:00:00 | 00:00:00 | |
| ATIDSZ-14 | 2026-08-31 06:41:30 | 48.78196 | 18.25593 | 299° | 16km/h | 24572m | 5.8m/s | -50.7°C | 0% | 0hPa | 0V | 00:00:00 | 00:00:00 | 00:00:00 | |
| NBG1-10 | 2026-08-31 06:41:29 | 48.78195 | 18.25597 | 292° | 15km/h | 24563m | 4.3m/s | 0°C | 0% | 0hPa | 0V | 00:00:00 | 00:00:00 | 00:00:00 | |
| DO3MHA-11 | 2026-08-31 06:41:28 | 48.78194 | 18.25598 | 229° | 13km/h | 24557m | 5.6m/s | 0°C | 0% | 0hPa | 0V | 00:00:00 | 00:00:00 | 00:00:00 | |
| OE5DXL-15 | 2026-08-31 06:41:23 | 48.78203 | 18.25614 | 259° | 15km/h | 24532m | 4.0m/s | 0°C | 0% | 0hPa | 0V | 00:00:00 | 00:00:00 | 00:00:00 | |
| OE5MMP-10 | 2026-08-31 06:41:22 | 48.78203 | 18.25619 | 259° | 15km/h | 24527m | 5.6m/s | 0°C | 0% | 0hPa | 0V | 00:00:00 | 00:00:00 | 00:00:00 | |
| POL1PZ | 2026-08-31 06:41:20 | 48.78205 | 18.25631 | 254° | 18km/h | 24522m | 4.5m/s | -50.7°C | 0% | 0hPa | 0V | 00:00:00 | 00:00:00 | 00:00:00 | |
| DO3MHA-11 | 2026-08-31 06:41:18 | 48.78208 | 18.25643 | 238° | 13km/h | 24507m | 4.4m/s | 0°C | 0% | 0hPa | 0V | 00:00:00 | 00:00:00 | 00:00:00 | |
| PG1ADW-2 | 2026-08-31 06:41:17 | 48.78210 | 18.25646 | 231° | 15km/h | 24502m | 6.0m/s | 0°C | 0% | 0hPa | 0V | 00:00:00 | 00:00:00 | 00:00:00 | |
| SQ9EZE-15 | 2026-08-31 06:41:12 | 48.78220 | 18.25670 | 261° | 9km/h | 24476m | 5.4m/s | -50.7°C | 0% | 0hPa | 0V | 00:00:00 | 00:00:00 | 00:00:00 | |
| OE5DRO-10 | 2026-08-31 06:41:10 | 48.78220 | 18.25675 | 258° | 18km/h | 24467m | 3.9m/s | 0°C | 0% | 0hPa | 0V | 00:00:00 | 00:00:00 | 00:00:00 | |
| ATIDSZ-14 | 2026-08-31 06:41:09 | 48.78221 | 18.25680 | 251° | 13km/h | 24467m | 4.0m/s | -50.7°C | 0% | 0hPa | 0V | 00:00:00 | 00:00:00 | 00:00:00 | |
| DO3MHA-11 | 2026-08-31 06:41:08 | 48.78221 | 18.25685 | 213° | 15km/h | 24456m | 4.5m/s | 0°C | 0% | 0hPa | 0V | 00:00:00 | 00:00:00 | 00:00:00 | |
| SQ9EZE-14 | 2026-08-31 06:41:03 | 48.78236 | 18.25702 | 237° | 20km/h | 24437m | 4.6m/s | -50.9°C | 0% | 0hPa | 0V | 00:00:00 | 00:00:00 | 00:00:00 | |
| OE5MMP-10 | 2026-08-31 06:41:02 | 48.78238 | 18.25708 | 249° | 18km/h | 24427m | 4.7m/s | 0°C | 0% | 0hPa | 0V | 00:00:00 | 00:00:00 | 00:00:00 | |
| OE3JTB-15 | 2026-08-31 06:41:00 | 48.78241 | 18.25718 | 249° | 16km/h | 24416m | 4.9m/s | 0°C | 0% | 0hPa | 0V | 00:00:00 | 00:00:00 | 00:00:00 | |
| DO3MHA-11 | 2026-08-31 06:40:58 | 48.78244 | 18.25729 | 234° | 20km/h | 24407m | 5.9m/s | 0°C | 0% | 0hPa | 0V | 00:00:00 | 00:00:00 | 00:00:00 | |
| PG1ADW-2 | 2026-08-31 06:40:57 | 48.78246 | 18.25734 | 221° | 18km/h | 24401m | 4.9m/s | 0°C | 0% | 0hPa | 0V | 00:00:00 | 00:00:00 | 00:00:00 | |
| NBG1-10 | 2026-08-31 06:40:56 | 48.78249 | 18.25737 | 201° | 15km/h | 24396m | 4.9m/s | 0°C | 0% | 0hPa | 0V | 00:00:00 | 00:00:00 | 00:00:00 | |
| OE5DXL-15 | 2026-08-31 06:40:53 | 48.78264 | 18.25746 | 205° | 15km/h | 24381m | 4.9m/s | 0°C | 0% | 0hPa | 0V | 00:00:00 | 00:00:00 | 00:00:00 | |
| OE5MMP-10 | 2026-08-31 06:40:52 | 48.78270 | 18.25750 | 205° | 16km/h | 24376m | 5.3m/s | 0°C | 0% | 0hPa | 0V | 00:00:00 | 00:00:00 | 00:00:00 | |
| OE5DRO-10 | 2026-08-31 06:40:51 | 48.78276 | 18.25753 | 205° | 15km/h | 24371m | 4.6m/s | 0°C | 0% | 0hPa | 0V | 00:00:00 | 00:00:00 | 00:00:00 | |
| ATIDSZ-14 | 2026-08-31 06:40:49 | 48.78284 | 18.25758 | 219° | 15km/h | 24366m | 5.7m/s | -50.7°C | 0% | 0hPa | 0V | 00:00:00 | 00:00:00 | 00:00:00 | |
| DO3MHA-11 | 2026-08-31 06:40:48 | 48.78287 | 18.25762 | 230° | 15km/h | 24356m | 4.5m/s | 0°C | 0% | 0hPa | 0V | 00:00:00 | 00:00:00 | 00:00:00 | |
| OE5MMP-10 | 2026-08-31 06:40:42 | 48.78304 | 18.25777 | 202° | 15km/h | 24326m | 3.9m/s | 0°C | 0% | 0hPa | 0V | 00:00:00 | 00:00:00 | 00:00:00 | |
| OE5WHR-10 | 2026-08-31 06:40:39 | 48.78316 | 18.25783 | 191° | 11km/h | 24311m | 4.3m/s | 0°C | 0% | 0hPa | 0V | 00:00:00 | 00:00:00 | 00:00:00 | |
| DO3MHA-11 | 2026-08-31 06:40:38 | 48.78320 | 18.25782 | 205° | 11km/h | 24306m | 5.7m/s | 0°C | 0% | 0hPa | 0V | 00:00:00 | 00:00:00 | 00:00:00 | |
| PG1ADW-2 | 2026-08-31 06:40:37 | 48.78323 | 18.25785 | 205° | 11km/h | 24300m | 4.6m/s | 0°C | 0% | 0hPa | 0V | 00:00:00 | 00:00:00 | 00:00:00 | |
| OE5MMP-10 | 2026-08-31 06:40:32 | 48.78336 | 18.25792 | 180° | 11km/h | 24275m | 4.7m/s | 0°C | 0% | 0hPa | 0V | 00:00:00 | 00:00:00 | 00:00:00 | |
| OE3JTB-15 | 2026-08-31 06:40:31 | 48.78339 | 18.25792 | 180° | 11km/h | 24270m | 4.7m/s | 0°C | 0% | 0hPa | 0V | 00:00:00 | 00:00:00 | 00:00:00 | |
| DO3MHA-11 | 2026-08-31 06:40:28 | 48.78347 | 18.25790 | 180° | 9km/h | 24254m | 6.0m/s | 0°C | 0% | 0hPa | 0V | 00:00:00 | 00:00:00 | 00:00:00 | |
| NBG1-10 | 2026-08-31 06:40:23 | 48.78360 | 18.25796 | 202° | 9km/h | 24229m | 5.1m/s | 0°C | 0% | 0hPa | 0V | 00:00:00 | 00:00:00 | 00:00:00 | |
| OE5MMP-10 | 2026-08-31 06:40:22 | 48.78361 | 18.25797 | 202° | 11km/h | 24224m | 5.1m/s | 0°C | 0% | 0hPa | 0V | 00:00:00 | 00:00:00 | 00:00:00 | |
| DO3MHA-11 | 2026-08-31 06:40:18 | 48.78370 | 18.25800 | 173° | 11km/h | 24203m | 5.4m/s | 0°C | 0% | 0hPa | 0V | 00:00:00 | 00:00:00 | 00:00:00 | |
| PG1ADW-2 | 2026-08-31 06:40:17 | 48.78374 | 18.25799 | 176° | 9km/h | 24203m | 5.4m/s | 0°C | 0% | 0hPa | 0V | 00:00:00 | 00:00:00 | 00:00:00 | |
| OE5DRO-10 | 2026-08-31 06:40:13 | 48.78388 | 18.25799 | 169° | 9km/h | 24171m | 5.4m/s | 0°C | 0% | 0hPa | 0V | 00:00:00 | 00:00:00 | 00:00:00 | |
| OE5MMP-10 | 2026-08-31 06:40:12 | 48.78390 | 18.25798 | 190° | 11km/h | 24171m | 5.4m/s | 0°C | 0% | 0hPa | 0V | 00:00:00 | 00:00:00 | 00:00:00 | |
| DO3MHA-11 | 2026-08-31 06:40:08 | 48.78397 | 18.25799 | 163° | 11km/h | 24151m | 4.9m/s | 0°C | 0% | 0hPa | 0V | 00:00:00 | 00:00:00 | 00:00:00 | |
| OE5MMP-10 | 2026-08-31 06:40:02 | 48.78417 | 18.25794 | 170° | 5km/h | 24119m | 6.3m/s | 0°C | 0% | 0hPa | 0V | 00:00:00 | 00:00:00 | 00:00:00 | |
| DO3MHA-11 | 2026-08-31 06:39:58 | 48.78419 | 18.25794 | 249° | 9km/h | 24098m | 4.1m/s | 0°C | 0% | 0hPa | 0V | 00:00:00 | 00:00:00 | 00:00:00 | |
| OE5WHR-10 | 2026-08-31 06:39:57 | 48.78419 | 18.25791 | 218° | 7km/h | 24094m | 5.5m/s | 0°C | 0% | 0hPa | 0V | 00:00:00 | 00:00:00 | 00:00:00 | |
| PG1ADW-2 | 2026-08-31 06:39:56 | 48.78420 | 18.25795 | 218° | 7km/h | 24088m | 5.4m/s | 0°C | 0% | 0hPa | 0V | 00:00:00 | 00:00:00 | 00:00:00 | |
| OE5DXL-15 | 2026-08-31 06:39:53 | 48.78426 | 18.25804 | 174° | 7km/h | 24073m | 5.8m/s | 0°C | 0% | 0hPa | 0V | 00:00:00 | 00:00:00 | 00:00:00 | |
| OE5MMP-10 | 2026-08-31 06:39:52 | 48.78429 | 18.25803 | 174° | 7km/h | 24068m | 4.7m/s | 0°C | 0% | 0hPa | 0V | 00:00:00 | 00:00:00 | 00:00:00 | |
| OE5DRO-10 | 2026-08-31 06:39:51 | 48.78432 | 18.25802 | 162° | 5km/h | 24062m | 6.1m/s | 0°C | 0% | 0hPa | 0V | 00:00:00 | 00:00:00 | 00:00:00 | |
| NBG1-10 | 2026-08-31 06:39:50 | 48.78436 | 18.25801 | 162° | 9km/h | 24052m | 4.2m/s | 0°C | 0% | 0hPa | 0V | 00:00:00 | 00:00:00 | 00:00:00 | |
| DO3MHA-11 | 2026-08-31 06:39:48 | 48.78438 | 18.25800 | 113° | 7km/h | 24047m | 5.8m/s | 0°C | 0% | 0hPa | 0V | 00:00:00 | 00:00:00 | 00:00:00 | |
| ATIDSZ-14 | 2026-08-31 06:39:47 | 48.78437 | 18.25799 | 126° | 2km/h | 24047m | 5.8m/s | -51.7°C | 0% | 0hPa | 0V | 00:00:00 | 00:00:00 | 00:00:00 | |
| SQ9EZE-15 | 2026-08-31 06:39:43 | 48.78440 | 18.25801 | 224° | 11km/h | 24025m | 5.3m/s | -51.8°C | 0% | 0hPa | 0V | 00:00:00 | 00:00:00 | 00:00:00 | |
| OE5MMP-10 | 2026-08-31 06:39:42 | 48.78442 | 18.25806 | 201° | 5km/h | 24015m | 5.7m/s | 0°C | 0% | 0hPa | 0V | 00:00:00 | 00:00:00 | 00:00:00 | |
| DO3MHA-11 | 2026-08-31 06:39:38 | 48.78450 | 18.25807 | 289° | 7km/h | 23995m | 4.3m/s | 0°C | 0% | 0hPa | 0V | 00:00:00 | 00:00:00 | 00:00:00 | |
| PG1ADW-2 | 2026-08-31 06:39:36 | 48.78449 | 18.25808 | 1° | 11km/h | 23986m | 5.9m/s | 0°C | 0% | 0hPa | 0V | 00:00:00 | 00:00:00 | 00:00:00 | |
| OE3JTB-15 | 2026-08-31 06:39:33 | 48.78451 | 18.25807 | 214° | 11km/h | 23969m | 6.0m/s | 0°C | 0% | 0hPa | 0V | 00:00:00 | 00:00:00 | 00:00:00 | |
| OE5MMP-10 | 2026-08-31 06:39:32 | 48.78452 | 18.25808 | 224° | 13km/h | 23964m | 4.4m/s | 0°C | 0% | 0hPa | 0V | 00:00:00 | 00:00:00 | 00:00:00 | |
| DO3MHA-11 | 2026-08-31 06:39:28 | 48.78462 | 18.25823 | 229° | 11km/h | 23943m | 6.1m/s | 0°C | 0% | 0hPa | 0V | 00:00:00 | 00:00:00 | 00:00:00 | |
| ATIDSZ-14 | 2026-08-31 06:39:27 | 48.78464 | 18.25827 | 238° | 15km/h | 23943m | 6.2m/s | -51.4°C | 0% | 0hPa | 0V | 00:00:00 | 00:00:00 | 00:00:00 | |
| OE5DXL-15 | 2026-08-31 06:39:23 | 48.78470 | 18.25838 | 240° | 11km/h | 23917m | 5.0m/s | 0°C | 0% | 0hPa | 0V | 00:00:00 | 00:00:00 | 00:00:00 | |
| OE5MMP-10 | 2026-08-31 06:39:22 | 48.78472 | 18.25843 | 230° | 11km/h | 23911m | 5.5m/s | 0°C | 0% | 0hPa | 0V | 00:00:00 | 00:00:00 | 00:00:00 | |
| DO3MHA-11 | 2026-08-31 06:39:18 | 48.78478 | 18.25858 | 225° | 9km/h | 23891m | 4.8m/s | 0°C | 0% | 0hPa | 0V | 00:00:00 | 00:00:00 | 00:00:00 | |
| NBG1-10 | 2026-08-31 06:39:17 | 48.78480 | 18.25860 | 224° | 13km/h | 23874m | 4.7m/s | 0°C | 0% | 0hPa | 0V | 00:00:00 | 00:00:00 | 00:00:00 | |
| PG1ADW-2 | 2026-08-31 06:39:16 | 48.78482 | 18.25862 | 251° | 11km/h | 23880m | 5.7m/s | 0°C | 0% | 0hPa | 0V | 00:00:00 | 00:00:00 | 00:00:00 | |
| POL1PZ | 2026-08-31 06:39:15 | 48.78483 | 18.25865 | 252° | 7km/h | 23880m | 5.7m/s | -51.2°C | 0% | 0hPa | 0V | 00:00:00 | 00:00:00 | 00:00:00 | |
| OE5MMP-10 | 2026-08-31 06:39:12 | 48.78486 | 18.25874 | 242° | 9km/h | 23858m | 6.0m/s | 0°C | 0% | 0hPa | 0V | 00:00:00 | 00:00:00 | 00:00:00 | |
| DO3MHA-11 | 2026-08-31 06:39:08 | 48.78490 | 18.25888 | 194° | 11km/h | 23837m | 4.9m/s | 0°C | 0% | 0hPa | 0V | 00:00:00 | 00:00:00 | 00:00:00 | |
| ATIDSZ-14 | 2026-08-31 06:39:06 | 48.78494 | 18.25889 | 203° | 7km/h | 23832m | 4.4m/s | -51.4°C | 0% | 0hPa | 0V | 00:00:00 | 00:00:00 | 00:00:00 | |
| OE3JTB-15 | 2026-08-31 06:39:04 | 48.78497 | 18.25892 | 261° | 13km/h | 23816m | 4.8m/s | 0°C | 0% | 0hPa | 0V | 00:00:00 | 00:00:00 | 00:00:00 | |
| OE5MMP-10 | 2026-08-31 06:39:02 | 48.78497 | 18.25899 | 252° | 13km/h | 23806m | 4.9m/s | 0°C | 0% | 0hPa | 0V | 00:00:00 | 00:00:00 | 00:00:00 | |
| DO3MHA-11 | 2026-08-31 06:38:58 | 48.78503 | 18.25922 | 246° | 13km/h | 23785m | 5.7m/s | 0°C | 0% | 0hPa | 0V | 00:00:00 | 00:00:00 | 00:00:00 | |
| PG1ADW-2 | 2026-08-31 06:38:56 | 48.78507 | 18.25930 | 204° | 11km/h | 23773m | 4.9m/s | 0°C | 0% | 0hPa | 0V | 00:00:00 | 00:00:00 | 00:00:00 | |
| OE5WHR-10 | 2026-08-31 06:38:55 | 48.78510 | 18.25931 | 212° | 13km/h | 23768m | 6.1m/s | 0°C | 0% | 0hPa | 0V | 00:00:00 | 00:00:00 | 00:00:00 | |
| OE5DRO-10 | 2026-08-31 06:38:54 | 48.78513 | 18.25933 | 212° | 11km/h | 23763m | 5.0m/s | 0°C | 0% | 0hPa | 0V | 00:00:00 | 00:00:00 | 00:00:00 | |
| OE5DXL-15 | 2026-08-31 06:38:53 | 48.78515 | 18.25935 | 228° | 7km/h | 23741m | 6.5m/s | 0°C | 0% | 0hPa | 0V | 00:00:00 | 00:00:00 | 00:00:00 | |
| DO3MHA-11 | 2026-08-31 06:38:48 | 48.78523 | 18.25960 | 240° | 11km/h | 23731m | 4.5m/s | 0°C | 0% | 0hPa | 0V | 00:00:00 | 00:00:00 | 00:00:00 | |
| SQ9EZE-14 | 2026-08-31 06:38:46 | 48.78527 | 18.25970 | 217° | 13km/h | 23725m | 5.9m/s | -51.7°C | 0% | 0hPa | 0V | 00:00:00 | 00:00:00 | 00:00:00 | |
| NBG1-10 | 2026-08-31 06:38:44 | 48.78532 | 18.25973 | 177° | 7km/h | 23709m | 5.6m/s | 0°C | 0% | 0hPa | 0V | 00:00:00 | 00:00:00 | 00:00:00 | |
| OE5MMP-10 | 2026-08-31 06:38:42 | 48.78536 | 18.25972 | 191° | 7km/h | 23699m | 6.0m/s | 0°C | 0% | 0hPa | 0V | 00:00:00 | 00:00:00 | 00:00:00 | |
| DO3MHA-11 | 2026-08-31 06:38:38 | 48.78544 | 18.25975 | 231° | 5km/h | 23677m | 4.2m/s | 0°C | 0% | 0hPa | 0V | 00:00:00 | 00:00:00 | 00:00:00 | |
| PG1ADW-2 | 2026-08-31 06:38:36 | 48.78547 | 18.25981 | 212° | 5km/h | 23666m | 5.2m/s | 0°C | 0% | 0hPa | 0V | 00:00:00 | 00:00:00 | 00:00:00 | |
| OE3JTB-15 | 2026-08-31 06:38:35 | 48.78548 | 18.25984 | 155° | 7km/h | 23662m | 4.3m/s | 0°C | 0% | 0hPa | 0V | 00:00:00 | 00:00:00 | 00:00:00 | |
| OE5WHR-10 | 2026-08-31 06:38:34 | 48.78550 | 18.25983 | 155° | 5km/h | 23656m | 5.6m/s | 0°C | 0% | 0hPa | 0V | 00:00:00 | 00:00:00 | 00:00:00 | |
| OE5MMP-10 | 2026-08-31 06:38:32 | 48.78552 | 18.25981 | 61° | 4km/h | 23646m | 4.2m/s | 0°C | 0% | 0hPa | 0V | 00:00:00 | 00:00:00 | 00:00:00 | |
| DO3MHA-11 | 2026-08-31 06:38:28 | 48.78552 | 18.25979 | 123° | 7km/h | 23625m | 6.0m/s | 0°C | 0% | 0hPa | 0V | 00:00:00 | 00:00:00 | 00:00:00 | |
| ATIDSZ-14 | 2026-08-31 06:38:26 | 48.78552 | 18.25976 | 94° | 4km/h | 23614m | 5.9m/s | -51.8°C | 0% | 0hPa | 0V | 00:00:00 | 00:00:00 | 00:00:00 | |
| OE5DXL-15 | 2026-08-31 06:38:23 | 48.78553 | 18.25972 | 92° | 11km/h | 23599m | 4.8m/s | 0°C | 0% | 0hPa | 0V | 00:00:00 | 00:00:00 | 00:00:00 | |
| OE5MMP-10 | 2026-08-31 06:38:22 | 48.78553 | 18.25969 | 69° | 9km/h | 23594m | 6.0m/s | 0°C | 0% | 0hPa | 0V | 00:00:00 | 00:00:00 | 00:00:00 | |
| DO3MHA-11 | 2026-08-31 06:38:18 | 48.78547 | 18.25955 | 88° | 11km/h | 23574m | 4.1m/s | 0°C | 0% | 0hPa | 0V | 00:00:00 | 00:00:00 | 00:00:00 | |
| PG1ADW-2 | 2026-08-31 06:38:16 | 48.78546 | 18.25949 | 62° | 11km/h | 23563m | 5.3m/s | 0°C | 0% | 0hPa | 0V | 00:00:00 | 00:00:00 | 00:00:00 | |
| OE5WHR-10 | 2026-08-31 06:38:13 | 48.78544 | 18.25940 | 54° | 11km/h | 23547m | 4.9m/s | 0°C | 0% | 0hPa | 0V | 00:00:00 | 00:00:00 | 00:00:00 | |
| OE5MMP-10 | 2026-08-31 06:38:12 | 48.78542 | 18.25935 | 32° | 9km/h | 23542m | 5.8m/s | 0°C | 0% | 0hPa | 0V | 00:00:00 | 00:00:00 | 00:00:00 | |
| NBG1-10 | 2026-08-31 06:38:11 | 48.78539 | 18.25931 | 32° | 11km/h | 23536m | 5.0m/s | 0°C | 0% | 0hPa | 0V | 00:00:00 | 00:00:00 | 00:00:00 | |
| DO3MHA-11 | 2026-08-31 06:38:08 | 48.78529 | 18.25924 | 32° | 7km/h | 23516m | 5.2m/s | 0°C | 0% | 0hPa | 0V | 00:00:00 | 00:00:00 | 00:00:00 | |
| OE3JTB-15 | 2026-08-31 06:38:06 | 48.78526 | 18.25920 | 53° | 13km/h | 23510m | 5.8m/s | 0°C | 0% | 0hPa | 0V | 00:00:00 | 00:00:00 | 00:00:00 | |
| ATIDSZ-14 | 2026-08-31 06:38:04 | 48.78525 | 18.25920 | 340° | 4km/h | 23505m | 4.9m/s | -52.1°C | 0% | 0hPa | 0V | 00:00:00 | 00:00:00 | 00:00:00 | |
| OE5MMP-10 | 2026-08-31 06:38:02 | 48.78524 | 18.25919 | 33° | 11km/h | 23489m | 4.5m/s | 0°C | 0% | 0hPa | 0V | 00:00:00 | 00:00:00 | 00:00:00 | |
| DO3MHA-11 | 2026-08-31 06:37:57 | 48.78511 | 18.25909 | 45° | 11km/h | 23463m | 4.6m/s | 0°C | 0% | 0hPa | 0V | 00:00:00 | 00:00:00 | 00:00:00 | |
| PG1ADW-2 | 2026-08-31 06:37:56 | 48.78508 | 18.25905 | 45° | 15km/h | 23458m | 5.7m/s | 0°C | 0% | 0hPa | 0V | 00:00:00 | 00:00:00 | 00:00:00 | |
| OE5DXL-15 | 2026-08-31 06:37:53 | 48.78501 | 18.25898 | 9° | 13km/h | 23442m | 5.4m/s | 0°C | 0% | 0hPa | 0V | 00:00:00 | 00:00:00 | 00:00:00 | |
| OE5MMP-10 | 2026-08-31 06:37:52 | 48.78500 | 18.25898 | 12° | 16km/h | 23437m | 4.7m/s | 0°C | 0% | 0hPa | 0V | 00:00:00 | 00:00:00 | 00:00:00 | |
| POL1PZ | 2026-08-31 06:37:50 | 48.78497 | 18.25897 | 12° | 9km/h | 23432m | 6.0m/s | -52.1°C | 0% | 0hPa | 0V | 00:00:00 | 00:00:00 | 00:00:00 | |
| DO3MHA-11 | 2026-08-31 06:37:47 | 48.78486 | 18.25891 | 37° | 16km/h | 23411m | 4.5m/s | 0°C | 0% | 0hPa | 0V | 00:00:00 | 00:00:00 | 00:00:00 | |
| ATIDSZ-14 | 2026-08-31 06:37:44 | 48.78473 | 18.25874 | 36° | 22km/h | 23401m | 5.3m/s | -52.1°C | 0% | 0hPa | 0V | 00:00:00 | 00:00:00 | 00:00:00 | |
| GYPAP8-17 | 2026-08-31 06:37:43 | 48.78464 | 18.25867 | 27° | 16km/h | 23391m | 5.9m/s | -52.0°C | 0% | 0hPa | 0V | 00:00:00 | 00:00:00 | 00:00:00 | |
| OE5MMP-10 | 2026-08-31 06:37:42 | 48.78464 | 18.25867 | 27° | 13km/h | 23385m | 5.2m/s | 0°C | 0% | 0hPa | 0V | 00:00:00 | 00:00:00 | 00:00:00 | |
| NBG1-10 | 2026-08-31 06:37:38 | 48.78453 | 18.25859 | 39° | 13km/h | 23359m | 4.8m/s | 0°C | 0% | 0hPa | 0V | 00:00:00 | 00:00:00 | 00:00:00 | |
| DO3MHA-11 | 2026-08-31 06:37:37 | 48.78451 | 18.25856 | 48° | 13km/h | 23359m | 4.8m/s | 0°C | 0% | 0hPa | 0V | 00:00:00 | 00:00:00 | 00:00:00 | |
| PG1ADW-2 | 2026-08-31 06:37:36 | 48.78449 | 18.25853 | 59° | 13km/h | 23354m | 4.8m/s | 0°C | 0% | 0hPa | 0V | 00:00:00 | 00:00:00 | 00:00:00 | |
| OE5MMP-10 | 2026-08-31 06:37:32 | 48.78439 | 18.25837 | 25° | 11km/h | 23333m | 4.1m/s | 0°C | 0% | 0hPa | 0V | 00:00:00 | 00:00:00 | 00:00:00 | |
| OE5WHR-10 | 2026-08-31 06:37:31 | 48.78436 | 18.25835 | 13° | 11km/h | 23333m | 4.1m/s | 0°C | 0% | 0hPa | 0V | 00:00:00 | 00:00:00 | 00:00:00 | |
| POL1PZ | 2026-08-31 06:37:30 | 48.78430 | 18.25834 | 357° | 13km/h | 23321m | 5.1m/s | -52.1°C | 0% | 0hPa | 0V | 00:00:00 | 00:00:00 | 00:00:00 | |
| DO3MHA-11 | 2026-08-31 06:37:27 | 48.78425 | 18.25834 | 31° | 11km/h | 23306m | 4.5m/s | 0°C | 0% | 0hPa | 0V | 00:00:00 | 00:00:00 | 00:00:00 | |
| OE5DXL-15 | 2026-08-31 06:37:23 | 48.78422 | 18.25824 | 49° | 13km/h | 23287m | 5.2m/s | 0°C | 0% | 0hPa | 0V | 00:00:00 | 00:00:00 | 00:00:00 | |
| OE5MMP-10 | 2026-08-31 06:37:22 | 48.78420 | 18.25819 | 28° | 13km/h | 23282m | 4.9m/s | 0°C | 0% | 0hPa | 0V | 00:00:00 | 00:00:00 | 00:00:00 | |
| OE5DRO-10 | 2026-08-31 06:37:18 | 48.78408 | 18.25814 | 358° | 13km/h | 23262m | 5.1m/s | 0°C | 0% | 0hPa | 0V | 00:00:00 | 00:00:00 | 00:00:00 | |
| DO3MHA-11 | 2026-08-31 06:37:17 | 48.78404 | 18.25814 | 358° | 11km/h | 23257m | 5.0m/s | 0°C | 0% | 0hPa | 0V | 00:00:00 | 00:00:00 | 00:00:00 | |
| PG1ADW-2 | 2026-08-31 06:37:16 | 48.78401 | 18.25815 | 28° | 13km/h | 23252m | 3.7m/s | 0°C | 0% | 0hPa | 0V | 00:00:00 | 00:00:00 | 00:00:00 | |
| OE5MMP-10 | 2026-08-31 06:37:12 | 48.78392 | 18.25808 | 12° | 13km/h | 23233m | 4.5m/s | 0°C | 0% | 0hPa | 0V | 00:00:00 | 00:00:00 | 00:00:00 | |
| OE5WHR-10 | 2026-08-31 06:37:09 | 48.78384 | 18.25803 | 333° | 13km/h | 23219m | 5.4m/s | 0°C | 0% | 0hPa | 0V | 00:00:00 | 00:00:00 | 00:00:00 | |
| OE3JTB-15 | 2026-08-31 06:37:08 | 48.78381 | 18.25806 | 333° | 13km/h | 23214m | 5.4m/s | 0°C | 0% | 0hPa | 0V | 00:00:00 | 00:00:00 | 00:00:00 | |
| DO3MHA-11 | 2026-08-31 06:37:07 | 48.78378 | 18.25807 | 318° | 13km/h | 23209m | 4.8m/s | 0°C | 0% | 0hPa | 0V | 00:00:00 | 00:00:00 | 00:00:00 | |
| NBG1-10 | 2026-08-31 06:37:04 | 48.78369 | 18.25819 | 320° | 11km/h | 23189m | 6.0m/s | 0°C | 0% | 0hPa | 0V | 00:00:00 | 00:00:00 | 00:00:00 | |
| ATIDSZ-14 | 2026-08-31 06:37:03 | 48.78368 | 18.25822 | 349° | 9km/h | 23194m | 3.9m/s | -51.8°C | 0% | 0hPa | 0V | 00:00:00 | 00:00:00 | 00:00:00 | |
| OE5MMP-10 | 2026-08-31 06:37:02 | 48.78366 | 18.25823 | 353° | 13km/h | 23184m | 5.1m/s | 0°C | 0% | 0hPa | 0V | 00:00:00 | 00:00:00 | 00:00:00 | |
| OE5DRO-10 | 2026-08-31 06:36:59 | 48.78355 | 18.25823 | 3° | 11km/h | 23168m | 4.5m/s | 0°C | 0% | 0hPa | 0V | 00:00:00 | 00:00:00 | 00:00:00 | |
| DO3MHA-11 | 2026-08-31 06:36:57 | 48.78349 | 18.25823 | 338° | 13km/h | 23158m | 4.5m/s | 0°C | 0% | 0hPa | 0V | 00:00:00 | 00:00:00 | 00:00:00 | |
| PG1ADW-2 | 2026-08-31 06:36:56 | 48.78346 | 18.25824 | 310° | 13km/h | 23153m | 4.5m/s | 0°C | 0% | 0hPa | 0V | 00:00:00 | 00:00:00 | 00:00:00 | |
| SQ9EZE-15 | 2026-08-31 06:36:55 | 48.78343 | 18.25827 | 311° | 13km/h | 23153m | 4.5m/s | -51.9°C | 0% | 0hPa | 0V | 00:00:00 | 00:00:00 | 00:00:00 | |
| OE5DXL-15 | 2026-08-31 06:36:53 | 48.78341 | 18.25835 | 298° | 9km/h | 23139m | 4.2m/s | 0°C | 0% | 0hPa | 0V | 00:00:00 | 00:00:00 | 00:00:00 | |
| POL1PZ | 2026-08-31 06:36:48 | 48.78329 | 18.25850 | 318° | 15km/h | 23119m | 5.1m/s | -52.1°C | 0% | 0hPa | 0V | 00:00:00 | 00:00:00 | 00:00:00 | |
| DO3MHA-11 | 2026-08-31 06:36:47 | 48.78326 | 18.25853 | 308° | 11km/h | 23110m | 4.9m/s | 0°C | 0% | 0hPa | 0V | 00:00:00 | 00:00:00 | 00:00:00 | |
| OE5MMP-10 | 2026-08-31 06:36:42 | 48.78320 | 18.25870 | 272° | 11km/h | 23085m | 4.3m/s | 0°C | 0% | 0hPa | 0V | 00:00:00 | 00:00:00 | 00:00:00 | |
| OE5WHR-10 | 2026-08-31 06:36:41 | 48.78320 | 18.25874 | 293° | 9km/h | 23080m | 5.7m/s | 0°C | 0% | 0hPa | 0V | 00:00:00 | 00:00:00 | 00:00:00 | |
| OE5DRO-10 | 2026-08-31 06:36:40 | 48.78319 | 18.25879 | 293° | 9km/h | 23075m | 4.5m/s | 0°C | 0% | 0hPa | 0V | 00:00:00 | 00:00:00 | 00:00:00 | |
| OE3JTB-15 | 2026-08-31 06:36:39 | 48.78318 | 18.25882 | 295° | 7km/h | 23069m | 5.9m/s | 0°C | 0% | 0hPa | 0V | 00:00:00 | 00:00:00 | 00:00:00 | |
| DO3MHA-11 | 2026-08-31 06:36:37 | 48.78315 | 18.25893 | 305° | 7km/h | 23059m | 6.0m/s | 0°C | 0% | 0hPa | 0V | 00:00:00 | 00:00:00 | 00:00:00 | |
| PG1ADW-2 | 2026-08-31 06:36:36 | 48.78314 | 18.25896 | 305° | 7km/h | 23054m | 4.4m/s | 0°C | 0% | 0hPa | 0V | 00:00:00 | 00:00:00 | 00:00:00 | |
| OE5MMP-10 | 2026-08-31 06:36:32 | 48.78311 | 18.25904 | 173° | 5km/h | 23034m | 6.0m/s | 0°C | 0% | 0hPa | 0V | 00:00:00 | 00:00:00 | 00:00:00 | |
| DO3MHA-11 | 2026-08-31 06:36:27 | 48.78312 | 18.25907 | 278° | 7km/h | 23010m | 4.6m/s | 0°C | 0% | 0hPa | 0V | 00:00:00 | 00:00:00 | 00:00:00 | |
| OE5DXL-15 | 2026-08-31 06:36:23 | 48.78308 | 18.25920 | 287° | 5km/h | 22990m | 4.6m/s | 0°C | 0% | 0hPa | 0V | 00:00:00 | 00:00:00 | 00:00:00 | |
| OE5MMP-10 | 2026-08-31 06:36:22 | 48.78308 | 18.25925 | 260° | 4km/h | 22986m | 4.2m/s | 0°C | 0% | 0hPa | 0V | 00:00:00 | 00:00:00 | 00:00:00 | |
| OE5DRO-10 | 2026-08-31 06:36:21 | 48.78307 | 18.25927 | 260° | 5km/h | 22980m | 5.9m/s | 0°C | 0% | 0hPa | 0V | 00:00:00 | 00:00:00 | 00:00:00 | |
| OE5WHR-10 | 2026-08-31 06:36:20 | 48.78307 | 18.25929 | 133° | 5km/h | 22970m | 5.3m/s | 0°C | 0% | 0hPa | 0V | 00:00:00 | 00:00:00 | 00:00:00 | |
| DO3MHA-11 | 2026-08-31 06:36:17 | 48.78310 | 18.25924 | 160° | 4km/h | 22960m | 4.6m/s | 0°C | 0% | 0hPa | 0V | 00:00:00 | 00:00:00 | 00:00:00 | |
| PG1ADW-2 | 2026-08-31 06:36:16 | 48.78311 | 18.25923 | 166° | 5km/h | 22955m | 5.8m/s | 0°C | 0% | 0hPa | 0V | 00:00:00 | 00:00:00 | 00:00:00 | |
| OE5MMP-10 | 2026-08-31 06:36:12 | 48.78312 | 18.25923 | 217° | 5km/h | 22935m | 4.7m/s | 0°C | 0% | 0hPa | 0V | 00:00:00 | 00:00:00 | 00:00:00 | |
| OE3JTB-15 | 2026-08-31 06:36:10 | 48.78313 | 18.25924 | 141° | 9km/h | 22924m | 4.2m/s | 0°C | 0% | 0hPa | 0V | 00:00:00 | 00:00:00 | 00:00:00 | |
| DO3MHA-11 | 2026-08-31 06:36:07 | 48.78316 | 18.25920 | 6° | 7km/h | 22910m | 4.4m/s | 0°C | 0% | 0hPa | 0V | 00:00:00 | 00:00:00 | 00:00:00 | |
| OE5MMP-10 | 2026-08-31 06:36:02 | 48.78307 | 18.25917 | 6° | 7km/h | 22885m | 5.0m/s | 0°C | 0% | 0hPa | 0V | 00:00:00 | 00:00:00 | 00:00:00 | |
| OE5WHR-10 | 2026-08-31 06:35:59 | 48.78303 | 18.25917 | 117° | 11km/h | 22865m | 5.0m/s | 0°C | 0% | 0hPa | 0V | 00:00:00 | 00:00:00 | 00:00:00 | |
| NBG1-10 | 2026-08-31 06:35:58 | 48.78304 | 18.25916 | 93° | 15km/h | 22865m | 5.0m/s | 0°C | 0% | 0hPa | 0V | 00:00:00 | 00:00:00 | 00:00:00 | |
| PG1ADW-2 | 2026-08-31 06:35:56 | 48.78305 | 18.25917 | 9° | 15km/h | 22850m | 5.5m/s | 0°C | 0% | 0hPa | 0V | 00:00:00 | 00:00:00 | 00:00:00 | |
| OE5MMP-10 | 2026-08-31 06:35:52 | 48.78292 | 18.25910 | 360° | 11km/h | 22835m | 5.8m/s | 0°C | 0% | 0hPa | 0V | 00:00:00 | 00:00:00 | 00:00:00 | |
| POL1PZ | 2026-08-31 06:35:46 | 48.78276 | 18.25915 | 333° | 7km/h | 22810m | 5.5m/s | -53.3°C | 0% | 0hPa | 0V | 00:00:00 | 00:00:00 | 00:00:00 | |
| OE5DRO-10 | 2026-08-31 06:35:43 | 48.78270 | 18.25919 | 25° | 18km/h | 22780m | 4.2m/s | 0°C | 0% | 0hPa | 0V | 00:00:00 | 00:00:00 | 00:00:00 | |
| OE5MMP-10 | 2026-08-31 06:35:42 | 48.78266 | 18.25916 | 25° | 15km/h | 22785m | 5.7m/s | 0°C | 0% | 0hPa | 0V | 00:00:00 | 00:00:00 | 00:00:00 | |
| OE3JTB-15 | 2026-08-31 06:35:41 | 48.78262 | 18.25913 | 19° | 20km/h | 22780m | 4.2m/s | 0°C | 0% | 0hPa | 0V | 00:00:00 | 00:00:00 | 00:00:00 | |
| OE5WHR-10 | 2026-08-31 06:35:38 | 48.78248 | 18.25906 | 20° | 20km/h | 22755m | 4.7m/s | 0°C | 0% | 0hPa | 0V | 00:00:00 | 00:00:00 | 00:00:00 | |
| PG1ADW-2 | 2026-08-31 06:35:36 | 48.78242 | 18.25904 | 341° | 18km/h | 22755m | 4.7m/s | 0°C | 0% | 0hPa | 0V | 00:00:00 | 00:00:00 | 00:00:00 | |
| GYPAP8-17 | 2026-08-31 06:35:33 | 48.78236 | 18.25908 | 9° | 13km/h | 22744m | 4.4m/s | -53.6°C | 0% | 0hPa | 0V | 00:00:00 | 00:00:00 | 00:00:00 | |
| OE5MMP-10 | 2026-08-31 06:35:32 | 48.78232 | 18.25906 | 6° | 20km/h | 22735m | 6.0m/s | 0°C | 0% | 0hPa | 0V | 00:00:00 | 00:00:00 | 00:00:00 | |
| POL1PZ | 2026-08-31 06:35:26 | 48.78196 | 18.25905 | 347° | 18km/h | 22710m | 6.2m/s | -53.5°C | 0% | 0hPa | 0V | 00:00:00 | 00:00:00 | 00:00:00 | |
| OE5DRO-10 | 2026-08-31 06:35:24 | 48.78189 | 18.25912 | 338° | 20km/h | 22694m | 5.3m/s | 0°C | 0% | 0hPa | 0V | 00:00:00 | 00:00:00 | 00:00:00 | |
| OE5MMP-10 | 2026-08-31 06:35:22 | 48.78183 | 18.25915 | 342° | 22km/h | 22685m | 5.5m/s | 0°C | 0% | 0hPa | 0V | 00:00:00 | 00:00:00 | 00:00:00 | |
| ATIDSZ-14 | 2026-08-31 06:35:20 | 48.78175 | 18.25920 | 341° | 22km/h | 22680m | 5.5m/s | -53.7°C | 0% | 0hPa | 0V | 00:00:00 | 00:00:00 | 00:00:00 | |
| OE5WHR-10 | 2026-08-31 06:35:16 | 48.78148 | 18.25931 | 349° | 20km/h | 22634m | 4.3m/s | 0°C | 0% | 0hPa | 0V | 00:00:00 | 00:00:00 | 00:00:00 | |
| OE5MMP-10 | 2026-08-31 06:35:12 | 48.78132 | 18.25944 | 314° | 20km/h | 22634m | 4.3m/s | 0°C | 0% | 0hPa | 0V | 00:00:00 | 00:00:00 | 00:00:00 | |
| OE5DRO-10 | 2026-08-31 06:35:05 | 48.78108 | 18.25984 | 315° | 18km/h | 22599m | 5.3m/s | 0°C | 0% | 0hPa | 0V | 00:00:00 | 00:00:00 | 00:00:00 | |
| DO3MHA-11 | 2026-08-31 06:35:03 | 48.78101 | 18.25997 | 303° | 20km/h | 22569m | 4.9m/s | 0°C | 0% | 0hPa | 0V | 00:00:00 | 00:00:00 | 00:00:00 | |
| OE5MMP-10 | 2026-08-31 06:35:02 | 48.78097 | 18.26004 | 290° | 18km/h | 22585m | 5.1m/s | 0°C | 0% | 0hPa | 0V | 00:00:00 | 00:00:00 | 00:00:00 | |
| ATIDSZ-14 | 2026-08-31 06:35:00 | 48.78094 | 18.26017 | 279° | 16km/h | 22580m | 4.7m/s | -53.6°C | 0% | 0hPa | 0V | 00:00:00 | 00:00:00 | 00:00:00 | |
| PG1ADW-2 | 2026-08-31 06:34:56 | 48.78091 | 18.26050 | 299° | 15km/h | 22555m | 5.2m/s | 0°C | 0% | 0hPa | 0V | 00:00:00 | 00:00:00 | 00:00:00 | |
| OE5MMP-10 | 2026-08-31 06:34:52 | 48.78083 | 18.26070 | 309° | 15km/h | 22534m | 5.2m/s | 0°C | 0% | 0hPa | 0V | 00:00:00 | 00:00:00 | 00:00:00 | |
| DO3MHA-11 | 2026-08-31 06:34:51 | 48.78080 | 18.26074 | 295° | 15km/h | 22529m | 5.5m/s | 0°C | 0% | 0hPa | 0V | 00:00:00 | 00:00:00 | 00:00:00 | |
| OE5DRO-10 | 2026-08-31 06:34:46 | 48.78073 | 18.26100 | 275° | 13km/h | 22504m | 5.0m/s | 0°C | 0% | 0hPa | 0V | 00:00:00 | 00:00:00 | 00:00:00 | |
| POL1PZ | 2026-08-31 06:34:45 | 48.78073 | 18.26105 | 284° | 11km/h | 22504m | 5.1m/s | -53.9°C | 0% | 0hPa | 0V | 00:00:00 | 00:00:00 | 00:00:00 | |
| OE3JTB-15 | 2026-08-31 06:34:43 | 48.78071 | 18.26113 | 286° | 13km/h | 22489m | 5.0m/s | 0°C | 0% | 0hPa | 0V | 00:00:00 | 00:00:00 | 00:00:00 | |
| OE5MMP-10 | 2026-08-31 06:34:42 | 48.78069 | 18.26119 | 286° | 11km/h | 22484m | 4.0m/s | 0°C | 0% | 0hPa | 0V | 00:00:00 | 00:00:00 | 00:00:00 | |
| ATIDSZ-14 | 2026-08-31 06:34:40 | 48.78067 | 18.26134 | 257° | 9km/h | 22474m | 4.9m/s | -53.7°C | 0% | 0hPa | 0V | 00:00:00 | 00:00:00 | 00:00:00 | |
| PG1ADW-2 | 2026-08-31 06:34:36 | 48.78070 | 18.26146 | 258° | 13km/h | 22453m | 6.0m/s | 0°C | 0% | 0hPa | 0V | 00:00:00 | 00:00:00 | 00:00:00 | |
| OE5MMP-10 | 2026-08-31 06:34:32 | 48.78071 | 18.26162 | 286° | 13km/h | 22433m | 3.9m/s | 0°C | 0% | 0hPa | 0V | 00:00:00 | 00:00:00 | 00:00:00 | |
| DO3MHA-11 | 2026-08-31 06:34:30 | 48.78069 | 18.26175 | 266° | 13km/h | 22423m | 4.9m/s | 0°C | 0% | 0hPa | 0V | 00:00:00 | 00:00:00 | 00:00:00 | |
| SQ9EZE-15 | 2026-08-31 06:34:28 | 48.78068 | 18.26183 | 250° | 9km/h | 22418m | 4.8m/s | -53.7°C | 0% | 0hPa | 0V | 00:00:00 | 00:00:00 | 00:00:00 | |
| OE5DRO-10 | 2026-08-31 06:34:27 | 48.78069 | 18.26187 | 242° | 13km/h | 22407m | 4.8m/s | 0°C | 0% | 0hPa | 0V | 00:00:00 | 00:00:00 | 00:00:00 | |
| POL1PZ | 2026-08-31 06:34:25 | 48.78075 | 18.26200 | 229° | 13km/h | 22397m | 5.3m/s | -53.7°C | 0% | 0hPa | 0V | 00:00:00 | 00:00:00 | 00:00:00 | |
| OE5MMP-10 | 2026-08-31 06:34:22 | 48.78079 | 18.26207 | 264° | 13km/h | 22382m | 5.0m/s | 0°C | 0% | 0hPa | 0V | 00:00:00 | 00:00:00 | 00:00:00 | |
| DO3MHA-11 | 2026-08-31 06:34:20 | 48.78078 | 18.26218 | 284° | 13km/h | 22371m | 5.3m/s | 0°C | 0% | 0hPa | 0V | 00:00:00 | 00:00:00 | 00:00:00 | |
| NBG1-10 | 2026-08-31 06:34:19 | 48.78077 | 18.26223 | 250° | 11km/h | 22366m | 4.8m/s | 0°C | 0% | 0hPa | 0V | 00:00:00 | 00:00:00 | 00:00:00 | |
| PG1ADW-2 | 2026-08-31 06:34:16 | 48.78077 | 18.26235 | 231° | 11km/h | 22351m | 6.3m/s | 0°C | 0% | 0hPa | 0V | 00:00:00 | 00:00:00 | 00:00:00 | |
| OE3JTB-15 | 2026-08-31 06:34:14 | 48.78082 | 18.26240 | 201° | 9km/h | 22340m | 5.2m/s | 0°C | 0% | 0hPa | 0V | 00:00:00 | 00:00:00 | 00:00:00 | |
| OE5MMP-10 | 2026-08-31 06:34:12 | 48.78089 | 18.26245 | 219° | 9km/h | 22330m | 4.3m/s | 0°C | 0% | 0hPa | 0V | 00:00:00 | 00:00:00 | 00:00:00 | |
| SQ9EZE-14 | 2026-08-31 06:34:11 | 48.78092 | 18.26249 | 233° | 15km/h | 22330m | 4.4m/s | -53.6°C | 0% | 0hPa | 0V | 00:00:00 | 00:00:00 | 00:00:00 | |
| DO3MHA-11 | 2026-08-31 06:34:10 | 48.78093 | 18.26252 | 245° | 9km/h | 22320m | 5.0m/s | 0°C | 0% | 0hPa | 0V | 00:00:00 | 00:00:00 | 00:00:00 | |
| OE5WHR-10 | 2026-08-31 06:34:09 | 48.78094 | 18.26255 | 264° | 11km/h | 22315m | 5.1m/s | 0°C | 0% | 0hPa | 0V | 00:00:00 | 00:00:00 | 00:00:00 | |
| OE5DRO-10 | 2026-08-31 06:34:08 | 48.78094 | 18.26257 | 262° | 7km/h | 22310m | 4.7m/s | 0°C | 0% | 0hPa | 0V | 00:00:00 | 00:00:00 | 00:00:00 | |
| POL1PZ | 2026-08-31 06:34:04 | 48.78097 | 18.26269 | 196° | 7km/h | 22295m | 4.5m/s | -53.7°C | 0% | 0hPa | 0V | 00:00:00 | 00:00:00 | 00:00:00 | |
| OE5MMP-10 | 2026-08-31 06:34:02 | 48.78101 | 18.26272 | 186° | 7km/h | 22280m | 4.3m/s | 0°C | 0% | 0hPa | 0V | 00:00:00 | 00:00:00 | 00:00:00 | |
| DO3MHA-11 | 2026-08-31 06:34:00 | 48.78108 | 18.26273 | 175° | 4km/h | 22274m | 6.0m/s | 0°C | 0% | 0hPa | 0V | 00:00:00 | 00:00:00 | 00:00:00 | |
| ATIDSZ-14 | 2026-08-31 06:33:59 | 48.78113 | 18.26271 | 162° | 7km/h | 22264m | 4.9m/s | -53.6°C | 0% | 0hPa | 0V | 00:00:00 | 00:00:00 | 00:00:00 | |
| PG1ADW-2 | 2026-08-31 06:33:55 | 48.78115 | 18.26271 | 1° | 7km/h | 22243m | 5.1m/s | 0°C | 0% | 0hPa | 0V | 00:00:00 | 00:00:00 | 00:00:00 | |
| OE5MMP-10 | 2026-08-31 06:33:52 | 48.78116 | 18.26271 | 167° | 7km/h | 22228m | 4.8m/s | 0°C | 0% | 0hPa | 0V | 00:00:00 | 00:00:00 | 00:00:00 | |
| DO3MHA-11 | 2026-08-31 06:33:50 | 48.78119 | 18.26269 | 141° | 9km/h | 22211m | 5.5m/s | 0°C | 0% | 0hPa | 0V | 00:00:00 | 00:00:00 | 00:00:00 | |
| OE5DRO-10 | 2026-08-31 06:33:49 | 48.78121 | 18.26266 | 135° | 9km/h | 22211m | 5.5m/s | 0°C | 0% | 0hPa | 0V | 00:00:00 | 00:00:00 | 00:00:00 | |
| OE3JTB-15 | 2026-08-31 06:33:45 | 48.78126 | 18.26258 | 43° | 9km/h | 22191m | 4.7m/s | 0°C | 0% | 0hPa | 0V | 00:00:00 | 00:00:00 | 00:00:00 | |
| POL1PZ | 2026-08-31 06:33:44 | 48.78123 | 18.26253 | 40° | 9km/h | 22186m | 5.0m/s | -53.8°C | 0% | 0hPa | 0V | 00:00:00 | 00:00:00 | 00:00:00 | |
| OE5MMP-10 | 2026-08-31 06:33:42 | 48.78122 | 18.26252 | 38° | 9km/h | 22177m | 4.1m/s | 0°C | 0% | 0hPa | 0V | 00:00:00 | 00:00:00 | 00:00:00 | |
| ATIDSZ-14 | 2026-08-31 06:33:38 | 48.78124 | 18.26242 | 118° | 13km/h | 22161m | 5.3m/s | -54.0°C | 0% | 0hPa | 0V | 00:00:00 | 00:00:00 | 00:00:00 | |
| PG1ADW-2 | 2026-08-31 06:33:35 | 48.78128 | 18.26230 | 83° | 11km/h | 22141m | 4.1m/s | 0°C | 0% | 0hPa | 0V | 00:00:00 | 00:00:00 | 00:00:00 | |
| OE5MMP-10 | 2026-08-31 06:33:32 | 48.78125 | 18.26219 | 15° | 9km/h | 22126m | 4.1m/s | 0°C | 0% | 0hPa | 0V | 00:00:00 | 00:00:00 | 00:00:00 | |
| OE5DRO-10 | 2026-08-31 06:33:30 | 48.78120 | 18.26219 | 29° | 11km/h | 22100m | 4.6m/s | 0°C | 0% | 0hPa | 0V | 00:00:00 | 00:00:00 | 00:00:00 | |
| GYPAP8-17 | 2026-08-31 06:33:24 | 48.78114 | 18.26200 | 64° | 13km/h | 22091m | 4.0m/s | -54.0°C | 0% | 0hPa | 0V | 00:00:00 | 00:00:00 | 00:00:00 | |
| OE5WHR-10 | 2026-08-31 06:33:23 | 48.78114 | 18.26195 | 52° | 13km/h | 22086m | 5.7m/s | 0°C | 0% | 0hPa | 0V | 00:00:00 | 00:00:00 | 00:00:00 | |
| OE5MMP-10 | 2026-08-31 06:33:22 | 48.78112 | 18.26193 | 27° | 11km/h | 22076m | 3.8m/s | 0°C | 0% | 0hPa | 0V | 00:00:00 | 00:00:00 | 00:00:00 | |
| ATIDSZ-14 | 2026-08-31 06:33:17 | 48.78101 | 18.26184 | 52° | 9km/h | 22056m | 5.1m/s | -53.9°C | 0% | 0hPa | 0V | 00:00:00 | 00:00:00 | 00:00:00 | |
| OE3JTB-15 | 2026-08-31 06:33:16 | 48.78099 | 18.26181 | 58° | 13km/h | 22045m | 6.1m/s | 0°C | 0% | 0hPa | 0V | 00:00:00 | 00:00:00 | 00:00:00 | |
| DO3MHA-11 | 2026-08-31 06:33:15 | 48.78098 | 18.26177 | 60° | 11km/h | 22040m | 4.1m/s | 0°C | 0% | 0hPa | 0V | 00:00:00 | 00:00:00 | 00:00:00 | |
| OE5MMP-10 | 2026-08-31 06:33:12 | 48.78092 | 18.26163 | 27° | 13km/h | 22026m | 3.9m/s | 0°C | 0% | 0hPa | 0V | 00:00:00 | 00:00:00 | 00:00:00 | |
| OE5DRO-10 | 2026-08-31 06:33:11 | 48.78090 | 18.26161 | 27° | 15km/h | 22020m | 5.9m/s | 0°C | 0% | 0hPa | 0V | 00:00:00 | 00:00:00 | 00:00:00 | |
| NBG1-10 | 2026-08-31 06:33:09 | 48.78083 | 18.26156 | 31° | 13km/h | 21994m | 5.0m/s | 0°C | 0% | 0hPa | 0V | 00:00:00 | 00:00:00 | 00:00:00 | |
| SQ9EZE-15 | 2026-08-31 06:33:07 | 48.78076 | 18.26150 | 29° | 15km/h | 22005m | 5.7m/s | -53.8°C | 0% | 0hPa | 0V | 00:00:00 | 00:00:00 | 00:00:00 | |
| OE5MMP-10 | 2026-08-31 06:33:02 | 48.78062 | 18.26140 | 21° | 15km/h | 21973m | 4.1m/s | 0°C | 0% | 0hPa | 0V | 00:00:00 | 00:00:00 | 00:00:00 | |
| POL1PZ | 2026-08-31 06:32:58 | 48.78051 | 18.26131 | 27° | 15km/h | 21959m | 4.1m/s | -53.6°C | 0% | 0hPa | 0V | 00:00:00 | 00:00:00 | 00:00:00 | |
| ATIDSZ-14 | 2026-08-31 06:32:56 | 48.78045 | 18.26128 | 1° | 13km/h | 21950m | 4.7m/s | -53.5°C | 0% | 0hPa | 0V | 00:00:00 | 00:00:00 | 00:00:00 | |
| PG1ADW-2 | 2026-08-31 06:32:55 | 48.78041 | 18.26129 | 5° | 15km/h | 21941m | 5.7m/s | 0°C | 0% | 0hPa | 0V | 00:00:00 | 00:00:00 | 00:00:00 | |
| OE5MMP-10 | 2026-08-31 06:32:52 | 48.78027 | 18.26127 | 3° | 13km/h | 21925m | 4.6m/s | 0°C | 0% | 0hPa | 0V | 00:00:00 | 00:00:00 | 00:00:00 | |
| OE3JTB-15 | 2026-08-31 06:32:47 | 48.78014 | 18.26124 | 347° | 15km/h | 21900m | 4.9m/s | 0°C | 0% | 0hPa | 0V | 00:00:00 | 00:00:00 | 00:00:00 | |
| OE5DXL-15 | 2026-08-31 06:32:45 | 48.78003 | 18.26129 | 341° | 15km/h | 21879m | 5.1m/s | 0°C | 0% | 0hPa | 0V | 00:00:00 | 00:00:00 | 00:00:00 | |
| OE5MMP-10 | 2026-08-31 06:32:42 | 48.77999 | 18.26132 | 342° | 15km/h | 21875m | 4.2m/s | 0°C | 0% | 0hPa | 0V | 00:00:00 | 00:00:00 | 00:00:00 | |
| OE5WHR-10 | 2026-08-31 06:32:41 | 48.77994 | 18.26135 | 342° | 16km/h | 21870m | 5.2m/s | 0°C | 0% | 0hPa | 0V | 00:00:00 | 00:00:00 | 00:00:00 | |
| POL1PZ | 2026-08-31 06:32:38 | 48.77982 | 18.26139 | 338° | 11km/h | 21861m | 5.6m/s | -53.4°C | 0% | 0hPa | 0V | 00:00:00 | 00:00:00 | 00:00:00 | |
| ATIDSZ-14 | 2026-08-31 06:32:36 | 48.77978 | 18.26143 | 324° | 9km/h | 21851m | 4.8m/s | -53.4°C | 0% | 0hPa | 0V | 00:00:00 | 00:00:00 | 00:00:00 | |
| PG1ADW-2 | 2026-08-31 06:32:35 | 48.77976 | 18.26145 | 330° | 15km/h | 21840m | 4.7m/s | 0°C | 0% | 0hPa | 0V | 00:00:00 | 00:00:00 | 00:00:00 | |
| NBG1-10 | 2026-08-31 06:32:33 | 48.77971 | 18.26150 | 325° | 15km/h | 21830m | 3.8m/s | 0°C | 0% | 0hPa | 0V | 00:00:00 | 00:00:00 | 00:00:00 | |
| OE5MMP-10 | 2026-08-31 06:32:32 | 48.77968 | 18.26153 | 325° | 18km/h | 21826m | 4.5m/s | 0°C | 0% | 0hPa | 0V | 00:00:00 | 00:00:00 | 00:00:00 | |
| OE5MMP-10 | 2026-08-31 06:32:22 | 48.77929 | 18.26183 | 314° | 15km/h | 21778m | 4.1m/s | 0°C | 0% | 0hPa | 0V | 00:00:00 | 00:00:00 | 00:00:00 | |
| OE5WHR-10 | 2026-08-31 06:32:20 | 48.77924 | 18.26190 | 341° | 15km/h | 21768m | 4.1m/s | 0°C | 0% | 0hPa | 0V | 00:00:00 | 00:00:00 | 00:00:00 | |
| POL1PZ | 2026-08-31 06:32:18 | 48.77914 | 18.26193 | 350° | 15km/h | 21758m | 4.4m/s | -53.3°C | 0% | 0hPa | 0V | 00:00:00 | 00:00:00 | 00:00:00 | |
| PG1ADW-2 | 2026-08-31 06:32:15 | 48.77906 | 18.26194 | 3° | 15km/h | 21743m | 4.5m/s | 0°C | 0% | 0hPa | 0V | 00:00:00 | 00:00:00 | 00:00:00 | |
| OE5DRO-10 | 2026-08-31 06:32:14 | 48.77902 | 18.26193 | 358° | 15km/h | 21738m | 5.5m/s | 0°C | 0% | 0hPa | 0V | 00:00:00 | 00:00:00 | 00:00:00 | |
| OE5MMP-10 | 2026-08-31 06:32:12 | 48.77894 | 18.26194 | 346° | 15km/h | 21729m | 4.3m/s | 0°C | 0% | 0hPa | 0V | 00:00:00 | 00:00:00 | 00:00:00 | |
| OE5MMP-10 | 2026-08-31 06:32:02 | 48.77857 | 18.26201 | 8° | 13km/h | 21679m | 5.7m/s | 0°C | 0% | 0hPa | 0V | 00:00:00 | 00:00:00 | 00:00:00 | |
| OE5WHR-10 | 2026-08-31 06:31:59 | 48.77844 | 18.26195 | 27° | 9km/h | 21669m | 4.6m/s | 0°C | 0% | 0hPa | 0V | 00:00:00 | 00:00:00 | 00:00:00 | |
| POL1PZ | 2026-08-31 06:31:57 | 48.77841 | 18.26192 | 359° | 7km/h | 21659m | 4.1m/s | -53.6°C | 0% | 0hPa | 0V | 00:00:00 | 00:00:00 | 00:00:00 | |
| PG1ADW-2 | 2026-08-31 06:31:55 | 48.77836 | 18.26191 | 339° | 16km/h | 21644m | 5.4m/s | 0°C | 0% | 0hPa | 0V | 00:00:00 | 00:00:00 | 00:00:00 | |
| OE5MMP-10 | 2026-08-31 06:31:52 | 48.77828 | 18.26197 | 338° | 15km/h | 21630m | 5.9m/s | 0°C | 0% | 0hPa | 0V | 00:00:00 | 00:00:00 | 00:00:00 | |
| OE3JTB-15 | 2026-08-31 06:31:49 | 48.77816 | 18.26203 | 343° | 18km/h | 21614m | 4.9m/s | 0°C | 0% | 0hPa | 0V | 00:00:00 | 00:00:00 | 00:00:00 | |
| OE5DXL-15 | 2026-08-31 06:31:44 | 48.77794 | 18.26222 | 320° | 22km/h | 21565m | 5.0m/s | 0°C | 0% | 0hPa | 0V | 00:00:00 | 00:00:00 | 00:00:00 | |
| OE5MMP-10 | 2026-08-31 06:31:42 | 48.77794 | 18.26218 | 334° | 20km/h | 21580m | 5.6m/s | 0°C | 0% | 0hPa | 0V | 00:00:00 | 00:00:00 | 00:00:00 | |
| SQ9EZE-14 | 2026-08-31 06:31:39 | 48.77782 | 18.26227 | 328° | 20km/h | 21570m | 4.7m/s | -53.5°C | 0% | 0hPa | 0V | 00:00:00 | 00:00:00 | 00:00:00 | |
| OE5DRO-10 | 2026-08-31 06:31:36 | 48.77769 | 18.26244 | 314° | 22km/h | 21551m | 4.5m/s | 0°C | 0% | 0hPa | 0V | 00:00:00 | 00:00:00 | 00:00:00 | |
| PG1ADW-2 | 2026-08-31 06:31:35 | 48.77765 | 18.26250 | 310° | 22km/h | 21547m | 4.5m/s | 0°C | 0% | 0hPa | 0V | 00:00:00 | 00:00:00 | 00:00:00 | |
| ATIDSZ-14 | 2026-08-31 06:31:34 | 48.77761 | 18.26256 | 311° | 20km/h | 21547m | 4.6m/s | -53.4°C | 0% | 0hPa | 0V | 00:00:00 | 00:00:00 | 00:00:00 | |
| OE5MMP-10 | 2026-08-31 06:31:32 | 48.77756 | 18.26267 | 303° | 20km/h | 21531m | 5.6m/s | 0°C | 0% | 0hPa | 0V | 00:00:00 | 00:00:00 | 00:00:00 | |
| OE5MMP-10 | 2026-08-31 06:31:22 | 48.77729 | 18.26334 | 301° | 24km/h | 21483m | 5.7m/s | 0°C | 0% | 0hPa | 0V | 00:00:00 | 00:00:00 | 00:00:00 | |
| OE3JTB-15 | 2026-08-31 06:31:20 | 48.77722 | 18.26348 | 299° | 18km/h | 21473m | 6.0m/s | 0°C | 0% | 0hPa | 0V | 00:00:00 | 00:00:00 | 00:00:00 | |
| OE5DRO-10 | 2026-08-31 06:31:17 | 48.77714 | 18.26373 | 293° | 18km/h | 21438m | 4.8m/s | 0°C | 0% | 0hPa | 0V | 00:00:00 | 00:00:00 | 00:00:00 | |
| POL1PZ | 2026-08-31 06:31:16 | 48.77711 | 18.26381 | 300° | 24km/h | 21458m | 5.7m/s | -53.8°C | 0% | 0hPa | 0V | 00:00:00 | 00:00:00 | 00:00:00 | |
| PG1ADW-2 | 2026-08-31 06:31:15 | 48.77708 | 18.26388 | 305° | 18km/h | 21448m | 5.7m/s | 0°C | 0% | 0hPa | 0V | 00:00:00 | 00:00:00 | 00:00:00 | |
| ATIDSZ-14 | 2026-08-31 06:31:14 | 48.77705 | 18.26395 | 305° | 22km/h | 21448m | 5.7m/s | -53.8°C | 0% | 0hPa | 0V | 00:00:00 | 00:00:00 | 00:00:00 | |
| OE5MMP-10 | 2026-08-31 06:31:12 | 48.77699 | 18.26409 | 311° | 20km/h | 21433m | 5.0m/s | 0°C | 0% | 0hPa | 0V | 00:00:00 | 00:00:00 | 00:00:00 | |
| OE5MMP-10 | 2026-08-31 06:31:02 | 48.77677 | 18.26473 | 299° | 16km/h | 21384m | 6.0m/s | 0°C | 0% | 0hPa | 0V | 00:00:00 | 00:00:00 | 00:00:00 | |
| OE5DRO-10 | 2026-08-31 06:30:58 | 48.77668 | 18.26490 | 313° | 16km/h | 21364m | 5.7m/s | 0°C | 0% | 0hPa | 0V | 00:00:00 | 00:00:00 | 00:00:00 | |
| PG1ADW-2 | 2026-08-31 06:30:55 | 48.77659 | 18.26505 | 296° | 15km/h | 21348m | 4.4m/s | 0°C | 0% | 0hPa | 0V | 00:00:00 | 00:00:00 | 00:00:00 | |
| ATIDSZ-14 | 2026-08-31 06:30:53 | 48.77656 | 18.26518 | 283° | 16km/h | 21344m | 4.4m/s | -53.6°C | 0% | 0hPa | 0V | 00:00:00 | 00:00:00 | 00:00:00 | |
| OE5MMP-10 | 2026-08-31 06:30:52 | 48.77656 | 18.26524 | 295° | 16km/h | 21334m | 4.8m/s | 0°C | 0% | 0hPa | 0V | 00:00:00 | 00:00:00 | 00:00:00 | |
| OE3JTB-15 | 2026-08-31 06:30:51 | 48.77654 | 18.26527 | 295° | 15km/h | 21329m | 5.6m/s | 0°C | 0% | 0hPa | 0V | 00:00:00 | 00:00:00 | 00:00:00 | |
| OE5MMP-10 | 2026-08-31 06:30:42 | 48.77645 | 18.26581 | 285° | 15km/h | 21284m | 4.6m/s | 0°C | 0% | 0hPa | 0V | 00:00:00 | 00:00:00 | 00:00:00 | |
| OE5DRO-10 | 2026-08-31 06:30:39 | 48.77641 | 18.26598 | 273° | 13km/h | 21268m | 5.8m/s | 0°C | 0% | 0hPa | 0V | 00:00:00 | 00:00:00 | 00:00:00 | |
| PG1ADW-2 | 2026-08-31 06:30:35 | 48.77641 | 18.26615 | 273° | 13km/h | 21248m | 4.3m/s | 0°C | 0% | 0hPa | 0V | 00:00:00 | 00:00:00 | 00:00:00 | |
| ATIDSZ-14 | 2026-08-31 06:30:33 | 48.77641 | 18.26629 | 280° | 18km/h | 21243m | 5.8m/s | -53.5°C | 0% | 0hPa | 0V | 00:00:00 | 00:00:00 | 00:00:00 | |
| OE5MMP-10 | 2026-08-31 06:30:32 | 48.77640 | 18.26636 | 286° | 13km/h | 21233m | 4.9m/s | 0°C | 0% | 0hPa | 0V | 00:00:00 | 00:00:00 | 00:00:00 | |
| OE5MMP-10 | 2026-08-31 06:30:22 | 48.77635 | 18.26682 | 285° | 7km/h | 21184m | 5.0m/s | 0°C | 0% | 0hPa | 0V | 00:00:00 | 00:00:00 | 00:00:00 | |
| OE5DRO-10 | 2026-08-31 06:30:21 | 48.77634 | 18.26690 | 294° | 9km/h | 21173m | 4.3m/s | 0°C | 0% | 0hPa | 0V | 00:00:00 | 00:00:00 | 00:00:00 | |
| SQ9EZE-15 | 2026-08-31 06:30:18 | 48.77633 | 18.26697 | 308° | 11km/h | 21169m | 5.0m/s | -53.6°C | 0% | 0hPa | 0V | 00:00:00 | 00:00:00 | 00:00:00 | |
| DO3MHA-11 | 2026-08-31 06:30:17 | 48.77632 | 18.26700 | 323° | 7km/h | 21155m | 5.5m/s | 0°C | 0% | 0hPa | 0V | 00:00:00 | 00:00:00 | 00:00:00 | |
| PG1ADW-2 | 2026-08-31 06:30:15 | 48.77629 | 18.26703 | 286° | 7km/h | 21149m | 4.8m/s | 0°C | 0% | 0hPa | 0V | 00:00:00 | 00:00:00 | 00:00:00 | |
| POL1PZ | 2026-08-31 06:30:14 | 48.77628 | 18.26702 | 170° | 2km/h | 21149m | 4.8m/s | -53.6°C | 0% | 0hPa | 0V | 00:00:00 | 00:00:00 | 00:00:00 | |
| OE5DXL-15 | 2026-08-31 06:30:12 | 48.77635 | 18.26706 | 269° | 11km/h | 21124m | 4.8m/s | 0°C | 0% | 0hPa | 0V | 00:00:00 | 00:00:00 | 00:00:00 | |
| DO3MHA-11 | 2026-08-31 06:30:07 | 48.77634 | 18.26714 | 311° | 9km/h | 21113m | 4.4m/s | 0°C | 0% | 0hPa | 0V | 00:00:00 | 00:00:00 | 00:00:00 | |
| OE5MMP-10 | 2026-08-31 06:30:02 | 48.77622 | 18.26719 | 58° | 9km/h | 21083m | 4.6m/s | 0°C | 0% | 0hPa | 0V | 00:00:00 | 00:00:00 | 00:00:00 | |
| OE5DRO-10 | 2026-08-31 06:30:01 | 48.77621 | 18.26716 | 179° | 9km/h | 21079m | 3.8m/s | 0°C | 0% | 0hPa | 0V | 00:00:00 | 00:00:00 | 00:00:00 | |
| DO3MHA-11 | 2026-08-31 06:29:57 | 48.77621 | 18.26719 | 311° | 9km/h | 21058m | 5.5m/s | 0°C | 0% | 0hPa | 0V | 00:00:00 | 00:00:00 | 00:00:00 | |
| PG1ADW-2 | 2026-08-31 06:29:55 | 48.77617 | 18.26727 | 322° | 11km/h | 21048m | 5.8m/s | 0°C | 0% | 0hPa | 0V | 00:00:00 | 00:00:00 | 00:00:00 | |
| POL1PZ | 2026-08-31 06:29:54 | 48.77614 | 18.26731 | 344° | 15km/h | 21048m | 5.8m/s | -53.2°C | 0% | 0hPa | 0V | 00:00:00 | 00:00:00 | 00:00:00 | |
| OE3JTB-15 | 2026-08-31 06:29:53 | 48.77611 | 18.26733 | 1° | 9km/h | 21039m | 4.1m/s | 0°C | 0% | 0hPa | 0V | 00:00:00 | 00:00:00 | 00:00:00 | |
| ATIDSZ-14 | 2026-08-31 06:29:52 | 48.77608 | 18.26733 | 14° | 13km/h | 21039m | 4.2m/s | -53.2°C | 0% | 0hPa | 0V | 00:00:00 | 00:00:00 | 00:00:00 | |
| OE5MMP-10 | 2026-08-31 06:29:51 | 48.77605 | 18.26732 | 23° | 9km/h | 21028m | 4.6m/s | 0°C | 0% | 0hPa | 0V | 00:00:00 | 00:00:00 | 00:00:00 | |
| DO3MHA-11 | 2026-08-31 06:29:47 | 48.77601 | 18.26731 | 342° | 13km/h | 21009m | 5.4m/s | 0°C | 0% | 0hPa | 0V | 00:00:00 | 00:00:00 | 00:00:00 | |
| OE5MMP-10 | 2026-08-31 06:29:41 | 48.77582 | 18.26738 | 23° | 11km/h | 20978m | 4.5m/s | 0°C | 0% | 0hPa | 0V | 00:00:00 | 00:00:00 | 00:00:00 | |
| OE5DXL-15 | 2026-08-31 06:29:40 | 48.77571 | 18.26725 | 3° | 7km/h | 20954m | 5.3m/s | 0°C | 0% | 0hPa | 0V | 00:00:00 | 00:00:00 | 00:00:00 | |
| DO3MHA-11 | 2026-08-31 06:29:37 | 48.77571 | 18.26729 | 18° | 7km/h | 20960m | 5.2m/s | 0°C | 0% | 0hPa | 0V | 00:00:00 | 00:00:00 | 00:00:00 | |
| PG1ADW-2 | 2026-08-31 06:29:35 | 48.77567 | 18.26726 | 353° | 5km/h | 20950m | 4.8m/s | 0°C | 0% | 0hPa | 0V | 00:00:00 | 00:00:00 | 00:00:00 | |
| POL1PZ | 2026-08-31 06:29:33 | 48.77562 | 18.26726 | 351° | 11km/h | 20945m | 5.2m/s | -53.2°C | 0% | 0hPa | 0V | 00:00:00 | 00:00:00 | 00:00:00 | |
| OE5MMP-10 | 2026-08-31 06:29:31 | 48.77557 | 18.26728 | 330° | 4km/h | 20929m | 4.6m/s | 0°C | 0% | 0hPa | 0V | 00:00:00 | 00:00:00 | 00:00:00 | |
| DO3MHA-11 | 2026-08-31 06:29:27 | 48.77554 | 18.26730 | 29° | 2km/h | 20909m | 4.7m/s | 0°C | 0% | 0hPa | 0V | 00:00:00 | 00:00:00 | 00:00:00 | |
| OE3JTB-15 | 2026-08-31 06:29:24 | 48.77553 | 18.26728 | 311° | 9km/h | 20893m | 5.7m/s | 0°C | 0% | 0hPa | 0V | 00:00:00 | 00:00:00 | 00:00:00 | |
| OE5DRO-10 | 2026-08-31 06:29:23 | 48.77551 | 18.26727 | 311° | 7km/h | 20888m | 5.1m/s | 0°C | 0% | 0hPa | 0V | 00:00:00 | 00:00:00 | 00:00:00 | |
| OE5MMP-10 | 2026-08-31 06:29:21 | 48.77551 | 18.26727 | 209° | 5km/h | 20879m | 5.4m/s | 0°C | 0% | 0hPa | 0V | 00:00:00 | 00:00:00 | 00:00:00 | |
| DO3MHA-11 | 2026-08-31 06:29:17 | 48.77553 | 18.26730 | 230° | 7km/h | 20859m | 4.6m/s | 0°C | 0% | 0hPa | 0V | 00:00:00 | 00:00:00 | 00:00:00 | |
| PG1ADW-2 | 2026-08-31 06:29:15 | 48.77556 | 18.26736 | 201° | 11km/h | 20849m | 4.6m/s | 0°C | 0% | 0hPa | 0V | 00:00:00 | 00:00:00 | 00:00:00 | |
| SQ9EZE-14 | 2026-08-31 06:29:14 | 48.77557 | 18.26737 | 201° | 5km/h | 20849m | 4.6m/s | -53.1°C | 0% | 0hPa | 0V | 00:00:00 | 00:00:00 | 00:00:00 | |
| POL1PZ | 2026-08-31 06:29:12 | 48.77560 | 18.26738 | 183° | 9km/h | 20839m | 5.2m/s | -53.2°C | 0% | 0hPa | 0V | 00:00:00 | 00:00:00 | 00:00:00 | |
| OE5MMP-10 | 2026-08-31 06:29:11 | 48.77563 | 18.26739 | 174° | 11km/h | 20829m | 5.4m/s | 0°C | 0% | 0hPa | 0V | 00:00:00 | 00:00:00 | 00:00:00 | |
| DO3MHA-11 | 2026-08-31 06:29:07 | 48.77571 | 18.26737 | 207° | 13km/h | 20810m | 4.0m/s | 0°C | 0% | 0hPa | 0V | 00:00:00 | 00:00:00 | 00:00:00 | |
| GYPAP8-17 | 2026-08-31 06:29:06 | 48.77575 | 18.26740 | 203° | 16km/h | 20810m | 4.1m/s | -53.4°C | 0% | 0hPa | 0V | 00:00:00 | 00:00:00 | 00:00:00 | |
| OE5DXL-15 | 2026-08-31 06:29:04 | 48.77586 | 18.26749 | 202° | 9km/h | 20770m | 4.6m/s | 0°C | 0% | 0hPa | 0V | 00:00:00 | 00:00:00 | 00:00:00 | |
| OE5MMP-10 | 2026-08-31 06:29:01 | 48.77589 | 18.26750 | 198° | 15km/h | 20780m | 4.7m/s | 0°C | 0% | 0hPa | 0V | 00:00:00 | 00:00:00 | 00:00:00 | |
| DO3MHA-11 | 2026-08-31 06:28:56 | 48.77606 | 18.26757 | 204° | 11km/h | 20750m | 4.3m/s | 0°C | 0% | 0hPa | 0V | 00:00:00 | 00:00:00 | 00:00:00 | |
| PG1ADW-2 | 2026-08-31 06:28:55 | 48.77610 | 18.26759 | 203° | 11km/h | 20750m | 4.3m/s | 0°C | 0% | 0hPa | 0V | 00:00:00 | 00:00:00 | 00:00:00 | |
| POL1PZ | 2026-08-31 06:28:52 | 48.77621 | 18.26766 | 197° | 15km/h | 20742m | 5.7m/s | -53.6°C | 0% | 0hPa | 0V | 00:00:00 | 00:00:00 | 00:00:00 | |
| OE5MMP-10 | 2026-08-31 06:28:51 | 48.77625 | 18.26768 | 190° | 9km/h | 20733m | 4.1m/s | 0°C | 0% | 0hPa | 0V | 00:00:00 | 00:00:00 | 00:00:00 | |
| ATIDSZ-14 | 2026-08-31 06:28:50 | 48.77628 | 18.26769 | 180° | 13km/h | 20733m | 4.2m/s | -53.4°C | 0% | 0hPa | 0V | 00:00:00 | 00:00:00 | 00:00:00 | |
| SQ9EZE-15 | 2026-08-31 06:28:49 | 48.77630 | 18.26769 | 166° | 7km/h | 20728m | 5.7m/s | -53.4°C | 0% | 0hPa | 0V | 00:00:00 | 00:00:00 | 00:00:00 | |
| DO3MHA-11 | 2026-08-31 06:28:46 | 48.77635 | 18.26766 | 170° | 11km/h | 20708m | 4.5m/s | 0°C | 0% | 0hPa | 0V | 00:00:00 | 00:00:00 | 00:00:00 | |
| OE5DRO-10 | 2026-08-31 06:28:45 | 48.77637 | 18.26766 | 167° | 11km/h | 20703m | 5.7m/s | 0°C | 0% | 0hPa | 0V | 00:00:00 | 00:00:00 | 00:00:00 | |
| OE5MMP-10 | 2026-08-31 06:28:41 | 48.77649 | 18.26760 | 153° | 11km/h | 20684m | 3.7m/s | 0°C | 0% | 0hPa | 0V | 00:00:00 | 00:00:00 | 00:00:00 | |
| DO3MHA-11 | 2026-08-31 06:28:36 | 48.77660 | 18.26749 | 129° | 11km/h | 20654m | 5.7m/s | 0°C | 0% | 0hPa | 0V | 00:00:00 | 00:00:00 | 00:00:00 | |
| PG1ADW-2 | 2026-08-31 06:28:35 | 48.77661 | 18.26747 | 127° | 13km/h | 20654m | 5.7m/s | 0°C | 0% | 0hPa | 0V | 00:00:00 | 00:00:00 | 00:00:00 | |
| OE5MMP-10 | 2026-08-31 06:28:31 | 48.77668 | 18.26734 | 142° | 13km/h | 20635m | 4.0m/s | 0°C | 0% | 0hPa | 0V | 00:00:00 | 00:00:00 | 00:00:00 | |
| ATIDSZ-14 | 2026-08-31 06:28:30 | 48.77671 | 18.26731 | 140° | 15km/h | 20635m | 4.1m/s | -53.8°C | 0% | 0hPa | 0V | 00:00:00 | 00:00:00 | 00:00:00 | |
| DO3MHA-11 | 2026-08-31 06:28:26 | 48.77676 | 18.26719 | 76° | 15km/h | 20611m | 4.3m/s | 0°C | 0% | 0hPa | 0V | 00:00:00 | 00:00:00 | 00:00:00 | |
| OE5MMP-10 | 2026-08-31 06:28:21 | 48.77672 | 18.26691 | 106° | 18km/h | 20588m | 4.0m/s | 0°C | 0% | 0hPa | 0V | 00:00:00 | 00:00:00 | 00:00:00 | |
| DO3MHA-11 | 2026-08-31 06:28:16 | 48.77678 | 18.26663 | 87° | 20km/h | 20563m | 3.8m/s | 0°C | 0% | 0hPa | 0V | 00:00:00 | 00:00:00 | 00:00:00 | |
| PG1ADW-2 | 2026-08-31 06:28:15 | 48.77678 | 18.26656 | 69° | 22km/h | 20559m | 5.3m/s | 0°C | 0% | 0hPa | 0V | 00:00:00 | 00:00:00 | 00:00:00 | |
| OE5MMP-10 | 2026-08-31 06:28:11 | 48.77668 | 18.26626 | 66° | 18km/h | 20539m | 3.9m/s | 0°C | 0% | 0hPa | 0V | 00:00:00 | 00:00:00 | 00:00:00 | |
| ATIDSZ-14 | 2026-08-31 06:28:09 | 48.77663 | 18.26611 | 65° | 20km/h | 20534m | 5.7m/s | -53.8°C | 0% | 0hPa | 0V | 00:00:00 | 00:00:00 | 00:00:00 | |
| OE5DRO-10 | 2026-08-31 06:28:07 | 48.77660 | 18.26598 | 81° | 20km/h | 20519m | 4.1m/s | 0°C | 0% | 0hPa | 0V | 00:00:00 | 00:00:00 | 00:00:00 | |
| DO3MHA-11 | 2026-08-31 06:28:06 | 48.77659 | 18.26592 | 87° | 22km/h | 20515m | 3.9m/s | 0°C | 0% | 0hPa | 0V | 00:00:00 | 00:00:00 | 00:00:00 | |
| OE5MMP-10 | 2026-08-31 06:28:01 | 48.77650 | 18.26563 | 51° | 22km/h | 20491m | 4.3m/s | 0°C | 0% | 0hPa | 0V | 00:00:00 | 00:00:00 | 00:00:00 | |
| OE3JTB-15 | 2026-08-31 06:27:57 | 48.77633 | 18.26533 | 57° | 22km/h | 20471m | 4.3m/s | 0°C | 0% | 0hPa | 0V | 00:00:00 | 00:00:00 | 00:00:00 | |
| DO3MHA-11 | 2026-08-31 06:27:56 | 48.77630 | 18.26523 | 74° | 22km/h | 20467m | 4.4m/s | 0°C | 0% | 0hPa | 0V | 00:00:00 | 00:00:00 | 00:00:00 | |
| PG1ADW-2 | 2026-08-31 06:27:55 | 48.77629 | 18.26517 | 74° | 20km/h | 20462m | 5.4m/s | 0°C | 0% | 0hPa | 0V | 00:00:00 | 00:00:00 | 00:00:00 | |
| OE5MMP-10 | 2026-08-31 06:27:51 | 48.77623 | 18.26493 | 52° | 22km/h | 20442m | 4.1m/s | 0°C | 0% | 0hPa | 0V | 00:00:00 | 00:00:00 | 00:00:00 | |
| POL1PZ | 2026-08-31 06:27:50 | 48.77619 | 18.26486 | 53° | 24km/h | 20442m | 4.2m/s | -53.8°C | 0% | 0hPa | 0V | 00:00:00 | 00:00:00 | 00:00:00 | |
| OE5DRO-10 | 2026-08-31 06:27:48 | 48.77611 | 18.26472 | 46° | 22km/h | 20428m | 5.5m/s | 0°C | 0% | 0hPa | 0V | 00:00:00 | 00:00:00 | 00:00:00 | |
| DO3MHA-11 | 2026-08-31 06:27:46 | 48.77602 | 18.26458 | 46° | 18km/h | 20419m | 3.9m/s | 0°C | 0% | 0hPa | 0V | 00:00:00 | 00:00:00 | 00:00:00 | |
| OE5MMP-10 | 2026-08-31 06:27:41 | 48.77586 | 18.26431 | 60° | 24km/h | 20394m | 4.3m/s | 0°C | 0% | 0hPa | 0V | 00:00:00 | 00:00:00 | 00:00:00 | |
| DO3MHA-11 | 2026-08-31 06:27:36 | 48.77570 | 18.26404 | 40° | 22km/h | 20370m | 4.2m/s | 0°C | 0% | 0hPa | 0V | 00:00:00 | 00:00:00 | 00:00:00 | |
| PG1ADW-2 | 2026-08-31 06:27:35 | 48.77564 | 18.26397 | 40° | 20km/h | 20366m | 5.3m/s | 0°C | 0% | 0hPa | 0V | 00:00:00 | 00:00:00 | 00:00:00 | |
| OE5MMP-10 | 2026-08-31 06:27:31 | 48.77541 | 18.26375 | 32° | 18km/h | 20346m | 4.8m/s | 0°C | 0% | 0hPa | 0V | 00:00:00 | 00:00:00 | 00:00:00 | |
| OE5DRO-10 | 2026-08-31 06:27:29 | 48.77534 | 18.26368 | 33° | 16km/h | 20337m | 4.1m/s | 0°C | 0% | 0hPa | 0V | 00:00:00 | 00:00:00 | 00:00:00 | |
| OE3JTB-15 | 2026-08-31 06:27:28 | 48.77531 | 18.26367 | 51° | 16km/h | 20332m | 5.3m/s | 0°C | 0% | 0hPa | 0V | 00:00:00 | 00:00:00 | 00:00:00 | |
| DO3MHA-11 | 2026-08-31 06:27:26 | 48.77526 | 18.26358 | 53° | 18km/h | 20323m | 5.6m/s | 0°C | 0% | 0hPa | 0V | 00:00:00 | 00:00:00 | 00:00:00 | |
| OE5MMP-10 | 2026-08-31 06:27:21 | 48.77509 | 18.26323 | 39° | 16km/h | 20298m | 5.1m/s | 0°C | 0% | 0hPa | 0V | 00:00:00 | 00:00:00 | 00:00:00 | |
| DO3MHA-11 | 2026-08-31 06:27:16 | 48.77494 | 18.26306 | 49° | 16km/h | 20275m | 5.6m/s | 0°C | 0% | 0hPa | 0V | 00:00:00 | 00:00:00 | 00:00:00 | |
| PG1ADW-2 | 2026-08-31 06:27:15 | 48.77491 | 18.26301 | 45° | 15km/h | 20275m | 5.6m/s | 0°C | 0% | 0hPa | 0V | 00:00:00 | 00:00:00 | 00:00:00 | |
| OE5MMP-10 | 2026-08-31 06:27:11 | 48.77477 | 18.26283 | 27° | 13km/h | 20249m | 4.5m/s | 0°C | 0% | 0hPa | 0V | 00:00:00 | 00:00:00 | 00:00:00 | |
| OE5DRO-10 | 2026-08-31 06:27:10 | 48.77474 | 18.26281 | 17° | 13km/h | 20245m | 4.2m/s | 0°C | 0% | 0hPa | 0V | 00:00:00 | 00:00:00 | 00:00:00 | |
| POL1PZ | 2026-08-31 06:27:09 | 48.77471 | 18.26279 | 15° | 13km/h | 20245m | 4.2m/s | -54.1°C | 0% | 0hPa | 0V | 00:00:00 | 00:00:00 | 00:00:00 | |
| ATIDSZ-14 | 2026-08-31 06:27:07 | 48.77465 | 18.26277 | 22° | 13km/h | 20236m | 4.2m/s | -54.2°C | 0% | 0hPa | 0V | 00:00:00 | 00:00:00 | 00:00:00 | |
| DO3MHA-11 | 2026-08-31 06:27:06 | 48.77462 | 18.26275 | 18° | 13km/h | 20227m | 4.9m/s | 0°C | 0% | 0hPa | 0V | 00:00:00 | 00:00:00 | 00:00:00 | |
| SQ9EZE-14 | 2026-08-31 06:27:03 | 48.77453 | 18.26271 | 30° | 13km/h | 20218m | 5.5m/s | -54.2°C | 0% | 0hPa | 0V | 00:00:00 | 00:00:00 | 00:00:00 | |
| OE5MMP-10 | 2026-08-31 06:27:01 | 48.77447 | 18.26265 | 25° | 13km/h | 20203m | 4.2m/s | 0°C | 0% | 0hPa | 0V | 00:00:00 | 00:00:00 | 00:00:00 | |
| OE3JTB-15 | 2026-08-31 06:26:59 | 48.77440 | 18.26261 | 12° | 11km/h | 20194m | 4.9m/s | 0°C | 0% | 0hPa | 0V | 00:00:00 | 00:00:00 | 00:00:00 | |
| DO3MHA-11 | 2026-08-31 06:26:56 | 48.77429 | 18.26258 | 352° | 11km/h | 20180m | 5.0m/s | 0°C | 0% | 0hPa | 0V | 00:00:00 | 00:00:00 | 00:00:00 | |
| PG1ADW-2 | 2026-08-31 06:26:53 | 48.77420 | 18.26263 | 338° | 11km/h | 20165m | 4.6m/s | 0°C | 0% | 0hPa | 0V | 00:00:00 | 00:00:00 | 00:00:00 | |
| OE5MMP-10 | 2026-08-31 06:26:51 | 48.77415 | 18.26267 | 345° | 13km/h | 20155m | 4.2m/s | 0°C | 0% | 0hPa | 0V | 00:00:00 | 00:00:00 | 00:00:00 | |
| POL1PZ | 2026-08-31 06:26:49 | 48.77410 | 18.26269 | 356° | 11km/h | 20150m | 5.5m/s | -54.2°C | 0% | 0hPa | 0V | 00:00:00 | 00:00:00 | 00:00:00 | |
| SQ9EZE-14 | 2026-08-31 06:26:48 | 48.77407 | 18.26269 | 358° | 11km/h | 20145m | 4.4m/s | -54.2°C | 0% | 0hPa | 0V | 00:00:00 | 00:00:00 | 00:00:00 | |
| ATIDSZ-14 | 2026-08-31 06:26:47 | 48.77404 | 18.26269 | 347° | 13km/h | 20140m | 5.7m/s | -54.1°C | 0% | 0hPa | 0V | 00:00:00 | 00:00:00 | 00:00:00 | |
| DO3MHA-11 | 2026-08-31 06:26:46 | 48.77401 | 18.26270 | 336° | 11km/h | 20126m | 4.6m/s | 0°C | 0% | 0hPa | 0V | 00:00:00 | 00:00:00 | 00:00:00 | |
| OE5MMP-10 | 2026-08-31 06:26:41 | 48.77386 | 18.26286 | 303° | 9km/h | 20107m | 5.0m/s | 0°C | 0% | 0hPa | 0V | 00:00:00 | 00:00:00 | 00:00:00 | |
| DO3MHA-11 | 2026-08-31 06:26:36 | 48.77379 | 18.26295 | 323° | 9km/h | 20082m | 5.6m/s | 0°C | 0% | 0hPa | 0V | 00:00:00 | 00:00:00 | 00:00:00 | |
| PG1ADW-2 | 2026-08-31 06:26:33 | 48.77372 | 18.26303 | 295° | 7km/h | 20067m | 4.5m/s | 0°C | 0% | 0hPa | 0V | 00:00:00 | 00:00:00 | 00:00:00 | |
| OE5DRO-10 | 2026-08-31 06:26:32 | 48.77371 | 18.26308 | 275° | 7km/h | 20063m | 5.5m/s | 0°C | 0% | 0hPa | 0V | 00:00:00 | 00:00:00 | 00:00:00 | |
| OE5MMP-10 | 2026-08-31 06:26:31 | 48.77370 | 18.26310 | 275° | 9km/h | 20057m | 4.2m/s | 0°C | 0% | 0hPa | 0V | 00:00:00 | 00:00:00 | 00:00:00 | |
| OE3JTB-15 | 2026-08-31 06:26:30 | 48.77370 | 18.26313 | 275° | 7km/h | 20053m | 4.1m/s | 0°C | 0% | 0hPa | 0V | 00:00:00 | 00:00:00 | 00:00:00 | |
| POL1PZ | 2026-08-31 06:26:28 | 48.77370 | 18.26315 | 310° | 4km/h | 20049m | 5.3m/s | -54.1°C | 0% | 0hPa | 0V | 00:00:00 | 00:00:00 | 00:00:00 | |
| DO3MHA-11 | 2026-08-31 06:26:26 | 48.77369 | 18.26318 | 345° | 9km/h | 20034m | 4.9m/s | 0°C | 0% | 0hPa | 0V | 00:00:00 | 00:00:00 | 00:00:00 | |
| OE5MMP-10 | 2026-08-31 06:26:21 | 48.77353 | 18.26327 | 316° | 5km/h | 20009m | 4.7m/s | 0°C | 0% | 0hPa | 0V | 00:00:00 | 00:00:00 | 00:00:00 | |
| DO3MHA-11 | 2026-08-31 06:26:16 | 48.77351 | 18.26335 | 299° | 7km/h | 19985m | 4.2m/s | 0°C | 0% | 0hPa | 0V | 00:00:00 | 00:00:00 | 00:00:00 | |
| PG1ADW-2 | 2026-08-31 06:26:13 | 48.77349 | 18.26336 | 353° | 7km/h | 19971m | 5.1m/s | 0°C | 0% | 0hPa | 0V | 00:00:00 | 00:00:00 | 00:00:00 | |
| OE5MMP-10 | 2026-08-31 06:26:11 | 48.77346 | 18.26337 | 4° | 9km/h | 19961m | 4.9m/s | 0°C | 0% | 0hPa | 0V | 00:00:00 | 00:00:00 | 00:00:00 | |
| POL1PZ | 2026-08-31 06:26:08 | 48.77338 | 18.26338 | 348° | 9km/h | 19952m | 3.7m/s | -54.2°C | 0% | 0hPa | 0V | 00:00:00 | 00:00:00 | 00:00:00 | |
| DO3MHA-11 | 2026-08-31 06:26:06 | 48.77334 | 18.26339 | 14° | 7km/h | 19937m | 5.8m/s | 0°C | 0% | 0hPa | 0V | 00:00:00 | 00:00:00 | 00:00:00 | |
| OE5MMP-10 | 2026-08-31 06:26:01 | 48.77327 | 18.26334 | 35° | 7km/h | 19913m | 5.3m/s | 0°C | 0% | 0hPa | 0V | 00:00:00 | 00:00:00 | 00:00:00 | |
| SQ9EZE-15 | 2026-08-31 06:26:00 | 48.77325 | 18.26332 | 7° | 5km/h | 19913m | 5.4m/s | -54.2°C | 0% | 0hPa | 0V | 00:00:00 | 00:00:00 | 00:00:00 | |
| DO3MHA-11 | 2026-08-31 06:25:56 | 48.77319 | 18.26332 | 24° | 11km/h | 19891m | 5.3m/s | 0°C | 0% | 0hPa | 0V | 00:00:00 | 00:00:00 | 00:00:00 | |
| OE5DRO-10 | 2026-08-31 06:25:54 | 48.77315 | 18.26330 | 24° | 11km/h | 19881m | 5.8m/s | 0°C | 0% | 0hPa | 0V | 00:00:00 | 00:00:00 | 00:00:00 | |
| PG1ADW-2 | 2026-08-31 06:25:53 | 48.77313 | 18.26328 | 22° | 13km/h | 19876m | 4.4m/s | 0°C | 0% | 0hPa | 0V | 00:00:00 | 00:00:00 | 00:00:00 | |
| OE5MMP-10 | 2026-08-31 06:25:51 | 48.77308 | 18.26323 | 357° | 11km/h | 19866m | 3.9m/s | 0°C | 0% | 0hPa | 0V | 00:00:00 | 00:00:00 | 00:00:00 | |
| POL1PZ | 2026-08-31 06:25:47 | 48.77295 | 18.26324 | 348° | 11km/h | 19852m | 4.2m/s | -53.8°C | 0% | 0hPa | 0V | 00:00:00 | 00:00:00 | 00:00:00 | |
| DO3MHA-11 | 2026-08-31 06:25:46 | 48.77292 | 18.26325 | 334° | 11km/h | 19843m | 5.4m/s | 0°C | 0% | 0hPa | 0V | 00:00:00 | 00:00:00 | 00:00:00 | |
| ATIDSZ-14 | 2026-08-31 06:25:45 | 48.77290 | 18.26327 | 323° | 11km/h | 19843m | 5.4m/s | -53.7°C | 0% | 0hPa | 0V | 00:00:00 | 00:00:00 | 00:00:00 | |
| OE5MMP-10 | 2026-08-31 06:25:41 | 48.77283 | 18.26336 | 329° | 15km/h | 19818m | 4.8m/s | 0°C | 0% | 0hPa | 0V | 00:00:00 | 00:00:00 | 00:00:00 | |
| DO3MHA-11 | 2026-08-31 06:25:36 | 48.77266 | 18.26342 | 347° | 16km/h | 19799m | 4.2m/s | 0°C | 0% | 0hPa | 0V | 00:00:00 | 00:00:00 | 00:00:00 | |
| OE5DRO-10 | 2026-08-31 06:25:35 | 48.77263 | 18.26344 | 332° | 13km/h | 19789m | 4.3m/s | 0°C | 0% | 0hPa | 0V | 00:00:00 | 00:00:00 | 00:00:00 | |
| PG1ADW-2 | 2026-08-31 06:25:33 | 48.77256 | 18.26351 | 317° | 13km/h | 19780m | 4.3m/s | 0°C | 0% | 0hPa | 0V | 00:00:00 | 00:00:00 | 00:00:00 | |
| OE3JTB-15 | 2026-08-31 06:25:32 | 48.77254 | 18.26354 | 317° | 11km/h | 19776m | 3.4m/s | 0°C | 0% | 0hPa | 0V | 00:00:00 | 00:00:00 | 00:00:00 | |
| OE5MMP-10 | 2026-08-31 06:25:31 | 48.77252 | 18.26357 | 324° | 13km/h | 19771m | 5.1m/s | 0°C | 0% | 0hPa | 0V | 00:00:00 | 00:00:00 | 00:00:00 | |
| POL1PZ | 2026-08-31 06:25:27 | 48.77239 | 18.26369 | 353° | 16km/h | 19757m | 4.4m/s | -53.3°C | 0% | 0hPa | 0V | 00:00:00 | 00:00:00 | 00:00:00 | |
| DO3MHA-11 | 2026-08-31 06:25:26 | 48.77235 | 18.26370 | 351° | 11km/h | 19744m | 4.8m/s | 0°C | 0% | 0hPa | 0V | 00:00:00 | 00:00:00 | 00:00:00 | |
| ATIDSZ-14 | 2026-08-31 06:25:25 | 48.77231 | 18.26371 | 341° | 13km/h | 19749m | 5.0m/s | -53.2°C | 0% | 0hPa | 0V | 00:00:00 | 00:00:00 | 00:00:00 | |
| OE5MMP-10 | 2026-08-31 06:25:21 | 48.77223 | 18.26379 | 316° | 11km/h | 19723m | 4.4m/s | 0°C | 0% | 0hPa | 0V | 00:00:00 | 00:00:00 | 00:00:00 | |
| DO3MHA-11 | 2026-08-31 06:25:16 | 48.77213 | 18.26386 | 6° | 9km/h | 19699m | 4.3m/s | 0°C | 0% | 0hPa | 0V | 00:00:00 | 00:00:00 | 00:00:00 | |
| PG1ADW-2 | 2026-08-31 06:25:13 | 48.77203 | 18.26384 | 3° | 7km/h | 19685m | 5.2m/s | 0°C | 0% | 0hPa | 0V | 00:00:00 | 00:00:00 | 00:00:00 | |
| OE5MMP-10 | 2026-08-31 06:25:11 | 48.77197 | 18.26384 | 335° | 7km/h | 19675m | 4.2m/s | 0°C | 0% | 0hPa | 0V | 00:00:00 | 00:00:00 | 00:00:00 | |
| POL1PZ | 2026-08-31 06:25:07 | 48.77191 | 18.26387 | 12° | 4km/h | 19656m | 4.3m/s | -52.9°C | 0% | 0hPa | 0V | 00:00:00 | 00:00:00 | 00:00:00 | |
| DO3MHA-11 | 2026-08-31 06:25:06 | 48.77191 | 18.26387 | 12° | 9km/h | 19651m | 5.4m/s | 0°C | 0% | 0hPa | 0V | 00:00:00 | 00:00:00 | 00:00:00 | |
| ATIDSZ-14 | 2026-08-31 06:25:04 | 48.77187 | 18.26386 | 20° | 9km/h | 19646m | 4.8m/s | -52.9°C | 0% | 0hPa | 0V | 00:00:00 | 00:00:00 | 00:00:00 | |
| OE3JTB-15 | 2026-08-31 06:25:03 | 48.77185 | 18.26383 | 9° | 7km/h | 19636m | 4.7m/s | 0°C | 0% | 0hPa | 0V | 00:00:00 | 00:00:00 | 00:00:00 | |
| OE5MMP-10 | 2026-08-31 06:25:01 | 48.77178 | 18.26383 | 21° | 7km/h | 19627m | 5.4m/s | 0°C | 0% | 0hPa | 0V | 00:00:00 | 00:00:00 | 00:00:00 | |
| OE5DRO-10 | 2026-08-31 06:24:57 | 48.77168 | 18.26377 | 105° | 5km/h | 19608m | 4.8m/s | 0°C | 0% | 0hPa | 0V | 00:00:00 | 00:00:00 | 00:00:00 | |
| DO3MHA-11 | 2026-08-31 06:24:56 | 48.77167 | 18.26376 | 105° | 4km/h | 19604m | 4.8m/s | 0°C | 0% | 0hPa | 0V | 00:00:00 | 00:00:00 | 00:00:00 | |
| PG1ADW-2 | 2026-08-31 06:24:53 | 48.77169 | 18.26372 | 131° | 7km/h | 19590m | 3.9m/s | 0°C | 0% | 0hPa | 0V | 00:00:00 | 00:00:00 | 00:00:00 | |
| OE5MMP-10 | 2026-08-31 06:24:51 | 48.77169 | 18.26371 | 81° | 5km/h | 19580m | 4.6m/s | 0°C | 0% | 0hPa | 0V | 00:00:00 | 00:00:00 | 00:00:00 | |
| DO3MHA-11 | 2026-08-31 06:24:46 | 48.77166 | 18.26364 | 42° | 9km/h | 19561m | 5.5m/s | 0°C | 0% | 0hPa | 0V | 00:00:00 | 00:00:00 | 00:00:00 | |
| ATIDSZ-14 | 2026-08-31 06:24:44 | 48.77164 | 18.26360 | 52° | 7km/h | 19552m | 4.3m/s | -53.4°C | 0% | 0hPa | 0V | 00:00:00 | 00:00:00 | 00:00:00 | |
| OE5MMP-10 | 2026-08-31 06:24:41 | 48.77160 | 18.26353 | 68° | 9km/h | 19532m | 4.7m/s | 0°C | 0% | 0hPa | 0V | 00:00:00 | 00:00:00 | 00:00:00 | |
| SQ9EZE-15 | 2026-08-31 06:24:39 | 48.77158 | 18.26345 | 77° | 11km/h | 19527m | 5.6m/s | -53.3°C | 0% | 0hPa | 0V | 00:00:00 | 00:00:00 | 00:00:00 | |
| OE5DRO-10 | 2026-08-31 06:24:38 | 48.77157 | 18.26341 | 75° | 9km/h | 19517m | 5.4m/s | 0°C | 0% | 0hPa | 0V | 00:00:00 | 00:00:00 | 00:00:00 | |
| DO3MHA-11 | 2026-08-31 06:24:36 | 48.77156 | 18.26334 | 76° | 11km/h | 19507m | 5.2m/s | 0°C | 0% | 0hPa | 0V | 00:00:00 | 00:00:00 | 00:00:00 | |
| OE3JTB-15 | 2026-08-31 06:24:34 | 48.77155 | 18.26328 | 56° | 7km/h | 19498m | 3.8m/s | 0°C | 0% | 0hPa | 0V | 00:00:00 | 00:00:00 | 00:00:00 | |
| PG1ADW-2 | 2026-08-31 06:24:33 | 48.77154 | 18.26327 | 64° | 9km/h | 19493m | 5.4m/s | 0°C | 0% | 0hPa | 0V | 00:00:00 | 00:00:00 | 00:00:00 | |
| OE5MMP-10 | 2026-08-31 06:24:31 | 48.77151 | 18.26319 | 64° | 11km/h | 19485m | 4.4m/s | 0°C | 0% | 0hPa | 0V | 00:00:00 | 00:00:00 | 00:00:00 | |
| DO3MHA-11 | 2026-08-31 06:24:26 | 48.77145 | 18.26299 | 77° | 9km/h | 19455m | 4.6m/s | 0°C | 0% | 0hPa | 0V | 00:00:00 | 00:00:00 | 00:00:00 | |
| POL1PZ | 2026-08-31 06:24:25 | 48.77145 | 18.26296 | 58° | 5km/h | 19460m | 5.7m/s | -53.2°C | 0% | 0hPa | 0V | 00:00:00 | 00:00:00 | 00:00:00 | |
| ATIDSZ-14 | 2026-08-31 06:24:23 | 48.77143 | 18.26293 | 41° | 7km/h | 19450m | 5.9m/s | -53.2°C | 0% | 0hPa | 0V | 00:00:00 | 00:00:00 | 00:00:00 | |
| OE5DRO-10 | 2026-08-31 06:24:19 | 48.77134 | 18.26282 | 49° | 5km/h | 19426m | 4.9m/s | 0°C | 0% | 0hPa | 0V | 00:00:00 | 00:00:00 | 00:00:00 | |
| OE5MMP-10 | 2026-08-31 06:24:11 | 48.77128 | 18.26269 | 49° | 7km/h | 19386m | 4.7m/s | 0°C | 0% | 0hPa | 0V | 00:00:00 | 00:00:00 | 00:00:00 | |
| DO3MHA-11 | 2026-08-31 06:24:06 | 48.77125 | 18.26260 | 189° | 5km/h | 19362m | 4.3m/s | 0°C | 0% | 0hPa | 0V | 00:00:00 | 00:00:00 | 00:00:00 | |
| OE3JTB-15 | 2026-08-31 06:24:05 | 48.77126 | 18.26262 | 182° | 9km/h | 19357m | 5.8m/s | 0°C | 0% | 0hPa | 0V | 00:00:00 | 00:00:00 | 00:00:00 | |
| POL1PZ | 2026-08-31 06:24:04 | 48.77127 | 18.26262 | 182° | 7km/h | 19357m | 5.8m/s | -53.9°C | 0% | 0hPa | 0V | 00:00:00 | 00:00:00 | 00:00:00 | |
| ATIDSZ-14 | 2026-08-31 06:24:03 | 48.77129 | 18.26262 | 175° | 11km/h | 19352m | 4.4m/s | -54.0°C | 0% | 0hPa | 0V | 00:00:00 | 00:00:00 | 00:00:00 | |
| OE5MMP-10 | 2026-08-31 06:24:01 | 48.77134 | 18.26262 | 98° | 7km/h | 19339m | 4.1m/s | 0°C | 0% | 0hPa | 0V | 00:00:00 | 00:00:00 | 00:00:00 | |
| OE5DRO-10 | 2026-08-31 06:24:00 | 48.77134 | 18.26261 | 98° | 9km/h | 19328m | 4.6m/s | 0°C | 0% | 0hPa | 0V | 00:00:00 | 00:00:00 | 00:00:00 | |
| DO3MHA-11 | 2026-08-31 06:23:56 | 48.77134 | 18.26252 | 78° | 9km/h | 19314m | 4.3m/s | 0°C | 0% | 0hPa | 0V | 00:00:00 | 00:00:00 | 00:00:00 | |
| OE5MMP-10 | 2026-08-31 06:23:51 | 48.77135 | 18.26236 | 136° | 11km/h | 19289m | 5.8m/s | 0°C | 0% | 0hPa | 0V | 00:00:00 | 00:00:00 | 00:00:00 | |
| DO3MHA-11 | 2026-08-31 06:23:46 | 48.77146 | 18.26222 | 112° | 9km/h | 19265m | 4.9m/s | 0°C | 0% | 0hPa | 0V | 00:00:00 | 00:00:00 | 00:00:00 | |
| POL1PZ | 2026-08-31 06:23:44 | 48.77149 | 18.26213 | 113° | 13km/h | 19260m | 4.4m/s | -54.1°C | 0% | 0hPa | 0V | 00:00:00 | 00:00:00 | 00:00:00 | |
| ATIDSZ-14 | 2026-08-31 06:23:42 | 48.77150 | 18.26206 | 136° | 5km/h | 19250m | 4.6m/s | -54.2°C | 0% | 0hPa | 0V | 00:00:00 | 00:00:00 | 00:00:00 | |
| OE5MMP-10 | 2026-08-31 06:23:41 | 48.77151 | 18.26205 | 151° | 7km/h | 19241m | 5.1m/s | 0°C | 0% | 0hPa | 0V | 00:00:00 | 00:00:00 | 00:00:00 | |
| DO3MHA-11 | 2026-08-31 06:23:36 | 48.77160 | 18.26197 | 155° | 7km/h | 19217m | 5.5m/s | 0°C | 0% | 0hPa | 0V | 00:00:00 | 00:00:00 | 00:00:00 | |
| OE5MMP-10 | 2026-08-31 06:23:31 | 48.77167 | 18.26189 | 135° | 7km/h | 19192m | 4.4m/s | 0°C | 0% | 0hPa | 0V | 00:00:00 | 00:00:00 | 00:00:00 | |
| DO3MHA-11 | 2026-08-31 06:23:26 | 48.77174 | 18.26180 | 125° | 9km/h | 19168m | 3.7m/s | 0°C | 0% | 0hPa | 0V | 00:00:00 | 00:00:00 | 00:00:00 | |
| POL1PZ | 2026-08-31 06:23:23 | 48.77178 | 18.26171 | 112° | 7km/h | 19159m | 4.3m/s | -54.2°C | 0% | 0hPa | 0V | 00:00:00 | 00:00:00 | 00:00:00 | |
| OE5DRO-10 | 2026-08-31 06:23:22 | 48.77179 | 18.26169 | 108° | 11km/h | 19150m | 5.1m/s | 0°C | 0% | 0hPa | 0V | 00:00:00 | 00:00:00 | 00:00:00 | |
| OE5MMP-10 | 2026-08-31 06:23:21 | 48.77179 | 18.26164 | 108° | 9km/h | 19145m | 4.3m/s | 0°C | 0% | 0hPa | 0V | 00:00:00 | 00:00:00 | 00:00:00 | |
| DO3MHA-11 | 2026-08-31 06:23:16 | 48.77182 | 18.26150 | 97° | 13km/h | 19121m | 3.6m/s | 0°C | 0% | 0hPa | 0V | 00:00:00 | 00:00:00 | 00:00:00 | |
| OE5MMP-10 | 2026-08-31 06:23:11 | 48.77183 | 18.26130 | 102° | 16km/h | 19097m | 4.4m/s | 0°C | 0% | 0hPa | 0V | 00:00:00 | 00:00:00 | 00:00:00 | |
| OE3JTB-15 | 2026-08-31 06:23:07 | 48.77186 | 18.26107 | 89° | 15km/h | 19077m | 4.5m/s | 0°C | 0% | 0hPa | 0V | 00:00:00 | 00:00:00 | 00:00:00 | |
| DO3MHA-11 | 2026-08-31 06:23:06 | 48.77187 | 18.26101 | 89° | 15km/h | 19073m | 4.6m/s | 0°C | 0% | 0hPa | 0V | 00:00:00 | 00:00:00 | 00:00:00 | |
| OE5DRO-10 | 2026-08-31 06:23:03 | 48.77184 | 18.26087 | 79° | 15km/h | 19058m | 5.7m/s | 0°C | 0% | 0hPa | 0V | 00:00:00 | 00:00:00 | 00:00:00 | |
| OE5MMP-10 | 2026-08-31 06:23:00 | 48.77180 | 18.26059 | 81° | 15km/h | 19045m | 5.0m/s | 0°C | 0% | 0hPa | 0V | 00:00:00 | 00:00:00 | 00:00:00 | |
| OE5MMP-10 | 2026-08-31 06:22:50 | 48.77171 | 18.26003 | 90° | 15km/h | 18989m | 4.2m/s | 0°C | 0% | 0hPa | 0V | 00:00:00 | 00:00:00 | 00:00:00 | |
| GYPAP8-17 | 2026-08-31 06:22:47 | 48.77168 | 18.25983 | 89° | 16km/h | 18984m | 5.5m/s | -53.8°C | 0% | 0hPa | 0V | 00:00:00 | 00:00:00 | 00:00:00 | |
| OE5DRO-10 | 2026-08-31 06:22:43 | 48.77167 | 18.25971 | 49° | 15km/h | 18966m | 4.5m/s | 0°C | 0% | 0hPa | 0V | 00:00:00 | 00:00:00 | 00:00:00 | |
| POL1PZ | 2026-08-31 06:22:42 | 48.77167 | 18.25968 | 50° | 9km/h | 18966m | 4.5m/s | -53.8°C | 0% | 0hPa | 0V | 00:00:00 | 00:00:00 | 00:00:00 | |
| ATIDSZ-14 | 2026-08-31 06:22:40 | 48.77163 | 18.25963 | 48° | 13km/h | 18957m | 3.6m/s | -53.9°C | 0% | 0hPa | 0V | 00:00:00 | 00:00:00 | 00:00:00 | |
| OE5MMP-10 | 2026-08-31 06:22:39 | 48.77160 | 18.25959 | 63° | 16km/h | 18952m | 5.5m/s | 0°C | 0% | 0hPa | 0V | 00:00:00 | 00:00:00 | 00:00:00 | |
| OE3JTB-15 | 2026-08-31 06:22:38 | 48.77158 | 18.25953 | 72° | 18km/h | 18943m | 4.2m/s | 0°C | 0% | 0hPa | 0V | 00:00:00 | 00:00:00 | 00:00:00 | |
| OE5MMP-10 | 2026-08-31 06:22:29 | 48.77141 | 18.25911 | 39° | 18km/h | 18901m | 4.2m/s | 0°C | 0% | 0hPa | 0V | 00:00:00 | 00:00:00 | 00:00:00 | |
| DO3MHA-11 | 2026-08-31 06:22:27 | 48.77137 | 18.25905 | 48° | 20km/h | 18891m | 4.9m/s | 0°C | 0% | 0hPa | 0V | 00:00:00 | 00:00:00 | 00:00:00 | |
| OE5DRO-10 | 2026-08-31 06:22:24 | 48.77128 | 18.25890 | 51° | 20km/h | 18877m | 4.8m/s | 0°C | 0% | 0hPa | 0V | 00:00:00 | 00:00:00 | 00:00:00 | |
| PG1ADW-2 | 2026-08-31 06:22:23 | 48.77125 | 18.25884 | 51° | 18km/h | 18871m | 5.5m/s | 0°C | 0% | 0hPa | 0V | 00:00:00 | 00:00:00 | 00:00:00 | |
| POL1PZ | 2026-08-31 06:22:22 | 48.77122 | 18.25878 | 49° | 22km/h | 18871m | 5.5m/s | -55.3°C | 0% | 0hPa | 0V | 00:00:00 | 00:00:00 | 00:00:00 | |
| ATIDSZ-14 | 2026-08-31 06:22:20 | 48.77114 | 18.25865 | 53° | 22km/h | 18862m | 5.4m/s | -55.3°C | 0% | 0hPa | 0V | 00:00:00 | 00:00:00 | 00:00:00 | |
| OE5MMP-10 | 2026-08-31 06:22:19 | 48.77111 | 18.25859 | 58° | 20km/h | 18852m | 5.5m/s | 0°C | 0% | 0hPa | 0V | 00:00:00 | 00:00:00 | 00:00:00 | |
| OE5DXL-15 | 2026-08-31 06:22:17 | 48.77101 | 18.25833 | 53° | 13km/h | 18834m | 4.0m/s | 0°C | 0% | 0hPa | 0V | 00:00:00 | 00:00:00 | 00:00:00 | |
| OE3JTB-15 | 2026-08-31 06:22:09 | 48.77080 | 18.25804 | 46° | 11km/h | 18805m | 5.6m/s | 0°C | 0% | 0hPa | 0V | 00:00:00 | 00:00:00 | 00:00:00 | |
| DO3MHA-11 | 2026-08-31 06:22:07 | 48.77073 | 18.25794 | 61° | 15km/h | 18795m | 4.7m/s | 0°C | 0% | 0hPa | 0V | 00:00:00 | 00:00:00 | 00:00:00 | |
| SQ9EZE-14 | 2026-08-31 06:22:06 | 48.77070 | 18.25789 | 61° | 18km/h | 18795m | 4.8m/s | -55.1°C | 0% | 0hPa | 0V | 00:00:00 | 00:00:00 | 00:00:00 | |
| OE5DRO-10 | 2026-08-31 06:22:05 | 48.77069 | 18.25783 | 73° | 11km/h | 18785m | 4.8m/s | 0°C | 0% | 0hPa | 0V | 00:00:00 | 00:00:00 | 00:00:00 | |
| OE5WHR-10 | 2026-08-31 06:22:04 | 48.77068 | 18.25777 | 77° | 11km/h | 18776m | 4.2m/s | 0°C | 0% | 0hPa | 0V | 00:00:00 | 00:00:00 | 00:00:00 | |
| PG1ADW-2 | 2026-08-31 06:22:03 | 48.77067 | 18.25772 | 72° | 11km/h | 18776m | 4.2m/s | 0°C | 0% | 0hPa | 0V | 00:00:00 | 00:00:00 | 00:00:00 | |
| OE5MMP-10 | 2026-08-31 06:21:59 | 48.77061 | 18.25757 | 22° | 13km/h | 18756m | 4.2m/s | 0°C | 0% | 0hPa | 0V | 00:00:00 | 00:00:00 | 00:00:00 | |
| DO3MHA-11 | 2026-08-31 06:21:57 | 48.77054 | 18.25754 | 17° | 11km/h | 18746m | 4.2m/s | 0°C | 0% | 0hPa | 0V | 00:00:00 | 00:00:00 | 00:00:00 | |
| SQ9EZE-15 | 2026-08-31 06:21:50 | 48.77043 | 18.25729 | 105° | 7km/h | 18717m | 4.2m/s | -55.4°C | 0% | 0hPa | 0V | 00:00:00 | 00:00:00 | 00:00:00 | |
| OE5MMP-10 | 2026-08-31 06:21:49 | 48.77044 | 18.25727 | 90° | 5km/h | 18708m | 4.5m/s | 0°C | 0% | 0hPa | 0V | 00:00:00 | 00:00:00 | 00:00:00 | |
| DO3MHA-11 | 2026-08-31 06:21:47 | 48.77043 | 18.25722 | 327° | 5km/h | 18698m | 4.7m/s | 0°C | 0% | 0hPa | 0V | 00:00:00 | 00:00:00 | 00:00:00 | |
| OE5DRO-10 | 2026-08-31 06:21:46 | 48.77042 | 18.25723 | 327° | 7km/h | 18693m | 5.0m/s | 0°C | 0% | 0hPa | 0V | 00:00:00 | 00:00:00 | 00:00:00 | |
| OE5WHR-10 | 2026-08-31 06:21:43 | 48.77040 | 18.25727 | 117° | 7km/h | 18678m | 7.6m/s | 0°C | 0% | 0hPa | 0V | 00:00:00 | 00:00:00 | 00:00:00 | |
| POL1PZ | 2026-08-31 06:21:41 | 48.77040 | 18.25723 | 129° | 7km/h | 18673m | 4.6m/s | -55.3°C | 0% | 0hPa | 0V | 00:00:00 | 00:00:00 | 00:00:00 | |
| OE3JTB-15 | 2026-08-31 06:21:40 | 48.77041 | 18.25721 | 121° | 9km/h | 18664m | 4.7m/s | 0°C | 0% | 0hPa | 0V | 00:00:00 | 00:00:00 | 00:00:00 | |
| OE5MMP-10 | 2026-08-31 06:21:39 | 48.77043 | 18.25718 | 104° | 5km/h | 18664m | 4.7m/s | 0°C | 0% | 0hPa | 0V | 00:00:00 | 00:00:00 | 00:00:00 | |
| DO3MHA-11 | 2026-08-31 06:21:37 | 48.77043 | 18.25712 | 91° | 7km/h | 18649m | 3.8m/s | 0°C | 0% | 0hPa | 0V | 00:00:00 | 00:00:00 | 00:00:00 | |
| OE5MMP-10 | 2026-08-31 06:21:29 | 48.77043 | 18.25695 | 113° | 11km/h | 18608m | 5.0m/s | 0°C | 0% | 0hPa | 0V | 00:00:00 | 00:00:00 | 00:00:00 | |
| DO3MHA-11 | 2026-08-31 06:21:27 | 48.77045 | 18.25690 | 85° | 9km/h | 18603m | 3.6m/s | 0°C | 0% | 0hPa | 0V | 00:00:00 | 00:00:00 | 00:00:00 | |
| PG1ADW-2 | 2026-08-31 06:21:23 | 48.77041 | 18.25679 | 62° | 13km/h | 18584m | 4.4m/s | 0°C | 0% | 0hPa | 0V | 00:00:00 | 00:00:00 | 00:00:00 | |
| OE5WHR-10 | 2026-08-31 06:21:22 | 48.77040 | 18.25676 | 83° | 13km/h | 18579m | 4.5m/s | 0°C | 0% | 0hPa | 0V | 00:00:00 | 00:00:00 | 00:00:00 | |
| POL1PZ | 2026-08-31 06:21:20 | 48.77039 | 18.25669 | 106° | 13km/h | 18574m | 5.2m/s | -55.3°C | 0% | 0hPa | 0V | 00:00:00 | 00:00:00 | 00:00:00 | |
| ATIDSZ-14 | 2026-08-31 06:21:18 | 48.77041 | 18.25660 | 122° | 11km/h | 18564m | 5.0m/s | -55.4°C | 0% | 0hPa | 0V | 00:00:00 | 00:00:00 | 00:00:00 | |
| DO3MHA-11 | 2026-08-31 06:21:17 | 48.77042 | 18.25657 | 89° | 11km/h | 18555m | 5.5m/s | 0°C | 0% | 0hPa | 0V | 00:00:00 | 00:00:00 | 00:00:00 | |
| OE5MMP-10 | 2026-08-31 06:21:14 | 48.77043 | 18.25646 | 61° | 15km/h | 18535m | 4.4m/s | 0°C | 0% | 0hPa | 0V | 00:00:00 | 00:00:00 | 00:00:00 | |
| OE3JTB-15 | 2026-08-31 06:21:11 | 48.77039 | 18.25639 | 67° | 16km/h | 18525m | 4.4m/s | 0°C | 0% | 0hPa | 0V | 00:00:00 | 00:00:00 | 00:00:00 | |
| DO3MHA-11 | 2026-08-31 06:21:07 | 48.77034 | 18.25619 | 86° | 16km/h | 18501m | 5.5m/s | 0°C | 0% | 0hPa | 0V | 00:00:00 | 00:00:00 | 00:00:00 | |
| PG1ADW-2 | 2026-08-31 06:21:03 | 48.77034 | 18.25593 | 76° | 16km/h | 18485m | 4.3m/s | 0°C | 0% | 0hPa | 0V | 00:00:00 | 00:00:00 | 00:00:00 | |
| OE5MMP-10 | 2026-08-31 06:21:02 | 48.77033 | 18.25585 | 50° | 16km/h | 18480m | 4.7m/s | 0°C | 0% | 0hPa | 0V | 00:00:00 | 00:00:00 | 00:00:00 | |
| OE5WHR-10 | 2026-08-31 06:21:00 | 48.77028 | 18.25580 | 44° | 16km/h | 18463m | 3.9m/s | 0°C | 0% | 0hPa | 0V | 00:00:00 | 00:00:00 | 00:00:00 | |
| ATIDSZ-14 | 2026-08-31 06:20:58 | 48.77023 | 18.25571 | 50° | 16km/h | 18467m | 4.8m/s | -54.9°C | 0% | 0hPa | 0V | 00:00:00 | 00:00:00 | 00:00:00 | |
| DO3MHA-11 | 2026-08-31 06:20:57 | 48.77019 | 18.25567 | 56° | 16km/h | 18454m | 4.1m/s | 0°C | 0% | 0hPa | 0V | 00:00:00 | 00:00:00 | 00:00:00 | |
| OE5MMP-10 | 2026-08-31 06:20:52 | 48.77013 | 18.25537 | 90° | 16km/h | 18434m | 4.1m/s | 0°C | 0% | 0hPa | 0V | 00:00:00 | 00:00:00 | 00:00:00 | |
| OE5DRO-10 | 2026-08-31 06:20:48 | 48.77012 | 18.25515 | 67° | 18km/h | 18415m | 5.2m/s | 0°C | 0% | 0hPa | 0V | 00:00:00 | 00:00:00 | 00:00:00 | |
| DO3MHA-11 | 2026-08-31 06:20:47 | 48.77010 | 18.25510 | 61° | 18km/h | 18410m | 3.5m/s | 0°C | 0% | 0hPa | 0V | 00:00:00 | 00:00:00 | 00:00:00 | |
| PG1ADW-2 | 2026-08-31 06:20:43 | 48.77001 | 18.25487 | 63° | 18km/h | 18391m | 4.3m/s | 0°C | 0% | 0hPa | 0V | 00:00:00 | 00:00:00 | 00:00:00 | |
| OE5MMP-10 | 2026-08-31 06:20:42 | 48.76999 | 18.25480 | 63° | 18km/h | 18387m | 4.9m/s | 0°C | 0% | 0hPa | 0V | 00:00:00 | 00:00:00 | 00:00:00 | |
| POL1PZ | 2026-08-31 06:20:40 | 48.76992 | 18.25459 | 70° | 18km/h | 18378m | 5.0m/s | -54.6°C | 0% | 0hPa | 0V | 00:00:00 | 00:00:00 | 00:00:00 | |
| OE5WHR-10 | 2026-08-31 06:20:39 | 48.76992 | 18.25459 | 70° | 15km/h | 18373m | 4.3m/s | 0°C | 0% | 0hPa | 0V | 00:00:00 | 00:00:00 | 00:00:00 | |
| DO3MHA-11 | 2026-08-31 06:20:37 | 48.76989 | 18.25446 | 76° | 18km/h | 18363m | 4.6m/s | 0°C | 0% | 0hPa | 0V | 00:00:00 | 00:00:00 | 00:00:00 | |
| OE5MMP-10 | 2026-08-31 06:20:31 | 48.76978 | 18.25408 | 50° | 16km/h | 18330m | 4.4m/s | 0°C | 0% | 0hPa | 0V | 00:00:00 | 00:00:00 | 00:00:00 | |
| OE5DRO-10 | 2026-08-31 06:20:29 | 48.76972 | 18.25397 | 54° | 15km/h | 18325m | 5.1m/s | 0°C | 0% | 0hPa | 0V | 00:00:00 | 00:00:00 | 00:00:00 | |
| DO3MHA-11 | 2026-08-31 06:20:27 | 48.76967 | 18.25386 | 68° | 11km/h | 18311m | 4.0m/s | 0°C | 0% | 0hPa | 0V | 00:00:00 | 00:00:00 | 00:00:00 | |
| PG1ADW-2 | 2026-08-31 06:20:23 | 48.76964 | 18.25361 | 92° | 11km/h | 18301m | 4.1m/s | 0°C | 0% | 0hPa | 0V | 00:00:00 | 00:00:00 | 00:00:00 | |
| OE5MMP-10 | 2026-08-31 06:20:20 | 48.76964 | 18.25346 | 60° | 11km/h | 18282m | 5.1m/s | 0°C | 0% | 0hPa | 0V | 00:00:00 | 00:00:00 | 00:00:00 | |
| POL1PZ | 2026-08-31 06:20:18 | 48.76961 | 18.25339 | 41° | 13km/h | 18277m | 4.2m/s | -54.1°C | 0% | 0hPa | 0V | 00:00:00 | 00:00:00 | 00:00:00 | |
| OE5DXL-15 | 2026-08-31 06:20:17 | 48.76953 | 18.25331 | 59° | 15km/h | 18263m | 4.8m/s | 0°C | 0% | 0hPa | 0V | 00:00:00 | 00:00:00 | 00:00:00 | |
| OE3JTB-15 | 2026-08-31 06:20:13 | 48.76950 | 18.25321 | 111° | 15km/h | 18250m | 5.6m/s | 0°C | 0% | 0hPa | 0V | 00:00:00 | 00:00:00 | 00:00:00 | |
| OE5MMP-10 | 2026-08-31 06:20:10 | 48.76953 | 18.25309 | 123° | 11km/h | 18236m | 4.7m/s | 0°C | 0% | 0hPa | 0V | 00:00:00 | 00:00:00 | 00:00:00 | |
| DO3MHA-11 | 2026-08-31 06:20:05 | 48.76957 | 18.25293 | 72° | 13km/h | 18200m | 3.8m/s | 0°C | 0% | 0hPa | 0V | 00:00:00 | 00:00:00 | 00:00:00 | |
| PG1ADW-2 | 2026-08-31 06:20:03 | 48.76955 | 18.25287 | 87° | 16km/h | 18204m | 4.6m/s | 0°C | 0% | 0hPa | 0V | 00:00:00 | 00:00:00 | 00:00:00 | |
| ATIDSZ-14 | 2026-08-31 06:19:56 | 48.76964 | 18.25244 | 90° | 15km/h | 18176m | 4.9m/s | -53.9°C | 0% | 0hPa | 0V | 00:00:00 | 00:00:00 | 00:00:00 | |
| DO3MHA-11 | 2026-08-31 06:19:55 | 48.76964 | 18.25239 | 73° | 15km/h | 18121m | 5.4m/s | 0°C | 0% | 0hPa | 0V | 00:00:00 | 00:00:00 | 00:00:00 | |
| OE5DRO-10 | 2026-08-31 06:19:51 | 48.76960 | 18.25225 | 85° | 20km/h | 18149m | 4.0m/s | 0°C | 0% | 0hPa | 0V | 00:00:00 | 00:00:00 | 00:00:00 | |
| OE5MMP-10 | 2026-08-31 06:19:49 | 48.76958 | 18.25201 | 95° | 18km/h | 18121m | 5.4m/s | 0°C | 0% | 0hPa | 0V | 00:00:00 | 00:00:00 | 00:00:00 | |
| OE5DXL-15 | 2026-08-31 06:19:46 | 48.76961 | 18.25175 | 85° | 24km/h | 18126m | 4.4m/s | 0°C | 0% | 0hPa | 0V | 00:00:00 | 00:00:00 | 00:00:00 | |
| OE3JTB-15 | 2026-08-31 06:19:44 | 48.76960 | 18.25168 | 84° | 22km/h | 18117m | 4.3m/s | 0°C | 0% | 0hPa | 0V | 00:00:00 | 00:00:00 | 00:00:00 | |
| DO3MHA-11 | 2026-08-31 06:19:43 | 48.76960 | 18.25162 | 84° | 22km/h | 18085m | 4.7m/s | 0°C | 0% | 0hPa | 0V | 00:00:00 | 00:00:00 | 00:00:00 | |
| SQ9EZE-14 | 2026-08-31 06:19:41 | 48.76959 | 18.25152 | 80° | 16km/h | 18108m | 4.1m/s | -54.3°C | 0% | 0hPa | 0V | 00:00:00 | 00:00:00 | 00:00:00 | |
| OE5MMP-10 | 2026-08-31 06:19:37 | 48.76958 | 18.25125 | 103° | 24km/h | 18085m | 4.7m/s | 0°C | 0% | 0hPa | 0V | 00:00:00 | 00:00:00 | 00:00:00 | |
| ATIDSZ-14 | 2026-08-31 06:19:36 | 48.76960 | 18.25116 | 104° | 26km/h | 18085m | 4.8m/s | -54.3°C | 0% | 0hPa | 0V | 00:00:00 | 00:00:00 | 00:00:00 | |
| OE5WHR-10 | 2026-08-31 06:19:34 | 48.76963 | 18.25097 | 107° | 26km/h | 18072m | 3.7m/s | 0°C | 0% | 0hPa | 0V | 00:00:00 | 00:00:00 | 00:00:00 | |
| OE5DRO-10 | 2026-08-31 06:19:32 | 48.76967 | 18.25080 | 93° | 26km/h | 18062m | 4.7m/s | 0°C | 0% | 0hPa | 0V | 00:00:00 | 00:00:00 | 00:00:00 | |
| OE5MMP-10 | 2026-08-31 06:19:27 | 48.76969 | 18.25035 | 102° | 26km/h | 18045m | 4.4m/s | 0°C | 0% | 0hPa | 0V | 00:00:00 | 00:00:00 | 00:00:00 | |
| PG1ADW-2 | 2026-08-31 06:19:23 | 48.76974 | 18.24995 | 100° | 29km/h | 18022m | 5.3m/s | 0°C | 0% | 0hPa | 0V | 00:00:00 | 00:00:00 | 00:00:00 | |
| OE5DXL-15 | 2026-08-31 06:19:15 | 48.76980 | 18.24899 | 90° | 29km/h | 17972m | 4.2m/s | 0°C | 0% | 0hPa | 0V | 00:00:00 | 00:00:00 | 00:00:00 | |
| OE5WHR-10 | 2026-08-31 06:19:13 | 48.76980 | 18.24899 | 90° | 29km/h | 17972m | 4.2m/s | 0°C | 0% | 0hPa | 0V | 00:00:00 | 00:00:00 | 00:00:00 | |
| POL1PZ | 2026-08-31 06:19:12 | 48.76979 | 18.24886 | 91° | 35km/h | 17976m | 3.7m/s | -55.3°C | 0% | 0hPa | 0V | 00:00:00 | 00:00:00 | 00:00:00 | |
| OE5MMP-10 | 2026-08-31 06:19:05 | 48.76983 | 18.24800 | 87° | 27km/h | 17941m | 3.2m/s | 0°C | 0% | 0hPa | 0V | 00:00:00 | 00:00:00 | 00:00:00 | |
| PG1ADW-2 | 2026-08-31 06:19:03 | 48.76982 | 18.24777 | 82° | 29km/h | 17932m | 4.1m/s | 0°C | 0% | 0hPa | 0V | 00:00:00 | 00:00:00 | 00:00:00 | |
| SQ9EZE-15 | 2026-08-31 06:19:01 | 48.76979 | 18.24752 | 82° | 33km/h | 17927m | 5.2m/s | -55.0°C | 0% | 0hPa | 0V | 00:00:00 | 00:00:00 | 00:00:00 | |
| ATIDSZ-14 | 2026-08-31 06:18:55 | 48.76973 | 18.24690 | 87° | 27km/h | 17900m | 4.7m/s | -54.9°C | 0% | 0hPa | 0V | 00:00:00 | 00:00:00 | 00:00:00 | |
| OE5DRO-10 | 2026-08-31 06:18:54 | 48.76972 | 18.24679 | 87° | 27km/h | 17891m | 3.6m/s | 0°C | 0% | 0hPa | 0V | 00:00:00 | 00:00:00 | 00:00:00 | |
| OE5MMP-10 | 2026-08-31 06:18:51 | 48.76972 | 18.24640 | 85° | 27km/h | 17878m | 5.0m/s | 0°C | 0% | 0hPa | 0V | 00:00:00 | 00:00:00 | 00:00:00 | |
| OE3JTB-15 | 2026-08-31 06:18:46 | 48.76964 | 18.24594 | 67° | 24km/h | 17854m | 4.4m/s | 0°C | 0% | 0hPa | 0V | 00:00:00 | 00:00:00 | 00:00:00 | |
| OE5WHR-10 | 2026-08-31 06:18:45 | 48.76961 | 18.24585 | 67° | 27km/h | 17840m | 4.5m/s | 0°C | 0% | 0hPa | 0V | 00:00:00 | 00:00:00 | 00:00:00 | |
| PG1ADW-2 | 2026-08-31 06:18:43 | 48.76957 | 18.24564 | 84° | 24km/h | 17840m | 4.5m/s | 0°C | 0% | 0hPa | 0V | 00:00:00 | 00:00:00 | 00:00:00 | |
| OE5MMP-10 | 2026-08-31 06:18:40 | 48.76956 | 18.24529 | 90° | 26km/h | 17830m | 4.0m/s | 0°C | 0% | 0hPa | 0V | 00:00:00 | 00:00:00 | 00:00:00 | |
| OE5DRO-10 | 2026-08-31 06:18:35 | 48.76951 | 18.24483 | 62° | 20km/h | 17803m | 5.2m/s | 0°C | 0% | 0hPa | 0V | 00:00:00 | 00:00:00 | 00:00:00 | |
| ATIDSZ-14 | 2026-08-31 06:18:34 | 48.76948 | 18.24475 | 60° | 24km/h | 17803m | 5.3m/s | -54.9°C | 0% | 0hPa | 0V | 00:00:00 | 00:00:00 | 00:00:00 | |
| POL1PZ | 2026-08-31 06:18:31 | 48.76940 | 18.24451 | 73° | 24km/h | 17790m | 3.8m/s | -54.8°C | 0% | 0hPa | 0V | 00:00:00 | 00:00:00 | 00:00:00 | |
| OE5MMP-10 | 2026-08-31 06:18:25 | 48.76929 | 18.24407 | 60° | 24km/h | 17761m | 5.1m/s | 0°C | 0% | 0hPa | 0V | 00:00:00 | 00:00:00 | 00:00:00 | |
| OE5WHR-10 | 2026-08-31 06:18:24 | 48.76928 | 18.24399 | 56° | 26km/h | 17752m | 4.3m/s | 0°C | 0% | 0hPa | 0V | 00:00:00 | 00:00:00 | 00:00:00 | |
| PG1ADW-2 | 2026-08-31 06:18:23 | 48.76924 | 18.24391 | 51° | 20km/h | 17748m | 4.7m/s | 0°C | 0% | 0hPa | 0V | 00:00:00 | 00:00:00 | 00:00:00 | |
| GYPAP8-17 | 2026-08-31 06:18:20 | 48.76915 | 18.24375 | 57° | 18km/h | 17740m | 5.2m/s | -54.7°C | 0% | 0hPa | 0V | 00:00:00 | 00:00:00 | 00:00:00 | |
| OE3JTB-15 | 2026-08-31 06:18:17 | 48.76909 | 18.24357 | 67° | 24km/h | 17721m | 5.0m/s | 0°C | 0% | 0hPa | 0V | 00:00:00 | 00:00:00 | 00:00:00 | |
| OE5DRO-10 | 2026-08-31 06:18:16 | 48.76907 | 18.24351 | 63° | 22km/h | 17716m | 4.4m/s | 0°C | 0% | 0hPa | 0V | 00:00:00 | 00:00:00 | 00:00:00 | |
| OE5DXL-15 | 2026-08-31 06:18:14 | 48.76898 | 18.24327 | 54° | 26km/h | 17696m | 6.0m/s | 0°C | 0% | 0hPa | 0V | 00:00:00 | 00:00:00 | 00:00:00 | |
| POL1PZ | 2026-08-31 06:18:10 | 48.76892 | 18.24314 | 59° | 22km/h | 17691m | 4.8m/s | -54.6°C | 0% | 0hPa | 0V | 00:00:00 | 00:00:00 | 00:00:00 | |
| PG1ADW-2 | 2026-08-31 06:18:03 | 48.76886 | 18.24269 | 82° | 29km/h | 17645m | 5.0m/s | 0°C | 0% | 0hPa | 0V | 00:00:00 | 00:00:00 | 00:00:00 | |
| OE5DRO-10 | 2026-08-31 06:17:57 | 48.76879 | 18.24202 | 76° | 27km/h | 17622m | 4.9m/s | 0°C | 0% | 0hPa | 0V | 00:00:00 | 00:00:00 | 00:00:00 | |
| ATIDSZ-14 | 2026-08-31 06:17:53 | 48.76871 | 18.24157 | 83° | 31km/h | 17610m | 4.7m/s | -54.7°C | 0% | 0hPa | 0V | 00:00:00 | 00:00:00 | 00:00:00 | |
| POL1PZ | 2026-08-31 06:17:49 | 48.76869 | 18.24109 | 88° | 29km/h | 17591m | 5.5m/s | -54.7°C | 0% | 0hPa | 0V | 00:00:00 | 00:00:00 | 00:00:00 | |
| OE3JTB-15 | 2026-08-31 06:17:48 | 48.76869 | 18.24097 | 79° | 26km/h | 17582m | 5.0m/s | 0°C | 0% | 0hPa | 0V | 00:00:00 | 00:00:00 | 00:00:00 | |
| PG1ADW-2 | 2026-08-31 06:17:43 | 48.76860 | 18.24049 | 73° | 26km/h | 17559m | 5.4m/s | 0°C | 0% | 0hPa | 0V | 00:00:00 | 00:00:00 | 00:00:00 | |
| OE5DRO-10 | 2026-08-31 06:17:38 | 48.76853 | 18.24004 | 86° | 26km/h | 17535m | 4.7m/s | 0°C | 0% | 0hPa | 0V | 00:00:00 | 00:00:00 | 00:00:00 | |
| OE5WHR-10 | 2026-08-31 06:17:37 | 48.76853 | 18.23995 | 90° | 26km/h | 17531m | 4.1m/s | 0°C | 0% | 0hPa | 0V | 00:00:00 | 00:00:00 | 00:00:00 | |
| ATIDSZ-14 | 2026-08-31 06:17:32 | 48.76849 | 18.23946 | 74° | 22km/h | 17513m | 4.4m/s | -54.9°C | 0% | 0hPa | 0V | 00:00:00 | 00:00:00 | 00:00:00 | |
| OE5MMP-10 | 2026-08-31 06:17:24 | 48.76831 | 18.23871 | 80° | 24km/h | 17452m | 4.5m/s | 0°C | 0% | 0hPa | 0V | 00:00:00 | 00:00:00 | 00:00:00 | |
| PG1ADW-2 | 2026-08-31 06:17:23 | 48.76830 | 18.23862 | 91° | 20km/h | 17466m | 5.0m/s | 0°C | 0% | 0hPa | 0V | 00:00:00 | 00:00:00 | 00:00:00 | |
| OE3JTB-15 | 2026-08-31 06:17:19 | 48.76829 | 18.23830 | 63° | 20km/h | 17447m | 4.7m/s | 0°C | 0% | 0hPa | 0V | 00:00:00 | 00:00:00 | 00:00:00 | |
| SQ9EZE-16 | 2026-08-31 06:17:16 | 48.76820 | 18.23809 | 50° | 24km/h | 17438m | 5.3m/s | -54.8°C | 0% | 0hPa | 0V | 00:00:00 | 00:00:00 | 00:00:00 | |
| OE5MMP-10 | 2026-08-31 06:17:14 | 48.76814 | 18.23797 | 86° | 22km/h | 17419m | 5.5m/s | 0°C | 0% | 0hPa | 0V | 00:00:00 | 00:00:00 | 00:00:00 | |
| ATIDSZ-14 | 2026-08-31 06:17:12 | 48.76812 | 18.23781 | 96° | 22km/h | 17419m | 5.5m/s | -54.7°C | 0% | 0hPa | 0V | 00:00:00 | 00:00:00 | 00:00:00 | |
| PG1ADW-2 | 2026-08-31 06:17:03 | 48.76810 | 18.23715 | 65° | 22km/h | 17373m | 4.4m/s | 0°C | 0% | 0hPa | 0V | 00:00:00 | 00:00:00 | 00:00:00 | |
| OE5DRO-10 | 2026-08-31 06:17:00 | 48.76805 | 18.23698 | 77° | 24km/h | 17359m | 5.0m/s | 0°C | 0% | 0hPa | 0V | 00:00:00 | 00:00:00 | 00:00:00 | |
| POL1PZ | 2026-08-31 06:16:52 | 48.76796 | 18.23632 | 78° | 24km/h | 17325m | 4.6m/s | -55.0°C | 0% | 0hPa | 0V | 00:00:00 | 00:00:00 | 00:00:00 | |
| ATIDSZ-14 | 2026-08-31 06:16:51 | 48.76795 | 18.23622 | 80° | 26km/h | 17320m | 4.2m/s | -55.0°C | 0% | 0hPa | 0V | 00:00:00 | 00:00:00 | 00:00:00 | |
| OE3JTB-15 | 2026-08-31 06:16:50 | 48.76794 | 18.23612 | 92° | 26km/h | 17311m | 4.4m/s | 0°C | 0% | 0hPa | 0V | 00:00:00 | 00:00:00 | 00:00:00 | |
| PG1ADW-2 | 2026-08-31 06:16:43 | 48.76792 | 18.23548 | 73° | 26km/h | 17279m | 4.2m/s | 0°C | 0% | 0hPa | 0V | 00:00:00 | 00:00:00 | 00:00:00 | |
| OE5DRO-10 | 2026-08-31 06:16:41 | 48.76788 | 18.23528 | 68° | 26km/h | 17270m | 3.8m/s | 0°C | 0% | 0hPa | 0V | 00:00:00 | 00:00:00 | 00:00:00 | |
| ATIDSZ-14 | 2026-08-31 06:16:31 | 48.76780 | 18.23436 | 76° | 26km/h | 17231m | 4.6m/s | -55.1°C | 0% | 0hPa | 0V | 00:00:00 | 00:00:00 | 00:00:00 | |
| POL1PZ | 2026-08-31 06:16:27 | 48.76767 | 18.23398 | 60° | 29km/h | 17212m | 5.7m/s | -55.1°C | 0% | 0hPa | 0V | 00:00:00 | 00:00:00 | 00:00:00 | |
| PG1ADW-2 | 2026-08-31 06:16:23 | 48.76754 | 18.23363 | 57° | 24km/h | 17190m | 4.4m/s | 0°C | 0% | 0hPa | 0V | 00:00:00 | 00:00:00 | 00:00:00 | |
| OE5DRO-10 | 2026-08-31 06:16:22 | 48.76751 | 18.23357 | 55° | 24km/h | 17185m | 5.2m/s | 0°C | 0% | 0hPa | 0V | 00:00:00 | 00:00:00 | 00:00:00 | |
| OE3JTB-15 | 2026-08-31 06:16:21 | 48.76748 | 18.23349 | 55° | 22km/h | 17180m | 4.5m/s | 0°C | 0% | 0hPa | 0V | 00:00:00 | 00:00:00 | 00:00:00 | |
| GYPAP8-17 | 2026-08-31 06:16:11 | 48.76709 | 18.23277 | 47° | 18km/h | 17138m | 5.5m/s | -54.8°C | 0% | 0hPa | 0V | 00:00:00 | 00:00:00 | 00:00:00 | |
| ATIDSZ-14 | 2026-08-31 06:16:10 | 48.76706 | 18.23272 | 43° | 16km/h | 17133m | 4.5m/s | -54.8°C | 0% | 0hPa | 0V | 00:00:00 | 00:00:00 | 00:00:00 | |
| OE5DRO-10 | 2026-08-31 06:16:03 | 48.76680 | 18.23224 | 52° | 20km/h | 17096m | 4.9m/s | 0°C | 0% | 0hPa | 0V | 00:00:00 | 00:00:00 | 00:00:00 | |
| OE3JTB-15 | 2026-08-31 06:15:52 | 48.76651 | 18.23157 | 57° | 20km/h | 17047m | 4.6m/s | 0°C | 0% | 0hPa | 0V | 00:00:00 | 00:00:00 | 00:00:00 | |
| ATIDSZ-14 | 2026-08-31 06:15:50 | 48.76647 | 18.23147 | 57° | 16km/h | 17042m | 5.5m/s | -54.8°C | 0% | 0hPa | 0V | 00:00:00 | 00:00:00 | 00:00:00 | |
| OE5DRO-10 | 2026-08-31 06:15:44 | 48.76629 | 18.23108 | 55° | 20km/h | 17010m | 3.8m/s | 0°C | 0% | 0hPa | 0V | 00:00:00 | 00:00:00 | 00:00:00 | |
| OE5DXL-15 | 2026-08-31 06:15:43 | 48.76620 | 18.23088 | 67° | 22km/h | 16997m | 3.9m/s | 0°C | 0% | 0hPa | 0V | 00:00:00 | 00:00:00 | 00:00:00 | |
| ATIDSZ-14 | 2026-08-31 06:15:29 | 48.76596 | 18.23003 | 70° | 20km/h | 16948m | 4.6m/s | -55.1°C | 0% | 0hPa | 0V | 00:00:00 | 00:00:00 | 00:00:00 | |
| OE5DRO-10 | 2026-08-31 06:15:25 | 48.76588 | 18.22973 | 67° | 24km/h | 16925m | 5.3m/s | 0°C | 0% | 0hPa | 0V | 00:00:00 | 00:00:00 | 00:00:00 | |
| PG1ADW-2 | 2026-08-31 06:15:23 | 48.76584 | 18.22958 | 70° | 24km/h | 16916m | 4.2m/s | 0°C | 0% | 0hPa | 0V | 00:00:00 | 00:00:00 | 00:00:00 | |
| OE5DXL-15 | 2026-08-31 06:15:13 | 48.76554 | 18.22857 | 70° | 26km/h | 16866m | 4.6m/s | 0°C | 0% | 0hPa | 0V | 00:00:00 | 00:00:00 | 00:00:00 | |
| ATIDSZ-14 | 2026-08-31 06:15:09 | 48.76552 | 18.22840 | 78° | 22km/h | 16857m | 4.9m/s | -55.0°C | 0% | 0hPa | 0V | 00:00:00 | 00:00:00 | 00:00:00 | |
| OE5DRO-10 | 2026-08-31 06:15:06 | 48.76549 | 18.22818 | 92° | 24km/h | 16839m | 3.7m/s | 0°C | 0% | 0hPa | 0V | 00:00:00 | 00:00:00 | 00:00:00 | |
| SQ9EZE-14 | 2026-08-31 06:14:59 | 48.76545 | 18.22759 | 73° | 22km/h | 16812m | 3.5m/s | -54.9°C | 0% | 0hPa | 0V | 00:00:00 | 00:00:00 | 00:00:00 | |
| OE3JTB-15 | 2026-08-31 06:14:54 | 48.76538 | 18.22712 | 83° | 29km/h | 16786m | 5.3m/s | 0°C | 0% | 0hPa | 0V | 00:00:00 | 00:00:00 | 00:00:00 | |
| POL1PZ | 2026-08-31 06:14:51 | 48.76536 | 18.22685 | 89° | 20km/h | 16777m | 5.3m/s | -55.1°C | 0% | 0hPa | 0V | 00:00:00 | 00:00:00 | 00:00:00 | |
| ATIDSZ-14 | 2026-08-31 06:14:49 | 48.76536 | 18.22659 | 87° | 27km/h | 16763m | 4.6m/s | -55.0°C | 0% | 0hPa | 0V | 00:00:00 | 00:00:00 | 00:00:00 | |
| OE5DRO-10 | 2026-08-31 06:14:47 | 48.76535 | 18.22649 | 76° | 31km/h | 16749m | 4.1m/s | 0°C | 0% | 0hPa | 0V | 00:00:00 | 00:00:00 | 00:00:00 | |
| PG1ADW-2 | 2026-08-31 06:14:43 | 48.76527 | 18.22598 | 71° | 29km/h | 16736m | 4.8m/s | 0°C | 0% | 0hPa | 0V | 00:00:00 | 00:00:00 | 00:00:00 | |
| DO3MHA-11 | 2026-08-31 06:14:34 | 48.76512 | 18.22503 | 77° | 29km/h | 16695m | 4.4m/s | 0°C | 0% | 0hPa | 0V | 00:00:00 | 00:00:00 | 00:00:00 | |
| OE5DRO-10 | 2026-08-31 06:14:28 | 48.76497 | 18.22436 | 82° | 31km/h | 16668m | 3.7m/s | 0°C | 0% | 0hPa | 0V | 00:00:00 | 00:00:00 | 00:00:00 | |
| DO3MHA-11 | 2026-08-31 06:14:24 | 48.76492 | 18.22395 | 82° | 31km/h | 16650m | 4.5m/s | 0°C | 0% | 0hPa | 0V | 00:00:00 | 00:00:00 | 00:00:00 | |
| PG1ADW-2 | 2026-08-31 06:14:23 | 48.76491 | 18.22383 | 82° | 33km/h | 16646m | 3.9m/s | 0°C | 0% | 0hPa | 0V | 00:00:00 | 00:00:00 | 00:00:00 | |
| DO3MHA-11 | 2026-08-31 06:14:14 | 48.76475 | 18.22275 | 78° | 33km/h | 16605m | 4.2m/s | 0°C | 0% | 0hPa | 0V | 00:00:00 | 00:00:00 | 00:00:00 | |
| OE5DXL-15 | 2026-08-31 06:14:13 | 48.76469 | 18.22242 | 80° | 44km/h | 16592m | 4.8m/s | 0°C | 0% | 0hPa | 0V | 00:00:00 | 00:00:00 | 00:00:00 | |
| OE5DRO-10 | 2026-08-31 06:14:09 | 48.76466 | 18.22216 | 80° | 40km/h | 16582m | 4.5m/s | 0°C | 0% | 0hPa | 0V | 00:00:00 | 00:00:00 | 00:00:00 | |
| POL1PZ | 2026-08-31 06:14:08 | 48.76462 | 18.22189 | 80° | 37km/h | 16582m | 4.5m/s | -54.7°C | 0% | 0hPa | 0V | 00:00:00 | 00:00:00 | 00:00:00 | |
| ATIDSZ-14 | 2026-08-31 06:14:07 | 48.76462 | 18.22189 | 80° | 37km/h | 16578m | 4.0m/s | -54.8°C | 0% | 0hPa | 0V | 00:00:00 | 00:00:00 | 00:00:00 | |
| DO3MHA-11 | 2026-08-31 06:14:04 | 48.76458 | 18.22149 | 76° | 40km/h | 16559m | 4.0m/s | 0°C | 0% | 0hPa | 0V | 00:00:00 | 00:00:00 | 00:00:00 | |
| PG1ADW-2 | 2026-08-31 06:14:03 | 48.76456 | 18.22136 | 76° | 46km/h | 16555m | 5.2m/s | 0°C | 0% | 0hPa | 0V | 00:00:00 | 00:00:00 | 00:00:00 | |
| OE3JTB-15 | 2026-08-31 06:13:56 | 48.76443 | 18.22029 | 85° | 49km/h | 16522m | 4.3m/s | 0°C | 0% | 0hPa | 0V | 00:00:00 | 00:00:00 | 00:00:00 | |
| DO3MHA-11 | 2026-08-31 06:13:54 | 48.76441 | 18.21993 | 86° | 47km/h | 16513m | 4.7m/s | 0°C | 0% | 0hPa | 0V | 00:00:00 | 00:00:00 | 00:00:00 | |
| OE5DRO-10 | 2026-08-31 06:13:50 | 48.76433 | 18.21926 | 75° | 51km/h | 16494m | 4.6m/s | 0°C | 0% | 0hPa | 0V | 00:00:00 | 00:00:00 | 00:00:00 | |
| ATIDSZ-14 | 2026-08-31 06:13:47 | 48.76425 | 18.21873 | 76° | 47km/h | 16485m | 4.3m/s | -55.4°C | 0% | 0hPa | 0V | 00:00:00 | 00:00:00 | 00:00:00 | |
| DO3MHA-11 | 2026-08-31 06:13:44 | 48.76416 | 18.21815 | 79° | 53km/h | 16467m | 4.7m/s | 0°C | 0% | 0hPa | 0V | 00:00:00 | 00:00:00 | 00:00:00 | |
| PG1ADW-2 | 2026-08-31 06:13:43 | 48.76414 | 18.21796 | 77° | 51km/h | 16462m | 4.2m/s | 0°C | 0% | 0hPa | 0V | 00:00:00 | 00:00:00 | 00:00:00 | |
| DO3MHA-11 | 2026-08-31 06:13:34 | 48.76392 | 18.21620 | 80° | 49km/h | 16420m | 4.9m/s | 0°C | 0% | 0hPa | 0V | 00:00:00 | 00:00:00 | 00:00:00 | |
| OE5DRO-10 | 2026-08-31 06:13:31 | 48.76384 | 18.21563 | 77° | 47km/h | 16406m | 4.4m/s | 0°C | 0% | 0hPa | 0V | 00:00:00 | 00:00:00 | 00:00:00 | |
| OE3JTB-15 | 2026-08-31 06:13:27 | 48.76373 | 18.21489 | 81° | 47km/h | 16389m | 4.1m/s | 0°C | 0% | 0hPa | 0V | 00:00:00 | 00:00:00 | 00:00:00 | |
| ATIDSZ-14 | 2026-08-31 06:13:26 | 48.76371 | 18.21471 | 82° | 47km/h | 16389m | 4.2m/s | -55.7°C | 0% | 0hPa | 0V | 00:00:00 | 00:00:00 | 00:00:00 | |
| DO3MHA-11 | 2026-08-31 06:13:24 | 48.76366 | 18.21436 | 76° | 47km/h | 16376m | 5.1m/s | 0°C | 0% | 0hPa | 0V | 00:00:00 | 00:00:00 | 00:00:00 | |
| PG1ADW-2 | 2026-08-31 06:13:23 | 48.76363 | 18.21418 | 76° | 47km/h | 16371m | 3.9m/s | 0°C | 0% | 0hPa | 0V | 00:00:00 | 00:00:00 | 00:00:00 | |
| POL1PZ | 2026-08-31 06:13:21 | 48.76357 | 18.21381 | 77° | 49km/h | 16367m | 5.1m/s | -55.8°C | 0% | 0hPa | 0V | 00:00:00 | 00:00:00 | 00:00:00 | |
| DO3MHA-11 | 2026-08-31 06:13:14 | 48.76345 | 18.21256 | 81° | 47km/h | 16333m | 3.5m/s | 0°C | 0% | 0hPa | 0V | 00:00:00 | 00:00:00 | 00:00:00 | |
| OE5DRO-10 | 2026-08-31 06:13:12 | 48.76340 | 18.21221 | 76° | 46km/h | 16324m | 4.0m/s | 0°C | 0% | 0hPa | 0V | 00:00:00 | 00:00:00 | 00:00:00 | |
| ATIDSZ-14 | 2026-08-31 06:13:06 | 48.76323 | 18.21116 | 81° | 49km/h | 16301m | 4.9m/s | -55.6°C | 0% | 0hPa | 0V | 00:00:00 | 00:00:00 | 00:00:00 | |
| DO3MHA-11 | 2026-08-31 06:13:03 | 48.76316 | 18.21062 | 74° | 42km/h | 16284m | 3.8m/s | 0°C | 0% | 0hPa | 0V | 00:00:00 | 00:00:00 | 00:00:00 | |
| POL1PZ | 2026-08-31 06:12:59 | 48.76297 | 18.20986 | 70° | 44km/h | 16267m | 4.3m/s | -55.6°C | 0% | 0hPa | 0V | 00:00:00 | 00:00:00 | 00:00:00 | |
| OE3JTB-15 | 2026-08-31 06:12:58 | 48.76297 | 18.20986 | 69° | 47km/h | 16262m | 4.9m/s | 0°C | 0% | 0hPa | 0V | 00:00:00 | 00:00:00 | 00:00:00 | |
| OE5DRO-10 | 2026-08-31 06:12:53 | 48.76276 | 18.20900 | 72° | 46km/h | 16242m | 4.7m/s | 0°C | 0% | 0hPa | 0V | 00:00:00 | 00:00:00 | 00:00:00 | |
| ATIDSZ-14 | 2026-08-31 06:12:46 | 48.76246 | 18.20775 | 67° | 51km/h | 16210m | 4.8m/s | -55.9°C | 0% | 0hPa | 0V | 00:00:00 | 00:00:00 | 00:00:00 | |
| PG1ADW-2 | 2026-08-31 06:12:43 | 48.76234 | 18.20737 | 66° | 49km/h | 16197m | 3.6m/s | 0°C | 0% | 0hPa | 0V | 00:00:00 | 00:00:00 | 00:00:00 | |
| OE5DRO-10 | 2026-08-31 06:12:34 | 48.76199 | 18.20587 | 73° | 51km/h | 16160m | 4.6m/s | 0°C | 0% | 0hPa | 0V | 00:00:00 | 00:00:00 | 00:00:00 | |
| OE3JTB-15 | 2026-08-31 06:12:29 | 48.76176 | 18.20493 | 68° | 49km/h | 16139m | 4.3m/s | 0°C | 0% | 0hPa | 0V | 00:00:00 | 00:00:00 | 00:00:00 | |
| ATIDSZ-14 | 2026-08-31 06:12:24 | 48.76151 | 18.20400 | 68° | 51km/h | 16123m | 4.7m/s | -56.6°C | 0% | 0hPa | 0V | 00:00:00 | 00:00:00 | 00:00:00 | |
| PG1ADW-2 | 2026-08-31 06:12:23 | 48.76145 | 18.20383 | 67° | 49km/h | 16114m | 5.1m/s | 0°C | 0% | 0hPa | 0V | 00:00:00 | 00:00:00 | 00:00:00 | |
| OE5DRO-10 | 2026-08-31 06:12:15 | 48.76104 | 18.20238 | 68° | 46km/h | 16082m | 3.5m/s | 0°C | 0% | 0hPa | 0V | 00:00:00 | 00:00:00 | 00:00:00 | |
| OE5DXL-15 | 2026-08-31 06:12:12 | 48.76086 | 18.20153 | 66° | 42km/h | 16064m | 3.6m/s | 0°C | 0% | 0hPa | 0V | 00:00:00 | 00:00:00 | 00:00:00 | |
| ATIDSZ-14 | 2026-08-31 06:12:04 | 48.76055 | 18.20056 | 70° | 42km/h | 16039m | 4.0m/s | -56.4°C | 0% | 0hPa | 0V | 00:00:00 | 00:00:00 | 00:00:00 | |
| PG1ADW-2 | 2026-08-31 06:12:03 | 48.76051 | 18.20041 | 69° | 40km/h | 16030m | 4.8m/s | 0°C | 0% | 0hPa | 0V | 00:00:00 | 00:00:00 | 00:00:00 | |
| OE3JTB-15 | 2026-08-31 06:12:00 | 48.76038 | 18.19998 | 68° | 38km/h | 16018m | 3.6m/s | 0°C | 0% | 0hPa | 0V | 00:00:00 | 00:00:00 | 00:00:00 | |
| OE5DRO-10 | 2026-08-31 06:11:56 | 48.76022 | 18.19935 | 69° | 38km/h | 16002m | 4.9m/s | 0°C | 0% | 0hPa | 0V | 00:00:00 | 00:00:00 | 00:00:00 | |
| PG1ADW-2 | 2026-08-31 06:11:43 | 48.75988 | 18.19749 | 80° | 37km/h | 15947m | 4.0m/s | 0°C | 0% | 0hPa | 0V | 00:00:00 | 00:00:00 | 00:00:00 | |
| OE5DRO-10 | 2026-08-31 06:11:37 | 48.75979 | 18.19665 | 84° | 37km/h | 15922m | 5.0m/s | 0°C | 0% | 0hPa | 0V | 00:00:00 | 00:00:00 | 00:00:00 | |
| OE3JTB-15 | 2026-08-31 06:11:31 | 48.75974 | 18.19580 | 89° | 37km/h | 15895m | 4.5m/s | 0°C | 0% | 0hPa | 0V | 00:00:00 | 00:00:00 | 00:00:00 | |
| PG1ADW-2 | 2026-08-31 06:11:23 | 48.75971 | 18.19472 | 91° | 37km/h | 15861m | 3.8m/s | 0°C | 0% | 0hPa | 0V | 00:00:00 | 00:00:00 | 00:00:00 | |
| OE5DRO-10 | 2026-08-31 06:11:18 | 48.75973 | 18.19403 | 92° | 37km/h | 15839m | 4.4m/s | 0°C | 0% | 0hPa | 0V | 00:00:00 | 00:00:00 | 00:00:00 | |
| OE5DXL-15 | 2026-08-31 06:11:12 | 48.75977 | 18.19295 | 110° | 38km/h | 15809m | 5.2m/s | 0°C | 0% | 0hPa | 0V | 00:00:00 | 00:00:00 | 00:00:00 | |
| PG1ADW-2 | 2026-08-31 06:11:03 | 48.75996 | 18.19196 | 106° | 40km/h | 15776m | 4.2m/s | 0°C | 0% | 0hPa | 0V | 00:00:00 | 00:00:00 | 00:00:00 | |
| OE3JTB-15 | 2026-08-31 06:11:02 | 48.75998 | 18.19183 | 106° | 42km/h | 15771m | 4.4m/s | 0°C | 0% | 0hPa | 0V | 00:00:00 | 00:00:00 | 00:00:00 | |
| OE5DRO-10 | 2026-08-31 06:10:59 | 48.76008 | 18.19146 | 114° | 42km/h | 15758m | 5.0m/s | 0°C | 0% | 0hPa | 0V | 00:00:00 | 00:00:00 | 00:00:00 | |
| PG1ADW-2 | 2026-08-31 06:10:43 | 48.76067 | 18.18911 | 116° | 47km/h | 15691m | 5.2m/s | 0°C | 0% | 0hPa | 0V | 00:00:00 | 00:00:00 | 00:00:00 | |
| ATIDSZ-14 | 2026-08-31 06:10:42 | 48.76071 | 18.18896 | 115° | 44km/h | 15691m | 5.2m/s | -55.6°C | 0% | 0hPa | 0V | 00:00:00 | 00:00:00 | 00:00:00 | |
| OE5DRO-10 | 2026-08-31 06:10:40 | 48.76080 | 18.18864 | 110° | 49km/h | 15678m | 4.1m/s | 0°C | 0% | 0hPa | 0V | 00:00:00 | 00:00:00 | 00:00:00 | |
| OE3JTB-15 | 2026-08-31 06:10:33 | 48.76104 | 18.18748 | 108° | 51km/h | 15647m | 3.9m/s | 0°C | 0% | 0hPa | 0V | 00:00:00 | 00:00:00 | 00:00:00 | |
| GYPAP8-17 | 2026-08-31 06:10:25 | 48.76144 | 18.18607 | 113° | 53km/h | 15615m | 4.1m/s | -56.5°C | 0% | 0hPa | 0V | 00:00:00 | 00:00:00 | 00:00:00 | |
| PG1ADW-2 | 2026-08-31 06:10:23 | 48.76153 | 18.18571 | 110° | 51km/h | 15602m | 4.6m/s | 0°C | 0% | 0hPa | 0V | 00:00:00 | 00:00:00 | 00:00:00 | |
| ATIDSZ-14 | 2026-08-31 06:10:21 | 48.76162 | 18.18533 | 109° | 53km/h | 15598m | 4.6m/s | -56.5°C | 0% | 0hPa | 0V | 00:00:00 | 00:00:00 | 00:00:00 | |
| OE5DRO-10 | 2026-08-31 06:10:20 | 48.76166 | 18.18514 | 109° | 49km/h | 15589m | 4.4m/s | 0°C | 0% | 0hPa | 0V | 00:00:00 | 00:00:00 | 00:00:00 | |
| OE5DXL-15 | 2026-08-31 06:10:13 | 48.76192 | 18.18382 | 103° | 53km/h | 15553m | 5.1m/s | 0°C | 0% | 0hPa | 0V | 00:00:00 | 00:00:00 | 00:00:00 | |
| OE3JTB-15 | 2026-08-31 06:10:04 | 48.76208 | 18.18215 | 98° | 53km/h | 15520m | 5.3m/s | 0°C | 0% | 0hPa | 0V | 00:00:00 | 00:00:00 | 00:00:00 | |
| PG1ADW-2 | 2026-08-31 06:10:03 | 48.76209 | 18.18197 | 93° | 53km/h | 15515m | 3.7m/s | 0°C | 0% | 0hPa | 0V | 00:00:00 | 00:00:00 | 00:00:00 | |
| OE5DRO-10 | 2026-08-31 06:10:01 | 48.76211 | 18.18161 | 95° | 55km/h | 15506m | 4.5m/s | 0°C | 0% | 0hPa | 0V | 00:00:00 | 00:00:00 | 00:00:00 | |
| PG1ADW-2 | 2026-08-31 06:09:43 | 48.76227 | 18.17788 | 92° | 49km/h | 15428m | 3.7m/s | 0°C | 0% | 0hPa | 0V | 00:00:00 | 00:00:00 | 00:00:00 | |
| OE5DRO-10 | 2026-08-31 06:09:42 | 48.76227 | 18.17767 | 91° | 49km/h | 15424m | 4.5m/s | 0°C | 0% | 0hPa | 0V | 00:00:00 | 00:00:00 | 00:00:00 | |
| ATIDSZ-14 | 2026-08-31 06:09:40 | 48.76226 | 18.17727 | 87° | 49km/h | 15420m | 4.8m/s | -57.2°C | 0% | 0hPa | 0V | 00:00:00 | 00:00:00 | 00:00:00 | |
| OE3JTB-15 | 2026-08-31 06:09:35 | 48.76222 | 18.17635 | 89° | 46km/h | 15394m | 4.5m/s | 0°C | 0% | 0hPa | 0V | 00:00:00 | 00:00:00 | 00:00:00 | |
| PG1ADW-2 | 2026-08-31 06:09:23 | 48.76210 | 18.17412 | 85° | 44km/h | 15340m | 5.0m/s | 0°C | 0% | 0hPa | 0V | 00:00:00 | 00:00:00 | 00:00:00 | |
| ATIDSZ-14 | 2026-08-31 06:09:20 | 48.76205 | 18.17364 | 81° | 46km/h | 15331m | 4.8m/s | -56.9°C | 0% | 0hPa | 0V | 00:00:00 | 00:00:00 | 00:00:00 | |
| OE5DXL-15 | 2026-08-31 06:09:13 | 48.76195 | 18.17236 | 84° | 42km/h | 15295m | 3.5m/s | 0°C | 0% | 0hPa | 0V | 00:00:00 | 00:00:00 | 00:00:00 | |
| OE3JTB-15 | 2026-08-31 06:09:06 | 48.76180 | 18.17134 | 79° | 44km/h | 15265m | 4.7m/s | 0°C | 0% | 0hPa | 0V | 00:00:00 | 00:00:00 | 00:00:00 | |
| OE5DRO-10 | 2026-08-31 06:09:04 | 48.76175 | 18.17099 | 79° | 44km/h | 15257m | 4.3m/s | 0°C | 0% | 0hPa | 0V | 00:00:00 | 00:00:00 | 00:00:00 | |
| PG1ADW-2 | 2026-08-31 06:09:03 | 48.76173 | 18.17081 | 81° | 44km/h | 15252m | 4.7m/s | 0°C | 0% | 0hPa | 0V | 00:00:00 | 00:00:00 | 00:00:00 | |
| OE5DRO-10 | 2026-08-31 06:08:45 | 48.76130 | 18.16795 | 88° | 47km/h | 15172m | 4.4m/s | 0°C | 0% | 0hPa | 0V | 00:00:00 | 00:00:00 | 00:00:00 | |
| PG1ADW-2 | 2026-08-31 06:08:43 | 48.76128 | 18.16762 | 81° | 47km/h | 15163m | 4.2m/s | 0°C | 0% | 0hPa | 0V | 00:00:00 | 00:00:00 | 00:00:00 | |
| ATIDSZ-14 | 2026-08-31 06:08:39 | 48.76119 | 18.16688 | 79° | 49km/h | 15150m | 4.4m/s | -56.2°C | 0% | 0hPa | 0V | 00:00:00 | 00:00:00 | 00:00:00 | |
| OE3JTB-15 | 2026-08-31 06:08:37 | 48.76116 | 18.16649 | 85° | 49km/h | 15137m | 4.0m/s | 0°C | 0% | 0hPa | 0V | 00:00:00 | 00:00:00 | 00:00:00 | |
| OE5DRO-10 | 2026-08-31 06:08:26 | 48.76103 | 18.16452 | 85° | 51km/h | 15087m | 4.5m/s | 0°C | 0% | 0hPa | 0V | 00:00:00 | 00:00:00 | 00:00:00 | |
| PG1ADW-2 | 2026-08-31 06:08:23 | 48.76101 | 18.16399 | 89° | 53km/h | 15074m | 3.9m/s | 0°C | 0% | 0hPa | 0V | 00:00:00 | 00:00:00 | 00:00:00 | |
| ATIDSZ-14 | 2026-08-31 06:08:18 | 48.76099 | 18.16299 | 90° | 53km/h | 15056m | 3.7m/s | -56.0°C | 0% | 0hPa | 0V | 00:00:00 | 00:00:00 | 00:00:00 | |
| GYPAP8-17 | 2026-08-31 06:08:16 | 48.76098 | 18.16258 | 88° | 53km/h | 15048m | 4.2m/s | -56.1°C | 0% | 0hPa | 0V | 00:00:00 | 00:00:00 | 00:00:00 | |
| OE5DXL-15 | 2026-08-31 06:08:13 | 48.76094 | 18.16162 | 88° | 60km/h | 15027m | 3.5m/s | 0°C | 0% | 0hPa | 0V | 00:00:00 | 00:00:00 | 00:00:00 | |
| OE3JTB-15 | 2026-08-31 06:08:08 | 48.76094 | 18.16095 | 92° | 62km/h | 15010m | 4.1m/s | 0°C | 0% | 0hPa | 0V | 00:00:00 | 00:00:00 | 00:00:00 | |
| OE5DRO-10 | 2026-08-31 06:08:07 | 48.76095 | 18.16069 | 94° | 60km/h | 15006m | 4.7m/s | 0°C | 0% | 0hPa | 0V | 00:00:00 | 00:00:00 | 00:00:00 | |
| PG1ADW-2 | 2026-08-31 06:08:03 | 48.76098 | 18.15985 | 90° | 62km/h | 14989m | 3.6m/s | 0°C | 0% | 0hPa | 0V | 00:00:00 | 00:00:00 | 00:00:00 | |
| ATIDSZ-14 | 2026-08-31 06:07:57 | 48.76102 | 18.15850 | 98° | 62km/h | 14969m | 4.7m/s | -56.1°C | 0% | 0hPa | 0V | 00:00:00 | 00:00:00 | 00:00:00 | |
| OE5DRO-10 | 2026-08-31 06:07:46 | 48.76109 | 18.15591 | 92° | 68km/h | 14918m | 4.6m/s | 0°C | 0% | 0hPa | 0V | 00:00:00 | 00:00:00 | 00:00:00 | |
| PG1ADW-2 | 2026-08-31 06:07:43 | 48.76114 | 18.15516 | 96° | 68km/h | 14904m | 5.1m/s | 0°C | 0% | 0hPa | 0V | 00:00:00 | 00:00:00 | 00:00:00 | |
| OE3JTB-15 | 2026-08-31 06:07:39 | 48.76116 | 18.15419 | 85° | 75km/h | 14887m | 4.8m/s | 0°C | 0% | 0hPa | 0V | 00:00:00 | 00:00:00 | 00:00:00 | |
| ATIDSZ-14 | 2026-08-31 06:07:37 | 48.76114 | 18.15371 | 87° | 66km/h | 14882m | 4.4m/s | -55.8°C | 0% | 0hPa | 0V | 00:00:00 | 00:00:00 | 00:00:00 | |
| OE5DRO-10 | 2026-08-31 06:07:27 | 48.76122 | 18.15103 | 90° | 78km/h | 14831m | 3.7m/s | 0°C | 0% | 0hPa | 0V | 00:00:00 | 00:00:00 | 00:00:00 | |
| PG1ADW-2 | 2026-08-31 06:07:23 | 48.76119 | 18.14997 | 88° | 80km/h | 14815m | 5.4m/s | 0°C | 0% | 0hPa | 0V | 00:00:00 | 00:00:00 | 00:00:00 | |
| ATIDSZ-14 | 2026-08-31 06:07:16 | 48.76120 | 18.14789 | 92° | 82km/h | 14788m | 5.2m/s | -56.0°C | 0% | 0hPa | 0V | 00:00:00 | 00:00:00 | 00:00:00 | |
| OE5DXL-15 | 2026-08-31 06:07:13 | 48.76117 | 18.14624 | 87° | 78km/h | 14758m | 4.0m/s | 0°C | 0% | 0hPa | 0V | 00:00:00 | 00:00:00 | 00:00:00 | |
| OE3JTB-15 | 2026-08-31 06:07:10 | 48.76115 | 18.14592 | 87° | 86km/h | 14758m | 4.0m/s | 0°C | 0% | 0hPa | 0V | 00:00:00 | 00:00:00 | 00:00:00 | |
| OE5DRO-10 | 2026-08-31 06:07:08 | 48.76113 | 18.14526 | 88° | 86km/h | 14750m | 3.1m/s | 0°C | 0% | 0hPa | 0V | 00:00:00 | 00:00:00 | 00:00:00 | |
| POL1PZ | 2026-08-31 06:07:06 | 48.76112 | 18.14461 | 90° | 84km/h | 14746m | 4.5m/s | -55.9°C | 0% | 0hPa | 0V | 00:00:00 | 00:00:00 | 00:00:00 | |
| PG1ADW-2 | 2026-08-31 06:07:03 | 48.76112 | 18.14364 | 90° | 88km/h | 14730m | 3.4m/s | 0°C | 0% | 0hPa | 0V | 00:00:00 | 00:00:00 | 00:00:00 | |
| ATIDSZ-14 | 2026-08-31 06:06:56 | 48.76105 | 18.14131 | 90° | 91km/h | 14704m | 3.9m/s | -56.0°C | 0% | 0hPa | 0V | 00:00:00 | 00:00:00 | 00:00:00 | |
| OE5DRO-10 | 2026-08-31 06:06:49 | 48.76105 | 18.13900 | 88° | 84km/h | 14669m | 5.1m/s | 0°C | 0% | 0hPa | 0V | 00:00:00 | 00:00:00 | 00:00:00 | |
| POL1PZ | 2026-08-31 06:06:45 | 48.76102 | 18.13762 | 90° | 88km/h | 14657m | 4.3m/s | -56.0°C | 0% | 0hPa | 0V | 00:00:00 | 00:00:00 | 00:00:00 | |
| PG1ADW-2 | 2026-08-31 06:06:43 | 48.76102 | 18.13697 | 92° | 77km/h | 14645m | 4.9m/s | 0°C | 0% | 0hPa | 0V | 00:00:00 | 00:00:00 | 00:00:00 | |
| OE3JTB-15 | 2026-08-31 06:06:41 | 48.76103 | 18.13635 | 90° | 82km/h | 14636m | 5.1m/s | 0°C | 0% | 0hPa | 0V | 00:00:00 | 00:00:00 | 00:00:00 | |
| ATIDSZ-14 | 2026-08-31 06:06:35 | 48.76094 | 18.13443 | 86° | 86km/h | 14615m | 4.8m/s | -56.2°C | 0% | 0hPa | 0V | 00:00:00 | 00:00:00 | 00:00:00 | |
| OE5DRO-10 | 2026-08-31 06:06:30 | 48.76090 | 18.13287 | 87° | 80km/h | 14590m | 3.6m/s | 0°C | 0% | 0hPa | 0V | 00:00:00 | 00:00:00 | 00:00:00 | |
| ATIDSZ-14 | 2026-08-31 06:06:15 | 48.76047 | 18.12830 | 81° | 78km/h | 14532m | 3.6m/s | -56.7°C | 0% | 0hPa | 0V | 00:00:00 | 00:00:00 | 00:00:00 | |
| OE3JTB-15 | 2026-08-31 06:06:12 | 48.76036 | 18.12740 | 80° | 78km/h | 14514m | 5.0m/s | 0°C | 0% | 0hPa | 0V | 00:00:00 | 00:00:00 | 00:00:00 | |
| OE5DRO-10 | 2026-08-31 06:06:11 | 48.76032 | 18.12711 | 79° | 77km/h | 14510m | 3.9m/s | 0°C | 0% | 0hPa | 0V | 00:00:00 | 00:00:00 | 00:00:00 | |
| ATIDSZ-14 | 2026-08-31 06:05:54 | 48.75967 | 18.12218 | 80° | 80km/h | 14444m | 3.2m/s | -56.7°C | 0% | 0hPa | 0V | 00:00:00 | 00:00:00 | 00:00:00 | |
| OE5DRO-10 | 2026-08-31 06:05:52 | 48.75958 | 18.12159 | 76° | 77km/h | 14432m | 4.6m/s | 0°C | 0% | 0hPa | 0V | 00:00:00 | 00:00:00 | 00:00:00 | |
| OE3JTB-15 | 2026-08-31 06:05:43 | 48.75915 | 18.11896 | 76° | 77km/h | 14394m | 3.5m/s | 0°C | 0% | 0hPa | 0V | 00:00:00 | 00:00:00 | 00:00:00 | |
| ATIDSZ-14 | 2026-08-31 06:05:34 | 48.75867 | 18.11650 | 74° | 77km/h | 14362m | 4.4m/s | -57.1°C | 0% | 0hPa | 0V | 00:00:00 | 00:00:00 | 00:00:00 | |
| OE5DRO-10 | 2026-08-31 06:05:33 | 48.75861 | 18.11622 | 73° | 77km/h | 14353m | 5.0m/s | 0°C | 0% | 0hPa | 0V | 00:00:00 | 00:00:00 | 00:00:00 | |
| OE5DRO-10 | 2026-08-31 06:05:14 | 48.75759 | 18.11090 | 73° | 73km/h | 14275m | 4.8m/s | 0°C | 0% | 0hPa | 0V | 00:00:00 | 00:00:00 | 00:00:00 | |
| ATIDSZ-14 | 2026-08-31 06:05:13 | 48.75753 | 18.11062 | 73° | 75km/h | 14275m | 4.8m/s | -57.8°C | 0% | 0hPa | 0V | 00:00:00 | 00:00:00 | 00:00:00 | |
| OE5DXL-15 | 2026-08-31 06:05:11 | 48.75731 | 18.10953 | 75° | 71km/h | 14253m | 3.1m/s | 0°C | 0% | 0hPa | 0V | 00:00:00 | 00:00:00 | 00:00:00 | |
| PG1ADW-2 | 2026-08-31 06:05:03 | 48.75696 | 18.10789 | 70° | 69km/h | 14228m | 4.6m/s | 0°C | 0% | 0hPa | 0V | 00:00:00 | 00:00:00 | 00:00:00 | |
| OE5DRO-10 | 2026-08-31 06:04:55 | 48.75650 | 18.10582 | 71° | 68km/h | 14194m | 5.1m/s | 0°C | 0% | 0hPa | 0V | 00:00:00 | 00:00:00 | 00:00:00 | |
| ATIDSZ-14 | 2026-08-31 06:04:53 | 48.75638 | 18.10534 | 71° | 68km/h | 14190m | 3.9m/s | -57.5°C | 0% | 0hPa | 0V | 00:00:00 | 00:00:00 | 00:00:00 | |
| OE3JTB-15 | 2026-08-31 06:04:45 | 48.75597 | 18.10330 | 77° | 66km/h | 14154m | 4.8m/s | 0°C | 0% | 0hPa | 0V | 00:00:00 | 00:00:00 | 00:00:00 | |
| PG1ADW-2 | 2026-08-31 06:04:43 | 48.75589 | 18.10279 | 76° | 64km/h | 14146m | 4.5m/s | 0°C | 0% | 0hPa | 0V | 00:00:00 | 00:00:00 | 00:00:00 | |
| OE5DXL-15 | 2026-08-31 06:04:41 | 48.75570 | 18.10183 | 71° | 64km/h | 14128m | 3.4m/s | 0°C | 0% | 0hPa | 0V | 00:00:00 | 00:00:00 | 00:00:00 | |
| OE5DRO-10 | 2026-08-31 06:04:36 | 48.75553 | 18.10115 | 74° | 64km/h | 14116m | 4.4m/s | 0°C | 0% | 0hPa | 0V | 00:00:00 | 00:00:00 | 00:00:00 | |
| ATIDSZ-14 | 2026-08-31 06:04:32 | 48.75537 | 18.10016 | 80° | 68km/h | 14102m | 5.0m/s | -57.1°C | 0% | 0hPa | 0V | 00:00:00 | 00:00:00 | 00:00:00 | |
| PG1ADW-2 | 2026-08-31 06:04:23 | 48.75502 | 18.09804 | 83° | 66km/h | 14060m | 4.6m/s | 0°C | 0% | 0hPa | 0V | 00:00:00 | 00:00:00 | 00:00:00 | |
| OE5DRO-10 | 2026-08-31 06:04:17 | 48.75488 | 18.09656 | 81° | 68km/h | 14034m | 4.5m/s | 0°C | 0% | 0hPa | 0V | 00:00:00 | 00:00:00 | 00:00:00 | |
| OE3JTB-15 | 2026-08-31 06:04:16 | 48.75485 | 18.09630 | 79° | 71km/h | 14030m | 3.1m/s | 0°C | 0% | 0hPa | 0V | 00:00:00 | 00:00:00 | 00:00:00 | |
| ATIDSZ-14 | 2026-08-31 06:04:12 | 48.75475 | 18.09534 | 85° | 60km/h | 14018m | 4.8m/s | -57.3°C | 0% | 0hPa | 0V | 00:00:00 | 00:00:00 | 00:00:00 | |
| OE5DXL-15 | 2026-08-31 06:04:11 | 48.75471 | 18.09464 | 88° | 77km/h | 14001m | 4.6m/s | 0°C | 0% | 0hPa | 0V | 00:00:00 | 00:00:00 | 00:00:00 | |
| OE5DRO-10 | 2026-08-31 06:03:58 | 48.75461 | 18.09167 | 93° | 80km/h | 13954m | 4.5m/s | 0°C | 0% | 0hPa | 0V | 00:00:00 | 00:00:00 | 00:00:00 | |
| ATIDSZ-14 | 2026-08-31 06:03:51 | 48.75460 | 18.08961 | 89° | 80km/h | 13929m | 3.9m/s | -58.2°C | 0% | 0hPa | 0V | 00:00:00 | 00:00:00 | 00:00:00 | |
| OE3JTB-15 | 2026-08-31 06:03:47 | 48.75462 | 18.08843 | 96° | 88km/h | 13907m | 4.9m/s | 0°C | 0% | 0hPa | 0V | 00:00:00 | 00:00:00 | 00:00:00 | |
| PG1ADW-2 | 2026-08-31 06:03:43 | 48.75468 | 18.08716 | 93° | 89km/h | 13891m | 4.5m/s | 0°C | 0% | 0hPa | 0V | 00:00:00 | 00:00:00 | 00:00:00 | |
| OE5DRO-10 | 2026-08-31 06:03:39 | 48.75471 | 18.08579 | 93° | 88km/h | 13876m | 3.5m/s | 0°C | 0% | 0hPa | 0V | 00:00:00 | 00:00:00 | 00:00:00 | |
| ATIDSZ-14 | 2026-08-31 06:03:31 | 48.75486 | 18.08316 | 96° | 95km/h | 13847m | 4.3m/s | -58.2°C | 0% | 0hPa | 0V | 00:00:00 | 00:00:00 | 00:00:00 | |
| PG1ADW-2 | 2026-08-31 06:03:23 | 48.75497 | 18.08045 | 94° | 93km/h | 13810m | 4.2m/s | 0°C | 0% | 0hPa | 0V | 00:00:00 | 00:00:00 | 00:00:00 | |
| OE5DRO-10 | 2026-08-31 06:03:20 | 48.75503 | 18.07940 | 96° | 93km/h | 13797m | 5.0m/s | 0°C | 0% | 0hPa | 0V | 00:00:00 | 00:00:00 | 00:00:00 | |
| OE3JTB-15 | 2026-08-31 06:03:18 | 48.75508 | 18.07870 | 97° | 95km/h | 13789m | 4.5m/s | 0°C | 0% | 0hPa | 0V | 00:00:00 | 00:00:00 | 00:00:00 | |
| ATIDSZ-14 | 2026-08-31 06:03:10 | 48.75521 | 18.07590 | 97° | 95km/h | 13758m | 3.2m/s | -58.5°C | 0% | 0hPa | 0V | 00:00:00 | 00:00:00 | 00:00:00 | |
| PG1ADW-2 | 2026-08-31 06:03:03 | 48.75538 | 18.07340 | 93° | 99km/h | 13725m | 5.0m/s | 0°C | 0% | 0hPa | 0V | 00:00:00 | 00:00:00 | 00:00:00 | |
| OE5DRO-10 | 2026-08-31 06:03:01 | 48.75540 | 18.07266 | 94° | 99km/h | 13716m | 4.7m/s | 0°C | 0% | 0hPa | 0V | 00:00:00 | 00:00:00 | 00:00:00 | |
| ATIDSZ-14 | 2026-08-31 06:02:50 | 48.75559 | 18.06847 | 97° | 95km/h | 13675m | 3.7m/s | -58.6°C | 0% | 0hPa | 0V | 00:00:00 | 00:00:00 | 00:00:00 | |
| OE3JTB-15 | 2026-08-31 06:02:49 | 48.75561 | 18.06810 | 96° | 97km/h | 13665m | 3.8m/s | 0°C | 0% | 0hPa | 0V | 00:00:00 | 00:00:00 | 00:00:00 | |
| PG1ADW-2 | 2026-08-31 06:02:43 | 48.75573 | 18.06586 | 93° | 97km/h | 13642m | 3.2m/s | 0°C | 0% | 0hPa | 0V | 00:00:00 | 00:00:00 | 00:00:00 | |
| OE5DRO-10 | 2026-08-31 06:02:42 | 48.75574 | 18.06550 | 93° | 97km/h | 13638m | 4.5m/s | 0°C | 0% | 0hPa | 0V | 00:00:00 | 00:00:00 | 00:00:00 | |
| ATIDSZ-14 | 2026-08-31 06:02:29 | 48.75597 | 18.06072 | 95° | 97km/h | 13586m | 4.8m/s | -58.8°C | 0% | 0hPa | 0V | 00:00:00 | 00:00:00 | 00:00:00 | |
| PG1ADW-2 | 2026-08-31 06:02:23 | 48.75606 | 18.05851 | 92° | 99km/h | 13558m | 3.8m/s | 0°C | 0% | 0hPa | 0V | 00:00:00 | 00:00:00 | 00:00:00 | |
| OE3JTB-15 | 2026-08-31 06:02:20 | 48.75608 | 18.05736 | 93° | 100km/h | 13544m | 3.5m/s | 0°C | 0% | 0hPa | 0V | 00:00:00 | 00:00:00 | 00:00:00 | |
| ATIDSZ-14 | 2026-08-31 06:02:08 | 48.75619 | 18.05292 | 92° | 100km/h | 13497m | 3.7m/s | -58.9°C | 0% | 0hPa | 0V | 00:00:00 | 00:00:00 | 00:00:00 | |
| OE5DRO-10 | 2026-08-31 06:02:04 | 48.75621 | 18.05140 | 91° | 102km/h | 13475m | 3.8m/s | 0°C | 0% | 0hPa | 0V | 00:00:00 | 00:00:00 | 00:00:00 | |
| PG1ADW-2 | 2026-08-31 06:02:03 | 48.75621 | 18.05103 | 90° | 102km/h | 13471m | 3.9m/s | 0°C | 0% | 0hPa | 0V | 00:00:00 | 00:00:00 | 00:00:00 | |
| OE3JTB-15 | 2026-08-31 06:01:51 | 48.75618 | 18.04626 | 91° | 102km/h | 13422m | 3.8m/s | 0°C | 0% | 0hPa | 0V | 00:00:00 | 00:00:00 | 00:00:00 | |
| ATIDSZ-14 | 2026-08-31 06:01:48 | 48.75618 | 18.04513 | 91° | 99km/h | 13414m | 4.2m/s | -59.0°C | 0% | 0hPa | 0V | 00:00:00 | 00:00:00 | 00:00:00 | |
| OE5DRO-10 | 2026-08-31 06:01:45 | 48.75618 | 18.04397 | 91° | 102km/h | 13397m | 3.5m/s | 0°C | 0% | 0hPa | 0V | 00:00:00 | 00:00:00 | 00:00:00 | |
| PG1ADW-2 | 2026-08-31 06:01:43 | 48.75619 | 18.04318 | 93° | 102km/h | 13389m | 4.3m/s | 0°C | 0% | 0hPa | 0V | 00:00:00 | 00:00:00 | 00:00:00 | |
| OE5DXL-15 | 2026-08-31 06:01:37 | 48.75622 | 18.04007 | 91° | 102km/h | 13359m | 2.5m/s | 0°C | 0% | 0hPa | 0V | 00:00:00 | 00:00:00 | 00:00:00 | |
| ATIDSZ-14 | 2026-08-31 06:01:27 | 48.75625 | 18.03692 | 91° | 106km/h | 13327m | 3.7m/s | -58.8°C | 0% | 0hPa | 0V | 00:00:00 | 00:00:00 | 00:00:00 | |
| OE5DRO-10 | 2026-08-31 06:01:26 | 48.75625 | 18.03651 | 89° | 102km/h | 13319m | 3.9m/s | 0°C | 0% | 0hPa | 0V | 00:00:00 | 00:00:00 | 00:00:00 | |
| PG1ADW-2 | 2026-08-31 06:01:23 | 48.75623 | 18.03534 | 90° | 102km/h | 13306m | 4.9m/s | 0°C | 0% | 0hPa | 0V | 00:00:00 | 00:00:00 | 00:00:00 | |
| OE3JTB-15 | 2026-08-31 06:01:22 | 48.75623 | 18.03496 | 90° | 102km/h | 13302m | 3.0m/s | 0°C | 0% | 0hPa | 0V | 00:00:00 | 00:00:00 | 00:00:00 | |
| OE5DRO-10 | 2026-08-31 06:01:07 | 48.75606 | 18.02906 | 85° | 102km/h | 13240m | 3.4m/s | 0°C | 0% | 0hPa | 0V | 00:00:00 | 00:00:00 | 00:00:00 | |
| OE5DXL-15 | 2026-08-31 06:01:06 | 48.75601 | 18.02827 | 84° | 102km/h | 13233m | 4.0m/s | 0°C | 0% | 0hPa | 0V | 00:00:00 | 00:00:00 | 00:00:00 | |
| PG1ADW-2 | 2026-08-31 06:01:03 | 48.75597 | 18.02748 | 86° | 100km/h | 13224m | 3.6m/s | 0°C | 0% | 0hPa | 0V | 00:00:00 | 00:00:00 | 00:00:00 | |
| OE3JTB-15 | 2026-08-31 06:00:53 | 48.75573 | 18.02362 | 83° | 100km/h | 13182m | 3.7m/s | 0°C | 0% | 0hPa | 0V | 00:00:00 | 00:00:00 | 00:00:00 | |
| OE5DRO-10 | 2026-08-31 06:00:48 | 48.75560 | 18.02171 | 85° | 102km/h | 13162m | 4.0m/s | 0°C | 0% | 0hPa | 0V | 00:00:00 | 00:00:00 | 00:00:00 | |
| ATIDSZ-14 | 2026-08-31 06:00:46 | 48.75555 | 18.02095 | 85° | 100km/h | 13158m | 3.9m/s | -58.2°C | 0% | 0hPa | 0V | 00:00:00 | 00:00:00 | 00:00:00 | |
| PG1ADW-2 | 2026-08-31 06:00:43 | 48.75544 | 18.01980 | 82° | 100km/h | 13141m | 4.5m/s | 0°C | 0% | 0hPa | 0V | 00:00:00 | 00:00:00 | 00:00:00 | |
| OE5DXL-15 | 2026-08-31 06:00:36 | 48.75511 | 18.01632 | 82° | 100km/h | 13103m | 4.9m/s | 0°C | 0% | 0hPa | 0V | 00:00:00 | 00:00:00 | 00:00:00 | |
| OE5DRO-10 | 2026-08-31 06:00:29 | 48.75489 | 18.01441 | 82° | 99km/h | 13083m | 3.3m/s | 0°C | 0% | 0hPa | 0V | 00:00:00 | 00:00:00 | 00:00:00 | |
| ATIDSZ-14 | 2026-08-31 06:00:26 | 48.75482 | 18.01328 | 87° | 99km/h | 13074m | 4.1m/s | -57.7°C | 0% | 0hPa | 0V | 00:00:00 | 00:00:00 | 00:00:00 | |
| OE3JTB-15 | 2026-08-31 06:00:24 | 48.75477 | 18.01253 | 84° | 99km/h | 13061m | 3.9m/s | 0°C | 0% | 0hPa | 0V | 00:00:00 | 00:00:00 | 00:00:00 | |
| PG1ADW-2 | 2026-08-31 06:00:23 | 48.75475 | 18.01215 | 84° | 99km/h | 13057m | 4.4m/s | 0°C | 0% | 0hPa | 0V | 00:00:00 | 00:00:00 | 00:00:00 | |
| OE5DRO-10 | 2026-08-31 06:00:10 | 48.75441 | 18.00727 | 85° | 99km/h | 13002m | 4.2m/s | 0°C | 0% | 0hPa | 0V | 00:00:00 | 00:00:00 | 00:00:00 | |
| OE5DXL-15 | 2026-08-31 06:00:05 | 48.75425 | 18.00462 | 87° | 100km/h | 12974m | 4.8m/s | 0°C | 0% | 0hPa | 0V | 00:00:00 | 00:00:00 | 00:00:00 | |
| OE3JTB-15 | 2026-08-31 05:59:55 | 48.75412 | 18.00159 | 87° | 100km/h | 12940m | 3.5m/s | 0°C | 0% | 0hPa | 0V | 00:00:00 | 00:00:00 | 00:00:00 | |
| OE5DRO-10 | 2026-08-31 05:59:51 | 48.75407 | 18.00006 | 88° | 102km/h | 12923m | 4.4m/s | 0°C | 0% | 0hPa | 0V | 00:00:00 | 00:00:00 | 00:00:00 | |
| ATIDSZ-14 | 2026-08-31 05:59:45 | 48.75401 | 17.99771 | 91° | 100km/h | 12902m | 4.6m/s | -57.2°C | 0% | 0hPa | 0V | 00:00:00 | 00:00:00 | 00:00:00 | |
| PG1ADW-2 | 2026-08-31 05:59:43 | 48.75401 | 17.99695 | 90° | 100km/h | 12890m | 3.9m/s | 0°C | 0% | 0hPa | 0V | 00:00:00 | 00:00:00 | 00:00:00 | |
| OE5DXL-15 | 2026-08-31 05:59:35 | 48.75395 | 17.99381 | 88° | 100km/h | 12856m | 3.8m/s | 0°C | 0% | 0hPa | 0V | 00:00:00 | 00:00:00 | 00:00:00 | |
| OE5DRO-10 | 2026-08-31 05:59:32 | 48.75392 | 17.99266 | 90° | 99km/h | 12843m | 4.3m/s | 0°C | 0% | 0hPa | 0V | 00:00:00 | 00:00:00 | 00:00:00 | |
| OE3JTB-15 | 2026-08-31 05:59:26 | 48.75386 | 17.99048 | 87° | 102km/h | 12819m | 4.6m/s | 0°C | 0% | 0hPa | 0V | 00:00:00 | 00:00:00 | 00:00:00 | |
| ATIDSZ-14 | 2026-08-31 05:59:24 | 48.75382 | 17.98967 | 87° | 106km/h | 12814m | 4.8m/s | -57.3°C | 0% | 0hPa | 0V | 00:00:00 | 00:00:00 | 00:00:00 | |
| PG1ADW-2 | 2026-08-31 05:59:23 | 48.75380 | 17.98926 | 85° | 102km/h | 12806m | 4.8m/s | 0°C | 0% | 0hPa | 0V | 00:00:00 | 00:00:00 | 00:00:00 | |
| OE5DRO-10 | 2026-08-31 05:59:13 | 48.75369 | 17.98545 | 89° | 102km/h | 12764m | 3.6m/s | 0°C | 0% | 0hPa | 0V | 00:00:00 | 00:00:00 | 00:00:00 | |
| ATIDSZ-14 | 2026-08-31 05:59:04 | 48.75360 | 17.98190 | 90° | 102km/h | 12731m | 3.3m/s | -57.2°C | 0% | 0hPa | 0V | 00:00:00 | 00:00:00 | 00:00:00 | |
| PG1ADW-2 | 2026-08-31 05:59:03 | 48.75359 | 17.98151 | 89° | 100km/h | 12723m | 2.9m/s | 0°C | 0% | 0hPa | 0V | 00:00:00 | 00:00:00 | 00:00:00 | |
| GYPAP8-17 | 2026-08-31 05:58:59 | 48.75357 | 17.97997 | 89° | 102km/h | 12710m | 4.1m/s | -57.2°C | 0% | 0hPa | 0V | 00:00:00 | 00:00:00 | 00:00:00 | |
| OE3JTB-15 | 2026-08-31 05:58:57 | 48.75355 | 17.97919 | 89° | 100km/h | 12698m | 4.5m/s | 0°C | 0% | 0hPa | 0V | 00:00:00 | 00:00:00 | 00:00:00 | |
| OE5DRO-10 | 2026-08-31 05:58:54 | 48.75352 | 17.97803 | 89° | 100km/h | 12687m | 3.7m/s | 0°C | 0% | 0hPa | 0V | 00:00:00 | 00:00:00 | 00:00:00 | |
| PG1ADW-2 | 2026-08-31 05:58:43 | 48.75347 | 17.97379 | 90° | 102km/h | 12642m | 3.2m/s | 0°C | 0% | 0hPa | 0V | 00:00:00 | 00:00:00 | 00:00:00 | |
| OE5DRO-10 | 2026-08-31 05:58:35 | 48.75346 | 17.97071 | 93° | 104km/h | 12610m | 3.9m/s | 0°C | 0% | 0hPa | 0V | 00:00:00 | 00:00:00 | 00:00:00 | |
| OE3JTB-15 | 2026-08-31 05:58:28 | 48.75351 | 17.96799 | 90° | 106km/h | 12581m | 4.0m/s | 0°C | 0% | 0hPa | 0V | 00:00:00 | 00:00:00 | 00:00:00 | |
| PG1ADW-2 | 2026-08-31 05:58:23 | 48.75351 | 17.96598 | 92° | 106km/h | 12560m | 3.9m/s | 0°C | 0% | 0hPa | 0V | 00:00:00 | 00:00:00 | 00:00:00 | |
| OE5DRO-10 | 2026-08-31 05:58:16 | 48.75349 | 17.96316 | 88° | 106km/h | 12532m | 4.6m/s | 0°C | 0% | 0hPa | 0V | 00:00:00 | 00:00:00 | 00:00:00 | |
| PG1ADW-2 | 2026-08-31 05:58:03 | 48.75334 | 17.95791 | 88° | 106km/h | 12480m | 4.2m/s | 0°C | 0% | 0hPa | 0V | 00:00:00 | 00:00:00 | 00:00:00 | |
| ATIDSZ-14 | 2026-08-31 05:58:02 | 48.75332 | 17.95750 | 90° | 106km/h | 12480m | 4.3m/s | -56.4°C | 0% | 0hPa | 0V | 00:00:00 | 00:00:00 | 00:00:00 | |
| OE3JTB-15 | 2026-08-31 05:57:59 | 48.75331 | 17.95631 | 89° | 106km/h | 12464m | 3.9m/s | 0°C | 0% | 0hPa | 0V | 00:00:00 | 00:00:00 | 00:00:00 | |
| OE5DRO-10 | 2026-08-31 05:57:57 | 48.75330 | 17.95551 | 87° | 104km/h | 12456m | 3.5m/s | 0°C | 0% | 0hPa | 0V | 00:00:00 | 00:00:00 | 00:00:00 | |
| PG1ADW-2 | 2026-08-31 05:57:43 | 48.75322 | 17.94987 | 91° | 106km/h | 12400m | 4.1m/s | 0°C | 0% | 0hPa | 0V | 00:00:00 | 00:00:00 | 00:00:00 | |
| ATIDSZ-14 | 2026-08-31 05:57:42 | 48.75322 | 17.94949 | 91° | 99km/h | 12400m | 4.1m/s | -56.0°C | 0% | 0hPa | 0V | 00:00:00 | 00:00:00 | 00:00:00 | |
| OE5DRO-10 | 2026-08-31 05:57:38 | 48.75325 | 17.94790 | 91° | 106km/h | 12382m | 3.4m/s | 0°C | 0% | 0hPa | 0V | 00:00:00 | 00:00:00 | 00:00:00 | |
| OE3JTB-15 | 2026-08-31 05:57:30 | 48.75327 | 17.94460 | 92° | 100km/h | 12350m | 3.9m/s | 0°C | 0% | 0hPa | 0V | 00:00:00 | 00:00:00 | 00:00:00 | |
| OE5DXL-15 | 2026-08-31 05:57:28 | 48.75333 | 17.94303 | 94° | 99km/h | 12331m | 3.5m/s | 0°C | 0% | 0hPa | 0V | 00:00:00 | 00:00:00 | 00:00:00 | |
| PG1ADW-2 | 2026-08-31 05:57:23 | 48.75336 | 17.94182 | 90° | 100km/h | 12322m | 3.8m/s | 0°C | 0% | 0hPa | 0V | 00:00:00 | 00:00:00 | 00:00:00 | |
| ATIDSZ-14 | 2026-08-31 05:57:21 | 48.75336 | 17.94104 | 90° | 100km/h | 12318m | 4.8m/s | -55.7°C | 0% | 0hPa | 0V | 00:00:00 | 00:00:00 | 00:00:00 | |
| OE5DRO-10 | 2026-08-31 05:57:19 | 48.75336 | 17.94027 | 92° | 99km/h | 12307m | 4.0m/s | 0°C | 0% | 0hPa | 0V | 00:00:00 | 00:00:00 | 00:00:00 | |
| PG1ADW-2 | 2026-08-31 05:57:03 | 48.75346 | 17.93423 | 93° | 95km/h | 12241m | 3.0m/s | 0°C | 0% | 0hPa | 0V | 00:00:00 | 00:00:00 | 00:00:00 | |
| OE3JTB-15 | 2026-08-31 05:57:01 | 48.75348 | 17.93347 | 94° | 95km/h | 12233m | 3.5m/s | 0°C | 0% | 0hPa | 0V | 00:00:00 | 00:00:00 | 00:00:00 | |
| OE5DRO-10 | 2026-08-31 05:57:00 | 48.75349 | 17.93310 | 94° | 95km/h | 12229m | 4.1m/s | 0°C | 0% | 0hPa | 0V | 00:00:00 | 00:00:00 | 00:00:00 | |
| OE5DXL-15 | 2026-08-31 05:56:58 | 48.75355 | 17.93161 | 93° | 95km/h | 12208m | 3.9m/s | 0°C | 0% | 0hPa | 0V | 00:00:00 | 00:00:00 | 00:00:00 | |
| PG1ADW-2 | 2026-08-31 05:56:43 | 48.75363 | 17.92692 | 94° | 97km/h | 12159m | 4.4m/s | 0°C | 0% | 0hPa | 0V | 00:00:00 | 00:00:00 | 00:00:00 | |
| OE5DRO-10 | 2026-08-31 05:56:41 | 48.75365 | 17.92622 | 93° | 97km/h | 12150m | 3.6m/s | 0°C | 0% | 0hPa | 0V | 00:00:00 | 00:00:00 | 00:00:00 | |
| ATIDSZ-14 | 2026-08-31 05:56:40 | 48.75366 | 17.92586 | 91° | 95km/h | 12150m | 3.7m/s | -55.3°C | 0% | 0hPa | 0V | 00:00:00 | 00:00:00 | 00:00:00 | |
| OE3JTB-15 | 2026-08-31 05:56:32 | 48.75370 | 17.92288 | 94° | 100km/h | 12114m | 3.2m/s | 0°C | 0% | 0hPa | 0V | 00:00:00 | 00:00:00 | 00:00:00 | |
| OE5DXL-15 | 2026-08-31 05:56:28 | 48.75376 | 17.92105 | 93° | 100km/h | 12094m | 4.9m/s | 0°C | 0% | 0hPa | 0V | 00:00:00 | 00:00:00 | 00:00:00 | |
| PG1ADW-2 | 2026-08-31 05:56:23 | 48.75379 | 17.91952 | 93° | 100km/h | 12077m | 3.8m/s | 0°C | 0% | 0hPa | 0V | 00:00:00 | 00:00:00 | 00:00:00 | |
| OE5DRO-10 | 2026-08-31 05:56:22 | 48.75380 | 17.91914 | 93° | 100km/h | 12073m | 5.2m/s | 0°C | 0% | 0hPa | 0V | 00:00:00 | 00:00:00 | 00:00:00 | |
| ATIDSZ-14 | 2026-08-31 05:56:19 | 48.75384 | 17.91798 | 94° | 102km/h | 12065m | 4.4m/s | -54.8°C | 0% | 0hPa | 0V | 00:00:00 | 00:00:00 | 00:00:00 | |
| OE3JTB-15 | 2026-08-31 05:56:03 | 48.75400 | 17.91182 | 94° | 99km/h | 11993m | 5.0m/s | 0°C | 0% | 0hPa | 0V | 00:00:00 | 00:00:00 | 00:00:00 | |
| OE3OSB-13 | 2026-08-31 05:56:02 | 48.75404 | 17.91106 | 93° | 99km/h | 11989m | 3.6m/s | -55.2°C | -1.0% | -1.0hPa | 0V | 00:00:00 | 00:00:00 | 00:00:00 | |
| ATIDSZ-14 | 2026-08-31 05:55:59 | 48.75407 | 17.91031 | 95° | 97km/h | 11981m | 4.9m/s | -54.4°C | 0% | 0hPa | 0V | 00:00:00 | 00:00:00 | 00:00:00 | |
| OE5DXL-15 | 2026-08-31 05:55:57 | 48.75410 | 17.90957 | 95° | 100km/h | 11968m | 4.5m/s | 0°C | 0% | 0hPa | 0V | 00:00:00 | 00:00:00 | 00:00:00 | |
| OE5DRO-10 | 2026-08-31 05:55:44 | 48.75433 | 17.90472 | 96° | 102km/h | 11915m | 3.8m/s | 0°C | 0% | 0hPa | 0V | 00:00:00 | 00:00:00 | 00:00:00 | |
| PG1ADW-2 | 2026-08-31 05:55:43 | 48.75435 | 17.90433 | 96° | 100km/h | 11911m | 3.8m/s | 0°C | 0% | 0hPa | 0V | 00:00:00 | 00:00:00 | 00:00:00 | |
| ATIDSZ-14 | 2026-08-31 05:55:38 | 48.75443 | 17.90246 | 95° | 97km/h | 11896m | 2.8m/s | -54.0°C | 0% | 0hPa | 0V | 00:00:00 | 00:00:00 | 00:00:00 | |
| OE3JTB-15 | 2026-08-31 05:55:34 | 48.75451 | 17.90093 | 95° | 104km/h | 11876m | 3.7m/s | 0°C | 0% | 0hPa | 0V | 00:00:00 | 00:00:00 | 00:00:00 | |
| OE5DXL-15 | 2026-08-31 05:55:27 | 48.75463 | 17.89813 | 95° | 106km/h | 11849m | 4.1m/s | 0°C | 0% | 0hPa | 0V | 00:00:00 | 00:00:00 | 00:00:00 | |
| OE5DRO-10 | 2026-08-31 05:55:25 | 48.75466 | 17.89738 | 93° | 106km/h | 11841m | 4.6m/s | 0°C | 0% | 0hPa | 0V | 00:00:00 | 00:00:00 | 00:00:00 | |
| PG1ADW-2 | 2026-08-31 05:55:23 | 48.75469 | 17.89659 | 95° | 106km/h | 11833m | 4.5m/s | 0°C | 0% | 0hPa | 0V | 00:00:00 | 00:00:00 | 00:00:00 | |
| ATIDSZ-14 | 2026-08-31 05:55:18 | 48.75480 | 17.89456 | 95° | 104km/h | 11816m | 4.0m/s | -53.5°C | 0% | 0hPa | 0V | 00:00:00 | 00:00:00 | 00:00:00 | |
| OE5DRO-10 | 2026-08-31 05:55:06 | 48.75505 | 17.88972 | 94° | 106km/h | 11763m | 3.1m/s | 0°C | 0% | 0hPa | 0V | 00:00:00 | 00:00:00 | 00:00:00 | |
| OE3JTB-15 | 2026-08-31 05:55:05 | 48.75506 | 17.88932 | 93° | 106km/h | 11759m | 4.6m/s | 0°C | 0% | 0hPa | 0V | 00:00:00 | 00:00:00 | 00:00:00 | |
| PG1ADW-2 | 2026-08-31 05:55:03 | 48.75509 | 17.88853 | 95° | 106km/h | 11750m | 3.7m/s | 0°C | 0% | 0hPa | 0V | 00:00:00 | 00:00:00 | 00:00:00 | |
| ATIDSZ-14 | 2026-08-31 05:54:57 | 48.75523 | 17.88605 | 95° | 111km/h | 11730m | 3.4m/s | -53.2°C | 0% | 0hPa | 0V | 00:00:00 | 00:00:00 | 00:00:00 | |
| OE5DXL-15 | 2026-08-31 05:54:56 | 48.75525 | 17.88563 | 93° | 106km/h | 11727m | 3.7m/s | 0°C | 0% | 0hPa | 0V | 00:00:00 | 00:00:00 | 00:00:00 | |
| OE5DRO-10 | 2026-08-31 05:54:47 | 48.75536 | 17.88207 | 93° | 106km/h | 11689m | 3.0m/s | 0°C | 0% | 0hPa | 0V | 00:00:00 | 00:00:00 | 00:00:00 | |
| PG1ADW-2 | 2026-08-31 05:54:43 | 48.75542 | 17.88043 | 95° | 104km/h | 11673m | 3.5m/s | 0°C | 0% | 0hPa | 0V | 00:00:00 | 00:00:00 | 00:00:00 | |
| ATIDSZ-14 | 2026-08-31 05:54:37 | 48.75552 | 17.87798 | 94° | 108km/h | 11653m | 3.8m/s | -52.7°C | 0% | 0hPa | 0V | 00:00:00 | 00:00:00 | 00:00:00 | |
| OE3JTB-15 | 2026-08-31 05:54:36 | 48.75553 | 17.87757 | 94° | 102km/h | 11644m | 3.4m/s | 0°C | 0% | 0hPa | 0V | 00:00:00 | 00:00:00 | 00:00:00 | |
| OE5DRO-10 | 2026-08-31 05:54:28 | 48.75565 | 17.87436 | 94° | 100km/h | 11611m | 4.9m/s | 0°C | 0% | 0hPa | 0V | 00:00:00 | 00:00:00 | 00:00:00 | |
| OE5DXL-15 | 2026-08-31 05:54:26 | 48.75568 | 17.87358 | 94° | 100km/h | 11607m | 3.4m/s | 0°C | 0% | 0hPa | 0V | 00:00:00 | 00:00:00 | 00:00:00 | |
| PG1ADW-2 | 2026-08-31 05:54:23 | 48.75574 | 17.87244 | 94° | 100km/h | 11591m | 4.7m/s | 0°C | 0% | 0hPa | 0V | 00:00:00 | 00:00:00 | 00:00:00 | |
| ATIDSZ-14 | 2026-08-31 05:54:16 | 48.75580 | 17.86974 | 94° | 102km/h | 11566m | 4.0m/s | -52.3°C | 0% | 0hPa | 0V | 00:00:00 | 00:00:00 | 00:00:00 | |
| OE5DRO-10 | 2026-08-31 05:54:09 | 48.75586 | 17.86706 | 93° | 102km/h | 11534m | 3.6m/s | 0°C | 0% | 0hPa | 0V | 00:00:00 | 00:00:00 | 00:00:00 | |
| OE3JTB-15 | 2026-08-31 05:54:07 | 48.75588 | 17.86630 | 94° | 102km/h | 11525m | 4.8m/s | 0°C | 0% | 0hPa | 0V | 00:00:00 | 00:00:00 | 00:00:00 | |
| PG1ADW-2 | 2026-08-31 05:54:03 | 48.75594 | 17.86475 | 94° | 102km/h | 11510m | 3.5m/s | 0°C | 0% | 0hPa | 0V | 00:00:00 | 00:00:00 | 00:00:00 | |
| OE5DXL-15 | 2026-08-31 05:53:56 | 48.75598 | 17.86203 | 94° | 102km/h | 11478m | 3.5m/s | 0°C | 0% | 0hPa | 0V | 00:00:00 | 00:00:00 | 00:00:00 | |
| OE5DRO-10 | 2026-08-31 05:53:50 | 48.75605 | 17.85968 | 92° | 100km/h | 11458m | 3.3m/s | 0°C | 0% | 0hPa | 0V | 00:00:00 | 00:00:00 | 00:00:00 | |
| PG1ADW-2 | 2026-08-31 05:53:43 | 48.75608 | 17.85700 | 91° | 100km/h | 11430m | 3.6m/s | 0°C | 0% | 0hPa | 0V | 00:00:00 | 00:00:00 | 00:00:00 | |
| OE5DRO-10 | 2026-08-31 05:53:31 | 48.75616 | 17.85236 | 94° | 100km/h | 11383m | 4.1m/s | 0°C | 0% | 0hPa | 0V | 00:00:00 | 00:00:00 | 00:00:00 | |
| PG1ADW-2 | 2026-08-31 05:53:23 | 48.75623 | 17.84927 | 92° | 102km/h | 11352m | 3.0m/s | 0°C | 0% | 0hPa | 0V | 00:00:00 | 00:00:00 | 00:00:00 | |
| ATIDSZ-14 | 2026-08-31 05:53:15 | 48.75631 | 17.84620 | 93° | 99km/h | 11324m | 3.2m/s | -50.8°C | 0% | 0hPa | 0V | 00:00:00 | 00:00:00 | 00:00:00 | |
| OE5DRO-10 | 2026-08-31 05:53:12 | 48.75632 | 17.84503 | 90° | 106km/h | 11308m | 4.2m/s | 0°C | 0% | 0hPa | 0V | 00:00:00 | 00:00:00 | 00:00:00 | |
| OE3JTB-15 | 2026-08-31 05:53:09 | 48.75632 | 17.84380 | 91° | 106km/h | 11296m | 3.9m/s | 0°C | 0% | 0hPa | 0V | 00:00:00 | 00:00:00 | 00:00:00 | |
| PG1ADW-2 | 2026-08-31 05:53:03 | 48.75640 | 17.84140 | 93° | 106km/h | 11273m | 4.4m/s | 0°C | 0% | 0hPa | 0V | 00:00:00 | 00:00:00 | 00:00:00 | |
| OE5DXL-15 | 2026-08-31 05:53:01 | 48.75642 | 17.84061 | 91° | 108km/h | 11265m | 4.1m/s | 0°C | 0% | 0hPa | 0V | 00:00:00 | 00:00:00 | 00:00:00 | |
| ATIDSZ-14 | 2026-08-31 05:52:54 | 48.75648 | 17.83772 | 94° | 108km/h | 11243m | 3.9m/s | -50.2°C | 0% | 0hPa | 0V | 00:00:00 | 00:00:00 | 00:00:00 | |
| OE5DRO-10 | 2026-08-31 05:52:53 | 48.75650 | 17.83731 | 93° | 106km/h | 11235m | 3.9m/s | 0°C | 0% | 0hPa | 0V | 00:00:00 | 00:00:00 | 00:00:00 | |
| PG1ADW-2 | 2026-08-31 05:52:43 | 48.75660 | 17.83327 | 93° | 104km/h | 11194m | 3.3m/s | 0°C | 0% | 0hPa | 0V | 00:00:00 | 00:00:00 | 00:00:00 | |
| OE3JTB-15 | 2026-08-31 05:52:40 | 48.75663 | 17.83205 | 93° | 102km/h | 11183m | 4.2m/s | 0°C | 0% | 0hPa | 0V | 00:00:00 | 00:00:00 | 00:00:00 | |
| OE5DRO-10 | 2026-08-31 05:52:34 | 48.75668 | 17.82965 | 91° | 102km/h | 11158m | 3.6m/s | 0°C | 0% | 0hPa | 0V | 00:00:00 | 00:00:00 | 00:00:00 | |
| PG1ADW-2 | 2026-08-31 05:52:23 | 48.75674 | 17.82534 | 90° | 100km/h | 11113m | 3.2m/s | 0°C | 0% | 0hPa | 0V | 00:00:00 | 00:00:00 | 00:00:00 | |
| OE5DRO-10 | 2026-08-31 05:52:15 | 48.75675 | 17.82223 | 91° | 99km/h | 11081m | 4.4m/s | 0°C | 0% | 0hPa | 0V | 00:00:00 | 00:00:00 | 00:00:00 | |
| ATIDSZ-14 | 2026-08-31 05:52:13 | 48.75675 | 17.82145 | 91° | 102km/h | 11077m | 2.9m/s | -49.2°C | 0% | 0hPa | 0V | 00:00:00 | 00:00:00 | 00:00:00 | |
| OE3JTB-15 | 2026-08-31 05:52:11 | 48.75674 | 17.82066 | 89° | 99km/h | 11065m | 3.9m/s | 0°C | 0% | 0hPa | 0V | 00:00:00 | 00:00:00 | 00:00:00 | |
| PG1ADW-2 | 2026-08-31 05:52:03 | 48.75673 | 17.81764 | 89° | 97km/h | 11033m | 4.0m/s | 0°C | 0% | 0hPa | 0V | 00:00:00 | 00:00:00 | 00:00:00 | |
| OE5DRO-10 | 2026-08-31 05:51:56 | 48.75669 | 17.81504 | 90° | 97km/h | 11005m | 4.4m/s | 0°C | 0% | 0hPa | 0V | 00:00:00 | 00:00:00 | 00:00:00 | |
| ATIDSZ-14 | 2026-08-31 05:51:52 | 48.75668 | 17.81354 | 90° | 99km/h | 10994m | 3.9m/s | -48.8°C | 0% | 0hPa | 0V | 00:00:00 | 00:00:00 | 00:00:00 | |
| PG1ADW-2 | 2026-08-31 05:51:43 | 48.75659 | 17.81021 | 86° | 95km/h | 10954m | 3.7m/s | 0°C | 0% | 0hPa | 0V | 00:00:00 | 00:00:00 | 00:00:00 | |
| OE3JTB-15 | 2026-08-31 05:51:42 | 48.75658 | 17.80983 | 87° | 93km/h | 10950m | 3.8m/s | 0°C | 0% | 0hPa | 0V | 00:00:00 | 00:00:00 | 00:00:00 | |
| OE5DRO-10 | 2026-08-31 05:51:37 | 48.75652 | 17.80801 | 89° | 93km/h | 10931m | 3.9m/s | 0°C | 0% | 0hPa | 0V | 00:00:00 | 00:00:00 | 00:00:00 | |
| ATIDSZ-14 | 2026-08-31 05:51:32 | 48.75645 | 17.80621 | 87° | 91km/h | 10915m | 3.5m/s | -48.1°C | 0% | 0hPa | 0V | 00:00:00 | 00:00:00 | 00:00:00 | |
| PG1ADW-2 | 2026-08-31 05:51:23 | 48.75632 | 17.80299 | 86° | 91km/h | 10876m | 3.4m/s | 0°C | 0% | 0hPa | 0V | 00:00:00 | 00:00:00 | 00:00:00 | |
| OE5DRO-10 | 2026-08-31 05:51:18 | 48.75622 | 17.80125 | 86° | 91km/h | 10856m | 4.9m/s | 0°C | 0% | 0hPa | 0V | 00:00:00 | 00:00:00 | 00:00:00 | |
| OE3JTB-15 | 2026-08-31 05:51:13 | 48.75612 | 17.79953 | 85° | 91km/h | 10835m | 4.8m/s | 0°C | 0% | 0hPa | 0V | 00:00:00 | 00:00:00 | 00:00:00 | |
| ATIDSZ-14 | 2026-08-31 05:51:11 | 48.75608 | 17.79882 | 86° | 93km/h | 10831m | 3.4m/s | -47.5°C | 0% | 0hPa | 0V | 00:00:00 | 00:00:00 | 00:00:00 | |
| PG1ADW-2 | 2026-08-31 05:51:03 | 48.75592 | 17.79601 | 84° | 91km/h | 10794m | 4.0m/s | 0°C | 0% | 0hPa | 0V | 00:00:00 | 00:00:00 | 00:00:00 | |
| OE5DRO-10 | 2026-08-31 05:50:59 | 48.75583 | 17.79458 | 84° | 91km/h | 10779m | 3.7m/s | 0°C | 0% | 0hPa | 0V | 00:00:00 | 00:00:00 | 00:00:00 | |
| ATIDSZ-14 | 2026-08-31 05:50:51 | 48.75562 | 17.79179 | 84° | 91km/h | 10751m | 3.2m/s | -46.9°C | 0% | 0hPa | 0V | 00:00:00 | 00:00:00 | 00:00:00 | |
| OE3JTB-15 | 2026-08-31 05:50:44 | 48.75541 | 17.78938 | 83° | 93km/h | 10716m | 3.6m/s | 0°C | 0% | 0hPa | 0V | 00:00:00 | 00:00:00 | 00:00:00 | |
| PG1ADW-2 | 2026-08-31 05:50:43 | 48.75538 | 17.78903 | 83° | 93km/h | 10712m | 4.8m/s | 0°C | 0% | 0hPa | 0V | 00:00:00 | 00:00:00 | 00:00:00 | |
| OE5DRO-10 | 2026-08-31 05:50:40 | 48.75529 | 17.78797 | 83° | 93km/h | 10700m | 4.9m/s | 0°C | 0% | 0hPa | 0V | 00:00:00 | 00:00:00 | 00:00:00 | |
| ATIDSZ-14 | 2026-08-31 05:50:30 | 48.75500 | 17.78442 | 83° | 95km/h | 10664m | 4.1m/s | -46.2°C | 0% | 0hPa | 0V | 00:00:00 | 00:00:00 | 00:00:00 | |
| PG1ADW-2 | 2026-08-31 05:50:23 | 48.75478 | 17.78197 | 82° | 93km/h | 10627m | 3.4m/s | 0°C | 0% | 0hPa | 0V | 00:00:00 | 00:00:00 | 00:00:00 | |
| OE5DRO-10 | 2026-08-31 05:50:21 | 48.75471 | 17.78127 | 82° | 93km/h | 10623m | 4.5m/s | 0°C | 0% | 0hPa | 0V | 00:00:00 | 00:00:00 | 00:00:00 | |
| OE3JTB-15 | 2026-08-31 05:50:15 | 48.75455 | 17.77917 | 83° | 95km/h | 10601m | 4.3m/s | 0°C | 0% | 0hPa | 0V | 00:00:00 | 00:00:00 | 00:00:00 | |
| ATIDSZ-14 | 2026-08-31 05:50:10 | 48.75439 | 17.77738 | 83° | 95km/h | 10585m | 3.7m/s | -45.5°C | 0% | 0hPa | 0V | 00:00:00 | 00:00:00 | 00:00:00 | |
| PG1ADW-2 | 2026-08-31 05:50:03 | 48.75418 | 17.77490 | 82° | 95km/h | 10552m | 4.7m/s | 0°C | 0% | 0hPa | 0V | 00:00:00 | 00:00:00 | 00:00:00 | |
| OE5DRO-10 | 2026-08-31 05:50:02 | 48.75414 | 17.77454 | 82° | 95km/h | 10548m | 3.5m/s | 0°C | 0% | 0hPa | 0V | 00:00:00 | 00:00:00 | 00:00:00 | |
| ATIDSZ-14 | 2026-08-31 05:49:49 | 48.75373 | 17.76988 | 82° | 95km/h | 10497m | 4.9m/s | -44.8°C | 0% | 0hPa | 0V | 00:00:00 | 00:00:00 | 00:00:00 | |
| OE3JTB-15 | 2026-08-31 05:49:46 | 48.75363 | 17.76882 | 85° | 95km/h | 10479m | 3.9m/s | 0°C | 0% | 0hPa | 0V | 00:00:00 | 00:00:00 | 00:00:00 | |
| PG1ADW-2 | 2026-08-31 05:49:43 | 48.75356 | 17.76776 | 85° | 95km/h | 10466m | 4.2m/s | 0°C | 0% | 0hPa | 0V | 00:00:00 | 00:00:00 | 00:00:00 | |
| ATIDSZ-14 | 2026-08-31 05:49:29 | 48.75309 | 17.76277 | 80° | 95km/h | 10413m | 4.8m/s | -44.1°C | 0% | 0hPa | 0V | 00:00:00 | 00:00:00 | 00:00:00 | |
| OE5DRO-10 | 2026-08-31 05:49:24 | 48.75289 | 17.76096 | 82° | 97km/h | 10388m | 4.9m/s | 0°C | 0% | 0hPa | 0V | 00:00:00 | 00:00:00 | 00:00:00 | |
| PG1ADW-2 | 2026-08-31 05:49:23 | 48.75285 | 17.76060 | 82° | 95km/h | 10383m | 3.7m/s | 0°C | 0% | 0hPa | 0V | 00:00:00 | 00:00:00 | 00:00:00 | |
| OE3JTB-15 | 2026-08-31 05:49:17 | 48.75264 | 17.75839 | 83° | 97km/h | 10357m | 3.7m/s | 0°C | 0% | 0hPa | 0V | 00:00:00 | 00:00:00 | 00:00:00 | |
| ATIDSZ-14 | 2026-08-31 05:49:09 | 48.75234 | 17.75511 | 84° | 97km/h | 10323m | 3.7m/s | -43.4°C | 0% | 0hPa | 0V | 00:00:00 | 00:00:00 | 00:00:00 | |
| OE5DRO-10 | 2026-08-31 05:49:05 | 48.75225 | 17.75403 | 83° | 97km/h | 10306m | 4.8m/s | 0°C | 0% | 0hPa | 0V | 00:00:00 | 00:00:00 | 00:00:00 | |
| OE3JTB-15 | 2026-08-31 05:48:48 | 48.75167 | 17.74780 | 82° | 99km/h | 10235m | 4.8m/s | 0°C | 0% | 0hPa | 0V | 00:00:00 | 00:00:00 | 00:00:00 | |
| OE5DRO-10 | 2026-08-31 05:48:46 | 48.75159 | 17.74707 | 82° | 99km/h | 10226m | 4.6m/s | 0°C | 0% | 0hPa | 0V | 00:00:00 | 00:00:00 | 00:00:00 | |
| OE5DRO-10 | 2026-08-31 05:48:27 | 48.75104 | 17.73996 | 86° | 97km/h | 10143m | 4.8m/s | 0°C | 0% | 0hPa | 0V | 00:00:00 | 00:00:00 | 00:00:00 | |
| OE3JTB-15 | 2026-08-31 05:48:19 | 48.75083 | 17.73697 | 86° | 95km/h | 10110m | 4.9m/s | 0°C | 0% | 0hPa | 0V | 00:00:00 | 00:00:00 | 00:00:00 | |
| OE5DRO-10 | 2026-08-31 05:48:08 | 48.75060 | 17.73292 | 85° | 95km/h | 10061m | 3.0m/s | 0°C | 0% | 0hPa | 0V | 00:00:00 | 00:00:00 | 00:00:00 | |
| ATIDSZ-14 | 2026-08-31 05:48:07 | 48.75058 | 17.73257 | 85° | 93km/h | 10061m | 3.1m/s | -41.5°C | 0% | 0hPa | 0V | 00:00:00 | 00:00:00 | 00:00:00 | |
| PG1ADW-2 | 2026-08-31 05:47:59 | 48.75044 | 17.72969 | 88° | 95km/h | 10023m | 3.5m/s | 0°C | 0% | 0hPa | 0V | 00:00:00 | 00:00:00 | 00:00:00 | |
| OE3JTB-15 | 2026-08-31 05:47:50 | 48.75024 | 17.72642 | 87° | 95km/h | 9986m | 3.7m/s | 0°C | 0% | 0hPa | 0V | 00:00:00 | 00:00:00 | 00:00:00 | |
| OE5DRO-10 | 2026-08-31 05:47:49 | 48.75022 | 17.72606 | 87° | 95km/h | 9982m | 4.0m/s | 0°C | 0% | 0hPa | 0V | 00:00:00 | 00:00:00 | 00:00:00 | |
| ATIDSZ-14 | 2026-08-31 05:47:46 | 48.75017 | 17.72497 | 87° | 93km/h | 9972m | 3.6m/s | -40.8°C | 0% | 0hPa | 0V | 00:00:00 | 00:00:00 | 00:00:00 | |
| PG1ADW-2 | 2026-08-31 05:47:39 | 48.75001 | 17.72243 | 86° | 93km/h | 9939m | 3.4m/s | 0°C | 0% | 0hPa | 0V | 00:00:00 | 00:00:00 | 00:00:00 | |
| OE5DRO-10 | 2026-08-31 05:47:30 | 48.74979 | 17.71919 | 84° | 91km/h | 9902m | 4.7m/s | 0°C | 0% | 0hPa | 0V | 00:00:00 | 00:00:00 | 00:00:00 | |
| ATIDSZ-14 | 2026-08-31 05:47:26 | 48.74970 | 17.71775 | 86° | 93km/h | 9890m | 4.4m/s | -40.3°C | 0% | 0hPa | 0V | 00:00:00 | 00:00:00 | 00:00:00 | |
| OE3JTB-15 | 2026-08-31 05:47:21 | 48.74961 | 17.71599 | 85° | 91km/h | 9864m | 3.6m/s | 0°C | 0% | 0hPa | 0V | 00:00:00 | 00:00:00 | 00:00:00 | |
| PG1ADW-2 | 2026-08-31 05:47:19 | 48.74956 | 17.71531 | 85° | 91km/h | 9855m | 4.0m/s | 0°C | 0% | 0hPa | 0V | 00:00:00 | 00:00:00 | 00:00:00 | |
| OE5DRO-10 | 2026-08-31 05:47:11 | 48.74940 | 17.71254 | 85° | 89km/h | 9821m | 3.4m/s | 0°C | 0% | 0hPa | 0V | 00:00:00 | 00:00:00 | 00:00:00 | |
| ATIDSZ-14 | 2026-08-31 05:47:05 | 48.74931 | 17.71047 | 89° | 89km/h | 9800m | 3.9m/s | -39.5°C | 0% | 0hPa | 0V | 00:00:00 | 00:00:00 | 00:00:00 | |
| PG1ADW-2 | 2026-08-31 05:46:59 | 48.74924 | 17.70839 | 88° | 89km/h | 9773m | 4.7m/s | 0°C | 0% | 0hPa | 0V | 00:00:00 | 00:00:00 | 00:00:00 | |
| OE3JTB-15 | 2026-08-31 05:46:52 | 48.74916 | 17.70599 | 88° | 89km/h | 9744m | 4.7m/s | 0°C | 0% | 0hPa | 0V | 00:00:00 | 00:00:00 | 00:00:00 | |
| ATIDSZ-14 | 2026-08-31 05:46:44 | 48.74910 | 17.70330 | 88° | 88km/h | 9716m | 4.0m/s | -38.7°C | 0% | 0hPa | 0V | 00:00:00 | 00:00:00 | 00:00:00 | |
| PG1ADW-2 | 2026-08-31 05:46:39 | 48.74903 | 17.70153 | 87° | 89km/h | 9691m | 3.3m/s | 0°C | 0% | 0hPa | 0V | 00:00:00 | 00:00:00 | 00:00:00 | |
| OE5DRO-10 | 2026-08-31 05:46:33 | 48.74894 | 17.69946 | 87° | 89km/h | 9667m | 5.0m/s | 0°C | 0% | 0hPa | 0V | 00:00:00 | 00:00:00 | 00:00:00 | |
| ATIDSZ-14 | 2026-08-31 05:46:24 | 48.74884 | 17.69638 | 85° | 89km/h | 9635m | 4.8m/s | -38.0°C | 0% | 0hPa | 0V | 00:00:00 | 00:00:00 | 00:00:00 | |
| OE3JTB-15 | 2026-08-31 05:46:23 | 48.74882 | 17.69603 | 85° | 91km/h | 9627m | 3.7m/s | 0°C | 0% | 0hPa | 0V | 00:00:00 | 00:00:00 | 00:00:00 | |
| PG1ADW-2 | 2026-08-31 05:46:19 | 48.74878 | 17.69467 | 90° | 91km/h | 9611m | 4.7m/s | 0°C | 0% | 0hPa | 0V | 00:00:00 | 00:00:00 | 00:00:00 | |
| OE5DRO-10 | 2026-08-31 05:46:14 | 48.74873 | 17.69294 | 86° | 91km/h | 9590m | 4.5m/s | 0°C | 0% | 0hPa | 0V | 00:00:00 | 00:00:00 | 00:00:00 | |
| ATIDSZ-14 | 2026-08-31 05:46:03 | 48.74857 | 17.68910 | 87° | 91km/h | 9550m | 4.3m/s | -37.2°C | 0% | 0hPa | 0V | 00:00:00 | 00:00:00 | 00:00:00 | |
| OE5DRO-10 | 2026-08-31 05:45:55 | 48.74845 | 17.68632 | 87° | 93km/h | 9514m | 3.1m/s | 0°C | 0% | 0hPa | 0V | 00:00:00 | 00:00:00 | 00:00:00 | |
| OE3JTB-15 | 2026-08-31 05:45:54 | 48.74843 | 17.68596 | 86° | 93km/h | 9510m | 4.1m/s | 0°C | 0% | 0hPa | 0V | 00:00:00 | 00:00:00 | 00:00:00 | |
| PG1ADW-2 | 2026-08-31 05:45:39 | 48.74820 | 17.68062 | 87° | 95km/h | 9452m | 4.3m/s | 0°C | 0% | 0hPa | 0V | 00:00:00 | 00:00:00 | 00:00:00 | |
| OE5DRO-10 | 2026-08-31 05:45:36 | 48.74817 | 17.67959 | 88° | 95km/h | 9441m | 3.7m/s | 0°C | 0% | 0hPa | 0V | 00:00:00 | 00:00:00 | 00:00:00 | |
| OE3JTB-15 | 2026-08-31 05:45:25 | 48.74799 | 17.67559 | 87° | 95km/h | 9401m | 3.4m/s | 0°C | 0% | 0hPa | 0V | 00:00:00 | 00:00:00 | 00:00:00 | |
| ATIDSZ-14 | 2026-08-31 05:45:22 | 48.74794 | 17.67451 | 88° | 93km/h | 9394m | 3.2m/s | -36.1°C | 0% | 0hPa | 0V | 00:00:00 | 00:00:00 | 00:00:00 | |
| PG1ADW-2 | 2026-08-31 05:45:19 | 48.74790 | 17.67343 | 88° | 97km/h | 9379m | 3.5m/s | 0°C | 0% | 0hPa | 0V | 00:00:00 | 00:00:00 | 00:00:00 | |
| OE5DRO-10 | 2026-08-31 05:45:17 | 48.74787 | 17.67271 | 87° | 97km/h | 9372m | 4.4m/s | 0°C | 0% | 0hPa | 0V | 00:00:00 | 00:00:00 | 00:00:00 | |
| ATIDSZ-14 | 2026-08-31 05:45:02 | 48.74763 | 17.66720 | 87° | 97km/h | 9322m | 4.1m/s | -35.6°C | 0% | 0hPa | 0V | 00:00:00 | 00:00:00 | 00:00:00 | |
| PG1ADW-2 | 2026-08-31 05:44:59 | 48.74759 | 17.66608 | 89° | 93km/h | 9308m | 3.6m/s | 0°C | 0% | 0hPa | 0V | 00:00:00 | 00:00:00 | 00:00:00 | |
| OE5DRO-10 | 2026-08-31 05:44:58 | 48.74758 | 17.66572 | 89° | 93km/h | 9304m | 4.0m/s | 0°C | 0% | 0hPa | 0V | 00:00:00 | 00:00:00 | 00:00:00 | |
| OE3JTB-15 | 2026-08-31 05:44:56 | 48.74758 | 17.66499 | 89° | 93km/h | 9297m | 4.2m/s | 0°C | 0% | 0hPa | 0V | 00:00:00 | 00:00:00 | 00:00:00 | |
| ATIDSZ-14 | 2026-08-31 05:44:41 | 48.74741 | 17.65965 | 88° | 91km/h | 9244m | 3.6m/s | -35.2°C | 0% | 0hPa | 0V | 00:00:00 | 00:00:00 | 00:00:00 | |
| PG1ADW-2 | 2026-08-31 05:44:39 | 48.74740 | 17.65896 | 89° | 91km/h | 9234m | 2.8m/s | 0°C | 0% | 0hPa | 0V | 00:00:00 | 00:00:00 | 00:00:00 | |
| OE3JTB-15 | 2026-08-31 05:44:27 | 48.74740 | 17.65473 | 90° | 89km/h | 9191m | 2.9m/s | 0°C | 0% | 0hPa | 0V | 00:00:00 | 00:00:00 | 00:00:00 | |
| ATIDSZ-14 | 2026-08-31 05:44:21 | 48.74743 | 17.65263 | 93° | 91km/h | 9173m | 3.6m/s | -34.9°C | 0% | 0hPa | 0V | 00:00:00 | 00:00:00 | 00:00:00 | |
| OE5DRO-10 | 2026-08-31 05:44:20 | 48.74743 | 17.65228 | 92° | 89km/h | 9164m | 2.9m/s | 0°C | 0% | 0hPa | 0V | 00:00:00 | 00:00:00 | 00:00:00 | |
| PG1ADW-2 | 2026-08-31 05:44:19 | 48.74744 | 17.65193 | 91° | 88km/h | 9161m | 4.2m/s | 0°C | 0% | 0hPa | 0V | 00:00:00 | 00:00:00 | 00:00:00 | |
| OE5DRO-10 | 2026-08-31 05:44:01 | 48.74743 | 17.64584 | 89° | 86km/h | 9096m | 4.0m/s | 0°C | 0% | 0hPa | 0V | 00:00:00 | 00:00:00 | 00:00:00 | |
| ATIDSZ-14 | 2026-08-31 05:44:00 | 48.74743 | 17.64551 | 90° | 88km/h | 9096m | 4.1m/s | -34.3°C | 0% | 0hPa | 0V | 00:00:00 | 00:00:00 | 00:00:00 | |
| PG1ADW-2 | 2026-08-31 05:43:59 | 48.74742 | 17.64517 | 88° | 84km/h | 9089m | 3.9m/s | 0°C | 0% | 0hPa | 0V | 00:00:00 | 00:00:00 | 00:00:00 | |
| OE3JTB-15 | 2026-08-31 05:43:58 | 48.74742 | 17.64485 | 88° | 84km/h | 9086m | 2.8m/s | 0°C | 0% | 0hPa | 0V | 00:00:00 | 00:00:00 | 00:00:00 | |
| OE5DRO-10 | 2026-08-31 05:43:42 | 48.74724 | 17.63968 | 86° | 84km/h | 9028m | 3.3m/s | 0°C | 0% | 0hPa | 0V | 00:00:00 | 00:00:00 | 00:00:00 | |
| ATIDSZ-14 | 2026-08-31 05:43:40 | 48.74721 | 17.63902 | 87° | 86km/h | 9025m | 3.7m/s | -33.8°C | 0% | 0hPa | 0V | 00:00:00 | 00:00:00 | 00:00:00 | |
| PG1ADW-2 | 2026-08-31 05:43:39 | 48.74719 | 17.63869 | 86° | 84km/h | 9018m | 3.3m/s | 0°C | 0% | 0hPa | 0V | 00:00:00 | 00:00:00 | 00:00:00 | |
| OE3JTB-15 | 2026-08-31 05:43:29 | 48.74702 | 17.63548 | 86° | 80km/h | 8981m | 3.2m/s | 0°C | 0% | 0hPa | 0V | 00:00:00 | 00:00:00 | 00:00:00 | |
| OE5DRO-10 | 2026-08-31 05:43:22 | 48.74688 | 17.63325 | 85° | 80km/h | 8957m | 3.9m/s | 0°C | 0% | 0hPa | 0V | 00:00:00 | 00:00:00 | 00:00:00 | |
| PG1ADW-2 | 2026-08-31 05:43:19 | 48.74684 | 17.63233 | 87° | 80km/h | 8945m | 4.0m/s | 0°C | 0% | 0hPa | 0V | 00:00:00 | 00:00:00 | 00:00:00 | |
| OE5DRO-10 | 2026-08-31 05:43:03 | 48.74661 | 17.62741 | 86° | 78km/h | 8887m | 3.6m/s | 0°C | 0% | 0hPa | 0V | 00:00:00 | 00:00:00 | 00:00:00 | |
| OE3JTB-15 | 2026-08-31 05:43:00 | 48.74655 | 17.62651 | 84° | 78km/h | 8875m | 4.5m/s | 0°C | 0% | 0hPa | 0V | 00:00:00 | 00:00:00 | 00:00:00 | |
| PG1ADW-2 | 2026-08-31 05:42:59 | 48.74653 | 17.62621 | 86° | 78km/h | 8871m | 3.4m/s | 0°C | 0% | 0hPa | 0V | 00:00:00 | 00:00:00 | 00:00:00 | |
| OE5DRO-10 | 2026-08-31 05:42:44 | 48.74631 | 17.62172 | 87° | 77km/h | 8816m | 4.0m/s | 0°C | 0% | 0hPa | 0V | 00:00:00 | 00:00:00 | 00:00:00 | |
| PG1ADW-2 | 2026-08-31 05:42:39 | 48.74623 | 17.62024 | 84° | 75km/h | 8797m | 4.7m/s | 0°C | 0% | 0hPa | 0V | 00:00:00 | 00:00:00 | 00:00:00 | |
| ATIDSZ-14 | 2026-08-31 05:42:38 | 48.74621 | 17.61995 | 83° | 75km/h | 8797m | 4.7m/s | -32.4°C | 0% | 0hPa | 0V | 00:00:00 | 00:00:00 | 00:00:00 | |
| OE3JTB-15 | 2026-08-31 05:42:31 | 48.74603 | 17.61790 | 83° | 75km/h | 8767m | 4.5m/s | 0°C | 0% | 0hPa | 0V | 00:00:00 | 00:00:00 | 00:00:00 | |
| OE5DRO-10 | 2026-08-31 05:42:25 | 48.74589 | 17.61619 | 82° | 73km/h | 8743m | 3.7m/s | 0°C | 0% | 0hPa | 0V | 00:00:00 | 00:00:00 | 00:00:00 | |
| PG1ADW-2 | 2026-08-31 05:42:19 | 48.74570 | 17.61450 | 81° | 75km/h | 8721m | 3.1m/s | 0°C | 0% | 0hPa | 0V | 00:00:00 | 00:00:00 | 00:00:00 | |
| ATIDSZ-14 | 2026-08-31 05:42:18 | 48.74566 | 17.61423 | 81° | 73km/h | 8721m | 3.2m/s | -31.9°C | 0% | 0hPa | 0V | 00:00:00 | 00:00:00 | 00:00:00 | |
| OE5DRO-10 | 2026-08-31 05:42:06 | 48.74532 | 17.61090 | 83° | 75km/h | 8671m | 3.5m/s | 0°C | 0% | 0hPa | 0V | 00:00:00 | 00:00:00 | 00:00:00 | |
| OE3JTB-15 | 2026-08-31 05:42:02 | 48.74525 | 17.60973 | 86° | 73km/h | 8655m | 3.9m/s | 0°C | 0% | 0hPa | 0V | 00:00:00 | 00:00:00 | 00:00:00 | |
| PG1ADW-2 | 2026-08-31 05:41:59 | 48.74521 | 17.60888 | 85° | 73km/h | 8644m | 4.1m/s | 0°C | 0% | 0hPa | 0V | 00:00:00 | 00:00:00 | 00:00:00 | |
| ATIDSZ-14 | 2026-08-31 05:41:57 | 48.74517 | 17.60831 | 83° | 73km/h | 8640m | 3.0m/s | -31.6°C | 0% | 0hPa | 0V | 00:00:00 | 00:00:00 | 00:00:00 | |
| OE5DRO-10 | 2026-08-31 05:41:47 | 48.74495 | 17.60548 | 83° | 73km/h | 8601m | 3.8m/s | 0°C | 0% | 0hPa | 0V | 00:00:00 | 00:00:00 | 00:00:00 | |
| PG1ADW-2 | 2026-08-31 05:41:39 | 48.74481 | 17.60327 | 85° | 71km/h | 8572m | 3.4m/s | 0°C | 0% | 0hPa | 0V | 00:00:00 | 00:00:00 | 00:00:00 | |
| ATIDSZ-14 | 2026-08-31 05:41:37 | 48.74475 | 17.60245 | 83° | 69km/h | 8565m | 2.8m/s | -31.0°C | 0% | 0hPa | 0V | 00:00:00 | 00:00:00 | 00:00:00 | |
| OE3JTB-15 | 2026-08-31 05:41:33 | 48.74468 | 17.60167 | 84° | 69km/h | 8549m | 3.8m/s | 0°C | 0% | 0hPa | 0V | 00:00:00 | 00:00:00 | 00:00:00 | |
| OE5DRO-10 | 2026-08-31 05:41:28 | 48.74457 | 17.60027 | 82° | 68km/h | 8530m | 3.8m/s | 0°C | 0% | 0hPa | 0V | 00:00:00 | 00:00:00 | 00:00:00 | |
| PG1ADW-2 | 2026-08-31 05:41:19 | 48.74437 | 17.59791 | 85° | 68km/h | 8496m | 3.5m/s | 0°C | 0% | 0hPa | 0V | 00:00:00 | 00:00:00 | 00:00:00 | |
| ATIDSZ-14 | 2026-08-31 05:41:16 | 48.74431 | 17.59713 | 85° | 68km/h | 8488m | 4.1m/s | -30.4°C | 0% | 0hPa | 0V | 00:00:00 | 00:00:00 | 00:00:00 | |
| OE5DRO-10 | 2026-08-31 05:41:09 | 48.74417 | 17.59535 | 82° | 66km/h | 8455m | 3.6m/s | 0°C | 0% | 0hPa | 0V | 00:00:00 | 00:00:00 | 00:00:00 | |
| OE3JTB-15 | 2026-08-31 05:41:04 | 48.74404 | 17.59408 | 80° | 62km/h | 8434m | 4.0m/s | 0°C | 0% | 0hPa | 0V | 00:00:00 | 00:00:00 | 00:00:00 | |
| PG1ADW-2 | 2026-08-31 05:40:59 | 48.74391 | 17.59286 | 84° | 62km/h | 8415m | 4.3m/s | 0°C | 0% | 0hPa | 0V | 00:00:00 | 00:00:00 | 00:00:00 | |
| ATIDSZ-14 | 2026-08-31 05:40:56 | 48.74382 | 17.59190 | 81° | 64km/h | 8403m | 4.2m/s | -29.7°C | 0% | 0hPa | 0V | 00:00:00 | 00:00:00 | 00:00:00 | |
| OE5DRO-10 | 2026-08-31 05:40:50 | 48.74368 | 17.59069 | 83° | 60km/h | 8379m | 3.5m/s | 0°C | 0% | 0hPa | 0V | 00:00:00 | 00:00:00 | 00:00:00 | |
| PG1ADW-2 | 2026-08-31 05:40:39 | 48.74338 | 17.58818 | 79° | 60km/h | 8335m | 3.2m/s | 0°C | 0% | 0hPa | 0V | 00:00:00 | 00:00:00 | 00:00:00 | |
| OE3JTB-15 | 2026-08-31 05:40:35 | 48.74327 | 17.58727 | 82° | 60km/h | 8320m | 3.9m/s | 0°C | 0% | 0hPa | 0V | 00:00:00 | 00:00:00 | 00:00:00 | |
| OE5DRO-10 | 2026-08-31 05:40:31 | 48.74316 | 17.58633 | 78° | 60km/h | 8305m | 3.3m/s | 0°C | 0% | 0hPa | 0V | 00:00:00 | 00:00:00 | 00:00:00 | |
| PG1ADW-2 | 2026-08-31 05:40:19 | 48.74279 | 17.58361 | 76° | 62km/h | 8257m | 4.8m/s | 0°C | 0% | 0hPa | 0V | 00:00:00 | 00:00:00 | 00:00:00 | |
| ATIDSZ-14 | 2026-08-31 05:40:15 | 48.74265 | 17.58249 | 82° | 60km/h | 8241m | 3.3m/s | -28.3°C | 0% | 0hPa | 0V | 00:00:00 | 00:00:00 | 00:00:00 | |
| OE3JTB-15 | 2026-08-31 05:40:06 | 48.74242 | 17.58066 | 80° | 64km/h | 8206m | 3.4m/s | 0°C | 0% | 0hPa | 0V | 00:00:00 | 00:00:00 | 00:00:00 | |
| PG1ADW-2 | 2026-08-31 05:39:59 | 48.74221 | 17.57901 | 79° | 64km/h | 8179m | 3.7m/s | 0°C | 0% | 0hPa | 0V | 00:00:00 | 00:00:00 | 00:00:00 | |
| ATIDSZ-14 | 2026-08-31 05:39:54 | 48.74208 | 17.57784 | 82° | 64km/h | 8162m | 4.7m/s | -27.7°C | 0% | 0hPa | 0V | 00:00:00 | 00:00:00 | 00:00:00 | |
| OE5DRO-10 | 2026-08-31 05:39:53 | 48.74205 | 17.57760 | 81° | 66km/h | 8155m | 3.3m/s | 0°C | 0% | 0hPa | 0V | 00:00:00 | 00:00:00 | 00:00:00 | |
| PG1ADW-2 | 2026-08-31 05:39:39 | 48.74160 | 17.57420 | 81° | 66km/h | 8101m | 4.4m/s | 0°C | 0% | 0hPa | 0V | 00:00:00 | 00:00:00 | 00:00:00 | |
| OE3JTB-15 | 2026-08-31 05:39:37 | 48.74154 | 17.57369 | 81° | 68km/h | 8093m | 3.2m/s | 0°C | 0% | 0hPa | 0V | 00:00:00 | 00:00:00 | 00:00:00 | |
| OE5DRO-10 | 2026-08-31 05:39:34 | 48.74145 | 17.57295 | 80° | 68km/h | 8081m | 3.2m/s | 0°C | 0% | 0hPa | 0V | 00:00:00 | 00:00:00 | 00:00:00 | |
| ATIDSZ-14 | 2026-08-31 05:39:33 | 48.74142 | 17.57270 | 80° | 64km/h | 8081m | 3.2m/s | -27.0°C | 0% | 0hPa | 0V | 00:00:00 | 00:00:00 | 00:00:00 | |
| PG1ADW-2 | 2026-08-31 05:39:19 | 48.74096 | 17.56919 | 79° | 69km/h | 8023m | 3.5m/s | 0°C | 0% | 0hPa | 0V | 00:00:00 | 00:00:00 | 00:00:00 | |
| OE5DRO-10 | 2026-08-31 05:39:15 | 48.74081 | 17.56811 | 79° | 69km/h | 8006m | 3.9m/s | 0°C | 0% | 0hPa | 0V | 00:00:00 | 00:00:00 | 00:00:00 | |
| ATIDSZ-14 | 2026-08-31 05:39:13 | 48.74073 | 17.56759 | 79° | 69km/h | 8003m | 3.2m/s | -26.3°C | 0% | 0hPa | 0V | 00:00:00 | 00:00:00 | 00:00:00 | |
| OE3JTB-15 | 2026-08-31 05:39:08 | 48.74057 | 17.56635 | 80° | 69km/h | 7979m | 3.6m/s | 0°C | 0% | 0hPa | 0V | 00:00:00 | 00:00:00 | 00:00:00 | |
| PG1ADW-2 | 2026-08-31 05:38:59 | 48.74024 | 17.56397 | 76° | 68km/h | 7946m | 4.2m/s | 0°C | 0% | 0hPa | 0V | 00:00:00 | 00:00:00 | 00:00:00 | |
| OE5DRO-10 | 2026-08-31 05:38:56 | 48.74013 | 17.56323 | 78° | 68km/h | 7936m | 3.8m/s | 0°C | 0% | 0hPa | 0V | 00:00:00 | 00:00:00 | 00:00:00 | |
| ATIDSZ-14 | 2026-08-31 05:38:52 | 48.73999 | 17.56220 | 79° | 69km/h | 7923m | 4.8m/s | -25.7°C | 0% | 0hPa | 0V | 00:00:00 | 00:00:00 | 00:00:00 | |
| PG1ADW-2 | 2026-08-31 05:38:39 | 48.73949 | 17.55892 | 78° | 68km/h | 7868m | 4.0m/s | 0°C | 0% | 0hPa | 0V | 00:00:00 | 00:00:00 | 00:00:00 | |
| OE5DRO-10 | 2026-08-31 05:38:37 | 48.73941 | 17.55842 | 78° | 68km/h | 7860m | 4.8m/s | 0°C | 0% | 0hPa | 0V | 00:00:00 | 00:00:00 | 00:00:00 | |
| ATIDSZ-14 | 2026-08-31 05:38:32 | 48.73922 | 17.55716 | 79° | 68km/h | 7844m | 3.0m/s | -24.9°C | 0% | 0hPa | 0V | 00:00:00 | 00:00:00 | 00:00:00 | |
| PG1ADW-2 | 2026-08-31 05:38:19 | 48.73872 | 17.55390 | 79° | 68km/h | 7794m | 4.0m/s | 0°C | 0% | 0hPa | 0V | 00:00:00 | 00:00:00 | 00:00:00 | |
| OE5DRO-10 | 2026-08-31 05:38:18 | 48.73869 | 17.55365 | 79° | 68km/h | 7787m | 4.0m/s | 0°C | 0% | 0hPa | 0V | 00:00:00 | 00:00:00 | 00:00:00 | |
| ATIDSZ-14 | 2026-08-31 05:38:11 | 48.73841 | 17.55188 | 77° | 69km/h | 7764m | 3.0m/s | -24.3°C | 0% | 0hPa | 0V | 00:00:00 | 00:00:00 | 00:00:00 | |
| OE3JTB-15 | 2026-08-31 05:38:10 | 48.73837 | 17.55162 | 79° | 66km/h | 7756m | 3.0m/s | 0°C | 0% | 0hPa | 0V | 00:00:00 | 00:00:00 | 00:00:00 | |
| OE5DRO-10 | 2026-08-31 05:37:59 | 48.73796 | 17.54884 | 77° | 66km/h | 7714m | 4.1m/s | 0°C | 0% | 0hPa | 0V | 00:00:00 | 00:00:00 | 00:00:00 | |
| PG1ADW-2 | 2026-08-31 05:37:57 | 48.73789 | 17.54833 | 78° | 66km/h | 7706m | 3.4m/s | 0°C | 0% | 0hPa | 0V | 00:00:00 | 00:00:00 | 00:00:00 | |
| ATIDSZ-14 | 2026-08-31 05:37:51 | 48.73768 | 17.54688 | 78° | 69km/h | 7687m | 4.2m/s | -23.9°C | 0% | 0hPa | 0V | 00:00:00 | 00:00:00 | 00:00:00 | |
| OE3JTB-15 | 2026-08-31 05:37:41 | 48.73734 | 17.54446 | 76° | 60km/h | 7643m | 4.6m/s | 0°C | 0% | 0hPa | 0V | 00:00:00 | 00:00:00 | 00:00:00 | |
| OE5DRO-10 | 2026-08-31 05:37:40 | 48.73731 | 17.54426 | 78° | 62km/h | 7637m | 5.8m/s | 0°C | 0% | 0hPa | 0V | 00:00:00 | 00:00:00 | 00:00:00 | |
| PG1ADW-2 | 2026-08-31 05:37:37 | 48.73720 | 17.54347 | 80° | 60km/h | 7623m | 4.2m/s | 0°C | 0% | 0hPa | 0V | 00:00:00 | 00:00:00 | 00:00:00 | |
| ATIDSZ-14 | 2026-08-31 05:37:30 | 48.73690 | 17.54192 | 73° | 58km/h | 7593m | 3.1m/s | -23.5°C | 0% | 0hPa | 0V | 00:00:00 | 00:00:00 | 00:00:00 | |
| OE5DRO-10 | 2026-08-31 05:37:21 | 48.73648 | 17.53999 | 72° | 62km/h | 7551m | 2.4m/s | 0°C | 0% | 0hPa | 0V | 00:00:00 | 00:00:00 | 00:00:00 | |
| PG1ADW-2 | 2026-08-31 05:37:17 | 48.73630 | 17.53910 | 73° | 62km/h | 7536m | 4.9m/s | 0°C | 0% | 0hPa | 0V | 00:00:00 | 00:00:00 | 00:00:00 | |
| OE3JTB-15 | 2026-08-31 05:37:12 | 48.73607 | 17.53797 | 74° | 64km/h | 7514m | 4.6m/s | 0°C | 0% | 0hPa | 0V | 00:00:00 | 00:00:00 | 00:00:00 | |
| ATIDSZ-14 | 2026-08-31 05:37:10 | 48.73599 | 17.53753 | 76° | 58km/h | 7510m | 3.7m/s | -22.9°C | 0% | 0hPa | 0V | 00:00:00 | 00:00:00 | 00:00:00 | |
| OE5DRO-10 | 2026-08-31 05:37:02 | 48.73562 | 17.53569 | 75° | 64km/h | 7473m | 4.0m/s | 0°C | 0% | 0hPa | 0V | 00:00:00 | 00:00:00 | 00:00:00 | |
| PG1ADW-2 | 2026-08-31 05:36:57 | 48.73541 | 17.53450 | 73° | 64km/h | 7452m | 3.4m/s | 0°C | 0% | 0hPa | 0V | 00:00:00 | 00:00:00 | 00:00:00 | |
| ATIDSZ-14 | 2026-08-31 05:36:49 | 48.73505 | 17.53264 | 75° | 66km/h | 7423m | 2.9m/s | -22.1°C | 0% | 0hPa | 0V | 00:00:00 | 00:00:00 | 00:00:00 | |
| OE5DRO-10 | 2026-08-31 05:36:43 | 48.73477 | 17.53123 | 72° | 64km/h | 7397m | 3.9m/s | 0°C | 0% | 0hPa | 0V | 00:00:00 | 00:00:00 | 00:00:00 | |
| PG1ADW-2 | 2026-08-31 05:36:37 | 48.73449 | 17.52985 | 75° | 66km/h | 7373m | 4.5m/s | 0°C | 0% | 0hPa | 0V | 00:00:00 | 00:00:00 | 00:00:00 | |
| ATIDSZ-14 | 2026-08-31 05:36:28 | 48.73403 | 17.52776 | 74° | 66km/h | 7342m | 3.4m/s | -21.5°C | 0% | 0hPa | 0V | 00:00:00 | 00:00:00 | 00:00:00 | |
| OE5DRO-10 | 2026-08-31 05:36:24 | 48.73384 | 17.52680 | 74° | 66km/h | 7321m | 4.0m/s | 0°C | 0% | 0hPa | 0V | 00:00:00 | 00:00:00 | 00:00:00 | |
| OM5KV | 2026-08-31 05:36:23 | 48.73380 | 17.52656 | 74° | 66km/h | 7321m | 4.1m/s | -21.3°C | 0% | 0hPa | 0V | 00:00:00 | 00:00:00 | 00:00:00 | |
| PG1ADW-2 | 2026-08-31 05:36:16 | 48.73343 | 17.52489 | 73° | 66km/h | 7289m | 3.7m/s | 0°C | 0% | 0hPa | 0V | 00:00:00 | 00:00:00 | 00:00:00 | |
| OE3JTB-15 | 2026-08-31 05:36:14 | 48.73334 | 17.52442 | 73° | 66km/h | 7281m | 4.3m/s | 0°C | 0% | 0hPa | 0V | 00:00:00 | 00:00:00 | 00:00:00 | |
| OM5KV | 2026-08-31 05:36:12 | 48.73324 | 17.52393 | 75° | 68km/h | 7277m | 3.2m/s | -20.8°C | 0% | 0hPa | 0V | 00:00:00 | 00:00:00 | 00:00:00 | |
| ATIDSZ-14 | 2026-08-31 05:36:08 | 48.73304 | 17.52296 | 74° | 66km/h | 7262m | 3.7m/s | -20.7°C | 0% | 0hPa | 0V | 00:00:00 | 00:00:00 | 00:00:00 | |
| OE5DRO-10 | 2026-08-31 05:36:05 | 48.73288 | 17.52223 | 73° | 66km/h | 7247m | 3.3m/s | 0°C | 0% | 0hPa | 0V | 00:00:00 | 00:00:00 | 00:00:00 | |
| OM5KV | 2026-08-31 05:36:02 | 48.73274 | 17.52149 | 76° | 68km/h | 7238m | 4.9m/s | -20.5°C | 0% | 0hPa | 0V | 00:00:00 | 00:00:00 | 00:00:00 | |
| OM5KV | 2026-08-31 05:35:58 | 48.73250 | 17.52027 | 73° | 68km/h | 7218m | 5.2m/s | -20.3°C | 0% | 0hPa | 0V | 00:00:00 | 00:00:00 | 00:00:00 | |
| PG1ADW-2 | 2026-08-31 05:35:56 | 48.73245 | 17.52003 | 72° | 66km/h | 7210m | 4.1m/s | 0°C | 0% | 0hPa | 0V | 00:00:00 | 00:00:00 | 00:00:00 | |
| ATIDSZ-14 | 2026-08-31 05:35:47 | 48.73202 | 17.51784 | 74° | 68km/h | 7178m | 5.3m/s | -19.9°C | 0% | 0hPa | 0V | 00:00:00 | 00:00:00 | 00:00:00 | |
| OE5DRO-10 | 2026-08-31 05:35:46 | 48.73197 | 17.51759 | 74° | 66km/h | 7170m | 3.0m/s | 0°C | 0% | 0hPa | 0V | 00:00:00 | 00:00:00 | 00:00:00 | |
| OE3JTB-15 | 2026-08-31 05:35:45 | 48.73192 | 17.51734 | 74° | 66km/h | 7166m | 4.6m/s | 0°C | 0% | 0hPa | 0V | 00:00:00 | 00:00:00 | 00:00:00 | |
| OM5KV | 2026-08-31 05:35:40 | 48.73168 | 17.51611 | 75° | 64km/h | 7151m | 4.5m/s | -19.6°C | 0% | 0hPa | 0V | 00:00:00 | 00:00:00 | 00:00:00 | |
| PG1ADW-2 | 2026-08-31 05:35:36 | 48.73150 | 17.51517 | 72° | 66km/h | 7131m | 3.9m/s | 0°C | 0% | 0hPa | 0V | 00:00:00 | 00:00:00 | 00:00:00 | |
| OE5DRO-10 | 2026-08-31 05:35:27 | 48.73103 | 17.51299 | 76° | 64km/h | 7095m | 4.0m/s | 0°C | 0% | 0hPa | 0V | 00:00:00 | 00:00:00 | 00:00:00 | |
| OM5KV | 2026-08-31 05:35:22 | 48.73083 | 17.51180 | 77° | 66km/h | 7080m | 3.9m/s | -19.0°C | 0% | 0hPa | 0V | 00:00:00 | 00:00:00 | 00:00:00 | |
| OM5KV | 2026-08-31 05:35:20 | 48.73074 | 17.51132 | 74° | 68km/h | 7073m | 3.7m/s | -18.9°C | 0% | 0hPa | 0V | 00:00:00 | 00:00:00 | 00:00:00 | |
| OE3JTB-15 | 2026-08-31 05:35:16 | 48.73055 | 17.51034 | 73° | 62km/h | 7052m | 4.0m/s | 0°C | 0% | 0hPa | 0V | 00:00:00 | 00:00:00 | 00:00:00 | |
| OM5KV | 2026-08-31 05:35:14 | 48.73045 | 17.50987 | 72° | 66km/h | 7049m | 3.3m/s | -18.7°C | 0% | 0hPa | 0V | 00:00:00 | 00:00:00 | 00:00:00 | |
| OM5KV | 2026-08-31 05:35:13 | 48.73035 | 17.50941 | 73° | 62km/h | 7040m | 4.1m/s | -18.6°C | 0% | 0hPa | 0V | 00:00:00 | 00:00:00 | 00:00:00 | |
| OM5KV | 2026-08-31 05:35:09 | 48.73016 | 17.50849 | 73° | 62km/h | 7023m | 3.3m/s | -18.5°C | 0% | 0hPa | 0V | 00:00:00 | 00:00:00 | 00:00:00 | |
| OE5DRO-10 | 2026-08-31 05:35:08 | 48.73016 | 17.50849 | 73° | 60km/h | 7020m | 4.4m/s | 0°C | 0% | 0hPa | 0V | 00:00:00 | 00:00:00 | 00:00:00 | |
| OM5KV | 2026-08-31 05:35:07 | 48.73011 | 17.50827 | 74° | 62km/h | 7020m | 4.4m/s | -18.5°C | 0% | 0hPa | 0V | 00:00:00 | 00:00:00 | 00:00:00 | |
| ATIDSZ-14 | 2026-08-31 05:35:06 | 48.73007 | 17.50804 | 74° | 62km/h | 7015m | 4.5m/s | -18.4°C | 0% | 0hPa | 0V | 00:00:00 | 00:00:00 | 00:00:00 | |
| OM5KV | 2026-08-31 05:35:02 | 48.72989 | 17.50715 | 74° | 60km/h | 6999m | 3.5m/s | -18.3°C | 0% | 0hPa | 0V | 00:00:00 | 00:00:00 | 00:00:00 | |
| OM5KV | 2026-08-31 05:35:01 | 48.72984 | 17.50692 | 73° | 62km/h | 6995m | 5.1m/s | -18.3°C | 0% | 0hPa | 0V | 00:00:00 | 00:00:00 | 00:00:00 | |
| PG1ADW-2 | 2026-08-31 05:34:56 | 48.72958 | 17.50582 | 70° | 58km/h | 6969m | 4.6m/s | 0°C | 0% | 0hPa | 0V | 00:00:00 | 00:00:00 | 00:00:00 | |
| OM5KV | 2026-08-31 05:34:55 | 48.72953 | 17.50561 | 70° | 58km/h | 6969m | 4.6m/s | -18.2°C | 0% | 0hPa | 0V | 00:00:00 | 00:00:00 | 00:00:00 | |
| OE5DRO-10 | 2026-08-31 05:34:49 | 48.72923 | 17.50432 | 74° | 60km/h | 6942m | 3.4m/s | 0°C | 0% | 0hPa | 0V | 00:00:00 | 00:00:00 | 00:00:00 | |
| OE3JTB-15 | 2026-08-31 05:34:47 | 48.72915 | 17.50389 | 75° | 60km/h | 6934m | 3.5m/s | 0°C | 0% | 0hPa | 0V | 00:00:00 | 00:00:00 | 00:00:00 | |
| ATIDSZ-14 | 2026-08-31 05:34:46 | 48.72911 | 17.50368 | 73° | 58km/h | 6934m | 3.6m/s | -18.3°C | 0% | 0hPa | 0V | 00:00:00 | 00:00:00 | 00:00:00 | |
| OM5KV | 2026-08-31 05:34:44 | 48.72902 | 17.50325 | 73° | 60km/h | 6925m | 4.0m/s | -18.2°C | 0% | 0hPa | 0V | 00:00:00 | 00:00:00 | 00:00:00 | |
| OM5KV | 2026-08-31 05:34:38 | 48.72872 | 17.50195 | 74° | 57km/h | 6903m | 4.1m/s | -18.2°C | 0% | 0hPa | 0V | 00:00:00 | 00:00:00 | 00:00:00 | |
| PG1ADW-2 | 2026-08-31 05:34:36 | 48.72864 | 17.50152 | 75° | 60km/h | 6892m | 3.6m/s | 0°C | 0% | 0hPa | 0V | 00:00:00 | 00:00:00 | 00:00:00 | |
| OM5KV | 2026-08-31 05:34:33 | 48.72849 | 17.50086 | 72° | 62km/h | 6885m | 3.8m/s | -18.0°C | 0% | 0hPa | 0V | 00:00:00 | 00:00:00 | 00:00:00 | |
| OM5KV | 2026-08-31 05:34:32 | 48.72844 | 17.50064 | 71° | 64km/h | 6881m | 4.0m/s | -18.0°C | 0% | 0hPa | 0V | 00:00:00 | 00:00:00 | 00:00:00 | |
| OE5DRO-10 | 2026-08-31 05:34:30 | 48.72833 | 17.50018 | 70° | 57km/h | 6869m | 3.2m/s | 0°C | 0% | 0hPa | 0V | 00:00:00 | 00:00:00 | 00:00:00 | |
| OM5KV | 2026-08-31 05:34:26 | 48.72813 | 17.49930 | 76° | 57km/h | 6858m | 4.0m/s | -17.8°C | 0% | 0hPa | 0V | 00:00:00 | 00:00:00 | 00:00:00 | |
| ATIDSZ-14 | 2026-08-31 05:34:25 | 48.72810 | 17.49909 | 74° | 55km/h | 6853m | 5.2m/s | -17.8°C | 0% | 0hPa | 0V | 00:00:00 | 00:00:00 | 00:00:00 | |
| OM5KV | 2026-08-31 05:34:21 | 48.72790 | 17.49829 | 68° | 58km/h | 6837m | 3.8m/s | -17.7°C | 0% | 0hPa | 0V | 00:00:00 | 00:00:00 | 00:00:00 | |
| OM5KV | 2026-08-31 05:34:20 | 48.72784 | 17.49808 | 69° | 60km/h | 6833m | 4.3m/s | -17.7°C | 0% | 0hPa | 0V | 00:00:00 | 00:00:00 | 00:00:00 | |
| OE3JTB-15 | 2026-08-31 05:34:18 | 48.72773 | 17.49765 | 68° | 53km/h | 6821m | 3.6m/s | 0°C | 0% | 0hPa | 0V | 00:00:00 | 00:00:00 | 00:00:00 | |
| OM5KV | 2026-08-31 05:34:14 | 48.72753 | 17.49685 | 71° | 53km/h | 6809m | 4.7m/s | -17.4°C | 0% | 0hPa | 0V | 00:00:00 | 00:00:00 | 00:00:00 | |
| OE5DRO-10 | 2026-08-31 05:34:11 | 48.72740 | 17.49628 | 70° | 53km/h | 6793m | 3.3m/s | 0°C | 0% | 0hPa | 0V | 00:00:00 | 00:00:00 | 00:00:00 | |
| OM5KV | 2026-08-31 05:34:10 | 48.72735 | 17.49608 | 71° | 53km/h | 6793m | 3.3m/s | -17.3°C | 0% | 0hPa | 0V | 00:00:00 | 00:00:00 | 00:00:00 | |
| OM5KV | 2026-08-31 05:34:08 | 48.72727 | 17.49569 | 73° | 55km/h | 6785m | 3.9m/s | -17.2°C | 0% | 0hPa | 0V | 00:00:00 | 00:00:00 | 00:00:00 | |
| ATIDSZ-14 | 2026-08-31 05:34:05 | 48.72713 | 17.49510 | 72° | 55km/h | 6771m | 3.3m/s | -17.1°C | 0% | 0hPa | 0V | 00:00:00 | 00:00:00 | 00:00:00 | |
| OM5KV | 2026-08-31 05:34:03 | 48.72704 | 17.49471 | 69° | 53km/h | 6762m | 3.4m/s | -17.1°C | 0% | 0hPa | 0V | 00:00:00 | 00:00:00 | 00:00:00 | |
| OM5KV | 2026-08-31 05:34:00 | 48.72686 | 17.49397 | 69° | 51km/h | 6744m | 4.1m/s | -17.1°C | 0% | 0hPa | 0V | 00:00:00 | 00:00:00 | 00:00:00 | |
| OM5KV | 2026-08-31 05:33:58 | 48.72676 | 17.49361 | 70° | 53km/h | 6736m | 3.0m/s | -16.9°C | 0% | 0hPa | 0V | 00:00:00 | 00:00:00 | 00:00:00 | |
| OM5KV | 2026-08-31 05:33:53 | 48.72655 | 17.49288 | 66° | 51km/h | 6720m | 4.3m/s | -16.8°C | 0% | 0hPa | 0V | 00:00:00 | 00:00:00 | 00:00:00 | |
| OE5DRO-10 | 2026-08-31 05:33:52 | 48.72650 | 17.49271 | 69° | 53km/h | 6712m | 3.8m/s | 0°C | 0% | 0hPa | 0V | 00:00:00 | 00:00:00 | 00:00:00 | |
| OE3JTB-15 | 2026-08-31 05:33:49 | 48.72636 | 17.49213 | 69° | 53km/h | 6700m | 3.3m/s | 0°C | 0% | 0hPa | 0V | 00:00:00 | 00:00:00 | 00:00:00 | |
| OM5KV | 2026-08-31 05:33:48 | 48.72630 | 17.49195 | 69° | 53km/h | 6700m | 3.4m/s | -16.6°C | 0% | 0hPa | 0V | 00:00:00 | 00:00:00 | 00:00:00 | |
| OM5KV | 2026-08-31 05:33:46 | 48.72621 | 17.49155 | 71° | 57km/h | 6692m | 3.5m/s | -16.6°C | 0% | 0hPa | 0V | 00:00:00 | 00:00:00 | 00:00:00 | |
| ATIDSZ-14 | 2026-08-31 05:33:44 | 48.72612 | 17.49117 | 73° | 53km/h | 6684m | 4.4m/s | -16.5°C | 0% | 0hPa | 0V | 00:00:00 | 00:00:00 | 00:00:00 | |
| OM5KV | 2026-08-31 05:33:42 | 48.72604 | 17.49079 | 74° | 49km/h | 6675m | 4.1m/s | -16.5°C | 0% | 0hPa | 0V | 00:00:00 | 00:00:00 | 00:00:00 | |
| OM5KV | 2026-08-31 05:33:40 | 48.72596 | 17.49042 | 73° | 51km/h | 6667m | 3.4m/s | -16.4°C | 0% | 0hPa | 0V | 00:00:00 | 00:00:00 | 00:00:00 | |
| OM5KV | 2026-08-31 05:33:35 | 48.72574 | 17.48947 | 71° | 53km/h | 6647m | 3.2m/s | -16.2°C | 0% | 0hPa | 0V | 00:00:00 | 00:00:00 | 00:00:00 | |
| OE5DRO-10 | 2026-08-31 05:33:33 | 48.72564 | 17.48908 | 72° | 53km/h | 6632m | 4.9m/s | 0°C | 0% | 0hPa | 0V | 00:00:00 | 00:00:00 | 00:00:00 | |
| OM5KV | 2026-08-31 05:33:31 | 48.72556 | 17.48869 | 75° | 55km/h | 6632m | 4.9m/s | -16.0°C | 0% | 0hPa | 0V | 00:00:00 | 00:00:00 | 00:00:00 | |
| OM5KV | 2026-08-31 05:33:30 | 48.72549 | 17.48829 | 73° | 53km/h | 6624m | 3.9m/s | -16.0°C | 0% | 0hPa | 0V | 00:00:00 | 00:00:00 | 00:00:00 | |
| ATIDSZ-14 | 2026-08-31 05:33:24 | 48.72527 | 17.48732 | 72° | 53km/h | 6605m | 3.5m/s | -15.8°C | 0% | 0hPa | 0V | 00:00:00 | 00:00:00 | 00:00:00 | |
| OE3JTB-15 | 2026-08-31 05:33:20 | 48.72510 | 17.48656 | 73° | 55km/h | 6585m | 4.5m/s | 0°C | 0% | 0hPa | 0V | 00:00:00 | 00:00:00 | 00:00:00 | |
| OM5KV | 2026-08-31 05:33:18 | 48.72502 | 17.48618 | 73° | 53km/h | 6581m | 2.9m/s | -15.5°C | 0% | 0hPa | 0V | 00:00:00 | 00:00:00 | 00:00:00 | |
| OE5DRO-10 | 2026-08-31 05:33:14 | 48.72485 | 17.48539 | 76° | 55km/h | 6562m | 2.9m/s | 0°C | 0% | 0hPa | 0V | 00:00:00 | 00:00:00 | 00:00:00 | |
| OM5KV | 2026-08-31 05:33:12 | 48.72478 | 17.48500 | 74° | 53km/h | 6559m | 3.8m/s | -15.3°C | 0% | 0hPa | 0V | 00:00:00 | 00:00:00 | 00:00:00 | |
| OM5KV | 2026-08-31 05:33:08 | 48.72460 | 17.48423 | 69° | 53km/h | 6543m | 3.4m/s | -15.2°C | 0% | 0hPa | 0V | 00:00:00 | 00:00:00 | 00:00:00 | |
| OM5KV | 2026-08-31 05:33:06 | 48.72450 | 17.48384 | 72° | 55km/h | 6536m | 3.8m/s | -15.1°C | 0% | 0hPa | 0V | 00:00:00 | 00:00:00 | 00:00:00 | |
| ATIDSZ-14 | 2026-08-31 05:33:03 | 48.72437 | 17.48326 | 73° | 55km/h | 6524m | 3.5m/s | -15.0°C | 0% | 0hPa | 0V | 00:00:00 | 00:00:00 | 00:00:00 | |
| OM5KV | 2026-08-31 05:33:02 | 48.72433 | 17.48306 | 73° | 53km/h | 6520m | 4.6m/s | -14.9°C | 0% | 0hPa | 0V | 00:00:00 | 00:00:00 | 00:00:00 | |
| OM5KV | 2026-08-31 05:32:59 | 48.72421 | 17.48247 | 72° | 57km/h | 6508m | 3.9m/s | -14.8°C | 0% | 0hPa | 0V | 00:00:00 | 00:00:00 | 00:00:00 | |
| OE5DRO-10 | 2026-08-31 05:32:55 | 48.72401 | 17.48166 | 70° | 55km/h | 6489m | 4.0m/s | 0°C | 0% | 0hPa | 0V | 00:00:00 | 00:00:00 | 00:00:00 | |
| OM5KV | 2026-08-31 05:32:54 | 48.72396 | 17.48146 | 72° | 57km/h | 6489m | 4.0m/s | -14.6°C | 0% | 0hPa | 0V | 00:00:00 | 00:00:00 | 00:00:00 | |
| OE3JTB-15 | 2026-08-31 05:32:51 | 48.72382 | 17.48086 | 70° | 55km/h | 6474m | 4.0m/s | 0°C | 0% | 0hPa | 0V | 00:00:00 | 00:00:00 | 00:00:00 | |
| OM5KV | 2026-08-31 05:32:50 | 48.72378 | 17.48067 | 71° | 55km/h | 6474m | 4.1m/s | -14.5°C | 0% | 0hPa | 0V | 00:00:00 | 00:00:00 | 00:00:00 | |
| OM5KV | 2026-08-31 05:32:48 | 48.72368 | 17.48027 | 71° | 53km/h | 6466m | 3.8m/s | -14.4°C | 0% | 0hPa | 0V | 00:00:00 | 00:00:00 | 00:00:00 | |
| S52SK | 2026-08-31 05:32:47 | 48.72364 | 17.48008 | 72° | 53km/h | 6462m | 4.1m/s | -14.4°C | 0% | 0hPa | 0V | 00:00:00 | 00:00:00 | 00:00:00 | |
| OM5KV | 2026-08-31 05:32:44 | 48.72351 | 17.47949 | 73° | 55km/h | 6452m | 3.3m/s | -14.3°C | 0% | 0hPa | 0V | 00:00:00 | 00:00:00 | 00:00:00 | |
| ATIDSZ-14 | 2026-08-31 05:32:43 | 48.72346 | 17.47929 | 73° | 55km/h | 6448m | 4.6m/s | -14.3°C | 0% | 0hPa | 0V | 00:00:00 | 00:00:00 | 00:00:00 | |
| OM5KV | 2026-08-31 05:32:42 | 48.72342 | 17.47908 | 72° | 57km/h | 6443m | 3.4m/s | -14.2°C | 0% | 0hPa | 0V | 00:00:00 | 00:00:00 | 00:00:00 | |
| OE5DRO-10 | 2026-08-31 05:32:36 | 48.72313 | 17.47790 | 71° | 53km/h | 6416m | 3.5m/s | 0°C | 0% | 0hPa | 0V | 00:00:00 | 00:00:00 | 00:00:00 | |
| OM5KV | 2026-08-31 05:32:33 | 48.72298 | 17.47732 | 70° | 58km/h | 6410m | 3.4m/s | -14.0°C | 0% | 0hPa | 0V | 00:00:00 | 00:00:00 | 00:00:00 | |
| OM5KV | 2026-08-31 05:32:29 | 48.72279 | 17.47645 | 75° | 58km/h | 6394m | 4.4m/s | -13.9°C | 0% | 0hPa | 0V | 00:00:00 | 00:00:00 | 00:00:00 | |
| OM5KV | 2026-08-31 05:32:28 | 48.72275 | 17.47624 | 74° | 53km/h | 6391m | 2.6m/s | -13.8°C | 0% | 0hPa | 0V | 00:00:00 | 00:00:00 | 00:00:00 | |
| OE3JTB-15 | 2026-08-31 05:32:22 | 48.72249 | 17.47519 | 69° | 51km/h | 6360m | 3.9m/s | 0°C | 0% | 0hPa | 0V | 00:00:00 | 00:00:00 | 00:00:00 | |
| OM5KV | 2026-08-31 05:32:18 | 48.72231 | 17.47442 | 69° | 57km/h | 6349m | 4.8m/s | -13.5°C | 0% | 0hPa | 0V | 00:00:00 | 00:00:00 | 00:00:00 | |
| OE5DRO-10 | 2026-08-31 05:32:17 | 48.72226 | 17.47423 | 68° | 51km/h | 6340m | 3.3m/s | 0°C | 0% | 0hPa | 0V | 00:00:00 | 00:00:00 | 00:00:00 | |
| OM5KV | 2026-08-31 05:32:16 | 48.72221 | 17.47405 | 69° | 51km/h | 6340m | 3.3m/s | -13.4°C | 0% | 0hPa | 0V | 00:00:00 | 00:00:00 | 00:00:00 | |
| OM5KV | 2026-08-31 05:32:10 | 48.72195 | 17.47295 | 70° | 51km/h | 6317m | 4.2m/s | -13.2°C | 0% | 0hPa | 0V | 00:00:00 | 00:00:00 | 00:00:00 | |
| ATIDSZ-14 | 2026-08-31 05:32:02 | 48.72151 | 17.47156 | 69° | 51km/h | 6289m | 4.2m/s | -13.1°C | 0% | 0hPa | 0V | 00:00:00 | 00:00:00 | 00:00:00 | |
| OM5KV | 2026-08-31 05:32:01 | 48.72146 | 17.47138 | 68° | 49km/h | 6285m | 3.3m/s | -13.1°C | 0% | 0hPa | 0V | 00:00:00 | 00:00:00 | 00:00:00 | |
| OE5DRO-10 | 2026-08-31 05:31:58 | 48.72131 | 17.47086 | 66° | 47km/h | 6272m | 4.9m/s | 0°C | 0% | 0hPa | 0V | 00:00:00 | 00:00:00 | 00:00:00 | |
| OM5KV | 2026-08-31 05:31:57 | 48.72125 | 17.47071 | 65° | 44km/h | 6268m | 3.2m/s | -13.0°C | 0% | 0hPa | 0V | 00:00:00 | 00:00:00 | 00:00:00 | |
| OE3JTB-15 | 2026-08-31 05:31:53 | 48.72105 | 17.47007 | 66° | 47km/h | 6249m | 2.9m/s | 0°C | 0% | 0hPa | 0V | 00:00:00 | 00:00:00 | 00:00:00 | |
| OM5KV | 2026-08-31 05:31:50 | 48.72091 | 17.46956 | 70° | 47km/h | 6241m | 3.3m/s | -13.2°C | 0% | 0hPa | 0V | 00:00:00 | 00:00:00 | 00:00:00 | |
| OM5KV | 2026-08-31 05:31:48 | 48.72081 | 17.46921 | 68° | 49km/h | 6233m | 4.5m/s | -13.2°C | 0% | 0hPa | 0V | 00:00:00 | 00:00:00 | 00:00:00 | |
| OM5KV | 2026-08-31 05:31:45 | 48.72064 | 17.46870 | 63° | 49km/h | 6222m | 4.3m/s | -13.1°C | 0% | 0hPa | 0V | 00:00:00 | 00:00:00 | 00:00:00 | |
| ATIDSZ-14 | 2026-08-31 05:31:41 | 48.72042 | 17.46805 | 64° | 46km/h | 6207m | 3.0m/s | -13.0°C | 0% | 0hPa | 0V | 00:00:00 | 00:00:00 | 00:00:00 | |
| OE5DRO-10 | 2026-08-31 05:31:39 | 48.72032 | 17.46773 | 64° | 47km/h | 6195m | 3.5m/s | 0°C | 0% | 0hPa | 0V | 00:00:00 | 00:00:00 | 00:00:00 | |
| OM5KV | 2026-08-31 05:31:35 | 48.72010 | 17.46708 | 64° | 47km/h | 6184m | 3.8m/s | -12.8°C | 0% | 0hPa | 0V | 00:00:00 | 00:00:00 | 00:00:00 | |
| OM5KV | 2026-08-31 05:31:34 | 48.72005 | 17.46692 | 63° | 47km/h | 6180m | 4.3m/s | -12.7°C | 0% | 0hPa | 0V | 00:00:00 | 00:00:00 | 00:00:00 | |
| OM5KV | 2026-08-31 05:31:30 | 48.71981 | 17.46628 | 60° | 47km/h | 6164m | 3.1m/s | -12.6°C | 0% | 0hPa | 0V | 00:00:00 | 00:00:00 | 00:00:00 | |
| OM5KV | 2026-08-31 05:31:28 | 48.71969 | 17.46596 | 61° | 47km/h | 6157m | 3.4m/s | -12.6°C | 0% | 0hPa | 0V | 00:00:00 | 00:00:00 | 00:00:00 | |
| OM5KV | 2026-08-31 05:31:25 | 48.71945 | 17.46530 | 64° | 51km/h | 6141m | 4.3m/s | -12.5°C | 0% | 0hPa | 0V | 00:00:00 | 00:00:00 | 00:00:00 | |
| OE3JTB-15 | 2026-08-31 05:31:24 | 48.71945 | 17.46530 | 63° | 47km/h | 6137m | 3.3m/s | 0°C | 0% | 0hPa | 0V | 00:00:00 | 00:00:00 | 00:00:00 | |
| OM5KV | 2026-08-31 05:31:22 | 48.71933 | 17.46495 | 64° | 51km/h | 6134m | 3.4m/s | -12.4°C | 0% | 0hPa | 0V | 00:00:00 | 00:00:00 | 00:00:00 | |
| ATIDSZ-14 | 2026-08-31 05:31:20 | 48.71921 | 17.46462 | 60° | 51km/h | 6127m | 3.6m/s | -12.4°C | 0% | 0hPa | 0V | 00:00:00 | 00:00:00 | 00:00:00 | |
| OM5KV | 2026-08-31 05:31:17 | 48.71902 | 17.46416 | 58° | 46km/h | 6116m | 4.2m/s | -12.2°C | 0% | 0hPa | 0V | 00:00:00 | 00:00:00 | 00:00:00 | |
| OM5KV | 2026-08-31 05:31:11 | 48.71866 | 17.46325 | 62° | 46km/h | 6093m | 3.2m/s | -12.0°C | 0% | 0hPa | 0V | 00:00:00 | 00:00:00 | 00:00:00 | |
| OM5KV | 2026-08-31 05:31:05 | 48.71832 | 17.46232 | 62° | 46km/h | 6070m | 3.6m/s | -11.9°C | 0% | 0hPa | 0V | 00:00:00 | 00:00:00 | 00:00:00 | |
| ATIDSZ-14 | 2026-08-31 05:31:00 | 48.71802 | 17.46155 | 61° | 47km/h | 6051m | 3.3m/s | -11.8°C | 0% | 0hPa | 0V | 00:00:00 | 00:00:00 | 00:00:00 | |
| OM5KV | 2026-08-31 05:30:56 | 48.71779 | 17.46092 | 62° | 47km/h | 6036m | 3.7m/s | -11.7°C | 0% | 0hPa | 0V | 00:00:00 | 00:00:00 | 00:00:00 | |
| OE3JTB-15 | 2026-08-31 05:30:55 | 48.71773 | 17.46076 | 57° | 47km/h | 6028m | 3.1m/s | 0°C | 0% | 0hPa | 0V | 00:00:00 | 00:00:00 | 00:00:00 | |
| OM5KV | 2026-08-31 05:30:54 | 48.71783 | 17.46062 | 58° | 46km/h | 6028m | 3.1m/s | -11.6°C | 0% | 0hPa | 0V | 00:00:00 | 00:00:00 | 00:00:00 | |
| OM5KV | 2026-08-31 05:30:50 | 48.71743 | 17.46004 | 63° | 46km/h | 6013m | 4.5m/s | -11.5°C | 0% | 0hPa | 0V | 00:00:00 | 00:00:00 | 00:00:00 | |
| OM5KV | 2026-08-31 05:30:48 | 48.71733 | 17.45972 | 65° | 49km/h | 6006m | 3.8m/s | -11.5°C | 0% | 0hPa | 0V | 00:00:00 | 00:00:00 | 00:00:00 | |
| OM5KV | 2026-08-31 05:30:42 | 48.71700 | 17.45874 | 62° | 46km/h | 5983m | 4.2m/s | -11.3°C | 0% | 0hPa | 0V | 00:00:00 | 00:00:00 | 00:00:00 | |
| ATIDSZ-14 | 2026-08-31 05:30:39 | 48.71683 | 17.45827 | 63° | 46km/h | 5972m | 2.7m/s | -11.2°C | 0% | 0hPa | 0V | 00:00:00 | 00:00:00 | 00:00:00 | |
| S52SK | 2026-08-31 05:30:38 | 48.71677 | 17.45811 | 62° | 47km/h | 5968m | 4.6m/s | -11.2°C | 0% | 0hPa | 0V | 00:00:00 | 00:00:00 | 00:00:00 | |
| OM5KV | 2026-08-31 05:30:36 | 48.71665 | 17.45778 | 64° | 49km/h | 5960m | 4.6m/s | -11.1°C | 0% | 0hPa | 0V | 00:00:00 | 00:00:00 | 00:00:00 | |
| OM5KV | 2026-08-31 05:30:33 | 48.71643 | 17.45712 | 64° | 46km/h | 5944m | 4.4m/s | -11.0°C | 0% | 0hPa | 0V | 00:00:00 | 00:00:00 | 00:00:00 | |
| OM5KV | 2026-08-31 05:30:30 | 48.71633 | 17.45682 | 64° | 44km/h | 5937m | 3.7m/s | -10.9°C | 0% | 0hPa | 0V | 00:00:00 | 00:00:00 | 00:00:00 | |
| OE3JTB-15 | 2026-08-31 05:30:26 | 48.71611 | 17.45619 | 63° | 49km/h | 5918m | 2.9m/s | 0°C | 0% | 0hPa | 0V | 00:00:00 | 00:00:00 | 00:00:00 | |
| OM5KV | 2026-08-31 05:30:24 | 48.71598 | 17.45584 | 63° | 51km/h | 5914m | 4.5m/s | -10.7°C | 0% | 0hPa | 0V | 00:00:00 | 00:00:00 | 00:00:00 | |
| OM5KV | 2026-08-31 05:30:21 | 48.71580 | 17.45534 | 61° | 49km/h | 5902m | 3.0m/s | -10.6°C | 0% | 0hPa | 0V | 00:00:00 | 00:00:00 | 00:00:00 | |
| ATIDSZ-14 | 2026-08-31 05:30:19 | 48.71569 | 17.45501 | 64° | 49km/h | 5895m | 3.3m/s | -10.6°C | 0% | 0hPa | 0V | 00:00:00 | 00:00:00 | 00:00:00 | |
| OM5KV | 2026-08-31 05:30:15 | 48.71545 | 17.45435 | 63° | 49km/h | 5880m | 4.7m/s | -10.4°C | 0% | 0hPa | 0V | 00:00:00 | 00:00:00 | 00:00:00 | |
| OM5KV | 2026-08-31 05:30:14 | 48.71534 | 17.45401 | 65° | 51km/h | 5872m | 4.3m/s | -10.4°C | 0% | 0hPa | 0V | 00:00:00 | 00:00:00 | 00:00:00 | |
| S52SK | 2026-08-31 05:30:13 | 48.71534 | 17.45401 | 65° | 51km/h | 5872m | 4.3m/s | -10.4°C | 0% | 0hPa | 0V | 00:00:00 | 00:00:00 | 00:00:00 | |
| OM5KV | 2026-08-31 05:30:09 | 48.71512 | 17.45333 | 65° | 49km/h | 5856m | 4.5m/s | -10.3°C | 0% | 0hPa | 0V | 00:00:00 | 00:00:00 | 00:00:00 | |
| OM5KV | 2026-08-31 05:30:08 | 48.71506 | 17.45316 | 63° | 49km/h | 5852m | 2.9m/s | -10.2°C | 0% | 0hPa | 0V | 00:00:00 | 00:00:00 | 00:00:00 | |
| OM5KV | 2026-08-31 05:30:02 | 48.71471 | 17.45219 | 60° | 49km/h | 5829m | 2.6m/s | -10.1°C | 0% | 0hPa | 0V | 00:00:00 | 00:00:00 | 00:00:00 | |
| OE3JTB-15 | 2026-08-31 05:29:57 | 48.71443 | 17.45139 | 64° | 47km/h | 5807m | 3.2m/s | 0°C | 0% | 0hPa | 0V | 00:00:00 | 00:00:00 | 00:00:00 | |
| OM5KV | 2026-08-31 05:29:56 | 48.71437 | 17.45123 | 64° | 47km/h | 5807m | 3.2m/s | -9.9°C | 0% | 0hPa | 0V | 00:00:00 | 00:00:00 | 00:00:00 | |
| OM5KV | 2026-08-31 05:29:51 | 48.71410 | 17.45041 | 63° | 46km/h | 5788m | 3.2m/s | -9.9°C | 0% | 0hPa | 0V | 00:00:00 | 00:00:00 | 00:00:00 | |
| OM5KV | 2026-08-31 05:29:47 | 48.71389 | 17.44976 | 67° | 47km/h | 5773m | 4.4m/s | -9.8°C | 0% | 0hPa | 0V | 00:00:00 | 00:00:00 | 00:00:00 | |
| OM5KV | 2026-08-31 05:29:45 | 48.71379 | 17.44942 | 65° | 47km/h | 5766m | 3.2m/s | -9.7°C | 0% | 0hPa | 0V | 00:00:00 | 00:00:00 | 00:00:00 | |
| OM5KV | 2026-08-31 05:29:41 | 48.71359 | 17.44877 | 67° | 46km/h | 5750m | 3.2m/s | -9.6°C | 0% | 0hPa | 0V | 00:00:00 | 00:00:00 | 00:00:00 | |
| OM5KV | 2026-08-31 05:29:40 | 48.71355 | 17.44861 | 70° | 46km/h | 5747m | 2.9m/s | -9.6°C | 0% | 0hPa | 0V | 00:00:00 | 00:00:00 | 00:00:00 | |
| ATIDSZ-14 | 2026-08-31 05:29:38 | 48.71346 | 17.44830 | 68° | 44km/h | 5740m | 3.0m/s | -9.5°C | 0% | 0hPa | 0V | 00:00:00 | 00:00:00 | 00:00:00 | |
| OM5KV | 2026-08-31 05:29:35 | 48.71332 | 17.44780 | 67° | 49km/h | 5728m | 3.3m/s | -9.4°C | 0% | 0hPa | 0V | 00:00:00 | 00:00:00 | 00:00:00 | |
| OM5KV | 2026-08-31 05:29:34 | 48.71327 | 17.44763 | 68° | 49km/h | 5724m | 4.7m/s | -9.4°C | 0% | 0hPa | 0V | 00:00:00 | 00:00:00 | 00:00:00 | |
| OM5KV | 2026-08-31 05:29:29 | 48.71303 | 17.44682 | 67° | 42km/h | 5705m | 4.0m/s | -9.2°C | 0% | 0hPa | 0V | 00:00:00 | 00:00:00 | 00:00:00 | |
| OE3JTB-15 | 2026-08-31 05:29:28 | 48.71299 | 17.44667 | 64° | 47km/h | 5698m | 4.0m/s | 0°C | 0% | 0hPa | 0V | 00:00:00 | 00:00:00 | 00:00:00 | |
| OM5KV | 2026-08-31 05:29:23 | 48.71275 | 17.44584 | 67° | 49km/h | 5684m | 3.5m/s | -9.1°C | 0% | 0hPa | 0V | 00:00:00 | 00:00:00 | 00:00:00 | |
| ATIDSZ-14 | 2026-08-31 05:29:17 | 48.71245 | 17.44482 | 67° | 47km/h | 5662m | 3.3m/s | -8.9°C | 0% | 0hPa | 0V | 00:00:00 | 00:00:00 | 00:00:00 | |
| OM5KV | 2026-08-31 05:29:12 | 48.71223 | 17.44398 | 69° | 46km/h | 5643m | 3.4m/s | -8.8°C | 0% | 0hPa | 0V | 00:00:00 | 00:00:00 | 00:00:00 | |
| OM5KV | 2026-08-31 05:29:06 | 48.71193 | 17.44307 | 66° | 47km/h | 5620m | 3.6m/s | -8.6°C | 0% | 0hPa | 0V | 00:00:00 | 00:00:00 | 00:00:00 | |
| OM5KV | 2026-08-31 05:29:00 | 48.71163 | 17.44211 | 66° | 46km/h | 5597m | 5.0m/s | -8.4°C | 0% | 0hPa | 0V | 00:00:00 | 00:00:00 | 00:00:00 | |
| OE3JTB-15 | 2026-08-31 05:28:59 | 48.71158 | 17.44195 | 64° | 44km/h | 5589m | 4.1m/s | 0°C | 0% | 0hPa | 0V | 00:00:00 | 00:00:00 | 00:00:00 | |
| ATIDSZ-14 | 2026-08-31 05:28:57 | 48.71148 | 17.44164 | 66° | 44km/h | 5585m | 4.8m/s | -8.4°C | 0% | 0hPa | 0V | 00:00:00 | 00:00:00 | 00:00:00 | |
| OM5KV | 2026-08-31 05:28:55 | 48.71138 | 17.44133 | 64° | 46km/h | 5577m | 3.8m/s | -8.4°C | 0% | 0hPa | 0V | 00:00:00 | 00:00:00 | 00:00:00 | |
| OM5KV | 2026-08-31 05:28:50 | 48.71106 | 17.44043 | 62° | 44km/h | 5554m | 4.0m/s | -8.3°C | 0% | 0hPa | 0V | 00:00:00 | 00:00:00 | 00:00:00 | |
| OM5KV | 2026-08-31 05:28:49 | 48.71106 | 17.44043 | 62° | 44km/h | 5554m | 4.0m/s | -8.3°C | 0% | 0hPa | 0V | 00:00:00 | 00:00:00 | 00:00:00 | |
| OM5KV | 2026-08-31 05:28:44 | 48.71081 | 17.43966 | 66° | 47km/h | 5535m | 3.7m/s | -8.1°C | 0% | 0hPa | 0V | 00:00:00 | 00:00:00 | 00:00:00 | |
| OM5KV | 2026-08-31 05:28:43 | 48.71075 | 17.43949 | 63° | 46km/h | 5532m | 4.0m/s | -8.1°C | 0% | 0hPa | 0V | 00:00:00 | 00:00:00 | 00:00:00 | |
| OM5KV | 2026-08-31 05:28:37 | 48.71045 | 17.43859 | 63° | 44km/h | 5510m | 4.0m/s | -8.0°C | 0% | 0hPa | 0V | 00:00:00 | 00:00:00 | 00:00:00 | |
| ATIDSZ-14 | 2026-08-31 05:28:36 | 48.71040 | 17.43845 | 61° | 44km/h | 5506m | 3.1m/s | -8.0°C | 0% | 0hPa | 0V | 00:00:00 | 00:00:00 | 00:00:00 | |
| OM5KV | 2026-08-31 05:28:31 | 48.71014 | 17.43770 | 65° | 42km/h | 5488m | 4.1m/s | -7.9°C | 0% | 0hPa | 0V | 00:00:00 | 00:00:00 | 00:00:00 | |
| OE3JTB-15 | 2026-08-31 05:28:30 | 48.71009 | 17.43755 | 65° | 40km/h | 5481m | 3.8m/s | 0°C | 0% | 0hPa | 0V | 00:00:00 | 00:00:00 | 00:00:00 | |
| OM5KV | 2026-08-31 05:28:27 | 48.70994 | 17.43710 | 63° | 44km/h | 5473m | 4.2m/s | -7.9°C | 0% | 0hPa | 0V | 00:00:00 | 00:00:00 | 00:00:00 | |
| OM5KV | 2026-08-31 05:28:26 | 48.70984 | 17.43680 | 63° | 44km/h | 5465m | 3.0m/s | -7.9°C | 0% | 0hPa | 0V | 00:00:00 | 00:00:00 | 00:00:00 | |
| OM5KV | 2026-08-31 05:28:21 | 48.70964 | 17.43622 | 61° | 38km/h | 5451m | 3.5m/s | -7.8°C | 0% | 0hPa | 0V | 00:00:00 | 00:00:00 | 00:00:00 | |
| OM5KV | 2026-08-31 05:28:19 | 48.70955 | 17.43598 | 63° | 37km/h | 5445m | 3.0m/s | -7.8°C | 0% | 0hPa | 0V | 00:00:00 | 00:00:00 | 00:00:00 | |
| ATIDSZ-14 | 2026-08-31 05:28:16 | 48.70940 | 17.43558 | 63° | 44km/h | 5434m | 3.5m/s | -7.8°C | 0% | 0hPa | 0V | 00:00:00 | 00:00:00 | 00:00:00 | |
| OM5KV | 2026-08-31 05:28:14 | 48.70931 | 17.43528 | 67° | 42km/h | 5428m | 3.2m/s | -7.7°C | 0% | 0hPa | 0V | 00:00:00 | 00:00:00 | 00:00:00 | |
| OM5KV | 2026-08-31 05:28:10 | 48.70913 | 17.43476 | 60° | 35km/h | 5414m | 4.0m/s | -7.6°C | 0% | 0hPa | 0V | 00:00:00 | 00:00:00 | 00:00:00 | |
| OM5KV | 2026-08-31 05:28:09 | 48.70903 | 17.43453 | 59° | 37km/h | 5407m | 3.8m/s | -7.6°C | 0% | 0hPa | 0V | 00:00:00 | 00:00:00 | 00:00:00 | |
| OM5KV | 2026-08-31 05:28:04 | 48.70883 | 17.43403 | 63° | 38km/h | 5393m | 3.9m/s | -7.5°C | 0% | 0hPa | 0V | 00:00:00 | 00:00:00 | 00:00:00 | |
| OM5KV | 2026-08-31 05:28:02 | 48.70873 | 17.43378 | 60° | 38km/h | 5386m | 3.3m/s | -7.4°C | 0% | 0hPa | 0V | 00:00:00 | 00:00:00 | 00:00:00 | |
| OE3JTB-15 | 2026-08-31 05:28:01 | 48.70869 | 17.43365 | 59° | 38km/h | 5378m | 3.3m/s | 0°C | 0% | 0hPa | 0V | 00:00:00 | 00:00:00 | 00:00:00 | |
| OM5KV | 2026-08-31 05:27:58 | 48.70853 | 17.43327 | 58° | 38km/h | 5371m | 3.4m/s | -7.3°C | 0% | 0hPa | 0V | 00:00:00 | 00:00:00 | 00:00:00 | |
| OM5KV | 2026-08-31 05:27:56 | 48.70842 | 17.43303 | 55° | 38km/h | 5364m | 4.0m/s | -7.2°C | 0% | 0hPa | 0V | 00:00:00 | 00:00:00 | 00:00:00 | |
| ATIDSZ-14 | 2026-08-31 05:27:55 | 48.70836 | 17.43291 | 57° | 38km/h | 5360m | 4.3m/s | -7.2°C | 0% | 0hPa | 0V | 00:00:00 | 00:00:00 | 00:00:00 | |
| OM5KV | 2026-08-31 05:27:52 | 48.70821 | 17.43253 | 61° | 40km/h | 5349m | 4.2m/s | -7.1°C | 0% | 0hPa | 0V | 00:00:00 | 00:00:00 | 00:00:00 | |
| OM5KV | 2026-08-31 05:27:50 | 48.70811 | 17.43226 | 61° | 42km/h | 5341m | 3.9m/s | -7.0°C | 0% | 0hPa | 0V | 00:00:00 | 00:00:00 | 00:00:00 | |
| OM5KV | 2026-08-31 05:27:46 | 48.70790 | 17.43176 | 58° | 37km/h | 5328m | 3.9m/s | -7.0°C | 0% | 0hPa | 0V | 00:00:00 | 00:00:00 | 00:00:00 | |
| OM5KV | 2026-08-31 05:27:44 | 48.70780 | 17.43152 | 59° | 38km/h | 5320m | 2.7m/s | -7.0°C | 0% | 0hPa | 0V | 00:00:00 | 00:00:00 | 00:00:00 | |
| OM5KV | 2026-08-31 05:27:40 | 48.70758 | 17.43101 | 56° | 42km/h | 5306m | 3.8m/s | -7.0°C | 0% | 0hPa | 0V | 00:00:00 | 00:00:00 | 00:00:00 | |
| OM5KV | 2026-08-31 05:27:38 | 48.70747 | 17.43075 | 59° | 40km/h | 5298m | 2.8m/s | -7.0°C | 0% | 0hPa | 0V | 00:00:00 | 00:00:00 | 00:00:00 | |
| OM5KV | 2026-08-31 05:27:35 | 48.70731 | 17.43036 | 57° | 38km/h | 5287m | 2.7m/s | -6.9°C | 0% | 0hPa | 0V | 00:00:00 | 00:00:00 | 00:00:00 | |
| OM5KV | 2026-08-31 05:27:33 | 48.70719 | 17.43012 | 53° | 40km/h | 5280m | 3.2m/s | -6.9°C | 0% | 0hPa | 0V | 00:00:00 | 00:00:00 | 00:00:00 | |
| OE3JTB-15 | 2026-08-31 05:27:32 | 48.70713 | 17.43001 | 53° | 38km/h | 5273m | 5.0m/s | 0°C | 0% | 0hPa | 0V | 00:00:00 | 00:00:00 | 00:00:00 | |
| OM5KV | 2026-08-31 05:27:29 | 48.70693 | 17.42963 | 55° | 42km/h | 5266m | 3.5m/s | -6.9°C | 0% | 0hPa | 0V | 00:00:00 | 00:00:00 | 00:00:00 | |
| OM5KV | 2026-08-31 05:27:27 | 48.70681 | 17.42937 | 56° | 42km/h | 5257m | 3.5m/s | -7.0°C | 0% | 0hPa | 0V | 00:00:00 | 00:00:00 | 00:00:00 | |
| OM5KV | 2026-08-31 05:27:23 | 48.70656 | 17.42887 | 52° | 40km/h | 5243m | 3.9m/s | -7.0°C | 0% | 0hPa | 0V | 00:00:00 | 00:00:00 | 00:00:00 | |
| OM5KV | 2026-08-31 05:27:22 | 48.70649 | 17.42875 | 51° | 42km/h | 5240m | 3.7m/s | -6.9°C | 0% | 0hPa | 0V | 00:00:00 | 00:00:00 | 00:00:00 | |
| OM5KV | 2026-08-31 05:27:18 | 48.70625 | 17.42827 | 55° | 37km/h | 5226m | 3.9m/s | -6.8°C | 0% | 0hPa | 0V | 00:00:00 | 00:00:00 | 00:00:00 | |
| OM5KV | 2026-08-31 05:27:16 | 48.70614 | 17.42804 | 58° | 40km/h | 5219m | 3.5m/s | -6.7°C | 0% | 0hPa | 0V | 00:00:00 | 00:00:00 | 00:00:00 | |
| ATIDSZ-14 | 2026-08-31 05:27:14 | 48.70602 | 17.42778 | 56° | 40km/h | 5211m | 4.4m/s | -6.7°C | 0% | 0hPa | 0V | 00:00:00 | 00:00:00 | 00:00:00 | |
| OM5KV | 2026-08-31 05:27:12 | 48.70591 | 17.42753 | 57° | 38km/h | 5204m | 3.0m/s | -6.6°C | 0% | 0hPa | 0V | 00:00:00 | 00:00:00 | 00:00:00 | |
| OM5KV | 2026-08-31 05:27:10 | 48.70580 | 17.42731 | 52° | 35km/h | 5196m | 3.4m/s | -6.6°C | 0% | 0hPa | 0V | 00:00:00 | 00:00:00 | 00:00:00 | |
| OM5KV | 2026-08-31 05:27:05 | 48.70553 | 17.42676 | 56° | 38km/h | 5177m | 4.7m/s | -6.8°C | 0% | 0hPa | 0V | 00:00:00 | 00:00:00 | 00:00:00 | |
| OE3JTB-15 | 2026-08-31 05:27:03 | 48.70542 | 17.42652 | 55° | 37km/h | 5164m | 4.2m/s | 0°C | 0% | 0hPa | 0V | 00:00:00 | 00:00:00 | 00:00:00 | |
| OM5KV | 2026-08-31 05:26:59 | 48.70520 | 17.42607 | 53° | 35km/h | 5152m | 3.6m/s | -6.6°C | 0% | 0hPa | 0V | 00:00:00 | 00:00:00 | 00:00:00 | |
| ATIDSZ-14 | 2026-08-31 05:26:54 | 48.70494 | 17.42554 | 55° | 37km/h | 5132m | 2.9m/s | -6.5°C | 0% | 0hPa | 0V | 00:00:00 | 00:00:00 | 00:00:00 | |
| OM5KV | 2026-08-31 05:26:50 | 48.70474 | 17.42509 | 58° | 33km/h | 5117m | 4.5m/s | -6.3°C | 0% | 0hPa | 0V | 00:00:00 | 00:00:00 | 00:00:00 | |
| OM5KV | 2026-08-31 05:26:42 | 48.70427 | 17.42425 | 51° | 38km/h | 5088m | 3.8m/s | -6.2°C | 0% | 0hPa | 0V | 00:00:00 | 00:00:00 | 00:00:00 | |
| OM5KV | 2026-08-31 05:26:36 | 48.70392 | 17.42359 | 50° | 37km/h | 5065m | 4.5m/s | -6.0°C | 0% | 0hPa | 0V | 00:00:00 | 00:00:00 | 00:00:00 | |
| OE3JTB-15 | 2026-08-31 05:26:34 | 48.70379 | 17.42339 | 44° | 38km/h | 5054m | 3.0m/s | 0°C | 0% | 0hPa | 0V | 00:00:00 | 00:00:00 | 00:00:00 | |
| ATIDSZ-14 | 2026-08-31 05:26:33 | 48.70372 | 17.42329 | 43° | 38km/h | 5054m | 3.1m/s | -6.0°C | 0% | 0hPa | 0V | 00:00:00 | 00:00:00 | 00:00:00 | |
| OM5KV | 2026-08-31 05:26:29 | 48.70345 | 17.42287 | 51° | 42km/h | 5040m | 3.5m/s | -5.9°C | 0% | 0hPa | 0V | 00:00:00 | 00:00:00 | 00:00:00 | |
| OM5KV | 2026-08-31 05:26:27 | 48.70332 | 17.42264 | 49° | 38km/h | 5033m | 3.0m/s | -5.9°C | 0% | 0hPa | 0V | 00:00:00 | 00:00:00 | 00:00:00 | |
| OM5KV | 2026-08-31 05:26:24 | 48.70311 | 17.42231 | 45° | 38km/h | 5021m | 2.6m/s | -5.9°C | 0% | 0hPa | 0V | 00:00:00 | 00:00:00 | 00:00:00 | |
| OM5KV | 2026-08-31 05:26:22 | 48.70298 | 17.42210 | 48° | 38km/h | 5013m | 4.1m/s | -6.0°C | 0% | 0hPa | 0V | 00:00:00 | 00:00:00 | 00:00:00 | |
| OM5KV | 2026-08-31 05:26:18 | 48.70273 | 17.42167 | 49° | 38km/h | 4998m | 3.8m/s | -6.0°C | 0% | 0hPa | 0V | 00:00:00 | 00:00:00 | 00:00:00 | |
| OM5KV | 2026-08-31 05:26:16 | 48.70260 | 17.42145 | 49° | 40km/h | 4990m | 4.1m/s | -6.0°C | 0% | 0hPa | 0V | 00:00:00 | 00:00:00 | 00:00:00 | |
| ATIDSZ-14 | 2026-08-31 05:26:13 | 48.70241 | 17.42112 | 51° | 38km/h | 4978m | 4.0m/s | -6.0°C | 0% | 0hPa | 0V | 00:00:00 | 00:00:00 | 00:00:00 | |
| OM5KV | 2026-08-31 05:26:12 | 48.70235 | 17.42101 | 51° | 37km/h | 4975m | 3.4m/s | -6.0°C | 0% | 0hPa | 0V | 00:00:00 | 00:00:00 | 00:00:00 | |
| OM5KV | 2026-08-31 05:26:11 | 48.70229 | 17.42090 | 51° | 37km/h | 4971m | 4.3m/s | -6.1°C | 0% | 0hPa | 0V | 00:00:00 | 00:00:00 | 00:00:00 | |
| OM5KV | 2026-08-31 05:26:06 | 48.70196 | 17.42025 | 59° | 35km/h | 4947m | 4.5m/s | -6.1°C | 0% | 0hPa | 0V | 00:00:00 | 00:00:00 | 00:00:00 | |
| OE3JTB-15 | 2026-08-31 05:26:05 | 48.70196 | 17.42025 | 59° | 33km/h | 4943m | 3.4m/s | 0°C | 0% | 0hPa | 0V | 00:00:00 | 00:00:00 | 00:00:00 | |
| OM5KV | 2026-08-31 05:26:00 | 48.70173 | 17.41971 | 56° | 31km/h | 4927m | 3.3m/s | -6.3°C | 0% | 0hPa | 0V | 00:00:00 | 00:00:00 | 00:00:00 | |
| OM5KV | 2026-08-31 05:25:59 | 48.70168 | 17.41962 | 57° | 33km/h | 4923m | 4.4m/s | -6.3°C | 0% | 0hPa | 0V | 00:00:00 | 00:00:00 | 00:00:00 | |
| OM5KV | 2026-08-31 05:25:54 | 48.70145 | 17.41910 | 57° | 33km/h | 4904m | 4.7m/s | -6.3°C | 0% | 0hPa | 0V | 00:00:00 | 00:00:00 | 00:00:00 | |
| ATIDSZ-14 | 2026-08-31 05:25:52 | 48.70135 | 17.41888 | 59° | 37km/h | 4896m | 3.3m/s | -6.3°C | 0% | 0hPa | 0V | 00:00:00 | 00:00:00 | 00:00:00 | |
| OM5KV | 2026-08-31 05:25:48 | 48.70116 | 17.41842 | 62° | 33km/h | 4881m | 3.8m/s | -6.2°C | 0% | 0hPa | 0V | 00:00:00 | 00:00:00 | 00:00:00 | |
| OM5KV | 2026-08-31 05:25:43 | 48.70098 | 17.41789 | 61° | 31km/h | 4861m | 4.2m/s | -6.2°C | 0% | 0hPa | 0V | 00:00:00 | 00:00:00 | 00:00:00 | |
| OM5KV | 2026-08-31 05:25:42 | 48.70094 | 17.41778 | 60° | 33km/h | 4858m | 3.0m/s | -6.2°C | 0% | 0hPa | 0V | 00:00:00 | 00:00:00 | 00:00:00 | |
| OM5KV | 2026-08-31 05:25:38 | 48.70072 | 17.41725 | 61° | 33km/h | 4839m | 4.0m/s | -6.3°C | 0% | 0hPa | 0V | 00:00:00 | 00:00:00 | 00:00:00 | |
| OE3JTB-15 | 2026-08-31 05:25:36 | 48.70067 | 17.41714 | 60° | 33km/h | 4830m | 2.9m/s | 0°C | 0% | 0hPa | 0V | 00:00:00 | 00:00:00 | 00:00:00 | |
| ATIDSZ-14 | 2026-08-31 05:25:31 | 48.70044 | 17.41662 | 57° | 33km/h | 4816m | 4.3m/s | -6.2°C | 0% | 0hPa | 0V | 00:00:00 | 00:00:00 | 00:00:00 | |
| OM5KV | 2026-08-31 05:25:30 | 48.70039 | 17.41651 | 59° | 35km/h | 4812m | 3.5m/s | -6.1°C | 0% | 0hPa | 0V | 00:00:00 | 00:00:00 | 00:00:00 | |
| OM5KV | 2026-08-31 05:25:26 | 48.70021 | 17.41606 | 61° | 31km/h | 4797m | 3.7m/s | -6.1°C | 0% | 0hPa | 0V | 00:00:00 | 00:00:00 | 00:00:00 | |
| OM5KV | 2026-08-31 05:25:25 | 48.70012 | 17.41586 | 58° | 31km/h | 4788m | 4.5m/s | -6.0°C | 0% | 0hPa | 0V | 00:00:00 | 00:00:00 | 00:00:00 | |
| OM5KV | 2026-08-31 05:25:20 | 48.69993 | 17.41544 | 58° | 35km/h | 4772m | 3.7m/s | -5.9°C | 0% | 0hPa | 0V | 00:00:00 | 00:00:00 | 00:00:00 | |
| OM5KV | 2026-08-31 05:25:18 | 48.69984 | 17.41522 | 58° | 35km/h | 4763m | 5.0m/s | -5.8°C | 0% | 0hPa | 0V | 00:00:00 | 00:00:00 | 00:00:00 | |
| OM5KV | 2026-08-31 05:25:14 | 48.69964 | 17.41481 | 55° | 31km/h | 4748m | 3.0m/s | -5.8°C | 0% | 0hPa | 0V | 00:00:00 | 00:00:00 | 00:00:00 | |
| OM5KV | 2026-08-31 05:25:13 | 48.69960 | 17.41471 | 55° | 33km/h | 4744m | 4.2m/s | -5.7°C | 0% | 0hPa | 0V | 00:00:00 | 00:00:00 | 00:00:00 | |
| ATIDSZ-14 | 2026-08-31 05:25:11 | 48.69950 | 17.41451 | 57° | 33km/h | 4735m | 3.7m/s | -5.7°C | 0% | 0hPa | 0V | 00:00:00 | 00:00:00 | 00:00:00 | |
| OM5KV | 2026-08-31 05:25:08 | 48.69935 | 17.41418 | 57° | 37km/h | 4723m | 3.0m/s | -5.7°C | 0% | 0hPa | 0V | 00:00:00 | 00:00:00 | 00:00:00 | |
| OE3JTB-15 | 2026-08-31 05:25:07 | 48.69930 | 17.41406 | 54° | 35km/h | 4715m | 3.2m/s | 0°C | 0% | 0hPa | 0V | 00:00:00 | 00:00:00 | 00:00:00 | |
| OM5KV | 2026-08-31 05:25:02 | 48.69901 | 17.41354 | 52° | 35km/h | 4699m | 3.8m/s | -5.6°C | 0% | 0hPa | 0V | 00:00:00 | 00:00:00 | 00:00:00 | |
| OM5KV | 2026-08-31 05:24:56 | 48.69873 | 17.41294 | 55° | 31km/h | 4675m | 2.9m/s | -5.6°C | 0% | 0hPa | 0V | 00:00:00 | 00:00:00 | 00:00:00 | |
| S52SK | 2026-08-31 05:24:51 | 48.69847 | 17.41241 | 54° | 37km/h | 4655m | 4.1m/s | -5.6°C | 0% | 0hPa | 0V | 00:00:00 | 00:00:00 | 00:00:00 | |
| ATIDSZ-14 | 2026-08-31 05:24:50 | 48.69842 | 17.41230 | 53° | 37km/h | 4651m | 3.8m/s | -5.5°C | 0% | 0hPa | 0V | 00:00:00 | 00:00:00 | 00:00:00 | |
| OM5KV | 2026-08-31 05:24:45 | 48.69818 | 17.41172 | 69° | 35km/h | 4631m | 3.5m/s | -5.4°C | 0% | 0hPa | 0V | 00:00:00 | 00:00:00 | 00:00:00 | |
| OM5KV | 2026-08-31 05:24:39 | 48.69793 | 17.41097 | 59° | 40km/h | 4606m | 4.2m/s | -5.3°C | 0% | 0hPa | 0V | 00:00:00 | 00:00:00 | 00:00:00 | |
| OE3JTB-15 | 2026-08-31 05:24:38 | 48.69788 | 17.41084 | 64° | 42km/h | 4599m | 3.7m/s | 0°C | 0% | 0hPa | 0V | 00:00:00 | 00:00:00 | 00:00:00 | |
| OM5KV | 2026-08-31 05:24:34 | 48.69772 | 17.41033 | 65° | 37km/h | 4586m | 4.0m/s | -5.2°C | 0% | 0hPa | 0V | 00:00:00 | 00:00:00 | 00:00:00 | |
| OM5KV | 2026-08-31 05:24:33 | 48.69768 | 17.41020 | 69° | 37km/h | 4582m | 4.7m/s | -5.2°C | 0% | 0hPa | 0V | 00:00:00 | 00:00:00 | 00:00:00 | |
| ATIDSZ-14 | 2026-08-31 05:24:30 | 48.69759 | 17.40980 | 76° | 38km/h | 4569m | 4.6m/s | -5.1°C | 0% | 0hPa | 0V | 00:00:00 | 00:00:00 | 00:00:00 | |
| OM5KV | 2026-08-31 05:24:22 | 48.69730 | 17.40858 | 72° | 40km/h | 4536m | 4.3m/s | -4.9°C | 0% | 0hPa | 0V | 00:00:00 | 00:00:00 | 00:00:00 | |
| OM5KV | 2026-08-31 05:24:20 | 48.69724 | 17.40828 | 74° | 42km/h | 4527m | 4.3m/s | -4.8°C | 0% | 0hPa | 0V | 00:00:00 | 00:00:00 | 00:00:00 | |
| OM5KV | 2026-08-31 05:24:17 | 48.69713 | 17.40780 | 73° | 46km/h | 4515m | 4.0m/s | -4.7°C | 0% | 0hPa | 0V | 00:00:00 | 00:00:00 | 00:00:00 | |
| OM5KV | 2026-08-31 05:24:13 | 48.69700 | 17.40716 | 75° | 44km/h | 4498m | 4.7m/s | -4.6°C | 0% | 0hPa | 0V | 00:00:00 | 00:00:00 | 00:00:00 | |
| OM5KV | 2026-08-31 05:24:11 | 48.69693 | 17.40685 | 71° | 42km/h | 4491m | 4.6m/s | -4.6°C | 0% | 0hPa | 0V | 00:00:00 | 00:00:00 | 00:00:00 | |
| OM5KV | 2026-08-31 05:24:07 | 48.69677 | 17.40623 | 70° | 44km/h | 4472m | 5.3m/s | -4.7°C | 0% | 0hPa | 0V | 00:00:00 | 00:00:00 | 00:00:00 | |
| OM5KV | 2026-08-31 05:24:05 | 48.69669 | 17.40591 | 74° | 47km/h | 4463m | 5.2m/s | -4.8°C | 0% | 0hPa | 0V | 00:00:00 | 00:00:00 | 00:00:00 | |
| OM5KV | 2026-08-31 05:24:02 | 48.69660 | 17.40540 | 76° | 42km/h | 4451m | 3.9m/s | -5.0°C | 0% | 0hPa | 0V | 00:00:00 | 00:00:00 | 00:00:00 | |
| OM5KV | 2026-08-31 05:23:56 | 48.69639 | 17.40457 | 68° | 37km/h | 4423m | 4.4m/s | -5.5°C | 0% | 0hPa | 0V | 00:00:00 | 00:00:00 | 00:00:00 | |
| OM5KV | 2026-08-31 05:23:52 | 48.69623 | 17.40410 | 58° | 29km/h | 4404m | 3.8m/s | -5.8°C | 0% | 0hPa | 0V | 00:00:00 | 00:00:00 | 00:00:00 | |
| OM5KV | 2026-08-31 05:23:51 | 48.69619 | 17.40401 | 58° | 29km/h | 4400m | 4.6m/s | -5.9°C | 0% | 0hPa | 0V | 00:00:00 | 00:00:00 | 00:00:00 | |
| ATIDSZ-14 | 2026-08-31 05:23:49 | 48.69610 | 17.40381 | 57° | 33km/h | 4392m | 4.2m/s | -6.0°C | 0% | 0hPa | 0V | 00:00:00 | 00:00:00 | 00:00:00 | |
| OM5KV | 2026-08-31 05:23:47 | 48.69601 | 17.40358 | 66° | 35km/h | 4383m | 3.6m/s | -5.9°C | 0% | 0hPa | 0V | 00:00:00 | 00:00:00 | 00:00:00 | |
| OM5KV | 2026-08-31 05:23:45 | 48.69595 | 17.40332 | 71° | 37km/h | 4375m | 5.4m/s | -5.9°C | 0% | 0hPa | 0V | 00:00:00 | 00:00:00 | 00:00:00 | |
| OM5KV | 2026-08-31 05:23:41 | 48.69580 | 17.40282 | 64° | 35km/h | 4358m | 4.4m/s | -5.8°C | 0% | 0hPa | 0V | 00:00:00 | 00:00:00 | 00:00:00 | |
| OE3JTB-15 | 2026-08-31 05:23:40 | 48.69575 | 17.40271 | 62° | 38km/h | 4347m | 4.9m/s | 0°C | 0% | 0hPa | 0V | 00:00:00 | 00:00:00 | 00:00:00 | |
| OM5KV | 2026-08-31 05:23:39 | 48.69571 | 17.40258 | 63° | 35km/h | 4347m | 4.9m/s | -5.7°C | 0% | 0hPa | 0V | 00:00:00 | 00:00:00 | 00:00:00 | |
| OM5KV | 2026-08-31 05:23:34 | 48.69547 | 17.40197 | 62° | 37km/h | 4325m | 4.8m/s | -5.5°C | 0% | 0hPa | 0V | 00:00:00 | 00:00:00 | 00:00:00 | |
| OM5KV | 2026-08-31 05:23:24 | 48.69503 | 17.40072 | 62° | 37km/h | 4280m | 4.3m/s | -5.2°C | 0% | 0hPa | 0V | 00:00:00 | 00:00:00 | 00:00:00 | |
| OM5KV | 2026-08-31 05:23:19 | 48.69479 | 17.40008 | 59° | 40km/h | 4258m | 3.4m/s | -4.9°C | 0% | 0hPa | 0V | 00:00:00 | 00:00:00 | 00:00:00 | |
| OM5KV | 2026-08-31 05:23:17 | 48.69468 | 17.39982 | 64° | 38km/h | 4250m | 5.0m/s | -4.9°C | 0% | 0hPa | 0V | 00:00:00 | 00:00:00 | 00:00:00 | |
| OM5KV | 2026-08-31 05:23:13 | 48.69450 | 17.39930 | 60° | 40km/h | 4232m | 4.8m/s | -4.8°C | 0% | 0hPa | 0V | 00:00:00 | 00:00:00 | 00:00:00 | |
| OE3JTB-15 | 2026-08-31 05:23:11 | 48.69440 | 17.39903 | 61° | 40km/h | 4216m | 3.1m/s | 0°C | 0% | 0hPa | 0V | 00:00:00 | 00:00:00 | 00:00:00 | |
| ATIDSZ-14 | 2026-08-31 05:23:08 | 48.69425 | 17.39860 | 63° | 42km/h | 4207m | 4.6m/s | -4.5°C | 0% | 0hPa | 0V | 00:00:00 | 00:00:00 | 00:00:00 | |
| OM5KV | 2026-08-31 05:23:07 | 48.69419 | 17.39846 | 62° | 40km/h | 4203m | 4.3m/s | -4.5°C | 0% | 0hPa | 0V | 00:00:00 | 00:00:00 | 00:00:00 | |
| OM5KV | 2026-08-31 05:23:05 | 48.69410 | 17.39819 | 65° | 38km/h | 4193m | 4.0m/s | -4.4°C | 0% | 0hPa | 0V | 00:00:00 | 00:00:00 | 00:00:00 | |
| OM5KV | 2026-08-31 05:23:01 | 48.69392 | 17.39765 | 64° | 38km/h | 4177m | 3.4m/s | -4.2°C | 0% | 0hPa | 0V | 00:00:00 | 00:00:00 | 00:00:00 | |
| OM5KV | 2026-08-31 05:22:58 | 48.69379 | 17.39725 | 65° | 37km/h | 4164m | 3.9m/s | -4.1°C | 0% | 0hPa | 0V | 00:00:00 | 00:00:00 | 00:00:00 | |
| OM5KV | 2026-08-31 05:22:49 | 48.69334 | 17.39608 | 66° | 40km/h | 4129m | 4.2m/s | -3.9°C | 0% | 0hPa | 0V | 00:00:00 | 00:00:00 | 00:00:00 | |
| ATIDSZ-14 | 2026-08-31 05:22:47 | 48.69325 | 17.39580 | 63° | 42km/h | 4120m | 3.6m/s | -3.8°C | 0% | 0hPa | 0V | 00:00:00 | 00:00:00 | 00:00:00 | |
| OM5KV | 2026-08-31 05:22:43 | 48.69306 | 17.39529 | 68° | 37km/h | 4102m | 4.3m/s | -3.7°C | 0% | 0hPa | 0V | 00:00:00 | 00:00:00 | 00:00:00 | |
| OE3JTB-15 | 2026-08-31 05:22:42 | 48.69302 | 17.39516 | 69° | 35km/h | 4094m | 5.0m/s | 0°C | 0% | 0hPa | 0V | 00:00:00 | 00:00:00 | 00:00:00 | |
| OM5KV | 2026-08-31 05:22:41 | 48.69299 | 17.39501 | 69° | 40km/h | 4094m | 5.1m/s | -3.6°C | 0% | 0hPa | 0V | 00:00:00 | 00:00:00 | 00:00:00 | |
| OM5KV | 2026-08-31 05:22:34 | 48.69265 | 17.39408 | 44° | 44km/h | 4060m | 4.8m/s | -3.5°C | 0% | 0hPa | 0V | 00:00:00 | 00:00:00 | 00:00:00 | |
| OM5KV | 2026-08-31 05:22:32 | 48.69251 | 17.39384 | 55° | 40km/h | 4052m | 4.8m/s | -3.5°C | 0% | 0hPa | 0V | 00:00:00 | 00:00:00 | 00:00:00 | |
| OM5KV | 2026-08-31 05:22:28 | 48.69239 | 17.39332 | 75° | 29km/h | 4030m | 5.7m/s | -3.5°C | 0% | 0hPa | 0V | 00:00:00 | 00:00:00 | 00:00:00 | |
| ATIDSZ-14 | 2026-08-31 05:22:27 | 48.69237 | 17.39322 | 69° | 29km/h | 4024m | 5.9m/s | -3.5°C | 0% | 0hPa | 0V | 00:00:00 | 00:00:00 | 00:00:00 | |
| OM5KV | 2026-08-31 05:22:21 | 48.69216 | 17.39267 | 63° | 29km/h | 3997m | 4.0m/s | -3.2°C | 0% | 0hPa | 0V | 00:00:00 | 00:00:00 | 00:00:00 | |
| OM5KV | 2026-08-31 05:22:16 | 48.69199 | 17.39217 | 61° | 29km/h | 3978m | 6.2m/s | -3.0°C | 0% | 0hPa | 0V | 00:00:00 | 00:00:00 | 00:00:00 | |
| OM5KV | 2026-08-31 05:22:15 | 48.69195 | 17.39208 | 52° | 27km/h | 3973m | 3.9m/s | -3.0°C | 0% | 0hPa | 0V | 00:00:00 | 00:00:00 | 00:00:00 | |
| OE3JTB-15 | 2026-08-31 05:22:13 | 48.69187 | 17.39192 | 56° | 27km/h | 3957m | 5.4m/s | 0°C | 0% | 0hPa | 0V | 00:00:00 | 00:00:00 | 00:00:00 | |
| OM5KV | 2026-08-31 05:22:10 | 48.69176 | 17.39166 | 61° | 27km/h | 3949m | 3.0m/s | -2.8°C | 0% | 0hPa | 0V | 00:00:00 | 00:00:00 | 00:00:00 | |
| OM5KV | 2026-08-31 05:22:09 | 48.69173 | 17.39157 | 66° | 26km/h | 3945m | 5.2m/s | -2.7°C | 0% | 0hPa | 0V | 00:00:00 | 00:00:00 | 00:00:00 | |
| ATIDSZ-14 | 2026-08-31 05:22:06 | 48.69166 | 17.39132 | 63° | 26km/h | 3932m | 3.7m/s | -2.6°C | 0% | 0hPa | 0V | 00:00:00 | 00:00:00 | 00:00:00 | |
| OM5KV | 2026-08-31 05:21:59 | 48.69143 | 17.39065 | 61° | 26km/h | 3907m | 3.4m/s | -2.4°C | 0% | 0hPa | 0V | 00:00:00 | 00:00:00 | 00:00:00 | |
| OM5KV | 2026-08-31 05:21:54 | 48.69123 | 17.39014 | 65° | 27km/h | 3885m | 3.9m/s | -2.2°C | 0% | 0hPa | 0V | 00:00:00 | 00:00:00 | 00:00:00 | |
| OM5KV | 2026-08-31 05:21:51 | 48.69117 | 17.38995 | 58° | 29km/h | 3877m | 2.4m/s | -2.1°C | 0% | 0hPa | 0V | 00:00:00 | 00:00:00 | 00:00:00 | |
| ATIDSZ-14 | 2026-08-31 05:21:46 | 48.69100 | 17.38951 | 61° | 26km/h | 3860m | 4.6m/s | -1.9°C | 0% | 0hPa | 0V | 00:00:00 | 00:00:00 | 00:00:00 | |
| OE3JTB-15 | 2026-08-31 05:21:44 | 48.69092 | 17.38933 | 59° | 27km/h | 3849m | 4.1m/s | 0°C | 0% | 0hPa | 0V | 00:00:00 | 00:00:00 | 00:00:00 | |
| OM5KV | 2026-08-31 05:21:40 | 48.69076 | 17.38895 | 59° | 29km/h | 3838m | 4.2m/s | -1.7°C | 0% | 0hPa | 0V | 00:00:00 | 00:00:00 | 00:00:00 | |
| OM5KV | 2026-08-31 05:21:34 | 48.69053 | 17.38844 | 60° | 27km/h | 3817m | 4.4m/s | -1.5°C | 0% | 0hPa | 0V | 00:00:00 | 00:00:00 | 00:00:00 | |
| ATIDSZ-14 | 2026-08-31 05:21:25 | 48.69019 | 17.38766 | 51° | 29km/h | 3783m | 4.4m/s | -1.3°C | 0% | 0hPa | 0V | 00:00:00 | 00:00:00 | 00:00:00 | |
| OE3JTB-15 | 2026-08-31 05:21:15 | 48.68983 | 17.38681 | 52° | 29km/h | 3742m | 5.0m/s | 0°C | 0% | 0hPa | 0V | 00:00:00 | 00:00:00 | 00:00:00 | |
| ATIDSZ-14 | 2026-08-31 05:21:05 | 48.68933 | 17.38591 | 52° | 29km/h | 3712m | 3.4m/s | -0.6°C | 0% | 0hPa | 0V | 00:00:00 | 00:00:00 | 00:00:00 | |
| OE3JTB-15 | 2026-08-31 05:20:46 | 48.68839 | 17.38436 | 56° | 31km/h | 3627m | 5.2m/s | 0°C | 0% | 0hPa | 0V | 00:00:00 | 00:00:00 | 00:00:00 | |
| ATIDSZ-14 | 2026-08-31 05:20:44 | 48.68831 | 17.38416 | 64° | 29km/h | 3623m | 2.9m/s | 0.3°C | 0% | 0hPa | 0V | 00:00:00 | 00:00:00 | 00:00:00 | |
| ATIDSZ-14 | 2026-08-31 05:20:23 | 48.68723 | 17.38232 | 50° | 29km/h | 3534m | 3.3m/s | 1.1°C | 0% | 0hPa | 0V | 00:00:00 | 00:00:00 | 00:00:00 | |
| OE3JTB-15 | 2026-08-31 05:20:17 | 48.68691 | 17.38182 | 49° | 33km/h | 3503m | 5.4m/s | 0°C | 0% | 0hPa | 0V | 00:00:00 | 00:00:00 | 00:00:00 | |
| ATIDSZ-14 | 2026-08-31 05:20:03 | 48.68605 | 17.38060 | 45° | 33km/h | 3452m | 3.1m/s | 1.9°C | 0% | 0hPa | 0V | 00:00:00 | 00:00:00 | 00:00:00 | |
| OE3JTB-15 | 2026-08-31 05:19:48 | 48.68513 | 17.37938 | 42° | 33km/h | 3393m | 4.4m/s | 0°C | 0% | 0hPa | 0V | 00:00:00 | 00:00:00 | 00:00:00 | |
| ATIDSZ-14 | 2026-08-31 05:19:42 | 48.68476 | 17.37886 | 43° | 35km/h | 3374m | 3.4m/s | 2.6°C | 0% | 0hPa | 0V | 00:00:00 | 00:00:00 | 00:00:00 | |
| ATIDSZ-14 | 2026-08-31 05:19:22 | 48.68347 | 17.37723 | 38° | 33km/h | 3296m | 4.2m/s | 3.2°C | 0% | 0hPa | 0V | 00:00:00 | 00:00:00 | 00:00:00 | |
| OE3JTB-15 | 2026-08-31 05:19:19 | 48.68329 | 17.37699 | 41° | 29km/h | 3279m | 5.1m/s | 0°C | 0% | 0hPa | 0V | 00:00:00 | 00:00:00 | 00:00:00 | |
| ATIDSZ-14 | 2026-08-31 05:19:01 | 48.68233 | 17.37561 | 46° | 29km/h | 3208m | 2.8m/s | 4.0°C | 0% | 0hPa | 0V | 00:00:00 | 00:00:00 | 00:00:00 | |
| OE3JTB-15 | 2026-08-31 05:18:50 | 48.68174 | 17.37480 | 47° | 26km/h | 3165m | 4.3m/s | 0°C | 0% | 0hPa | 0V | 00:00:00 | 00:00:00 | 00:00:00 | |
| ATIDSZ-14 | 2026-08-31 05:18:41 | 48.68133 | 17.37418 | 39° | 24km/h | 3134m | 3.2m/s | 4.5°C | 0% | 0hPa | 0V | 00:00:00 | 00:00:00 | 00:00:00 | |
| OE3JTB-15 | 2026-08-31 05:18:21 | 48.68030 | 17.37299 | 40° | 26km/h | 3053m | 4.5m/s | 0°C | 0% | 0hPa | 0V | 00:00:00 | 00:00:00 | 00:00:00 | |
| ATIDSZ-14 | 2026-08-31 05:18:20 | 48.68025 | 17.37293 | 42° | 24km/h | 3053m | 4.5m/s | 5.0°C | 0% | 0hPa | 0V | 00:00:00 | 00:00:00 | 00:00:00 | |
| OE3OSB-13 | 2026-08-31 05:18:15 | 48.67986 | 17.37255 | 23° | 26km/h | 3025m | 4.0m/s | 5.6°C | -1.0% | -1.0hPa | 0V | 00:00:00 | 00:00:00 | 00:00:00 | |
| ATIDSZ-14 | 2026-08-31 05:18:00 | 48.67914 | 17.37207 | 17° | 27km/h | 2962m | 6.0m/s | 5.5°C | 0% | 0hPa | 0V | 00:00:00 | 00:00:00 | 00:00:00 | |
| OE3JTB-15 | 2026-08-31 05:17:52 | 48.67859 | 17.37176 | 14° | 26km/h | 2918m | 4.6m/s | 0°C | 0% | 0hPa | 0V | 00:00:00 | 00:00:00 | 00:00:00 | |
| ATIDSZ-14 | 2026-08-31 05:17:39 | 48.67786 | 17.37145 | 3° | 27km/h | 2861m | 4.0m/s | 6.4°C | 0% | 0hPa | 0V | 00:00:00 | 00:00:00 | 00:00:00 | |
| OE3JTB-15 | 2026-08-31 05:17:23 | 48.67679 | 17.37125 | 14° | 26km/h | 2787m | 5.2m/s | 0°C | 0% | 0hPa | 0V | 00:00:00 | 00:00:00 | 00:00:00 | |
| ATIDSZ-14 | 2026-08-31 05:17:19 | 48.67659 | 17.37120 | 2° | 20km/h | 2772m | 5.1m/s | 7.0°C | 0% | 0hPa | 0V | 00:00:00 | 00:00:00 | 00:00:00 | |
| OE3OSB-13 | 2026-08-31 05:17:13 | 48.67601 | 17.37118 | 3° | 24km/h | 2733m | 3.8m/s | 7.9°C | -1.0% | -1.0hPa | 0V | 00:00:00 | 00:00:00 | 00:00:00 | |
| ATIDSZ-14 | 2026-08-31 05:16:58 | 48.67519 | 17.37112 | 359° | 27km/h | 2686m | 3.0m/s | 7.8°C | 0% | 0hPa | 0V | 00:00:00 | 00:00:00 | 00:00:00 | |
| OE3JTB-15 | 2026-08-31 05:16:54 | 48.67490 | 17.37111 | 359° | 29km/h | 2666m | 3.5m/s | 0°C | 0% | 0hPa | 0V | 00:00:00 | 00:00:00 | 00:00:00 | |
| ATIDSZ-14 | 2026-08-31 05:16:37 | 48.67363 | 17.37112 | 358° | 29km/h | 2604m | 3.0m/s | 8.5°C | 0% | 0hPa | 0V | 00:00:00 | 00:00:00 | 00:00:00 | |
| OE3JTB-15 | 2026-08-31 05:16:25 | 48.67271 | 17.37110 | 1° | 31km/h | 2557m | 2.9m/s | 0°C | 0% | 0hPa | 0V | 00:00:00 | 00:00:00 | 00:00:00 | |
| ATIDSZ-14 | 2026-08-31 05:16:16 | 48.67201 | 17.37106 | 1° | 29km/h | 2528m | 3.1m/s | 9.3°C | 0% | 0hPa | 0V | 00:00:00 | 00:00:00 | 00:00:00 | |
| OE3OSB-13 | 2026-08-31 05:16:10 | 48.67149 | 17.37108 | 3° | 33km/h | 2501m | 3.0m/s | 10.0°C | -1.0% | -1.0hPa | 0V | 00:00:00 | 00:00:00 | 00:00:00 | |
| ATIDSZ-14 | 2026-08-31 05:15:56 | 48.67037 | 17.37106 | 361° | 33km/h | 2448m | 4.8m/s | 10.0°C | 0% | 0hPa | 0V | 00:00:00 | 00:00:00 | 00:00:00 | |
| ATIDSZ-14 | 2026-08-31 05:15:34 | 48.66863 | 17.37125 | 358° | 33km/h | 2373m | 3.0m/s | 10.7°C | 0% | 0hPa | 0V | 00:00:00 | 00:00:00 | 00:00:00 | |
| OE3JTB-15 | 2026-08-31 05:15:27 | 48.66804 | 17.37130 | 360° | 38km/h | 2338m | 4.9m/s | 0°C | 0% | 0hPa | 0V | 00:00:00 | 00:00:00 | 00:00:00 | |
| ATIDSZ-14 | 2026-08-31 05:15:14 | 48.66685 | 17.37136 | 1° | 40km/h | 2289m | 5.2m/s | 11.3°C | 0% | 0hPa | 0V | 00:00:00 | 00:00:00 | 00:00:00 | |
| OE3OSB-13 | 2026-08-31 05:15:08 | 48.66618 | 17.37137 | 355° | 37km/h | 2259m | 5.0m/s | 12.0°C | -1.0% | -1.0hPa | 0V | 00:00:00 | 00:00:00 | 00:00:00 | |
| OE3JTB-15 | 2026-08-31 05:14:58 | 48.66528 | 17.37140 | 356° | 40km/h | 2220m | 4.1m/s | 0°C | 0% | 0hPa | 0V | 00:00:00 | 00:00:00 | 00:00:00 | |
| ATIDSZ-14 | 2026-08-31 05:14:53 | 48.66480 | 17.37144 | 2° | 38km/h | 2205m | 3.3m/s | 12.0°C | 0% | 0hPa | 0V | 00:00:00 | 00:00:00 | 00:00:00 | |
| ATIDSZ-14 | 2026-08-31 05:14:32 | 48.66262 | 17.37164 | 359° | 46km/h | 2121m | 6.2m/s | 12.4°C | 0% | 0hPa | 0V | 00:00:00 | 00:00:00 | 00:00:00 | |
| OE3JTB-15 | 2026-08-31 05:14:29 | 48.66228 | 17.37160 | 6° | 42km/h | 2103m | 3.7m/s | 0°C | 0% | 0hPa | 0V | 00:00:00 | 00:00:00 | 00:00:00 | |
| ATIDSZ-14 | 2026-08-31 05:14:09 | 48.66013 | 17.37138 | 8° | 44km/h | 2030m | 3.7m/s | 12.9°C | 0% | 0hPa | 0V | 00:00:00 | 00:00:00 | 00:00:00 | |
| OE3OSB-13 | 2026-08-31 05:14:06 | 48.65969 | 17.37128 | 10° | 42km/h | 2014m | 4.1m/s | 13.4°C | -1.0% | -1.0hPa | 0V | 00:00:00 | 00:00:00 | 00:00:00 | |
| OE3JTB-15 | 2026-08-31 05:14:00 | 48.65918 | 17.37108 | 16° | 40km/h | 1990m | 3.4m/s | 0°C | 0% | 0hPa | 0V | 00:00:00 | 00:00:00 | 00:00:00 | |
| ATIDSZ-14 | 2026-08-31 05:13:49 | 48.65796 | 17.37064 | 16° | 40km/h | 1948m | 3.0m/s | 13.6°C | 0% | 0hPa | 0V | 00:00:00 | 00:00:00 | 00:00:00 | |
| OE3JTB-15 | 2026-08-31 05:13:31 | 48.65629 | 17.36991 | 15° | 37km/h | 1880m | 4.0m/s | 0°C | 0% | 0hPa | 0V | 00:00:00 | 00:00:00 | 00:00:00 | |
| ATIDSZ-14 | 2026-08-31 05:13:28 | 48.65600 | 17.36978 | 20° | 38km/h | 1872m | 3.2m/s | 14.2°C | 0% | 0hPa | 0V | 00:00:00 | 00:00:00 | 00:00:00 | |
| ATIDSZ-14 | 2026-08-31 05:13:07 | 48.65417 | 17.36884 | 23° | 42km/h | 1793m | 4.3m/s | 14.5°C | 0% | 0hPa | 0V | 00:00:00 | 00:00:00 | 00:00:00 | |
| OE3JTB-15 | 2026-08-31 05:13:02 | 48.65375 | 17.36859 | 15° | 37km/h | 1769m | 3.5m/s | 0°C | 0% | 0hPa | 0V | 00:00:00 | 00:00:00 | 00:00:00 | |
| ATIDSZ-14 | 2026-08-31 05:12:46 | 48.65248 | 17.36782 | 30° | 35km/h | 1709m | 4.6m/s | 14.7°C | 0% | 0hPa | 0V | 00:00:00 | 00:00:00 | 00:00:00 | |
| OE3JTB-15 | 2026-08-31 05:12:33 | 48.65128 | 17.36704 | 24° | 38km/h | 1640m | 3.6m/s | 0°C | 0% | 0hPa | 0V | 00:00:00 | 00:00:00 | 00:00:00 | |
| OE3JTB-15 | 2026-08-31 05:12:04 | 48.64866 | 17.36582 | 14° | 38km/h | 1504m | 5.0m/s | 0°C | 0% | 0hPa | 0V | 00:00:00 | 00:00:00 | 00:00:00 | |
| OE3JTB-15 | 2026-08-31 05:11:35 | 48.64610 | 17.36424 | 34° | 37km/h | 1369m | 2.6m/s | 0°C | 0% | 0hPa | 0V | 00:00:00 | 00:00:00 | 00:00:00 | |
| OE3JTB-15 | 2026-08-31 05:11:06 | 48.64375 | 17.36227 | 32° | 35km/h | 1265m | 2.6m/s | 0°C | 0% | 0hPa | 0V | 00:00:00 | 00:00:00 | 00:00:00 | |
| OE3JTB-15 | 2026-08-31 05:10:37 | 48.64155 | 17.36032 | 30° | 37km/h | 1162m | 3.0m/s | 0°C | 0% | 0hPa | 0V | 00:00:00 | 00:00:00 | 00:00:00 |